<?xml version="1.0" encoding="UTF-8" standalone="no" ?>
<gpx xmlns="http://www.topografix.com/GPX/1/1" xmlns:xsi="http://www.w3.org/2001/XMLSchema-instance" xsi:schemaLocation="http://www.topografix.com/GPX/1/1 http://www.topografix.com/GPX/1/1/gpx.xsd" version="1.1" creator="VisuGPX - https://www.visugpx.com">
  <metadata>
    <name>19 octobre 2014. Etang Baudet </name>
    <desc><![CDATA[Rendez-vous 9h00 au pré pour le petit déjeuné... avec Séléna et son cheval Hugo
Arrêt à la Table du Roi pour \\\"l\\\'apéro\\\" ^^ et on repart pour l\\\'étang, ou les chevaux ont pu se baigner un peu !
Sur le retour pas mal de chemins assez boueux, et avec de belles ornières...Heureusement on a du un super soleil !]]></desc>
  </metadata>
  <trk>
    <name><![CDATA[Untitled]]></name>
    <trkseg>
      <trkpt lat="48.707" lon="1.75679">
        <ele>174.80000305176</ele>
        <time>2014-10-19T09:06:57.000Z</time>
      </trkpt>
      <trkpt lat="48.707" lon="1.75684">
        <ele>174.60000610352</ele>
        <time>2014-10-19T09:07:01.000Z</time>
      </trkpt>
      <trkpt lat="48.70702" lon="1.75692">
        <ele>174.60000610352</ele>
        <time>2014-10-19T09:07:05.000Z</time>
      </trkpt>
      <trkpt lat="48.70703" lon="1.75696">
        <ele>174.39999389648</ele>
        <time>2014-10-19T09:07:08.000Z</time>
      </trkpt>
      <trkpt lat="48.70702" lon="1.75698">
        <ele>174.39999389648</ele>
        <time>2014-10-19T09:07:11.000Z</time>
      </trkpt>
      <trkpt lat="48.70705" lon="1.757">
        <ele>174.39999389648</ele>
        <time>2014-10-19T09:07:14.000Z</time>
      </trkpt>
      <trkpt lat="48.70707" lon="1.75704">
        <ele>174.39999389648</ele>
        <time>2014-10-19T09:07:18.000Z</time>
      </trkpt>
      <trkpt lat="48.70704" lon="1.75706">
        <ele>174.39999389648</ele>
        <time>2014-10-19T09:07:25.000Z</time>
      </trkpt>
      <trkpt lat="48.70702" lon="1.757">
        <ele>174.39999389648</ele>
        <time>2014-10-19T09:07:41.000Z</time>
      </trkpt>
      <trkpt lat="48.70703" lon="1.757">
        <ele>174.39999389648</ele>
        <time>2014-10-19T09:07:44.000Z</time>
      </trkpt>
      <trkpt lat="48.70711" lon="1.757">
        <ele>174.39999389648</ele>
        <time>2014-10-19T09:07:48.000Z</time>
      </trkpt>
      <trkpt lat="48.70704" lon="1.75699">
        <ele>174.39999389648</ele>
        <time>2014-10-19T09:07:56.000Z</time>
      </trkpt>
      <trkpt lat="48.70702" lon="1.757">
        <ele>174.39999389648</ele>
        <time>2014-10-19T09:08:04.000Z</time>
      </trkpt>
      <trkpt lat="48.70701" lon="1.757">
        <ele>174.39999389648</ele>
        <time>2014-10-19T09:08:06.000Z</time>
      </trkpt>
      <trkpt lat="48.70696" lon="1.75698">
        <ele>174.39999389648</ele>
        <time>2014-10-19T09:08:11.000Z</time>
      </trkpt>
      <trkpt lat="48.70686" lon="1.75688">
        <ele>174.60000610352</ele>
        <time>2014-10-19T09:08:23.000Z</time>
      </trkpt>
      <trkpt lat="48.70685" lon="1.75686">
        <ele>174.80000305176</ele>
        <time>2014-10-19T09:08:25.000Z</time>
      </trkpt>
      <trkpt lat="48.70652" lon="1.7567">
        <ele>179</ele>
        <time>2014-10-19T09:08:27.000Z</time>
      </trkpt>
      <trkpt lat="48.70646" lon="1.75676">
        <ele>179.60000610352</ele>
        <time>2014-10-19T09:08:39.000Z</time>
      </trkpt>
      <trkpt lat="48.70646" lon="1.75676">
        <ele>179.60000610352</ele>
        <time>2014-10-19T09:08:40.000Z</time>
      </trkpt>
      <trkpt lat="48.70645" lon="1.7568">
        <ele>179.80000305176</ele>
        <time>2014-10-19T09:09:39.000Z</time>
      </trkpt>
      <trkpt lat="48.70647" lon="1.75685">
        <ele>179.39999389648</ele>
        <time>2014-10-19T09:09:41.000Z</time>
      </trkpt>
      <trkpt lat="48.70647" lon="1.75692">
        <ele>179.39999389648</ele>
        <time>2014-10-19T09:09:45.000Z</time>
      </trkpt>
      <trkpt lat="48.70646" lon="1.75698">
        <ele>179.39999389648</ele>
        <time>2014-10-19T09:09:48.000Z</time>
      </trkpt>
      <trkpt lat="48.7064" lon="1.75708">
        <ele>178.80000305176</ele>
        <time>2014-10-19T09:09:55.000Z</time>
      </trkpt>
      <trkpt lat="48.70638" lon="1.75715">
        <ele>178.60000610352</ele>
        <time>2014-10-19T09:10:00.000Z</time>
      </trkpt>
      <trkpt lat="48.70635" lon="1.75722">
        <ele>178.19999694824</ele>
        <time>2014-10-19T09:10:05.000Z</time>
      </trkpt>
      <trkpt lat="48.70634" lon="1.75722">
        <ele>178.19999694824</ele>
        <time>2014-10-19T09:10:06.000Z</time>
      </trkpt>
      <trkpt lat="48.70633" lon="1.75726">
        <ele>178</ele>
        <time>2014-10-19T09:10:16.000Z</time>
      </trkpt>
      <trkpt lat="48.70631" lon="1.75732">
        <ele>177.80000305176</ele>
        <time>2014-10-19T09:10:18.000Z</time>
      </trkpt>
      <trkpt lat="48.70624" lon="1.75737">
        <ele>177.80000305176</ele>
        <time>2014-10-19T09:10:24.000Z</time>
      </trkpt>
      <trkpt lat="48.70616" lon="1.75747">
        <ele>178</ele>
        <time>2014-10-19T09:10:31.000Z</time>
      </trkpt>
      <trkpt lat="48.70612" lon="1.75754">
        <ele>178</ele>
        <time>2014-10-19T09:10:35.000Z</time>
      </trkpt>
      <trkpt lat="48.70603" lon="1.7576">
        <ele>178</ele>
        <time>2014-10-19T09:10:41.000Z</time>
      </trkpt>
      <trkpt lat="48.70601" lon="1.75766">
        <ele>177.80000305176</ele>
        <time>2014-10-19T09:10:45.000Z</time>
      </trkpt>
      <trkpt lat="48.70598" lon="1.75773">
        <ele>177.60000610352</ele>
        <time>2014-10-19T09:10:49.000Z</time>
      </trkpt>
      <trkpt lat="48.70596" lon="1.75782">
        <ele>177.39999389648</ele>
        <time>2014-10-19T09:10:54.000Z</time>
      </trkpt>
      <trkpt lat="48.70592" lon="1.75789">
        <ele>177.39999389648</ele>
        <time>2014-10-19T09:10:58.000Z</time>
      </trkpt>
      <trkpt lat="48.70587" lon="1.75799">
        <ele>177.19999694824</ele>
        <time>2014-10-19T09:11:05.000Z</time>
      </trkpt>
      <trkpt lat="48.70583" lon="1.75805">
        <ele>177.39999389648</ele>
        <time>2014-10-19T09:11:09.000Z</time>
      </trkpt>
      <trkpt lat="48.70579" lon="1.75816">
        <ele>177.60000610352</ele>
        <time>2014-10-19T09:11:15.000Z</time>
      </trkpt>
      <trkpt lat="48.70576" lon="1.75821">
        <ele>178</ele>
        <time>2014-10-19T09:11:18.000Z</time>
      </trkpt>
      <trkpt lat="48.7057" lon="1.7583">
        <ele>178.80000305176</ele>
        <time>2014-10-19T09:11:23.000Z</time>
      </trkpt>
      <trkpt lat="48.70566" lon="1.75836">
        <ele>179.19999694824</ele>
        <time>2014-10-19T09:11:27.000Z</time>
      </trkpt>
      <trkpt lat="48.70558" lon="1.75844">
        <ele>180.19999694824</ele>
        <time>2014-10-19T09:11:33.000Z</time>
      </trkpt>
      <trkpt lat="48.70555" lon="1.75851">
        <ele>180.60000610352</ele>
        <time>2014-10-19T09:11:37.000Z</time>
      </trkpt>
      <trkpt lat="48.7055" lon="1.75859">
        <ele>181</ele>
        <time>2014-10-19T09:11:42.000Z</time>
      </trkpt>
      <trkpt lat="48.70544" lon="1.75869">
        <ele>181.19999694824</ele>
        <time>2014-10-19T09:11:48.000Z</time>
      </trkpt>
      <trkpt lat="48.70541" lon="1.75874">
        <ele>181.19999694824</ele>
        <time>2014-10-19T09:11:51.000Z</time>
      </trkpt>
      <trkpt lat="48.70543" lon="1.75882">
        <ele>181</ele>
        <time>2014-10-19T09:11:56.000Z</time>
      </trkpt>
      <trkpt lat="48.70543" lon="1.75883">
        <ele>180.80000305176</ele>
        <time>2014-10-19T09:11:57.000Z</time>
      </trkpt>
      <trkpt lat="48.70541" lon="1.75885">
        <ele>181</ele>
        <time>2014-10-19T09:11:59.000Z</time>
      </trkpt>
      <trkpt lat="48.70535" lon="1.75899">
        <ele>181</ele>
        <time>2014-10-19T09:12:06.000Z</time>
      </trkpt>
      <trkpt lat="48.70533" lon="1.75904">
        <ele>181</ele>
        <time>2014-10-19T09:12:08.000Z</time>
      </trkpt>
      <trkpt lat="48.7053" lon="1.75909">
        <ele>181.19999694824</ele>
        <time>2014-10-19T09:12:11.000Z</time>
      </trkpt>
      <trkpt lat="48.70531" lon="1.7592">
        <ele>180.60000610352</ele>
        <time>2014-10-19T09:12:17.000Z</time>
      </trkpt>
      <trkpt lat="48.70533" lon="1.75928">
        <ele>180</ele>
        <time>2014-10-19T09:12:22.000Z</time>
      </trkpt>
      <trkpt lat="48.70534" lon="1.75933">
        <ele>179.80000305176</ele>
        <time>2014-10-19T09:12:26.000Z</time>
      </trkpt>
      <trkpt lat="48.70524" lon="1.75945">
        <ele>179.80000305176</ele>
        <time>2014-10-19T09:12:33.000Z</time>
      </trkpt>
      <trkpt lat="48.70521" lon="1.75949">
        <ele>179.80000305176</ele>
        <time>2014-10-19T09:12:35.000Z</time>
      </trkpt>
      <trkpt lat="48.70513" lon="1.75959">
        <ele>179.39999389648</ele>
        <time>2014-10-19T09:12:41.000Z</time>
      </trkpt>
      <trkpt lat="48.70503" lon="1.75966">
        <ele>179</ele>
        <time>2014-10-19T09:12:47.000Z</time>
      </trkpt>
      <trkpt lat="48.70497" lon="1.75972">
        <ele>179</ele>
        <time>2014-10-19T09:12:53.000Z</time>
      </trkpt>
      <trkpt lat="48.70494" lon="1.75978">
        <ele>179</ele>
        <time>2014-10-19T09:12:58.000Z</time>
      </trkpt>
      <trkpt lat="48.70492" lon="1.75984">
        <ele>179</ele>
        <time>2014-10-19T09:13:02.000Z</time>
      </trkpt>
      <trkpt lat="48.70491" lon="1.75989">
        <ele>179</ele>
        <time>2014-10-19T09:13:07.000Z</time>
      </trkpt>
      <trkpt lat="48.70483" lon="1.75999">
        <ele>178.60000610352</ele>
        <time>2014-10-19T09:13:13.000Z</time>
      </trkpt>
      <trkpt lat="48.70483" lon="1.76">
        <ele>178.60000610352</ele>
        <time>2014-10-19T09:13:14.000Z</time>
      </trkpt>
      <trkpt lat="48.70484" lon="1.76008">
        <ele>178</ele>
        <time>2014-10-19T09:13:18.000Z</time>
      </trkpt>
      <trkpt lat="48.70479" lon="1.76012">
        <ele>178</ele>
        <time>2014-10-19T09:13:21.000Z</time>
      </trkpt>
      <trkpt lat="48.70475" lon="1.7602">
        <ele>177.60000610352</ele>
        <time>2014-10-19T09:13:26.000Z</time>
      </trkpt>
      <trkpt lat="48.70474" lon="1.76027">
        <ele>177.39999389648</ele>
        <time>2014-10-19T09:13:30.000Z</time>
      </trkpt>
      <trkpt lat="48.70474" lon="1.7603">
        <ele>177.19999694824</ele>
        <time>2014-10-19T09:13:31.000Z</time>
      </trkpt>
      <trkpt lat="48.70477" lon="1.76034">
        <ele>176.80000305176</ele>
        <time>2014-10-19T09:13:35.000Z</time>
      </trkpt>
      <trkpt lat="48.70477" lon="1.76038">
        <ele>176.60000610352</ele>
        <time>2014-10-19T09:13:37.000Z</time>
      </trkpt>
      <trkpt lat="48.70478" lon="1.7604">
        <ele>176.39999389648</ele>
        <time>2014-10-19T09:13:39.000Z</time>
      </trkpt>
      <trkpt lat="48.70478" lon="1.76048">
        <ele>176.19999694824</ele>
        <time>2014-10-19T09:13:43.000Z</time>
      </trkpt>
      <trkpt lat="48.70477" lon="1.76055">
        <ele>175.80000305176</ele>
        <time>2014-10-19T09:13:48.000Z</time>
      </trkpt>
      <trkpt lat="48.7047" lon="1.76064">
        <ele>175.80000305176</ele>
        <time>2014-10-19T09:13:53.000Z</time>
      </trkpt>
      <trkpt lat="48.70467" lon="1.76071">
        <ele>175.60000610352</ele>
        <time>2014-10-19T09:13:57.000Z</time>
      </trkpt>
      <trkpt lat="48.7046" lon="1.76078">
        <ele>175.80000305176</ele>
        <time>2014-10-19T09:14:02.000Z</time>
      </trkpt>
      <trkpt lat="48.70462" lon="1.76087">
        <ele>175.60000610352</ele>
        <time>2014-10-19T09:14:06.000Z</time>
      </trkpt>
      <trkpt lat="48.7046" lon="1.76092">
        <ele>175.60000610352</ele>
        <time>2014-10-19T09:14:08.000Z</time>
      </trkpt>
      <trkpt lat="48.70457" lon="1.76104">
        <ele>175.60000610352</ele>
        <time>2014-10-19T09:14:13.000Z</time>
      </trkpt>
      <trkpt lat="48.70455" lon="1.76116">
        <ele>175.60000610352</ele>
        <time>2014-10-19T09:14:19.000Z</time>
      </trkpt>
      <trkpt lat="48.70455" lon="1.76129">
        <ele>175.39999389648</ele>
        <time>2014-10-19T09:14:24.000Z</time>
      </trkpt>
      <trkpt lat="48.70454" lon="1.76138">
        <ele>175.39999389648</ele>
        <time>2014-10-19T09:14:28.000Z</time>
      </trkpt>
      <trkpt lat="48.70451" lon="1.7615">
        <ele>175.39999389648</ele>
        <time>2014-10-19T09:14:34.000Z</time>
      </trkpt>
      <trkpt lat="48.70449" lon="1.76158">
        <ele>175.39999389648</ele>
        <time>2014-10-19T09:14:39.000Z</time>
      </trkpt>
      <trkpt lat="48.70454" lon="1.76168">
        <ele>174.80000305176</ele>
        <time>2014-10-19T09:14:44.000Z</time>
      </trkpt>
      <trkpt lat="48.70455" lon="1.762">
        <ele>173.80000305176</ele>
        <time>2014-10-19T09:15:03.000Z</time>
      </trkpt>
      <trkpt lat="48.70456" lon="1.76204">
        <ele>173.60000610352</ele>
        <time>2014-10-19T09:15:05.000Z</time>
      </trkpt>
      <trkpt lat="48.7046" lon="1.76214">
        <ele>173.19999694824</ele>
        <time>2014-10-19T09:15:10.000Z</time>
      </trkpt>
      <trkpt lat="48.70472" lon="1.76226">
        <ele>172.19999694824</ele>
        <time>2014-10-19T09:15:17.000Z</time>
      </trkpt>
      <trkpt lat="48.70472" lon="1.76233">
        <ele>172</ele>
        <time>2014-10-19T09:15:21.000Z</time>
      </trkpt>
      <trkpt lat="48.70474" lon="1.7624">
        <ele>171.80000305176</ele>
        <time>2014-10-19T09:15:25.000Z</time>
      </trkpt>
      <trkpt lat="48.70469" lon="1.76251">
        <ele>172.39999389648</ele>
        <time>2014-10-19T09:15:30.000Z</time>
      </trkpt>
      <trkpt lat="48.70468" lon="1.7626">
        <ele>172.60000610352</ele>
        <time>2014-10-19T09:15:35.000Z</time>
      </trkpt>
      <trkpt lat="48.70463" lon="1.76262">
        <ele>173</ele>
        <time>2014-10-19T09:15:40.000Z</time>
      </trkpt>
      <trkpt lat="48.70452" lon="1.76268">
        <ele>173.39999389648</ele>
        <time>2014-10-19T09:15:45.000Z</time>
      </trkpt>
      <trkpt lat="48.70445" lon="1.76273">
        <ele>173.80000305176</ele>
        <time>2014-10-19T09:15:50.000Z</time>
      </trkpt>
      <trkpt lat="48.70446" lon="1.76282">
        <ele>173.60000610352</ele>
        <time>2014-10-19T09:15:54.000Z</time>
      </trkpt>
      <trkpt lat="48.70443" lon="1.76289">
        <ele>173.80000305176</ele>
        <time>2014-10-19T09:15:58.000Z</time>
      </trkpt>
      <trkpt lat="48.7044" lon="1.76296">
        <ele>173.80000305176</ele>
        <time>2014-10-19T09:16:02.000Z</time>
      </trkpt>
      <trkpt lat="48.7044" lon="1.76298">
        <ele>173.80000305176</ele>
        <time>2014-10-19T09:16:03.000Z</time>
      </trkpt>
      <trkpt lat="48.70442" lon="1.76312">
        <ele>173.80000305176</ele>
        <time>2014-10-19T09:16:08.000Z</time>
      </trkpt>
      <trkpt lat="48.70446" lon="1.76326">
        <ele>174</ele>
        <time>2014-10-19T09:16:14.000Z</time>
      </trkpt>
      <trkpt lat="48.70454" lon="1.76332">
        <ele>174</ele>
        <time>2014-10-19T09:16:21.000Z</time>
      </trkpt>
      <trkpt lat="48.70455" lon="1.76333">
        <ele>174</ele>
        <time>2014-10-19T09:16:22.000Z</time>
      </trkpt>
      <trkpt lat="48.70452" lon="1.76342">
        <ele>174.39999389648</ele>
        <time>2014-10-19T09:16:28.000Z</time>
      </trkpt>
      <trkpt lat="48.70454" lon="1.76355">
        <ele>175</ele>
        <time>2014-10-19T09:16:34.000Z</time>
      </trkpt>
      <trkpt lat="48.70454" lon="1.76357">
        <ele>175.19999694824</ele>
        <time>2014-10-19T09:16:38.000Z</time>
      </trkpt>
      <trkpt lat="48.70458" lon="1.7637">
        <ele>175.60000610352</ele>
        <time>2014-10-19T09:16:43.000Z</time>
      </trkpt>
      <trkpt lat="48.70462" lon="1.7638">
        <ele>176</ele>
        <time>2014-10-19T09:16:47.000Z</time>
      </trkpt>
      <trkpt lat="48.70474" lon="1.76387">
        <ele>175.80000305176</ele>
        <time>2014-10-19T09:16:52.000Z</time>
      </trkpt>
      <trkpt lat="48.70476" lon="1.76398">
        <ele>176.19999694824</ele>
        <time>2014-10-19T09:16:58.000Z</time>
      </trkpt>
      <trkpt lat="48.70475" lon="1.76401">
        <ele>176.39999389648</ele>
        <time>2014-10-19T09:17:00.000Z</time>
      </trkpt>
      <trkpt lat="48.70472" lon="1.76409">
        <ele>176.80000305176</ele>
        <time>2014-10-19T09:17:05.000Z</time>
      </trkpt>
      <trkpt lat="48.70472" lon="1.76415">
        <ele>176.80000305176</ele>
        <time>2014-10-19T09:17:08.000Z</time>
      </trkpt>
      <trkpt lat="48.70473" lon="1.76427">
        <ele>177</ele>
        <time>2014-10-19T09:17:13.000Z</time>
      </trkpt>
      <trkpt lat="48.70473" lon="1.76436">
        <ele>177</ele>
        <time>2014-10-19T09:17:18.000Z</time>
      </trkpt>
      <trkpt lat="48.70469" lon="1.76446">
        <ele>177.60000610352</ele>
        <time>2014-10-19T09:17:23.000Z</time>
      </trkpt>
      <trkpt lat="48.70464" lon="1.76455">
        <ele>178.39999389648</ele>
        <time>2014-10-19T09:17:30.000Z</time>
      </trkpt>
      <trkpt lat="48.70462" lon="1.76462">
        <ele>179</ele>
        <time>2014-10-19T09:17:34.000Z</time>
      </trkpt>
      <trkpt lat="48.70458" lon="1.7647">
        <ele>179.60000610352</ele>
        <time>2014-10-19T09:17:40.000Z</time>
      </trkpt>
      <trkpt lat="48.70455" lon="1.76477">
        <ele>180.19999694824</ele>
        <time>2014-10-19T09:17:44.000Z</time>
      </trkpt>
      <trkpt lat="48.70458" lon="1.76483">
        <ele>180.19999694824</ele>
        <time>2014-10-19T09:17:48.000Z</time>
      </trkpt>
      <trkpt lat="48.70457" lon="1.76489">
        <ele>180.60000610352</ele>
        <time>2014-10-19T09:17:52.000Z</time>
      </trkpt>
      <trkpt lat="48.70449" lon="1.76497">
        <ele>181.19999694824</ele>
        <time>2014-10-19T09:17:57.000Z</time>
      </trkpt>
      <trkpt lat="48.70443" lon="1.76506">
        <ele>181.39999389648</ele>
        <time>2014-10-19T09:18:02.000Z</time>
      </trkpt>
      <trkpt lat="48.70441" lon="1.76511">
        <ele>181.60000610352</ele>
        <time>2014-10-19T09:18:05.000Z</time>
      </trkpt>
      <trkpt lat="48.70441" lon="1.76514">
        <ele>181.39999389648</ele>
        <time>2014-10-19T09:18:08.000Z</time>
      </trkpt>
      <trkpt lat="48.7044" lon="1.76521">
        <ele>181.39999389648</ele>
        <time>2014-10-19T09:18:12.000Z</time>
      </trkpt>
      <trkpt lat="48.70439" lon="1.76526">
        <ele>181.39999389648</ele>
        <time>2014-10-19T09:18:16.000Z</time>
      </trkpt>
      <trkpt lat="48.70436" lon="1.76532">
        <ele>181.39999389648</ele>
        <time>2014-10-19T09:18:19.000Z</time>
      </trkpt>
      <trkpt lat="48.70435" lon="1.76541">
        <ele>181.19999694824</ele>
        <time>2014-10-19T09:18:23.000Z</time>
      </trkpt>
      <trkpt lat="48.70438" lon="1.76552">
        <ele>181.19999694824</ele>
        <time>2014-10-19T09:18:28.000Z</time>
      </trkpt>
      <trkpt lat="48.70437" lon="1.76556">
        <ele>181.19999694824</ele>
        <time>2014-10-19T09:18:30.000Z</time>
      </trkpt>
      <trkpt lat="48.70436" lon="1.76566">
        <ele>181</ele>
        <time>2014-10-19T09:18:36.000Z</time>
      </trkpt>
      <trkpt lat="48.70434" lon="1.76574">
        <ele>180.80000305176</ele>
        <time>2014-10-19T09:18:44.000Z</time>
      </trkpt>
      <trkpt lat="48.70433" lon="1.76572">
        <ele>180.80000305176</ele>
        <time>2014-10-19T09:18:51.000Z</time>
      </trkpt>
      <trkpt lat="48.70431" lon="1.7657">
        <ele>180.80000305176</ele>
        <time>2014-10-19T09:19:03.000Z</time>
      </trkpt>
      <trkpt lat="48.70431" lon="1.7657">
        <ele>180.80000305176</ele>
        <time>2014-10-19T09:19:05.000Z</time>
      </trkpt>
      <trkpt lat="48.70427" lon="1.76583">
        <ele>180.60000610352</ele>
        <time>2014-10-19T09:19:28.000Z</time>
      </trkpt>
      <trkpt lat="48.70426" lon="1.76584">
        <ele>180.39999389648</ele>
        <time>2014-10-19T09:19:29.000Z</time>
      </trkpt>
      <trkpt lat="48.70422" lon="1.7659">
        <ele>180.19999694824</ele>
        <time>2014-10-19T09:19:35.000Z</time>
      </trkpt>
      <trkpt lat="48.70418" lon="1.76592">
        <ele>180</ele>
        <time>2014-10-19T09:19:42.000Z</time>
      </trkpt>
      <trkpt lat="48.70412" lon="1.76591">
        <ele>179.80000305176</ele>
        <time>2014-10-19T09:19:45.000Z</time>
      </trkpt>
      <trkpt lat="48.70404" lon="1.76591">
        <ele>179.60000610352</ele>
        <time>2014-10-19T09:19:50.000Z</time>
      </trkpt>
      <trkpt lat="48.70396" lon="1.76596">
        <ele>179.19999694824</ele>
        <time>2014-10-19T09:19:55.000Z</time>
      </trkpt>
      <trkpt lat="48.70387" lon="1.76601">
        <ele>178.80000305176</ele>
        <time>2014-10-19T09:20:02.000Z</time>
      </trkpt>
      <trkpt lat="48.70379" lon="1.76603">
        <ele>178.60000610352</ele>
        <time>2014-10-19T09:20:08.000Z</time>
      </trkpt>
      <trkpt lat="48.70373" lon="1.76603">
        <ele>178.39999389648</ele>
        <time>2014-10-19T09:20:12.000Z</time>
      </trkpt>
      <trkpt lat="48.70371" lon="1.76603">
        <ele>178.39999389648</ele>
        <time>2014-10-19T09:20:13.000Z</time>
      </trkpt>
      <trkpt lat="48.70364" lon="1.76607">
        <ele>178.19999694824</ele>
        <time>2014-10-19T09:20:19.000Z</time>
      </trkpt>
      <trkpt lat="48.70359" lon="1.76612">
        <ele>178.19999694824</ele>
        <time>2014-10-19T09:20:25.000Z</time>
      </trkpt>
      <trkpt lat="48.70358" lon="1.76612">
        <ele>178.19999694824</ele>
        <time>2014-10-19T09:20:26.000Z</time>
      </trkpt>
      <trkpt lat="48.70356" lon="1.76618">
        <ele>178</ele>
        <time>2014-10-19T09:20:32.000Z</time>
      </trkpt>
      <trkpt lat="48.70352" lon="1.76624">
        <ele>178</ele>
        <time>2014-10-19T09:20:37.000Z</time>
      </trkpt>
      <trkpt lat="48.70353" lon="1.76629">
        <ele>178</ele>
        <time>2014-10-19T09:20:42.000Z</time>
      </trkpt>
      <trkpt lat="48.70348" lon="1.76632">
        <ele>178.19999694824</ele>
        <time>2014-10-19T09:20:48.000Z</time>
      </trkpt>
      <trkpt lat="48.70341" lon="1.76633">
        <ele>178.19999694824</ele>
        <time>2014-10-19T09:20:51.000Z</time>
      </trkpt>
      <trkpt lat="48.70335" lon="1.76628">
        <ele>178.39999389648</ele>
        <time>2014-10-19T09:20:56.000Z</time>
      </trkpt>
      <trkpt lat="48.70347" lon="1.76631">
        <ele>178.19999694824</ele>
        <time>2014-10-19T09:21:10.000Z</time>
      </trkpt>
      <trkpt lat="48.70349" lon="1.76634">
        <ele>178.19999694824</ele>
        <time>2014-10-19T09:21:15.000Z</time>
      </trkpt>
      <trkpt lat="48.70347" lon="1.76634">
        <ele>178.19999694824</ele>
        <time>2014-10-19T09:21:35.000Z</time>
      </trkpt>
      <trkpt lat="48.70345" lon="1.76632">
        <ele>178.19999694824</ele>
        <time>2014-10-19T09:21:41.000Z</time>
      </trkpt>
      <trkpt lat="48.7034" lon="1.76635">
        <ele>178.39999389648</ele>
        <time>2014-10-19T09:22:16.000Z</time>
      </trkpt>
      <trkpt lat="48.7034" lon="1.76634">
        <ele>178.39999389648</ele>
        <time>2014-10-19T09:22:17.000Z</time>
      </trkpt>
      <trkpt lat="48.7034" lon="1.76635">
        <ele>178.39999389648</ele>
        <time>2014-10-19T09:22:46.000Z</time>
      </trkpt>
      <trkpt lat="48.70339" lon="1.76635">
        <ele>178.39999389648</ele>
        <time>2014-10-19T09:22:48.000Z</time>
      </trkpt>
      <trkpt lat="48.70341" lon="1.76633">
        <ele>178.19999694824</ele>
        <time>2014-10-19T09:23:12.000Z</time>
      </trkpt>
      <trkpt lat="48.70339" lon="1.76628">
        <ele>178.39999389648</ele>
        <time>2014-10-19T09:23:18.000Z</time>
      </trkpt>
      <trkpt lat="48.70339" lon="1.76623">
        <ele>178.39999389648</ele>
        <time>2014-10-19T09:23:24.000Z</time>
      </trkpt>
      <trkpt lat="48.70343" lon="1.76623">
        <ele>178.19999694824</ele>
        <time>2014-10-19T09:23:28.000Z</time>
      </trkpt>
      <trkpt lat="48.70348" lon="1.76622">
        <ele>178.19999694824</ele>
        <time>2014-10-19T09:23:34.000Z</time>
      </trkpt>
      <trkpt lat="48.70344" lon="1.76621">
        <ele>178.19999694824</ele>
        <time>2014-10-19T09:23:40.000Z</time>
      </trkpt>
      <trkpt lat="48.7034" lon="1.76626">
        <ele>178.39999389648</ele>
        <time>2014-10-19T09:23:43.000Z</time>
      </trkpt>
      <trkpt lat="48.70338" lon="1.76635">
        <ele>178.39999389648</ele>
        <time>2014-10-19T09:23:49.000Z</time>
      </trkpt>
      <trkpt lat="48.70332" lon="1.7664">
        <ele>178.60000610352</ele>
        <time>2014-10-19T09:23:53.000Z</time>
      </trkpt>
      <trkpt lat="48.70323" lon="1.76645">
        <ele>178.80000305176</ele>
        <time>2014-10-19T09:23:58.000Z</time>
      </trkpt>
      <trkpt lat="48.70321" lon="1.76651">
        <ele>178.80000305176</ele>
        <time>2014-10-19T09:24:02.000Z</time>
      </trkpt>
      <trkpt lat="48.7032" lon="1.76655">
        <ele>178.80000305176</ele>
        <time>2014-10-19T09:24:06.000Z</time>
      </trkpt>
      <trkpt lat="48.70324" lon="1.76663">
        <ele>178.80000305176</ele>
        <time>2014-10-19T09:24:11.000Z</time>
      </trkpt>
      <trkpt lat="48.70325" lon="1.76669">
        <ele>178.60000610352</ele>
        <time>2014-10-19T09:24:14.000Z</time>
      </trkpt>
      <trkpt lat="48.70325" lon="1.7668">
        <ele>178.60000610352</ele>
        <time>2014-10-19T09:24:19.000Z</time>
      </trkpt>
      <trkpt lat="48.70323" lon="1.76691">
        <ele>178.80000305176</ele>
        <time>2014-10-19T09:24:24.000Z</time>
      </trkpt>
      <trkpt lat="48.70324" lon="1.76707">
        <ele>178.60000610352</ele>
        <time>2014-10-19T09:24:32.000Z</time>
      </trkpt>
      <trkpt lat="48.70325" lon="1.76717">
        <ele>178.60000610352</ele>
        <time>2014-10-19T09:24:37.000Z</time>
      </trkpt>
      <trkpt lat="48.70327" lon="1.76727">
        <ele>178.60000610352</ele>
        <time>2014-10-19T09:24:42.000Z</time>
      </trkpt>
      <trkpt lat="48.70326" lon="1.76737">
        <ele>178.60000610352</ele>
        <time>2014-10-19T09:24:47.000Z</time>
      </trkpt>
      <trkpt lat="48.70327" lon="1.76754">
        <ele>178.80000305176</ele>
        <time>2014-10-19T09:24:55.000Z</time>
      </trkpt>
      <trkpt lat="48.70329" lon="1.76766">
        <ele>179</ele>
        <time>2014-10-19T09:25:01.000Z</time>
      </trkpt>
      <trkpt lat="48.7033" lon="1.76777">
        <ele>179</ele>
        <time>2014-10-19T09:25:06.000Z</time>
      </trkpt>
      <trkpt lat="48.70331" lon="1.76792">
        <ele>179.19999694824</ele>
        <time>2014-10-19T09:25:13.000Z</time>
      </trkpt>
      <trkpt lat="48.70331" lon="1.76807">
        <ele>179.19999694824</ele>
        <time>2014-10-19T09:25:20.000Z</time>
      </trkpt>
      <trkpt lat="48.70333" lon="1.76825">
        <ele>179</ele>
        <time>2014-10-19T09:25:28.000Z</time>
      </trkpt>
      <trkpt lat="48.70333" lon="1.76837">
        <ele>179.19999694824</ele>
        <time>2014-10-19T09:25:34.000Z</time>
      </trkpt>
      <trkpt lat="48.70334" lon="1.76847">
        <ele>179.39999389648</ele>
        <time>2014-10-19T09:25:39.000Z</time>
      </trkpt>
      <trkpt lat="48.70335" lon="1.76852">
        <ele>179.39999389648</ele>
        <time>2014-10-19T09:25:41.000Z</time>
      </trkpt>
      <trkpt lat="48.70334" lon="1.76869">
        <ele>179.60000610352</ele>
        <time>2014-10-19T09:25:50.000Z</time>
      </trkpt>
      <trkpt lat="48.70335" lon="1.76882">
        <ele>179.80000305176</ele>
        <time>2014-10-19T09:25:56.000Z</time>
      </trkpt>
      <trkpt lat="48.70337" lon="1.76899">
        <ele>180</ele>
        <time>2014-10-19T09:26:04.000Z</time>
      </trkpt>
      <trkpt lat="48.70337" lon="1.76901">
        <ele>180.19999694824</ele>
        <time>2014-10-19T09:26:05.000Z</time>
      </trkpt>
      <trkpt lat="48.70338" lon="1.76913">
        <ele>180.39999389648</ele>
        <time>2014-10-19T09:26:11.000Z</time>
      </trkpt>
      <trkpt lat="48.70339" lon="1.76915">
        <ele>180.39999389648</ele>
        <time>2014-10-19T09:26:12.000Z</time>
      </trkpt>
      <trkpt lat="48.7034" lon="1.76919">
        <ele>180.60000610352</ele>
        <time>2014-10-19T09:26:14.000Z</time>
      </trkpt>
      <trkpt lat="48.70341" lon="1.76932">
        <ele>180.80000305176</ele>
        <time>2014-10-19T09:26:20.000Z</time>
      </trkpt>
      <trkpt lat="48.70341" lon="1.7694">
        <ele>181</ele>
        <time>2014-10-19T09:26:24.000Z</time>
      </trkpt>
      <trkpt lat="48.70339" lon="1.76953">
        <ele>181.39999389648</ele>
        <time>2014-10-19T09:26:31.000Z</time>
      </trkpt>
      <trkpt lat="48.70339" lon="1.76957">
        <ele>181.39999389648</ele>
        <time>2014-10-19T09:26:33.000Z</time>
      </trkpt>
      <trkpt lat="48.70341" lon="1.7697">
        <ele>181.80000305176</ele>
        <time>2014-10-19T09:26:40.000Z</time>
      </trkpt>
      <trkpt lat="48.70343" lon="1.76979">
        <ele>182</ele>
        <time>2014-10-19T09:26:44.000Z</time>
      </trkpt>
      <trkpt lat="48.70345" lon="1.76992">
        <ele>182.19999694824</ele>
        <time>2014-10-19T09:26:50.000Z</time>
      </trkpt>
      <trkpt lat="48.70345" lon="1.77001">
        <ele>182.19999694824</ele>
        <time>2014-10-19T09:26:54.000Z</time>
      </trkpt>
      <trkpt lat="48.70346" lon="1.77012">
        <ele>182</ele>
        <time>2014-10-19T09:27:00.000Z</time>
      </trkpt>
      <trkpt lat="48.70348" lon="1.77027">
        <ele>182</ele>
        <time>2014-10-19T09:27:05.000Z</time>
      </trkpt>
      <trkpt lat="48.7035" lon="1.77038">
        <ele>182</ele>
        <time>2014-10-19T09:27:10.000Z</time>
      </trkpt>
      <trkpt lat="48.7035" lon="1.77044">
        <ele>182</ele>
        <time>2014-10-19T09:27:13.000Z</time>
      </trkpt>
      <trkpt lat="48.7035" lon="1.77057">
        <ele>182</ele>
        <time>2014-10-19T09:27:20.000Z</time>
      </trkpt>
      <trkpt lat="48.70351" lon="1.77068">
        <ele>182</ele>
        <time>2014-10-19T09:27:27.000Z</time>
      </trkpt>
      <trkpt lat="48.70354" lon="1.77084">
        <ele>182</ele>
        <time>2014-10-19T09:27:34.000Z</time>
      </trkpt>
      <trkpt lat="48.70355" lon="1.771">
        <ele>182</ele>
        <time>2014-10-19T09:27:41.000Z</time>
      </trkpt>
      <trkpt lat="48.70357" lon="1.77111">
        <ele>181.80000305176</ele>
        <time>2014-10-19T09:27:46.000Z</time>
      </trkpt>
      <trkpt lat="48.70357" lon="1.77116">
        <ele>181.80000305176</ele>
        <time>2014-10-19T09:27:48.000Z</time>
      </trkpt>
      <trkpt lat="48.7036" lon="1.77129">
        <ele>181.80000305176</ele>
        <time>2014-10-19T09:27:55.000Z</time>
      </trkpt>
      <trkpt lat="48.70361" lon="1.77145">
        <ele>181.80000305176</ele>
        <time>2014-10-19T09:28:02.000Z</time>
      </trkpt>
      <trkpt lat="48.70362" lon="1.77164">
        <ele>181.80000305176</ele>
        <time>2014-10-19T09:28:11.000Z</time>
      </trkpt>
      <trkpt lat="48.70363" lon="1.77165">
        <ele>181.80000305176</ele>
        <time>2014-10-19T09:28:12.000Z</time>
      </trkpt>
      <trkpt lat="48.70365" lon="1.77175">
        <ele>181.60000610352</ele>
        <time>2014-10-19T09:28:17.000Z</time>
      </trkpt>
      <trkpt lat="48.70363" lon="1.77182">
        <ele>181.39999389648</ele>
        <time>2014-10-19T09:28:21.000Z</time>
      </trkpt>
      <trkpt lat="48.70366" lon="1.77197">
        <ele>181.19999694824</ele>
        <time>2014-10-19T09:28:28.000Z</time>
      </trkpt>
      <trkpt lat="48.70366" lon="1.77211">
        <ele>180.80000305176</ele>
        <time>2014-10-19T09:28:35.000Z</time>
      </trkpt>
      <trkpt lat="48.70367" lon="1.77223">
        <ele>180.60000610352</ele>
        <time>2014-10-19T09:28:42.000Z</time>
      </trkpt>
      <trkpt lat="48.70365" lon="1.77231">
        <ele>180.39999389648</ele>
        <time>2014-10-19T09:28:47.000Z</time>
      </trkpt>
      <trkpt lat="48.70367" lon="1.77244">
        <ele>180.39999389648</ele>
        <time>2014-10-19T09:28:53.000Z</time>
      </trkpt>
      <trkpt lat="48.70368" lon="1.77251">
        <ele>180.39999389648</ele>
        <time>2014-10-19T09:28:56.000Z</time>
      </trkpt>
      <trkpt lat="48.70374" lon="1.77263">
        <ele>180.80000305176</ele>
        <time>2014-10-19T09:29:01.000Z</time>
      </trkpt>
      <trkpt lat="48.70375" lon="1.77269">
        <ele>180.80000305176</ele>
        <time>2014-10-19T09:29:04.000Z</time>
      </trkpt>
      <trkpt lat="48.70375" lon="1.77284">
        <ele>181</ele>
        <time>2014-10-19T09:29:11.000Z</time>
      </trkpt>
      <trkpt lat="48.70376" lon="1.77289">
        <ele>181.19999694824</ele>
        <time>2014-10-19T09:29:15.000Z</time>
      </trkpt>
      <trkpt lat="48.70379" lon="1.77286">
        <ele>181.19999694824</ele>
        <time>2014-10-19T09:29:20.000Z</time>
      </trkpt>
      <trkpt lat="48.70384" lon="1.77282">
        <ele>181.19999694824</ele>
        <time>2014-10-19T09:29:24.000Z</time>
      </trkpt>
      <trkpt lat="48.7039" lon="1.77279">
        <ele>181.39999389648</ele>
        <time>2014-10-19T09:29:29.000Z</time>
      </trkpt>
      <trkpt lat="48.70401" lon="1.77274">
        <ele>181.39999389648</ele>
        <time>2014-10-19T09:29:37.000Z</time>
      </trkpt>
      <trkpt lat="48.70405" lon="1.77271">
        <ele>181.39999389648</ele>
        <time>2014-10-19T09:29:41.000Z</time>
      </trkpt>
      <trkpt lat="48.70411" lon="1.77266">
        <ele>181.39999389648</ele>
        <time>2014-10-19T09:29:47.000Z</time>
      </trkpt>
      <trkpt lat="48.70415" lon="1.77262">
        <ele>181.39999389648</ele>
        <time>2014-10-19T09:29:51.000Z</time>
      </trkpt>
      <trkpt lat="48.70426" lon="1.77256">
        <ele>181.39999389648</ele>
        <time>2014-10-19T09:30:00.000Z</time>
      </trkpt>
      <trkpt lat="48.70436" lon="1.7725">
        <ele>181.19999694824</ele>
        <time>2014-10-19T09:30:08.000Z</time>
      </trkpt>
      <trkpt lat="48.70447" lon="1.77244">
        <ele>181.19999694824</ele>
        <time>2014-10-19T09:30:17.000Z</time>
      </trkpt>
      <trkpt lat="48.70456" lon="1.77239">
        <ele>181.19999694824</ele>
        <time>2014-10-19T09:30:24.000Z</time>
      </trkpt>
      <trkpt lat="48.70466" lon="1.77236">
        <ele>181.39999389648</ele>
        <time>2014-10-19T09:30:31.000Z</time>
      </trkpt>
      <trkpt lat="48.70476" lon="1.77238">
        <ele>181.39999389648</ele>
        <time>2014-10-19T09:30:38.000Z</time>
      </trkpt>
      <trkpt lat="48.70486" lon="1.77239">
        <ele>181.60000610352</ele>
        <time>2014-10-19T09:30:45.000Z</time>
      </trkpt>
      <trkpt lat="48.70495" lon="1.7724">
        <ele>181.80000305176</ele>
        <time>2014-10-19T09:30:51.000Z</time>
      </trkpt>
      <trkpt lat="48.70502" lon="1.77242">
        <ele>181.80000305176</ele>
        <time>2014-10-19T09:30:56.000Z</time>
      </trkpt>
      <trkpt lat="48.7051" lon="1.77242">
        <ele>182</ele>
        <time>2014-10-19T09:31:03.000Z</time>
      </trkpt>
      <trkpt lat="48.70513" lon="1.7724">
        <ele>182</ele>
        <time>2014-10-19T09:31:07.000Z</time>
      </trkpt>
      <trkpt lat="48.70524" lon="1.7724">
        <ele>182</ele>
        <time>2014-10-19T09:31:14.000Z</time>
      </trkpt>
      <trkpt lat="48.7053" lon="1.77239">
        <ele>181.80000305176</ele>
        <time>2014-10-19T09:31:19.000Z</time>
      </trkpt>
      <trkpt lat="48.70539" lon="1.77242">
        <ele>181.80000305176</ele>
        <time>2014-10-19T09:31:26.000Z</time>
      </trkpt>
      <trkpt lat="48.70548" lon="1.77242">
        <ele>181.60000610352</ele>
        <time>2014-10-19T09:31:33.000Z</time>
      </trkpt>
      <trkpt lat="48.70553" lon="1.77243">
        <ele>181.60000610352</ele>
        <time>2014-10-19T09:31:37.000Z</time>
      </trkpt>
      <trkpt lat="48.70559" lon="1.77244">
        <ele>181.60000610352</ele>
        <time>2014-10-19T09:31:41.000Z</time>
      </trkpt>
      <trkpt lat="48.70567" lon="1.77245">
        <ele>181.39999389648</ele>
        <time>2014-10-19T09:31:46.000Z</time>
      </trkpt>
      <trkpt lat="48.70573" lon="1.77244">
        <ele>181.39999389648</ele>
        <time>2014-10-19T09:31:51.000Z</time>
      </trkpt>
      <trkpt lat="48.70587" lon="1.77243">
        <ele>181.19999694824</ele>
        <time>2014-10-19T09:31:58.000Z</time>
      </trkpt>
      <trkpt lat="48.70597" lon="1.77244">
        <ele>181</ele>
        <time>2014-10-19T09:32:05.000Z</time>
      </trkpt>
      <trkpt lat="48.70608" lon="1.77244">
        <ele>180.80000305176</ele>
        <time>2014-10-19T09:32:13.000Z</time>
      </trkpt>
      <trkpt lat="48.70609" lon="1.77244">
        <ele>180.80000305176</ele>
        <time>2014-10-19T09:32:14.000Z</time>
      </trkpt>
      <trkpt lat="48.70618" lon="1.77247">
        <ele>180.60000610352</ele>
        <time>2014-10-19T09:32:23.000Z</time>
      </trkpt>
      <trkpt lat="48.70629" lon="1.7725">
        <ele>180</ele>
        <time>2014-10-19T09:32:30.000Z</time>
      </trkpt>
      <trkpt lat="48.70635" lon="1.77248">
        <ele>179.80000305176</ele>
        <time>2014-10-19T09:32:36.000Z</time>
      </trkpt>
      <trkpt lat="48.70642" lon="1.7725">
        <ele>179.39999389648</ele>
        <time>2014-10-19T09:32:40.000Z</time>
      </trkpt>
      <trkpt lat="48.70653" lon="1.77251">
        <ele>179</ele>
        <time>2014-10-19T09:32:46.000Z</time>
      </trkpt>
      <trkpt lat="48.70661" lon="1.77252">
        <ele>178.60000610352</ele>
        <time>2014-10-19T09:32:52.000Z</time>
      </trkpt>
      <trkpt lat="48.70669" lon="1.77252">
        <ele>178.19999694824</ele>
        <time>2014-10-19T09:32:57.000Z</time>
      </trkpt>
      <trkpt lat="48.7068" lon="1.77254">
        <ele>177.80000305176</ele>
        <time>2014-10-19T09:33:04.000Z</time>
      </trkpt>
      <trkpt lat="48.7069" lon="1.77256">
        <ele>177.39999389648</ele>
        <time>2014-10-19T09:33:12.000Z</time>
      </trkpt>
      <trkpt lat="48.70699" lon="1.77257">
        <ele>177</ele>
        <time>2014-10-19T09:33:18.000Z</time>
      </trkpt>
      <trkpt lat="48.70707" lon="1.77257">
        <ele>176.80000305176</ele>
        <time>2014-10-19T09:33:24.000Z</time>
      </trkpt>
      <trkpt lat="48.70719" lon="1.77257">
        <ele>176.60000610352</ele>
        <time>2014-10-19T09:33:32.000Z</time>
      </trkpt>
      <trkpt lat="48.70729" lon="1.77258">
        <ele>176.39999389648</ele>
        <time>2014-10-19T09:33:39.000Z</time>
      </trkpt>
      <trkpt lat="48.7074" lon="1.7726">
        <ele>176.39999389648</ele>
        <time>2014-10-19T09:33:46.000Z</time>
      </trkpt>
      <trkpt lat="48.70748" lon="1.77258">
        <ele>176.19999694824</ele>
        <time>2014-10-19T09:33:53.000Z</time>
      </trkpt>
      <trkpt lat="48.70755" lon="1.77258">
        <ele>176.19999694824</ele>
        <time>2014-10-19T09:34:01.000Z</time>
      </trkpt>
      <trkpt lat="48.70761" lon="1.77257">
        <ele>176.19999694824</ele>
        <time>2014-10-19T09:34:06.000Z</time>
      </trkpt>
      <trkpt lat="48.7077" lon="1.77252">
        <ele>176</ele>
        <time>2014-10-19T09:34:11.000Z</time>
      </trkpt>
      <trkpt lat="48.70781" lon="1.77253">
        <ele>176.19999694824</ele>
        <time>2014-10-19T09:34:17.000Z</time>
      </trkpt>
      <trkpt lat="48.70789" lon="1.77253">
        <ele>176.19999694824</ele>
        <time>2014-10-19T09:34:22.000Z</time>
      </trkpt>
      <trkpt lat="48.70792" lon="1.77251">
        <ele>176.19999694824</ele>
        <time>2014-10-19T09:34:26.000Z</time>
      </trkpt>
      <trkpt lat="48.70805" lon="1.7725">
        <ele>176.19999694824</ele>
        <time>2014-10-19T09:34:34.000Z</time>
      </trkpt>
      <trkpt lat="48.70814" lon="1.77249">
        <ele>176.19999694824</ele>
        <time>2014-10-19T09:34:41.000Z</time>
      </trkpt>
      <trkpt lat="48.70819" lon="1.77249">
        <ele>176.19999694824</ele>
        <time>2014-10-19T09:34:46.000Z</time>
      </trkpt>
      <trkpt lat="48.70827" lon="1.7725">
        <ele>176.19999694824</ele>
        <time>2014-10-19T09:34:52.000Z</time>
      </trkpt>
      <trkpt lat="48.70837" lon="1.7725">
        <ele>176.19999694824</ele>
        <time>2014-10-19T09:34:58.000Z</time>
      </trkpt>
      <trkpt lat="48.70843" lon="1.77251">
        <ele>176.19999694824</ele>
        <time>2014-10-19T09:35:03.000Z</time>
      </trkpt>
      <trkpt lat="48.70845" lon="1.77251">
        <ele>176.19999694824</ele>
        <time>2014-10-19T09:35:05.000Z</time>
      </trkpt>
      <trkpt lat="48.70857" lon="1.7725">
        <ele>176.19999694824</ele>
        <time>2014-10-19T09:35:12.000Z</time>
      </trkpt>
      <trkpt lat="48.70868" lon="1.7725">
        <ele>176.19999694824</ele>
        <time>2014-10-19T09:35:19.000Z</time>
      </trkpt>
      <trkpt lat="48.7087" lon="1.77249">
        <ele>176.19999694824</ele>
        <time>2014-10-19T09:35:21.000Z</time>
      </trkpt>
      <trkpt lat="48.70878" lon="1.77252">
        <ele>176.39999389648</ele>
        <time>2014-10-19T09:35:27.000Z</time>
      </trkpt>
      <trkpt lat="48.70884" lon="1.77261">
        <ele>176.60000610352</ele>
        <time>2014-10-19T09:35:33.000Z</time>
      </trkpt>
      <trkpt lat="48.70889" lon="1.77276">
        <ele>176.80000305176</ele>
        <time>2014-10-19T09:35:40.000Z</time>
      </trkpt>
      <trkpt lat="48.70892" lon="1.7729">
        <ele>177</ele>
        <time>2014-10-19T09:35:47.000Z</time>
      </trkpt>
      <trkpt lat="48.70899" lon="1.77311">
        <ele>177.39999389648</ele>
        <time>2014-10-19T09:35:57.000Z</time>
      </trkpt>
      <trkpt lat="48.70904" lon="1.77323">
        <ele>177.60000610352</ele>
        <time>2014-10-19T09:36:03.000Z</time>
      </trkpt>
      <trkpt lat="48.70912" lon="1.77336">
        <ele>177.19999694824</ele>
        <time>2014-10-19T09:36:11.000Z</time>
      </trkpt>
      <trkpt lat="48.70919" lon="1.77352">
        <ele>176.60000610352</ele>
        <time>2014-10-19T09:36:20.000Z</time>
      </trkpt>
      <trkpt lat="48.70924" lon="1.77356">
        <ele>176.60000610352</ele>
        <time>2014-10-19T09:36:23.000Z</time>
      </trkpt>
      <trkpt lat="48.70929" lon="1.77368">
        <ele>176.19999694824</ele>
        <time>2014-10-19T09:36:30.000Z</time>
      </trkpt>
      <trkpt lat="48.70931" lon="1.77375">
        <ele>176</ele>
        <time>2014-10-19T09:36:34.000Z</time>
      </trkpt>
      <trkpt lat="48.70936" lon="1.77385">
        <ele>175.60000610352</ele>
        <time>2014-10-19T09:36:41.000Z</time>
      </trkpt>
      <trkpt lat="48.70943" lon="1.77392">
        <ele>175.60000610352</ele>
        <time>2014-10-19T09:36:46.000Z</time>
      </trkpt>
      <trkpt lat="48.70946" lon="1.77402">
        <ele>175.39999389648</ele>
        <time>2014-10-19T09:36:52.000Z</time>
      </trkpt>
      <trkpt lat="48.70947" lon="1.77404">
        <ele>175.19999694824</ele>
        <time>2014-10-19T09:36:53.000Z</time>
      </trkpt>
      <trkpt lat="48.70953" lon="1.77415">
        <ele>175</ele>
        <time>2014-10-19T09:36:59.000Z</time>
      </trkpt>
      <trkpt lat="48.7096" lon="1.77426">
        <ele>174.80000305176</ele>
        <time>2014-10-19T09:37:05.000Z</time>
      </trkpt>
      <trkpt lat="48.70961" lon="1.77427">
        <ele>174.80000305176</ele>
        <time>2014-10-19T09:37:06.000Z</time>
      </trkpt>
      <trkpt lat="48.70965" lon="1.77439">
        <ele>174.60000610352</ele>
        <time>2014-10-19T09:37:12.000Z</time>
      </trkpt>
      <trkpt lat="48.70965" lon="1.77444">
        <ele>174.60000610352</ele>
        <time>2014-10-19T09:37:15.000Z</time>
      </trkpt>
      <trkpt lat="48.70967" lon="1.77452">
        <ele>174.39999389648</ele>
        <time>2014-10-19T09:37:19.000Z</time>
      </trkpt>
      <trkpt lat="48.70969" lon="1.77456">
        <ele>174.39999389648</ele>
        <time>2014-10-19T09:37:23.000Z</time>
      </trkpt>
      <trkpt lat="48.70977" lon="1.77463">
        <ele>174.19999694824</ele>
        <time>2014-10-19T09:37:31.000Z</time>
      </trkpt>
      <trkpt lat="48.70982" lon="1.77475">
        <ele>174.19999694824</ele>
        <time>2014-10-19T09:37:38.000Z</time>
      </trkpt>
      <trkpt lat="48.70985" lon="1.77484">
        <ele>174</ele>
        <time>2014-10-19T09:37:43.000Z</time>
      </trkpt>
      <trkpt lat="48.70989" lon="1.77492">
        <ele>174</ele>
        <time>2014-10-19T09:37:49.000Z</time>
      </trkpt>
      <trkpt lat="48.70991" lon="1.77495">
        <ele>173.80000305176</ele>
        <time>2014-10-19T09:37:51.000Z</time>
      </trkpt>
      <trkpt lat="48.70997" lon="1.77509">
        <ele>173.39999389648</ele>
        <time>2014-10-19T09:37:59.000Z</time>
      </trkpt>
      <trkpt lat="48.71" lon="1.77516">
        <ele>173.39999389648</ele>
        <time>2014-10-19T09:38:03.000Z</time>
      </trkpt>
      <trkpt lat="48.71008" lon="1.77528">
        <ele>173</ele>
        <time>2014-10-19T09:38:10.000Z</time>
      </trkpt>
      <trkpt lat="48.71012" lon="1.7754">
        <ele>172.80000305176</ele>
        <time>2014-10-19T09:38:17.000Z</time>
      </trkpt>
      <trkpt lat="48.71017" lon="1.77553">
        <ele>172.39999389648</ele>
        <time>2014-10-19T09:38:24.000Z</time>
      </trkpt>
      <trkpt lat="48.71022" lon="1.77567">
        <ele>172.19999694824</ele>
        <time>2014-10-19T09:38:31.000Z</time>
      </trkpt>
      <trkpt lat="48.71025" lon="1.77578">
        <ele>171.80000305176</ele>
        <time>2014-10-19T09:38:37.000Z</time>
      </trkpt>
      <trkpt lat="48.71031" lon="1.77592">
        <ele>171.80000305176</ele>
        <time>2014-10-19T09:38:45.000Z</time>
      </trkpt>
      <trkpt lat="48.71035" lon="1.77604">
        <ele>171.60000610352</ele>
        <time>2014-10-19T09:38:51.000Z</time>
      </trkpt>
      <trkpt lat="48.71035" lon="1.77606">
        <ele>171.60000610352</ele>
        <time>2014-10-19T09:38:52.000Z</time>
      </trkpt>
      <trkpt lat="48.71039" lon="1.77618">
        <ele>171.60000610352</ele>
        <time>2014-10-19T09:38:58.000Z</time>
      </trkpt>
      <trkpt lat="48.71041" lon="1.77623">
        <ele>171.60000610352</ele>
        <time>2014-10-19T09:39:01.000Z</time>
      </trkpt>
      <trkpt lat="48.71048" lon="1.77637">
        <ele>171.39999389648</ele>
        <time>2014-10-19T09:39:08.000Z</time>
      </trkpt>
      <trkpt lat="48.71049" lon="1.7764">
        <ele>171.39999389648</ele>
        <time>2014-10-19T09:39:10.000Z</time>
      </trkpt>
      <trkpt lat="48.7105" lon="1.77644">
        <ele>171.19999694824</ele>
        <time>2014-10-19T09:39:12.000Z</time>
      </trkpt>
      <trkpt lat="48.71055" lon="1.77653">
        <ele>171.19999694824</ele>
        <time>2014-10-19T09:39:18.000Z</time>
      </trkpt>
      <trkpt lat="48.71056" lon="1.77655">
        <ele>171.19999694824</ele>
        <time>2014-10-19T09:39:19.000Z</time>
      </trkpt>
      <trkpt lat="48.71061" lon="1.77664">
        <ele>171</ele>
        <time>2014-10-19T09:39:25.000Z</time>
      </trkpt>
      <trkpt lat="48.71066" lon="1.77672">
        <ele>170.60000610352</ele>
        <time>2014-10-19T09:39:30.000Z</time>
      </trkpt>
      <trkpt lat="48.71072" lon="1.77683">
        <ele>170.39999389648</ele>
        <time>2014-10-19T09:39:36.000Z</time>
      </trkpt>
      <trkpt lat="48.7108" lon="1.77694">
        <ele>170.19999694824</ele>
        <time>2014-10-19T09:39:43.000Z</time>
      </trkpt>
      <trkpt lat="48.71089" lon="1.777">
        <ele>169.80000305176</ele>
        <time>2014-10-19T09:39:50.000Z</time>
      </trkpt>
      <trkpt lat="48.71089" lon="1.77702">
        <ele>169.80000305176</ele>
        <time>2014-10-19T09:39:51.000Z</time>
      </trkpt>
      <trkpt lat="48.71093" lon="1.77708">
        <ele>169.60000610352</ele>
        <time>2014-10-19T09:39:55.000Z</time>
      </trkpt>
      <trkpt lat="48.71093" lon="1.77712">
        <ele>169.60000610352</ele>
        <time>2014-10-19T09:39:57.000Z</time>
      </trkpt>
      <trkpt lat="48.71097" lon="1.7772">
        <ele>169.39999389648</ele>
        <time>2014-10-19T09:40:01.000Z</time>
      </trkpt>
      <trkpt lat="48.71098" lon="1.77734">
        <ele>169.19999694824</ele>
        <time>2014-10-19T09:40:07.000Z</time>
      </trkpt>
      <trkpt lat="48.71102" lon="1.77742">
        <ele>169</ele>
        <time>2014-10-19T09:40:11.000Z</time>
      </trkpt>
      <trkpt lat="48.71108" lon="1.77758">
        <ele>169.19999694824</ele>
        <time>2014-10-19T09:40:19.000Z</time>
      </trkpt>
      <trkpt lat="48.7111" lon="1.77769">
        <ele>169.39999389648</ele>
        <time>2014-10-19T09:40:25.000Z</time>
      </trkpt>
      <trkpt lat="48.7111" lon="1.77771">
        <ele>169.39999389648</ele>
        <time>2014-10-19T09:40:26.000Z</time>
      </trkpt>
      <trkpt lat="48.71115" lon="1.77786">
        <ele>169.60000610352</ele>
        <time>2014-10-19T09:40:33.000Z</time>
      </trkpt>
      <trkpt lat="48.71116" lon="1.778">
        <ele>169.80000305176</ele>
        <time>2014-10-19T09:40:40.000Z</time>
      </trkpt>
      <trkpt lat="48.71115" lon="1.77804">
        <ele>169.80000305176</ele>
        <time>2014-10-19T09:40:42.000Z</time>
      </trkpt>
      <trkpt lat="48.71112" lon="1.77816">
        <ele>170</ele>
        <time>2014-10-19T09:40:49.000Z</time>
      </trkpt>
      <trkpt lat="48.71113" lon="1.77817">
        <ele>170</ele>
        <time>2014-10-19T09:40:50.000Z</time>
      </trkpt>
      <trkpt lat="48.71115" lon="1.77828">
        <ele>170.19999694824</ele>
        <time>2014-10-19T09:40:56.000Z</time>
      </trkpt>
      <trkpt lat="48.71116" lon="1.77837">
        <ele>170.19999694824</ele>
        <time>2014-10-19T09:41:02.000Z</time>
      </trkpt>
      <trkpt lat="48.71119" lon="1.77847">
        <ele>170.19999694824</ele>
        <time>2014-10-19T09:41:07.000Z</time>
      </trkpt>
      <trkpt lat="48.71123" lon="1.77857">
        <ele>170.19999694824</ele>
        <time>2014-10-19T09:41:11.000Z</time>
      </trkpt>
      <trkpt lat="48.71127" lon="1.77868">
        <ele>170.19999694824</ele>
        <time>2014-10-19T09:41:17.000Z</time>
      </trkpt>
      <trkpt lat="48.71124" lon="1.77885">
        <ele>170</ele>
        <time>2014-10-19T09:41:26.000Z</time>
      </trkpt>
      <trkpt lat="48.71128" lon="1.77897">
        <ele>170</ele>
        <time>2014-10-19T09:41:32.000Z</time>
      </trkpt>
      <trkpt lat="48.71132" lon="1.77912">
        <ele>170</ele>
        <time>2014-10-19T09:41:39.000Z</time>
      </trkpt>
      <trkpt lat="48.71134" lon="1.77921">
        <ele>170</ele>
        <time>2014-10-19T09:41:44.000Z</time>
      </trkpt>
      <trkpt lat="48.71139" lon="1.77932">
        <ele>170</ele>
        <time>2014-10-19T09:41:51.000Z</time>
      </trkpt>
      <trkpt lat="48.71141" lon="1.77934">
        <ele>170</ele>
        <time>2014-10-19T09:41:53.000Z</time>
      </trkpt>
      <trkpt lat="48.71145" lon="1.77941">
        <ele>170</ele>
        <time>2014-10-19T09:41:57.000Z</time>
      </trkpt>
      <trkpt lat="48.71147" lon="1.77954">
        <ele>170.19999694824</ele>
        <time>2014-10-19T09:42:03.000Z</time>
      </trkpt>
      <trkpt lat="48.7114" lon="1.77972">
        <ele>171</ele>
        <time>2014-10-19T09:42:11.000Z</time>
      </trkpt>
      <trkpt lat="48.71138" lon="1.77986">
        <ele>171.60000610352</ele>
        <time>2014-10-19T09:42:17.000Z</time>
      </trkpt>
      <trkpt lat="48.71136" lon="1.77995">
        <ele>171.80000305176</ele>
        <time>2014-10-19T09:42:21.000Z</time>
      </trkpt>
      <trkpt lat="48.71135" lon="1.77999">
        <ele>172</ele>
        <time>2014-10-19T09:42:24.000Z</time>
      </trkpt>
      <trkpt lat="48.71137" lon="1.78006">
        <ele>172.19999694824</ele>
        <time>2014-10-19T09:42:28.000Z</time>
      </trkpt>
      <trkpt lat="48.71148" lon="1.78016">
        <ele>172.39999389648</ele>
        <time>2014-10-19T09:42:35.000Z</time>
      </trkpt>
      <trkpt lat="48.71153" lon="1.78023">
        <ele>172.60000610352</ele>
        <time>2014-10-19T09:42:40.000Z</time>
      </trkpt>
      <trkpt lat="48.71159" lon="1.78033">
        <ele>173</ele>
        <time>2014-10-19T09:42:45.000Z</time>
      </trkpt>
      <trkpt lat="48.71162" lon="1.7804">
        <ele>173.19999694824</ele>
        <time>2014-10-19T09:42:49.000Z</time>
      </trkpt>
      <trkpt lat="48.71167" lon="1.78047">
        <ele>173.39999389648</ele>
        <time>2014-10-19T09:42:56.000Z</time>
      </trkpt>
      <trkpt lat="48.71175" lon="1.78058">
        <ele>173.60000610352</ele>
        <time>2014-10-19T09:43:03.000Z</time>
      </trkpt>
      <trkpt lat="48.71186" lon="1.78068">
        <ele>173.80000305176</ele>
        <time>2014-10-19T09:43:10.000Z</time>
      </trkpt>
      <trkpt lat="48.71189" lon="1.78072">
        <ele>174</ele>
        <time>2014-10-19T09:43:13.000Z</time>
      </trkpt>
      <trkpt lat="48.71198" lon="1.78081">
        <ele>174</ele>
        <time>2014-10-19T09:43:19.000Z</time>
      </trkpt>
      <trkpt lat="48.71203" lon="1.78088">
        <ele>174.19999694824</ele>
        <time>2014-10-19T09:43:25.000Z</time>
      </trkpt>
      <trkpt lat="48.71205" lon="1.78093">
        <ele>174.39999389648</ele>
        <time>2014-10-19T09:43:31.000Z</time>
      </trkpt>
      <trkpt lat="48.71206" lon="1.78098">
        <ele>174.39999389648</ele>
        <time>2014-10-19T09:43:35.000Z</time>
      </trkpt>
      <trkpt lat="48.71214" lon="1.78102">
        <ele>174.39999389648</ele>
        <time>2014-10-19T09:43:41.000Z</time>
      </trkpt>
      <trkpt lat="48.71216" lon="1.78111">
        <ele>174.60000610352</ele>
        <time>2014-10-19T09:43:46.000Z</time>
      </trkpt>
      <trkpt lat="48.71216" lon="1.78117">
        <ele>174.80000305176</ele>
        <time>2014-10-19T09:43:50.000Z</time>
      </trkpt>
      <trkpt lat="48.71228" lon="1.78129">
        <ele>174.80000305176</ele>
        <time>2014-10-19T09:43:58.000Z</time>
      </trkpt>
      <trkpt lat="48.71234" lon="1.78137">
        <ele>175</ele>
        <time>2014-10-19T09:44:04.000Z</time>
      </trkpt>
      <trkpt lat="48.71242" lon="1.78144">
        <ele>175</ele>
        <time>2014-10-19T09:44:11.000Z</time>
      </trkpt>
      <trkpt lat="48.71249" lon="1.78153">
        <ele>175.19999694824</ele>
        <time>2014-10-19T09:44:18.000Z</time>
      </trkpt>
      <trkpt lat="48.7125" lon="1.78155">
        <ele>175.19999694824</ele>
        <time>2014-10-19T09:44:20.000Z</time>
      </trkpt>
      <trkpt lat="48.71259" lon="1.78167">
        <ele>175.39999389648</ele>
        <time>2014-10-19T09:44:27.000Z</time>
      </trkpt>
      <trkpt lat="48.71263" lon="1.78174">
        <ele>175.60000610352</ele>
        <time>2014-10-19T09:44:33.000Z</time>
      </trkpt>
      <trkpt lat="48.71264" lon="1.78177">
        <ele>175.60000610352</ele>
        <time>2014-10-19T09:44:35.000Z</time>
      </trkpt>
      <trkpt lat="48.71266" lon="1.78185">
        <ele>175.80000305176</ele>
        <time>2014-10-19T09:44:41.000Z</time>
      </trkpt>
      <trkpt lat="48.71266" lon="1.78185">
        <ele>175.80000305176</ele>
        <time>2014-10-19T09:44:42.000Z</time>
      </trkpt>
      <trkpt lat="48.71268" lon="1.78186">
        <ele>175.80000305176</ele>
        <time>2014-10-19T09:44:45.000Z</time>
      </trkpt>
      <trkpt lat="48.71268" lon="1.78188">
        <ele>175.80000305176</ele>
        <time>2014-10-19T09:44:46.000Z</time>
      </trkpt>
      <trkpt lat="48.7127" lon="1.78189">
        <ele>175.80000305176</ele>
        <time>2014-10-19T09:44:47.000Z</time>
      </trkpt>
      <trkpt lat="48.71275" lon="1.78193">
        <ele>176</ele>
        <time>2014-10-19T09:44:50.000Z</time>
      </trkpt>
      <trkpt lat="48.71286" lon="1.78198">
        <ele>176.60000610352</ele>
        <time>2014-10-19T09:44:56.000Z</time>
      </trkpt>
      <trkpt lat="48.71291" lon="1.78203">
        <ele>177</ele>
        <time>2014-10-19T09:45:00.000Z</time>
      </trkpt>
      <trkpt lat="48.71299" lon="1.7821">
        <ele>177.39999389648</ele>
        <time>2014-10-19T09:45:06.000Z</time>
      </trkpt>
      <trkpt lat="48.71303" lon="1.7821">
        <ele>177.60000610352</ele>
        <time>2014-10-19T09:45:10.000Z</time>
      </trkpt>
      <trkpt lat="48.71306" lon="1.78212">
        <ele>177.60000610352</ele>
        <time>2014-10-19T09:45:13.000Z</time>
      </trkpt>
      <trkpt lat="48.71316" lon="1.78215">
        <ele>178</ele>
        <time>2014-10-19T09:45:20.000Z</time>
      </trkpt>
      <trkpt lat="48.71325" lon="1.78216">
        <ele>178.39999389648</ele>
        <time>2014-10-19T09:45:25.000Z</time>
      </trkpt>
      <trkpt lat="48.71329" lon="1.78217">
        <ele>178.60000610352</ele>
        <time>2014-10-19T09:45:29.000Z</time>
      </trkpt>
      <trkpt lat="48.71335" lon="1.78218">
        <ele>178.80000305176</ele>
        <time>2014-10-19T09:45:34.000Z</time>
      </trkpt>
      <trkpt lat="48.71338" lon="1.78219">
        <ele>179</ele>
        <time>2014-10-19T09:45:38.000Z</time>
      </trkpt>
      <trkpt lat="48.7134" lon="1.78219">
        <ele>179</ele>
        <time>2014-10-19T09:45:41.000Z</time>
      </trkpt>
      <trkpt lat="48.71341" lon="1.7822">
        <ele>179.19999694824</ele>
        <time>2014-10-19T09:45:42.000Z</time>
      </trkpt>
      <trkpt lat="48.71346" lon="1.78219">
        <ele>179.19999694824</ele>
        <time>2014-10-19T09:45:47.000Z</time>
      </trkpt>
      <trkpt lat="48.71354" lon="1.78223">
        <ele>179.60000610352</ele>
        <time>2014-10-19T09:45:51.000Z</time>
      </trkpt>
      <trkpt lat="48.71358" lon="1.78227">
        <ele>179.60000610352</ele>
        <time>2014-10-19T09:45:55.000Z</time>
      </trkpt>
      <trkpt lat="48.71365" lon="1.78229">
        <ele>179.39999389648</ele>
        <time>2014-10-19T09:45:59.000Z</time>
      </trkpt>
      <trkpt lat="48.71369" lon="1.7823">
        <ele>179.19999694824</ele>
        <time>2014-10-19T09:46:05.000Z</time>
      </trkpt>
      <trkpt lat="48.71372" lon="1.78229">
        <ele>179.19999694824</ele>
        <time>2014-10-19T09:46:09.000Z</time>
      </trkpt>
      <trkpt lat="48.71376" lon="1.7823">
        <ele>179</ele>
        <time>2014-10-19T09:46:13.000Z</time>
      </trkpt>
      <trkpt lat="48.71388" lon="1.78234">
        <ele>178.60000610352</ele>
        <time>2014-10-19T09:46:21.000Z</time>
      </trkpt>
      <trkpt lat="48.71396" lon="1.78238">
        <ele>178.39999389648</ele>
        <time>2014-10-19T09:46:26.000Z</time>
      </trkpt>
      <trkpt lat="48.71403" lon="1.78243">
        <ele>178.39999389648</ele>
        <time>2014-10-19T09:46:32.000Z</time>
      </trkpt>
      <trkpt lat="48.7141" lon="1.78248">
        <ele>178.39999389648</ele>
        <time>2014-10-19T09:46:38.000Z</time>
      </trkpt>
      <trkpt lat="48.71418" lon="1.78251">
        <ele>178.19999694824</ele>
        <time>2014-10-19T09:46:45.000Z</time>
      </trkpt>
      <trkpt lat="48.71419" lon="1.78252">
        <ele>178.19999694824</ele>
        <time>2014-10-19T09:46:46.000Z</time>
      </trkpt>
      <trkpt lat="48.7142" lon="1.78252">
        <ele>178.19999694824</ele>
        <time>2014-10-19T09:46:49.000Z</time>
      </trkpt>
      <trkpt lat="48.71421" lon="1.78251">
        <ele>178</ele>
        <time>2014-10-19T09:46:52.000Z</time>
      </trkpt>
      <trkpt lat="48.71422" lon="1.78251">
        <ele>178</ele>
        <time>2014-10-19T09:46:53.000Z</time>
      </trkpt>
      <trkpt lat="48.7143" lon="1.78255">
        <ele>177.80000305176</ele>
        <time>2014-10-19T09:46:56.000Z</time>
      </trkpt>
      <trkpt lat="48.71442" lon="1.78263">
        <ele>177.80000305176</ele>
        <time>2014-10-19T09:47:06.000Z</time>
      </trkpt>
      <trkpt lat="48.71448" lon="1.78265">
        <ele>178</ele>
        <time>2014-10-19T09:47:12.000Z</time>
      </trkpt>
      <trkpt lat="48.71457" lon="1.7827">
        <ele>178.19999694824</ele>
        <time>2014-10-19T09:47:20.000Z</time>
      </trkpt>
      <trkpt lat="48.71465" lon="1.78277">
        <ele>178.39999389648</ele>
        <time>2014-10-19T09:47:27.000Z</time>
      </trkpt>
      <trkpt lat="48.71475" lon="1.7828">
        <ele>178.60000610352</ele>
        <time>2014-10-19T09:47:35.000Z</time>
      </trkpt>
      <trkpt lat="48.71487" lon="1.78283">
        <ele>178.60000610352</ele>
        <time>2014-10-19T09:47:43.000Z</time>
      </trkpt>
      <trkpt lat="48.71497" lon="1.78286">
        <ele>178.60000610352</ele>
        <time>2014-10-19T09:47:50.000Z</time>
      </trkpt>
      <trkpt lat="48.71504" lon="1.78287">
        <ele>178.60000610352</ele>
        <time>2014-10-19T09:47:56.000Z</time>
      </trkpt>
      <trkpt lat="48.71515" lon="1.78289">
        <ele>178.60000610352</ele>
        <time>2014-10-19T09:48:05.000Z</time>
      </trkpt>
      <trkpt lat="48.71522" lon="1.78293">
        <ele>178.60000610352</ele>
        <time>2014-10-19T09:48:11.000Z</time>
      </trkpt>
      <trkpt lat="48.71534" lon="1.783">
        <ele>178.80000305176</ele>
        <time>2014-10-19T09:48:19.000Z</time>
      </trkpt>
      <trkpt lat="48.71546" lon="1.78307">
        <ele>179</ele>
        <time>2014-10-19T09:48:28.000Z</time>
      </trkpt>
      <trkpt lat="48.71551" lon="1.7831">
        <ele>179.19999694824</ele>
        <time>2014-10-19T09:48:32.000Z</time>
      </trkpt>
      <trkpt lat="48.71561" lon="1.78315">
        <ele>179.19999694824</ele>
        <time>2014-10-19T09:48:39.000Z</time>
      </trkpt>
      <trkpt lat="48.71567" lon="1.7832">
        <ele>179.39999389648</ele>
        <time>2014-10-19T09:48:44.000Z</time>
      </trkpt>
      <trkpt lat="48.71583" lon="1.78327">
        <ele>179.39999389648</ele>
        <time>2014-10-19T09:48:54.000Z</time>
      </trkpt>
      <trkpt lat="48.71591" lon="1.78332">
        <ele>179.60000610352</ele>
        <time>2014-10-19T09:49:00.000Z</time>
      </trkpt>
      <trkpt lat="48.716" lon="1.78336">
        <ele>179.60000610352</ele>
        <time>2014-10-19T09:49:08.000Z</time>
      </trkpt>
      <trkpt lat="48.71611" lon="1.7834">
        <ele>179.39999389648</ele>
        <time>2014-10-19T09:49:15.000Z</time>
      </trkpt>
      <trkpt lat="48.71622" lon="1.78344">
        <ele>179</ele>
        <time>2014-10-19T09:49:23.000Z</time>
      </trkpt>
      <trkpt lat="48.71634" lon="1.78351">
        <ele>178.60000610352</ele>
        <time>2014-10-19T09:49:32.000Z</time>
      </trkpt>
      <trkpt lat="48.71642" lon="1.7836">
        <ele>178.60000610352</ele>
        <time>2014-10-19T09:49:38.000Z</time>
      </trkpt>
      <trkpt lat="48.71648" lon="1.78375">
        <ele>178.80000305176</ele>
        <time>2014-10-19T09:49:46.000Z</time>
      </trkpt>
      <trkpt lat="48.71652" lon="1.7839">
        <ele>179.19999694824</ele>
        <time>2014-10-19T09:49:53.000Z</time>
      </trkpt>
      <trkpt lat="48.71654" lon="1.78409">
        <ele>179.80000305176</ele>
        <time>2014-10-19T09:50:02.000Z</time>
      </trkpt>
      <trkpt lat="48.71657" lon="1.78429">
        <ele>181</ele>
        <time>2014-10-19T09:50:11.000Z</time>
      </trkpt>
      <trkpt lat="48.71661" lon="1.78448">
        <ele>181.80000305176</ele>
        <time>2014-10-19T09:50:20.000Z</time>
      </trkpt>
      <trkpt lat="48.71663" lon="1.78464">
        <ele>182.60000610352</ele>
        <time>2014-10-19T09:50:26.000Z</time>
      </trkpt>
      <trkpt lat="48.71668" lon="1.78477">
        <ele>183</ele>
        <time>2014-10-19T09:50:33.000Z</time>
      </trkpt>
      <trkpt lat="48.71674" lon="1.78489">
        <ele>183.39999389648</ele>
        <time>2014-10-19T09:50:40.000Z</time>
      </trkpt>
      <trkpt lat="48.71681" lon="1.78502">
        <ele>183.39999389648</ele>
        <time>2014-10-19T09:50:48.000Z</time>
      </trkpt>
      <trkpt lat="48.71691" lon="1.78513">
        <ele>183</ele>
        <time>2014-10-19T09:50:57.000Z</time>
      </trkpt>
      <trkpt lat="48.71699" lon="1.78519">
        <ele>182.60000610352</ele>
        <time>2014-10-19T09:51:04.000Z</time>
      </trkpt>
      <trkpt lat="48.71707" lon="1.78525">
        <ele>182.19999694824</ele>
        <time>2014-10-19T09:51:10.000Z</time>
      </trkpt>
      <trkpt lat="48.71716" lon="1.78531">
        <ele>181.80000305176</ele>
        <time>2014-10-19T09:51:17.000Z</time>
      </trkpt>
      <trkpt lat="48.71725" lon="1.7854">
        <ele>181.39999389648</ele>
        <time>2014-10-19T09:51:24.000Z</time>
      </trkpt>
      <trkpt lat="48.71734" lon="1.78551">
        <ele>181</ele>
        <time>2014-10-19T09:51:33.000Z</time>
      </trkpt>
      <trkpt lat="48.71741" lon="1.78558">
        <ele>180.60000610352</ele>
        <time>2014-10-19T09:51:39.000Z</time>
      </trkpt>
      <trkpt lat="48.71742" lon="1.78559">
        <ele>180.60000610352</ele>
        <time>2014-10-19T09:51:40.000Z</time>
      </trkpt>
      <trkpt lat="48.71745" lon="1.78567">
        <ele>180.39999389648</ele>
        <time>2014-10-19T09:51:46.000Z</time>
      </trkpt>
      <trkpt lat="48.71746" lon="1.78572">
        <ele>180.39999389648</ele>
        <time>2014-10-19T09:51:51.000Z</time>
      </trkpt>
      <trkpt lat="48.71742" lon="1.7859">
        <ele>181.39999389648</ele>
        <time>2014-10-19T09:52:19.000Z</time>
      </trkpt>
      <trkpt lat="48.71739" lon="1.786">
        <ele>181.80000305176</ele>
        <time>2014-10-19T09:52:25.000Z</time>
      </trkpt>
      <trkpt lat="48.7174" lon="1.78603">
        <ele>182</ele>
        <time>2014-10-19T09:52:27.000Z</time>
      </trkpt>
      <trkpt lat="48.71737" lon="1.78617">
        <ele>182.60000610352</ele>
        <time>2014-10-19T09:52:34.000Z</time>
      </trkpt>
      <trkpt lat="48.71736" lon="1.78622">
        <ele>182.80000305176</ele>
        <time>2014-10-19T09:52:36.000Z</time>
      </trkpt>
      <trkpt lat="48.71731" lon="1.78639">
        <ele>182.60000610352</ele>
        <time>2014-10-19T09:52:44.000Z</time>
      </trkpt>
      <trkpt lat="48.71728" lon="1.78655">
        <ele>182.39999389648</ele>
        <time>2014-10-19T09:52:51.000Z</time>
      </trkpt>
      <trkpt lat="48.71722" lon="1.78676">
        <ele>182</ele>
        <time>2014-10-19T09:53:00.000Z</time>
      </trkpt>
      <trkpt lat="48.71719" lon="1.78695">
        <ele>181.60000610352</ele>
        <time>2014-10-19T09:53:07.000Z</time>
      </trkpt>
      <trkpt lat="48.71712" lon="1.78717">
        <ele>181.19999694824</ele>
        <time>2014-10-19T09:53:17.000Z</time>
      </trkpt>
      <trkpt lat="48.71705" lon="1.78738">
        <ele>180.80000305176</ele>
        <time>2014-10-19T09:53:27.000Z</time>
      </trkpt>
      <trkpt lat="48.717" lon="1.78754">
        <ele>180.60000610352</ele>
        <time>2014-10-19T09:53:34.000Z</time>
      </trkpt>
      <trkpt lat="48.71696" lon="1.78764">
        <ele>180.60000610352</ele>
        <time>2014-10-19T09:53:39.000Z</time>
      </trkpt>
      <trkpt lat="48.7169" lon="1.78772">
        <ele>180.60000610352</ele>
        <time>2014-10-19T09:53:44.000Z</time>
      </trkpt>
      <trkpt lat="48.71687" lon="1.78786">
        <ele>180.39999389648</ele>
        <time>2014-10-19T09:53:50.000Z</time>
      </trkpt>
      <trkpt lat="48.71682" lon="1.78801">
        <ele>180.19999694824</ele>
        <time>2014-10-19T09:53:57.000Z</time>
      </trkpt>
      <trkpt lat="48.7168" lon="1.7881">
        <ele>180.19999694824</ele>
        <time>2014-10-19T09:54:01.000Z</time>
      </trkpt>
      <trkpt lat="48.71676" lon="1.78827">
        <ele>180.39999389648</ele>
        <time>2014-10-19T09:54:09.000Z</time>
      </trkpt>
      <trkpt lat="48.71669" lon="1.78846">
        <ele>180.39999389648</ele>
        <time>2014-10-19T09:54:17.000Z</time>
      </trkpt>
      <trkpt lat="48.71662" lon="1.78869">
        <ele>180.39999389648</ele>
        <time>2014-10-19T09:54:28.000Z</time>
      </trkpt>
      <trkpt lat="48.71654" lon="1.78888">
        <ele>180.19999694824</ele>
        <time>2014-10-19T09:54:38.000Z</time>
      </trkpt>
      <trkpt lat="48.71649" lon="1.78906">
        <ele>180</ele>
        <time>2014-10-19T09:54:46.000Z</time>
      </trkpt>
      <trkpt lat="48.7164" lon="1.78932">
        <ele>180.19999694824</ele>
        <time>2014-10-19T09:54:58.000Z</time>
      </trkpt>
      <trkpt lat="48.71633" lon="1.78955">
        <ele>180.19999694824</ele>
        <time>2014-10-19T09:55:09.000Z</time>
      </trkpt>
      <trkpt lat="48.71627" lon="1.78978">
        <ele>180.39999389648</ele>
        <time>2014-10-19T09:55:19.000Z</time>
      </trkpt>
      <trkpt lat="48.71619" lon="1.79001">
        <ele>180.39999389648</ele>
        <time>2014-10-19T09:55:30.000Z</time>
      </trkpt>
      <trkpt lat="48.71614" lon="1.79019">
        <ele>180.19999694824</ele>
        <time>2014-10-19T09:55:38.000Z</time>
      </trkpt>
      <trkpt lat="48.71607" lon="1.79041">
        <ele>180.19999694824</ele>
        <time>2014-10-19T09:55:48.000Z</time>
      </trkpt>
      <trkpt lat="48.71602" lon="1.79059">
        <ele>180.19999694824</ele>
        <time>2014-10-19T09:55:56.000Z</time>
      </trkpt>
      <trkpt lat="48.71597" lon="1.79077">
        <ele>180.39999389648</ele>
        <time>2014-10-19T09:56:04.000Z</time>
      </trkpt>
      <trkpt lat="48.71594" lon="1.7909">
        <ele>180.60000610352</ele>
        <time>2014-10-19T09:56:10.000Z</time>
      </trkpt>
      <trkpt lat="48.71589" lon="1.79105">
        <ele>181.19999694824</ele>
        <time>2014-10-19T09:56:18.000Z</time>
      </trkpt>
      <trkpt lat="48.71585" lon="1.79119">
        <ele>181.39999389648</ele>
        <time>2014-10-19T09:56:25.000Z</time>
      </trkpt>
      <trkpt lat="48.71579" lon="1.79141">
        <ele>182</ele>
        <time>2014-10-19T09:56:35.000Z</time>
      </trkpt>
      <trkpt lat="48.71574" lon="1.79154">
        <ele>182.39999389648</ele>
        <time>2014-10-19T09:56:42.000Z</time>
      </trkpt>
      <trkpt lat="48.7157" lon="1.79167">
        <ele>182.60000610352</ele>
        <time>2014-10-19T09:56:49.000Z</time>
      </trkpt>
      <trkpt lat="48.71566" lon="1.79182">
        <ele>182.80000305176</ele>
        <time>2014-10-19T09:56:56.000Z</time>
      </trkpt>
      <trkpt lat="48.71562" lon="1.79194">
        <ele>183</ele>
        <time>2014-10-19T09:57:02.000Z</time>
      </trkpt>
      <trkpt lat="48.71554" lon="1.79216">
        <ele>183</ele>
        <time>2014-10-19T09:57:13.000Z</time>
      </trkpt>
      <trkpt lat="48.71551" lon="1.79228">
        <ele>183</ele>
        <time>2014-10-19T09:57:19.000Z</time>
      </trkpt>
      <trkpt lat="48.71546" lon="1.79242">
        <ele>183</ele>
        <time>2014-10-19T09:57:26.000Z</time>
      </trkpt>
      <trkpt lat="48.71541" lon="1.7926">
        <ele>182.60000610352</ele>
        <time>2014-10-19T09:57:35.000Z</time>
      </trkpt>
      <trkpt lat="48.71537" lon="1.79274">
        <ele>182</ele>
        <time>2014-10-19T09:57:42.000Z</time>
      </trkpt>
      <trkpt lat="48.71532" lon="1.79292">
        <ele>181.19999694824</ele>
        <time>2014-10-19T09:57:48.000Z</time>
      </trkpt>
      <trkpt lat="48.71531" lon="1.79307">
        <ele>180.60000610352</ele>
        <time>2014-10-19T09:57:55.000Z</time>
      </trkpt>
      <trkpt lat="48.71532" lon="1.79311">
        <ele>180.39999389648</ele>
        <time>2014-10-19T09:57:57.000Z</time>
      </trkpt>
      <trkpt lat="48.71539" lon="1.7932">
        <ele>179.80000305176</ele>
        <time>2014-10-19T09:58:04.000Z</time>
      </trkpt>
      <trkpt lat="48.71543" lon="1.79324">
        <ele>179.60000610352</ele>
        <time>2014-10-19T09:58:07.000Z</time>
      </trkpt>
      <trkpt lat="48.71547" lon="1.79327">
        <ele>179.39999389648</ele>
        <time>2014-10-19T09:58:10.000Z</time>
      </trkpt>
      <trkpt lat="48.71557" lon="1.79333">
        <ele>179.19999694824</ele>
        <time>2014-10-19T09:58:17.000Z</time>
      </trkpt>
      <trkpt lat="48.71567" lon="1.7934">
        <ele>178.80000305176</ele>
        <time>2014-10-19T09:58:24.000Z</time>
      </trkpt>
      <trkpt lat="48.71574" lon="1.79345">
        <ele>178.60000610352</ele>
        <time>2014-10-19T09:58:29.000Z</time>
      </trkpt>
      <trkpt lat="48.71584" lon="1.79353">
        <ele>178.19999694824</ele>
        <time>2014-10-19T09:58:37.000Z</time>
      </trkpt>
      <trkpt lat="48.71594" lon="1.79361">
        <ele>177.60000610352</ele>
        <time>2014-10-19T09:58:45.000Z</time>
      </trkpt>
      <trkpt lat="48.71596" lon="1.79363">
        <ele>177.60000610352</ele>
        <time>2014-10-19T09:58:47.000Z</time>
      </trkpt>
      <trkpt lat="48.71608" lon="1.79369">
        <ele>177.19999694824</ele>
        <time>2014-10-19T09:58:55.000Z</time>
      </trkpt>
      <trkpt lat="48.71619" lon="1.79378">
        <ele>176.80000305176</ele>
        <time>2014-10-19T09:59:03.000Z</time>
      </trkpt>
      <trkpt lat="48.71632" lon="1.79386">
        <ele>176.39999389648</ele>
        <time>2014-10-19T09:59:12.000Z</time>
      </trkpt>
      <trkpt lat="48.71646" lon="1.79395">
        <ele>175.80000305176</ele>
        <time>2014-10-19T09:59:22.000Z</time>
      </trkpt>
      <trkpt lat="48.71656" lon="1.79402">
        <ele>175.39999389648</ele>
        <time>2014-10-19T09:59:29.000Z</time>
      </trkpt>
      <trkpt lat="48.71666" lon="1.79408">
        <ele>175.19999694824</ele>
        <time>2014-10-19T09:59:37.000Z</time>
      </trkpt>
      <trkpt lat="48.71676" lon="1.79414">
        <ele>175</ele>
        <time>2014-10-19T09:59:44.000Z</time>
      </trkpt>
      <trkpt lat="48.7169" lon="1.79421">
        <ele>174.60000610352</ele>
        <time>2014-10-19T09:59:52.000Z</time>
      </trkpt>
      <trkpt lat="48.71704" lon="1.79431">
        <ele>174.39999389648</ele>
        <time>2014-10-19T10:00:02.000Z</time>
      </trkpt>
      <trkpt lat="48.71715" lon="1.79439">
        <ele>174.19999694824</ele>
        <time>2014-10-19T10:00:10.000Z</time>
      </trkpt>
      <trkpt lat="48.71726" lon="1.79447">
        <ele>174</ele>
        <time>2014-10-19T10:00:18.000Z</time>
      </trkpt>
      <trkpt lat="48.71737" lon="1.79453">
        <ele>173.80000305176</ele>
        <time>2014-10-19T10:00:25.000Z</time>
      </trkpt>
      <trkpt lat="48.71748" lon="1.79462">
        <ele>173.80000305176</ele>
        <time>2014-10-19T10:00:33.000Z</time>
      </trkpt>
      <trkpt lat="48.71759" lon="1.7947">
        <ele>173.60000610352</ele>
        <time>2014-10-19T10:00:40.000Z</time>
      </trkpt>
      <trkpt lat="48.71765" lon="1.79475">
        <ele>173.60000610352</ele>
        <time>2014-10-19T10:00:45.000Z</time>
      </trkpt>
      <trkpt lat="48.71773" lon="1.7948">
        <ele>173.39999389648</ele>
        <time>2014-10-19T10:00:50.000Z</time>
      </trkpt>
      <trkpt lat="48.71774" lon="1.7948">
        <ele>173.60000610352</ele>
        <time>2014-10-19T10:00:51.000Z</time>
      </trkpt>
      <trkpt lat="48.71785" lon="1.79487">
        <ele>173.60000610352</ele>
        <time>2014-10-19T10:00:58.000Z</time>
      </trkpt>
      <trkpt lat="48.71795" lon="1.79491">
        <ele>173.80000305176</ele>
        <time>2014-10-19T10:01:05.000Z</time>
      </trkpt>
      <trkpt lat="48.71805" lon="1.79496">
        <ele>173.80000305176</ele>
        <time>2014-10-19T10:01:11.000Z</time>
      </trkpt>
      <trkpt lat="48.71814" lon="1.79502">
        <ele>173.80000305176</ele>
        <time>2014-10-19T10:01:17.000Z</time>
      </trkpt>
      <trkpt lat="48.71825" lon="1.79509">
        <ele>174</ele>
        <time>2014-10-19T10:01:24.000Z</time>
      </trkpt>
      <trkpt lat="48.71837" lon="1.79515">
        <ele>174.19999694824</ele>
        <time>2014-10-19T10:01:30.000Z</time>
      </trkpt>
      <trkpt lat="48.71843" lon="1.79523">
        <ele>174</ele>
        <time>2014-10-19T10:01:36.000Z</time>
      </trkpt>
      <trkpt lat="48.71856" lon="1.7953">
        <ele>174.19999694824</ele>
        <time>2014-10-19T10:01:44.000Z</time>
      </trkpt>
      <trkpt lat="48.71862" lon="1.79538">
        <ele>174.39999389648</ele>
        <time>2014-10-19T10:01:51.000Z</time>
      </trkpt>
      <trkpt lat="48.71863" lon="1.79539">
        <ele>174.39999389648</ele>
        <time>2014-10-19T10:01:52.000Z</time>
      </trkpt>
      <trkpt lat="48.71869" lon="1.79543">
        <ele>174.60000610352</ele>
        <time>2014-10-19T10:01:56.000Z</time>
      </trkpt>
      <trkpt lat="48.71876" lon="1.79547">
        <ele>175</ele>
        <time>2014-10-19T10:02:02.000Z</time>
      </trkpt>
      <trkpt lat="48.71879" lon="1.79547">
        <ele>175.39999389648</ele>
        <time>2014-10-19T10:02:03.000Z</time>
      </trkpt>
      <trkpt lat="48.71884" lon="1.79552">
        <ele>175.39999389648</ele>
        <time>2014-10-19T10:02:08.000Z</time>
      </trkpt>
      <trkpt lat="48.71895" lon="1.79559">
        <ele>176</ele>
        <time>2014-10-19T10:02:16.000Z</time>
      </trkpt>
      <trkpt lat="48.71904" lon="1.79567">
        <ele>176.39999389648</ele>
        <time>2014-10-19T10:02:23.000Z</time>
      </trkpt>
      <trkpt lat="48.71913" lon="1.79572">
        <ele>177</ele>
        <time>2014-10-19T10:02:30.000Z</time>
      </trkpt>
      <trkpt lat="48.71915" lon="1.79575">
        <ele>177</ele>
        <time>2014-10-19T10:02:32.000Z</time>
      </trkpt>
      <trkpt lat="48.71927" lon="1.79584">
        <ele>178</ele>
        <time>2014-10-19T10:02:40.000Z</time>
      </trkpt>
      <trkpt lat="48.71938" lon="1.79588">
        <ele>178.80000305176</ele>
        <time>2014-10-19T10:02:46.000Z</time>
      </trkpt>
      <trkpt lat="48.71951" lon="1.79588">
        <ele>179.39999389648</ele>
        <time>2014-10-19T10:02:52.000Z</time>
      </trkpt>
      <trkpt lat="48.71956" lon="1.79597">
        <ele>179.60000610352</ele>
        <time>2014-10-19T10:02:59.000Z</time>
      </trkpt>
      <trkpt lat="48.71957" lon="1.79599">
        <ele>179.60000610352</ele>
        <time>2014-10-19T10:03:00.000Z</time>
      </trkpt>
      <trkpt lat="48.71966" lon="1.79604">
        <ele>180</ele>
        <time>2014-10-19T10:03:07.000Z</time>
      </trkpt>
      <trkpt lat="48.71967" lon="1.79604">
        <ele>180</ele>
        <time>2014-10-19T10:03:08.000Z</time>
      </trkpt>
      <trkpt lat="48.71973" lon="1.79609">
        <ele>180.19999694824</ele>
        <time>2014-10-19T10:03:12.000Z</time>
      </trkpt>
      <trkpt lat="48.71982" lon="1.79616">
        <ele>180.60000610352</ele>
        <time>2014-10-19T10:03:19.000Z</time>
      </trkpt>
      <trkpt lat="48.71994" lon="1.79624">
        <ele>181.19999694824</ele>
        <time>2014-10-19T10:03:27.000Z</time>
      </trkpt>
      <trkpt lat="48.72" lon="1.79632">
        <ele>181.39999389648</ele>
        <time>2014-10-19T10:03:34.000Z</time>
      </trkpt>
      <trkpt lat="48.72006" lon="1.79638">
        <ele>181.60000610352</ele>
        <time>2014-10-19T10:03:40.000Z</time>
      </trkpt>
      <trkpt lat="48.72017" lon="1.79645">
        <ele>182</ele>
        <time>2014-10-19T10:03:48.000Z</time>
      </trkpt>
      <trkpt lat="48.72027" lon="1.79653">
        <ele>182.39999389648</ele>
        <time>2014-10-19T10:03:56.000Z</time>
      </trkpt>
      <trkpt lat="48.72033" lon="1.79654">
        <ele>182.60000610352</ele>
        <time>2014-10-19T10:03:59.000Z</time>
      </trkpt>
      <trkpt lat="48.72035" lon="1.79657">
        <ele>182.60000610352</ele>
        <time>2014-10-19T10:04:01.000Z</time>
      </trkpt>
      <trkpt lat="48.72046" lon="1.79663">
        <ele>182.60000610352</ele>
        <time>2014-10-19T10:04:09.000Z</time>
      </trkpt>
      <trkpt lat="48.72056" lon="1.79669">
        <ele>182.60000610352</ele>
        <time>2014-10-19T10:04:16.000Z</time>
      </trkpt>
      <trkpt lat="48.72066" lon="1.79677">
        <ele>182.60000610352</ele>
        <time>2014-10-19T10:04:23.000Z</time>
      </trkpt>
      <trkpt lat="48.72079" lon="1.79687">
        <ele>182.39999389648</ele>
        <time>2014-10-19T10:04:32.000Z</time>
      </trkpt>
      <trkpt lat="48.72088" lon="1.79695">
        <ele>182.39999389648</ele>
        <time>2014-10-19T10:04:40.000Z</time>
      </trkpt>
      <trkpt lat="48.72096" lon="1.79702">
        <ele>182.19999694824</ele>
        <time>2014-10-19T10:04:46.000Z</time>
      </trkpt>
      <trkpt lat="48.72104" lon="1.79705">
        <ele>182.39999389648</ele>
        <time>2014-10-19T10:04:53.000Z</time>
      </trkpt>
      <trkpt lat="48.72113" lon="1.79714">
        <ele>182</ele>
        <time>2014-10-19T10:05:00.000Z</time>
      </trkpt>
      <trkpt lat="48.72125" lon="1.79722">
        <ele>181.60000610352</ele>
        <time>2014-10-19T10:05:09.000Z</time>
      </trkpt>
      <trkpt lat="48.72134" lon="1.79731">
        <ele>181.19999694824</ele>
        <time>2014-10-19T10:05:16.000Z</time>
      </trkpt>
      <trkpt lat="48.72143" lon="1.79738">
        <ele>181</ele>
        <time>2014-10-19T10:05:23.000Z</time>
      </trkpt>
      <trkpt lat="48.72153" lon="1.79744">
        <ele>181</ele>
        <time>2014-10-19T10:05:31.000Z</time>
      </trkpt>
      <trkpt lat="48.72163" lon="1.7975">
        <ele>181</ele>
        <time>2014-10-19T10:05:37.000Z</time>
      </trkpt>
      <trkpt lat="48.72171" lon="1.79755">
        <ele>181</ele>
        <time>2014-10-19T10:05:43.000Z</time>
      </trkpt>
      <trkpt lat="48.72185" lon="1.79767">
        <ele>181</ele>
        <time>2014-10-19T10:05:54.000Z</time>
      </trkpt>
      <trkpt lat="48.72193" lon="1.79771">
        <ele>181</ele>
        <time>2014-10-19T10:06:00.000Z</time>
      </trkpt>
      <trkpt lat="48.722" lon="1.79773">
        <ele>181.19999694824</ele>
        <time>2014-10-19T10:06:04.000Z</time>
      </trkpt>
      <trkpt lat="48.72209" lon="1.79782">
        <ele>181.19999694824</ele>
        <time>2014-10-19T10:06:11.000Z</time>
      </trkpt>
      <trkpt lat="48.7222" lon="1.7979">
        <ele>181.19999694824</ele>
        <time>2014-10-19T10:06:18.000Z</time>
      </trkpt>
      <trkpt lat="48.72232" lon="1.79799">
        <ele>181.39999389648</ele>
        <time>2014-10-19T10:06:26.000Z</time>
      </trkpt>
      <trkpt lat="48.72244" lon="1.79803">
        <ele>181.80000305176</ele>
        <time>2014-10-19T10:06:33.000Z</time>
      </trkpt>
      <trkpt lat="48.72251" lon="1.79807">
        <ele>181.80000305176</ele>
        <time>2014-10-19T10:06:38.000Z</time>
      </trkpt>
      <trkpt lat="48.72265" lon="1.79819">
        <ele>182</ele>
        <time>2014-10-19T10:06:47.000Z</time>
      </trkpt>
      <trkpt lat="48.72276" lon="1.79823">
        <ele>182.19999694824</ele>
        <time>2014-10-19T10:06:53.000Z</time>
      </trkpt>
      <trkpt lat="48.72281" lon="1.79826">
        <ele>182.19999694824</ele>
        <time>2014-10-19T10:06:58.000Z</time>
      </trkpt>
      <trkpt lat="48.72295" lon="1.79833">
        <ele>182.39999389648</ele>
        <time>2014-10-19T10:07:06.000Z</time>
      </trkpt>
      <trkpt lat="48.72309" lon="1.7984">
        <ele>182.60000610352</ele>
        <time>2014-10-19T10:07:14.000Z</time>
      </trkpt>
      <trkpt lat="48.72315" lon="1.7985">
        <ele>182.19999694824</ele>
        <time>2014-10-19T10:07:21.000Z</time>
      </trkpt>
      <trkpt lat="48.72325" lon="1.79858">
        <ele>182.19999694824</ele>
        <time>2014-10-19T10:07:28.000Z</time>
      </trkpt>
      <trkpt lat="48.72333" lon="1.79861">
        <ele>182.39999389648</ele>
        <time>2014-10-19T10:07:34.000Z</time>
      </trkpt>
      <trkpt lat="48.72339" lon="1.79866">
        <ele>182.39999389648</ele>
        <time>2014-10-19T10:07:39.000Z</time>
      </trkpt>
      <trkpt lat="48.72349" lon="1.7987">
        <ele>182.39999389648</ele>
        <time>2014-10-19T10:07:46.000Z</time>
      </trkpt>
      <trkpt lat="48.72356" lon="1.79877">
        <ele>182.39999389648</ele>
        <time>2014-10-19T10:07:52.000Z</time>
      </trkpt>
      <trkpt lat="48.72366" lon="1.79887">
        <ele>182.39999389648</ele>
        <time>2014-10-19T10:08:01.000Z</time>
      </trkpt>
      <trkpt lat="48.72381" lon="1.799">
        <ele>182.60000610352</ele>
        <time>2014-10-19T10:08:12.000Z</time>
      </trkpt>
      <trkpt lat="48.72392" lon="1.79907">
        <ele>182.80000305176</ele>
        <time>2014-10-19T10:08:20.000Z</time>
      </trkpt>
      <trkpt lat="48.72404" lon="1.79916">
        <ele>182.80000305176</ele>
        <time>2014-10-19T10:08:29.000Z</time>
      </trkpt>
      <trkpt lat="48.72411" lon="1.79922">
        <ele>183</ele>
        <time>2014-10-19T10:08:36.000Z</time>
      </trkpt>
      <trkpt lat="48.72418" lon="1.79927">
        <ele>183</ele>
        <time>2014-10-19T10:08:42.000Z</time>
      </trkpt>
      <trkpt lat="48.72429" lon="1.79934">
        <ele>183.19999694824</ele>
        <time>2014-10-19T10:08:50.000Z</time>
      </trkpt>
      <trkpt lat="48.72442" lon="1.7994">
        <ele>183.39999389648</ele>
        <time>2014-10-19T10:08:57.000Z</time>
      </trkpt>
      <trkpt lat="48.72451" lon="1.79944">
        <ele>183.60000610352</ele>
        <time>2014-10-19T10:09:02.000Z</time>
      </trkpt>
      <trkpt lat="48.72458" lon="1.79949">
        <ele>183.60000610352</ele>
        <time>2014-10-19T10:09:07.000Z</time>
      </trkpt>
      <trkpt lat="48.72468" lon="1.79957">
        <ele>183.60000610352</ele>
        <time>2014-10-19T10:09:14.000Z</time>
      </trkpt>
      <trkpt lat="48.72475" lon="1.79963">
        <ele>183.60000610352</ele>
        <time>2014-10-19T10:09:20.000Z</time>
      </trkpt>
      <trkpt lat="48.72487" lon="1.79971">
        <ele>183.60000610352</ele>
        <time>2014-10-19T10:09:28.000Z</time>
      </trkpt>
      <trkpt lat="48.72495" lon="1.79974">
        <ele>183.80000305176</ele>
        <time>2014-10-19T10:09:33.000Z</time>
      </trkpt>
      <trkpt lat="48.72502" lon="1.79981">
        <ele>183.80000305176</ele>
        <time>2014-10-19T10:09:39.000Z</time>
      </trkpt>
      <trkpt lat="48.72513" lon="1.7999">
        <ele>183.60000610352</ele>
        <time>2014-10-19T10:09:48.000Z</time>
      </trkpt>
      <trkpt lat="48.72521" lon="1.79997">
        <ele>183.39999389648</ele>
        <time>2014-10-19T10:09:55.000Z</time>
      </trkpt>
      <trkpt lat="48.72534" lon="1.80007">
        <ele>182.60000610352</ele>
        <time>2014-10-19T10:10:02.000Z</time>
      </trkpt>
      <trkpt lat="48.72545" lon="1.80016">
        <ele>182</ele>
        <time>2014-10-19T10:10:11.000Z</time>
      </trkpt>
      <trkpt lat="48.72555" lon="1.80024">
        <ele>181.39999389648</ele>
        <time>2014-10-19T10:10:19.000Z</time>
      </trkpt>
      <trkpt lat="48.72571" lon="1.80036">
        <ele>180.60000610352</ele>
        <time>2014-10-19T10:10:30.000Z</time>
      </trkpt>
      <trkpt lat="48.72584" lon="1.80045">
        <ele>179.80000305176</ele>
        <time>2014-10-19T10:10:40.000Z</time>
      </trkpt>
      <trkpt lat="48.7259" lon="1.80048">
        <ele>179.60000610352</ele>
        <time>2014-10-19T10:10:44.000Z</time>
      </trkpt>
      <trkpt lat="48.72597" lon="1.80051">
        <ele>179.39999389648</ele>
        <time>2014-10-19T10:10:48.000Z</time>
      </trkpt>
      <trkpt lat="48.72607" lon="1.80058">
        <ele>178.80000305176</ele>
        <time>2014-10-19T10:10:56.000Z</time>
      </trkpt>
      <trkpt lat="48.72617" lon="1.80063">
        <ele>178.60000610352</ele>
        <time>2014-10-19T10:11:02.000Z</time>
      </trkpt>
      <trkpt lat="48.72628" lon="1.8007">
        <ele>178.39999389648</ele>
        <time>2014-10-19T10:11:10.000Z</time>
      </trkpt>
      <trkpt lat="48.72637" lon="1.80077">
        <ele>178.19999694824</ele>
        <time>2014-10-19T10:11:18.000Z</time>
      </trkpt>
      <trkpt lat="48.72646" lon="1.80082">
        <ele>178.19999694824</ele>
        <time>2014-10-19T10:11:24.000Z</time>
      </trkpt>
      <trkpt lat="48.72656" lon="1.8009">
        <ele>178</ele>
        <time>2014-10-19T10:11:31.000Z</time>
      </trkpt>
      <trkpt lat="48.72664" lon="1.80097">
        <ele>177.80000305176</ele>
        <time>2014-10-19T10:11:37.000Z</time>
      </trkpt>
      <trkpt lat="48.72674" lon="1.80104">
        <ele>177.60000610352</ele>
        <time>2014-10-19T10:11:45.000Z</time>
      </trkpt>
      <trkpt lat="48.7268" lon="1.80106">
        <ele>177.60000610352</ele>
        <time>2014-10-19T10:11:50.000Z</time>
      </trkpt>
      <trkpt lat="48.72688" lon="1.80112">
        <ele>177.39999389648</ele>
        <time>2014-10-19T10:11:57.000Z</time>
      </trkpt>
      <trkpt lat="48.72696" lon="1.80119">
        <ele>176.80000305176</ele>
        <time>2014-10-19T10:12:03.000Z</time>
      </trkpt>
      <trkpt lat="48.72707" lon="1.80127">
        <ele>176</ele>
        <time>2014-10-19T10:12:10.000Z</time>
      </trkpt>
      <trkpt lat="48.72711" lon="1.80129">
        <ele>175.80000305176</ele>
        <time>2014-10-19T10:12:13.000Z</time>
      </trkpt>
      <trkpt lat="48.72717" lon="1.80135">
        <ele>175.19999694824</ele>
        <time>2014-10-19T10:12:18.000Z</time>
      </trkpt>
      <trkpt lat="48.72727" lon="1.80143">
        <ele>174.60000610352</ele>
        <time>2014-10-19T10:12:26.000Z</time>
      </trkpt>
      <trkpt lat="48.72733" lon="1.80149">
        <ele>174</ele>
        <time>2014-10-19T10:12:33.000Z</time>
      </trkpt>
      <trkpt lat="48.72734" lon="1.80149">
        <ele>174</ele>
        <time>2014-10-19T10:12:35.000Z</time>
      </trkpt>
      <trkpt lat="48.72739" lon="1.80153">
        <ele>173.60000610352</ele>
        <time>2014-10-19T10:12:56.000Z</time>
      </trkpt>
      <trkpt lat="48.7275" lon="1.80161">
        <ele>173</ele>
        <time>2014-10-19T10:13:04.000Z</time>
      </trkpt>
      <trkpt lat="48.72763" lon="1.80169">
        <ele>172.39999389648</ele>
        <time>2014-10-19T10:13:14.000Z</time>
      </trkpt>
      <trkpt lat="48.7278" lon="1.8018">
        <ele>172</ele>
        <time>2014-10-19T10:13:27.000Z</time>
      </trkpt>
      <trkpt lat="48.72789" lon="1.80188">
        <ele>172</ele>
        <time>2014-10-19T10:13:34.000Z</time>
      </trkpt>
      <trkpt lat="48.72802" lon="1.80197">
        <ele>172</ele>
        <time>2014-10-19T10:13:44.000Z</time>
      </trkpt>
      <trkpt lat="48.72814" lon="1.80206">
        <ele>172</ele>
        <time>2014-10-19T10:13:54.000Z</time>
      </trkpt>
      <trkpt lat="48.72824" lon="1.80213">
        <ele>172</ele>
        <time>2014-10-19T10:14:02.000Z</time>
      </trkpt>
      <trkpt lat="48.72837" lon="1.80222">
        <ele>172</ele>
        <time>2014-10-19T10:14:12.000Z</time>
      </trkpt>
      <trkpt lat="48.72851" lon="1.80231">
        <ele>172</ele>
        <time>2014-10-19T10:14:22.000Z</time>
      </trkpt>
      <trkpt lat="48.72865" lon="1.80241">
        <ele>172.80000305176</ele>
        <time>2014-10-19T10:14:33.000Z</time>
      </trkpt>
      <trkpt lat="48.72878" lon="1.80248">
        <ele>173.60000610352</ele>
        <time>2014-10-19T10:14:42.000Z</time>
      </trkpt>
      <trkpt lat="48.72886" lon="1.80254">
        <ele>174.19999694824</ele>
        <time>2014-10-19T10:14:48.000Z</time>
      </trkpt>
      <trkpt lat="48.72899" lon="1.80263">
        <ele>175</ele>
        <time>2014-10-19T10:14:57.000Z</time>
      </trkpt>
      <trkpt lat="48.72913" lon="1.80271">
        <ele>175.80000305176</ele>
        <time>2014-10-19T10:15:07.000Z</time>
      </trkpt>
      <trkpt lat="48.7292" lon="1.80275">
        <ele>176.39999389648</ele>
        <time>2014-10-19T10:15:13.000Z</time>
      </trkpt>
      <trkpt lat="48.72928" lon="1.80282">
        <ele>176.80000305176</ele>
        <time>2014-10-19T10:15:20.000Z</time>
      </trkpt>
      <trkpt lat="48.72942" lon="1.80291">
        <ele>177.39999389648</ele>
        <time>2014-10-19T10:15:30.000Z</time>
      </trkpt>
      <trkpt lat="48.72946" lon="1.80299">
        <ele>177.39999389648</ele>
        <time>2014-10-19T10:15:34.000Z</time>
      </trkpt>
      <trkpt lat="48.72956" lon="1.80307">
        <ele>177.39999389648</ele>
        <time>2014-10-19T10:15:43.000Z</time>
      </trkpt>
      <trkpt lat="48.72964" lon="1.80313">
        <ele>177.39999389648</ele>
        <time>2014-10-19T10:15:49.000Z</time>
      </trkpt>
      <trkpt lat="48.72967" lon="1.80315">
        <ele>177.39999389648</ele>
        <time>2014-10-19T10:15:51.000Z</time>
      </trkpt>
      <trkpt lat="48.72976" lon="1.80319">
        <ele>177.60000610352</ele>
        <time>2014-10-19T10:15:57.000Z</time>
      </trkpt>
      <trkpt lat="48.72981" lon="1.80323">
        <ele>177.60000610352</ele>
        <time>2014-10-19T10:16:02.000Z</time>
      </trkpt>
      <trkpt lat="48.72983" lon="1.80325">
        <ele>177.60000610352</ele>
        <time>2014-10-19T10:16:04.000Z</time>
      </trkpt>
      <trkpt lat="48.72991" lon="1.80332">
        <ele>177.60000610352</ele>
        <time>2014-10-19T10:16:11.000Z</time>
      </trkpt>
      <trkpt lat="48.73" lon="1.80337">
        <ele>177.80000305176</ele>
        <time>2014-10-19T10:16:17.000Z</time>
      </trkpt>
      <trkpt lat="48.73009" lon="1.80344">
        <ele>177.80000305176</ele>
        <time>2014-10-19T10:16:24.000Z</time>
      </trkpt>
      <trkpt lat="48.73012" lon="1.80346">
        <ele>177.80000305176</ele>
        <time>2014-10-19T10:16:26.000Z</time>
      </trkpt>
      <trkpt lat="48.73023" lon="1.80353">
        <ele>178</ele>
        <time>2014-10-19T10:16:34.000Z</time>
      </trkpt>
      <trkpt lat="48.73027" lon="1.80355">
        <ele>178.19999694824</ele>
        <time>2014-10-19T10:16:37.000Z</time>
      </trkpt>
      <trkpt lat="48.73027" lon="1.80356">
        <ele>178.19999694824</ele>
        <time>2014-10-19T10:16:40.000Z</time>
      </trkpt>
      <trkpt lat="48.7303" lon="1.80354">
        <ele>178.39999389648</ele>
        <time>2014-10-19T10:16:52.000Z</time>
      </trkpt>
      <trkpt lat="48.73035" lon="1.80355">
        <ele>178.60000610352</ele>
        <time>2014-10-19T10:16:54.000Z</time>
      </trkpt>
      <trkpt lat="48.73047" lon="1.80363">
        <ele>179</ele>
        <time>2014-10-19T10:17:03.000Z</time>
      </trkpt>
      <trkpt lat="48.73056" lon="1.80369">
        <ele>179.19999694824</ele>
        <time>2014-10-19T10:17:09.000Z</time>
      </trkpt>
      <trkpt lat="48.73069" lon="1.80378">
        <ele>179.80000305176</ele>
        <time>2014-10-19T10:17:18.000Z</time>
      </trkpt>
      <trkpt lat="48.73085" lon="1.8039">
        <ele>180.39999389648</ele>
        <time>2014-10-19T10:17:30.000Z</time>
      </trkpt>
      <trkpt lat="48.73101" lon="1.80404">
        <ele>181</ele>
        <time>2014-10-19T10:17:43.000Z</time>
      </trkpt>
      <trkpt lat="48.73114" lon="1.80414">
        <ele>181.39999389648</ele>
        <time>2014-10-19T10:17:53.000Z</time>
      </trkpt>
      <trkpt lat="48.73123" lon="1.80423">
        <ele>181.60000610352</ele>
        <time>2014-10-19T10:18:00.000Z</time>
      </trkpt>
      <trkpt lat="48.73132" lon="1.80432">
        <ele>182</ele>
        <time>2014-10-19T10:18:08.000Z</time>
      </trkpt>
      <trkpt lat="48.7314" lon="1.80439">
        <ele>182.19999694824</ele>
        <time>2014-10-19T10:18:14.000Z</time>
      </trkpt>
      <trkpt lat="48.73142" lon="1.8044">
        <ele>182.19999694824</ele>
        <time>2014-10-19T10:18:15.000Z</time>
      </trkpt>
      <trkpt lat="48.73153" lon="1.8045">
        <ele>182.60000610352</ele>
        <time>2014-10-19T10:18:24.000Z</time>
      </trkpt>
      <trkpt lat="48.73163" lon="1.80459">
        <ele>183</ele>
        <time>2014-10-19T10:18:31.000Z</time>
      </trkpt>
      <trkpt lat="48.73175" lon="1.80467">
        <ele>183.19999694824</ele>
        <time>2014-10-19T10:18:40.000Z</time>
      </trkpt>
      <trkpt lat="48.73185" lon="1.80476">
        <ele>183.60000610352</ele>
        <time>2014-10-19T10:18:49.000Z</time>
      </trkpt>
      <trkpt lat="48.73186" lon="1.80476">
        <ele>183.60000610352</ele>
        <time>2014-10-19T10:18:50.000Z</time>
      </trkpt>
      <trkpt lat="48.73192" lon="1.80482">
        <ele>184.19999694824</ele>
        <time>2014-10-19T10:19:16.000Z</time>
      </trkpt>
      <trkpt lat="48.73204" lon="1.80494">
        <ele>185.60000610352</ele>
        <time>2014-10-19T10:19:25.000Z</time>
      </trkpt>
      <trkpt lat="48.73215" lon="1.80501">
        <ele>186.80000305176</ele>
        <time>2014-10-19T10:19:34.000Z</time>
      </trkpt>
      <trkpt lat="48.73227" lon="1.80509">
        <ele>188</ele>
        <time>2014-10-19T10:19:43.000Z</time>
      </trkpt>
      <trkpt lat="48.73232" lon="1.80515">
        <ele>188.60000610352</ele>
        <time>2014-10-19T10:19:48.000Z</time>
      </trkpt>
      <trkpt lat="48.73237" lon="1.8052">
        <ele>189.19999694824</ele>
        <time>2014-10-19T10:19:53.000Z</time>
      </trkpt>
      <trkpt lat="48.73247" lon="1.8053">
        <ele>190.19999694824</ele>
        <time>2014-10-19T10:20:01.000Z</time>
      </trkpt>
      <trkpt lat="48.73255" lon="1.80539">
        <ele>191.19999694824</ele>
        <time>2014-10-19T10:20:07.000Z</time>
      </trkpt>
      <trkpt lat="48.73261" lon="1.80546">
        <ele>191.80000305176</ele>
        <time>2014-10-19T10:20:12.000Z</time>
      </trkpt>
      <trkpt lat="48.73263" lon="1.80549">
        <ele>192</ele>
        <time>2014-10-19T10:20:14.000Z</time>
      </trkpt>
      <trkpt lat="48.73273" lon="1.80556">
        <ele>192.80000305176</ele>
        <time>2014-10-19T10:20:21.000Z</time>
      </trkpt>
      <trkpt lat="48.73278" lon="1.80561">
        <ele>193</ele>
        <time>2014-10-19T10:20:25.000Z</time>
      </trkpt>
      <trkpt lat="48.73282" lon="1.80565">
        <ele>193.19999694824</ele>
        <time>2014-10-19T10:20:29.000Z</time>
      </trkpt>
      <trkpt lat="48.7329" lon="1.80573">
        <ele>193.39999389648</ele>
        <time>2014-10-19T10:20:35.000Z</time>
      </trkpt>
      <trkpt lat="48.73294" lon="1.80575">
        <ele>193.60000610352</ele>
        <time>2014-10-19T10:20:37.000Z</time>
      </trkpt>
      <trkpt lat="48.73307" lon="1.80589">
        <ele>194</ele>
        <time>2014-10-19T10:20:47.000Z</time>
      </trkpt>
      <trkpt lat="48.73316" lon="1.80596">
        <ele>194.39999389648</ele>
        <time>2014-10-19T10:20:53.000Z</time>
      </trkpt>
      <trkpt lat="48.73327" lon="1.80606">
        <ele>194.80000305176</ele>
        <time>2014-10-19T10:21:01.000Z</time>
      </trkpt>
      <trkpt lat="48.73338" lon="1.80616">
        <ele>195.19999694824</ele>
        <time>2014-10-19T10:21:09.000Z</time>
      </trkpt>
      <trkpt lat="48.73346" lon="1.80623">
        <ele>195.39999389648</ele>
        <time>2014-10-19T10:21:15.000Z</time>
      </trkpt>
      <trkpt lat="48.73354" lon="1.80631">
        <ele>195.60000610352</ele>
        <time>2014-10-19T10:21:22.000Z</time>
      </trkpt>
      <trkpt lat="48.73362" lon="1.80637">
        <ele>195.39999389648</ele>
        <time>2014-10-19T10:21:27.000Z</time>
      </trkpt>
      <trkpt lat="48.7337" lon="1.80647">
        <ele>195.39999389648</ele>
        <time>2014-10-19T10:21:34.000Z</time>
      </trkpt>
      <trkpt lat="48.73375" lon="1.80651">
        <ele>195.19999694824</ele>
        <time>2014-10-19T10:21:38.000Z</time>
      </trkpt>
      <trkpt lat="48.73386" lon="1.80657">
        <ele>194.80000305176</ele>
        <time>2014-10-19T10:21:46.000Z</time>
      </trkpt>
      <trkpt lat="48.73397" lon="1.80667">
        <ele>194.80000305176</ele>
        <time>2014-10-19T10:21:53.000Z</time>
      </trkpt>
      <trkpt lat="48.73406" lon="1.80678">
        <ele>194.60000610352</ele>
        <time>2014-10-19T10:21:59.000Z</time>
      </trkpt>
      <trkpt lat="48.73415" lon="1.80686">
        <ele>194.60000610352</ele>
        <time>2014-10-19T10:22:05.000Z</time>
      </trkpt>
      <trkpt lat="48.7342" lon="1.80692">
        <ele>194.60000610352</ele>
        <time>2014-10-19T10:22:09.000Z</time>
      </trkpt>
      <trkpt lat="48.73431" lon="1.80702">
        <ele>194.39999389648</ele>
        <time>2014-10-19T10:22:17.000Z</time>
      </trkpt>
      <trkpt lat="48.73438" lon="1.80707">
        <ele>194.19999694824</ele>
        <time>2014-10-19T10:22:22.000Z</time>
      </trkpt>
      <trkpt lat="48.73446" lon="1.80716">
        <ele>194.19999694824</ele>
        <time>2014-10-19T10:22:28.000Z</time>
      </trkpt>
      <trkpt lat="48.73455" lon="1.80725">
        <ele>194.19999694824</ele>
        <time>2014-10-19T10:22:34.000Z</time>
      </trkpt>
      <trkpt lat="48.73467" lon="1.80736">
        <ele>194.19999694824</ele>
        <time>2014-10-19T10:22:43.000Z</time>
      </trkpt>
      <trkpt lat="48.73476" lon="1.80746">
        <ele>194.19999694824</ele>
        <time>2014-10-19T10:22:51.000Z</time>
      </trkpt>
      <trkpt lat="48.73486" lon="1.80756">
        <ele>194.19999694824</ele>
        <time>2014-10-19T10:22:59.000Z</time>
      </trkpt>
      <trkpt lat="48.73494" lon="1.80764">
        <ele>194.19999694824</ele>
        <time>2014-10-19T10:23:05.000Z</time>
      </trkpt>
      <trkpt lat="48.73505" lon="1.80774">
        <ele>194.19999694824</ele>
        <time>2014-10-19T10:23:13.000Z</time>
      </trkpt>
      <trkpt lat="48.73511" lon="1.80778">
        <ele>194.19999694824</ele>
        <time>2014-10-19T10:23:19.000Z</time>
      </trkpt>
      <trkpt lat="48.73508" lon="1.80778">
        <ele>194.19999694824</ele>
        <time>2014-10-19T10:23:31.000Z</time>
      </trkpt>
      <trkpt lat="48.73511" lon="1.8078">
        <ele>194.19999694824</ele>
        <time>2014-10-19T10:23:35.000Z</time>
      </trkpt>
      <trkpt lat="48.73512" lon="1.80782">
        <ele>194.19999694824</ele>
        <time>2014-10-19T10:23:36.000Z</time>
      </trkpt>
      <trkpt lat="48.73522" lon="1.80789">
        <ele>194.19999694824</ele>
        <time>2014-10-19T10:23:42.000Z</time>
      </trkpt>
      <trkpt lat="48.73528" lon="1.80795">
        <ele>194</ele>
        <time>2014-10-19T10:23:48.000Z</time>
      </trkpt>
      <trkpt lat="48.73538" lon="1.80804">
        <ele>194</ele>
        <time>2014-10-19T10:23:56.000Z</time>
      </trkpt>
      <trkpt lat="48.73551" lon="1.80815">
        <ele>193.80000305176</ele>
        <time>2014-10-19T10:24:05.000Z</time>
      </trkpt>
      <trkpt lat="48.73567" lon="1.8083">
        <ele>193.39999389648</ele>
        <time>2014-10-19T10:24:17.000Z</time>
      </trkpt>
      <trkpt lat="48.73573" lon="1.80839">
        <ele>193.19999694824</ele>
        <time>2014-10-19T10:24:23.000Z</time>
      </trkpt>
      <trkpt lat="48.73579" lon="1.80844">
        <ele>193</ele>
        <time>2014-10-19T10:24:28.000Z</time>
      </trkpt>
      <trkpt lat="48.73584" lon="1.80846">
        <ele>192.80000305176</ele>
        <time>2014-10-19T10:24:34.000Z</time>
      </trkpt>
      <trkpt lat="48.73585" lon="1.80846">
        <ele>192.60000610352</ele>
        <time>2014-10-19T10:24:36.000Z</time>
      </trkpt>
      <trkpt lat="48.7359" lon="1.8085">
        <ele>192.60000610352</ele>
        <time>2014-10-19T10:26:02.000Z</time>
      </trkpt>
      <trkpt lat="48.73589" lon="1.80846">
        <ele>192.60000610352</ele>
        <time>2014-10-19T10:26:03.000Z</time>
      </trkpt>
      <trkpt lat="48.73682" lon="1.80835">
        <ele>195.39999389648</ele>
        <time>2014-10-19T10:58:34.000Z</time>
      </trkpt>
      <trkpt lat="48.73685" lon="1.80835">
        <ele>195.60000610352</ele>
        <time>2014-10-19T10:58:35.000Z</time>
      </trkpt>
      <trkpt lat="48.73685" lon="1.80835">
        <ele>195.60000610352</ele>
        <time>2014-10-19T10:58:35.000Z</time>
      </trkpt>
      <trkpt lat="48.73688" lon="1.80836">
        <ele>195.60000610352</ele>
        <time>2014-10-19T10:58:37.000Z</time>
      </trkpt>
      <trkpt lat="48.73698" lon="1.80825">
        <ele>196</ele>
        <time>2014-10-19T10:58:43.000Z</time>
      </trkpt>
      <trkpt lat="48.73705" lon="1.80822">
        <ele>195.80000305176</ele>
        <time>2014-10-19T10:58:49.000Z</time>
      </trkpt>
      <trkpt lat="48.73708" lon="1.80822">
        <ele>195.80000305176</ele>
        <time>2014-10-19T10:58:51.000Z</time>
      </trkpt>
      <trkpt lat="48.73716" lon="1.80818">
        <ele>195.80000305176</ele>
        <time>2014-10-19T10:58:58.000Z</time>
      </trkpt>
      <trkpt lat="48.7372" lon="1.80818">
        <ele>195.60000610352</ele>
        <time>2014-10-19T10:59:01.000Z</time>
      </trkpt>
      <trkpt lat="48.7373" lon="1.80818">
        <ele>195.60000610352</ele>
        <time>2014-10-19T10:59:07.000Z</time>
      </trkpt>
      <trkpt lat="48.73733" lon="1.80817">
        <ele>195.60000610352</ele>
        <time>2014-10-19T10:59:10.000Z</time>
      </trkpt>
      <trkpt lat="48.73749" lon="1.80817">
        <ele>195.39999389648</ele>
        <time>2014-10-19T10:59:19.000Z</time>
      </trkpt>
      <trkpt lat="48.7375" lon="1.80816">
        <ele>195.39999389648</ele>
        <time>2014-10-19T10:59:20.000Z</time>
      </trkpt>
      <trkpt lat="48.73759" lon="1.80812">
        <ele>195.19999694824</ele>
        <time>2014-10-19T10:59:26.000Z</time>
      </trkpt>
      <trkpt lat="48.73771" lon="1.80807">
        <ele>195.19999694824</ele>
        <time>2014-10-19T10:59:34.000Z</time>
      </trkpt>
      <trkpt lat="48.73776" lon="1.80803">
        <ele>195.19999694824</ele>
        <time>2014-10-19T10:59:37.000Z</time>
      </trkpt>
      <trkpt lat="48.73788" lon="1.80803">
        <ele>195.39999389648</ele>
        <time>2014-10-19T10:59:44.000Z</time>
      </trkpt>
      <trkpt lat="48.73797" lon="1.80802">
        <ele>195.60000610352</ele>
        <time>2014-10-19T10:59:50.000Z</time>
      </trkpt>
      <trkpt lat="48.73806" lon="1.808">
        <ele>195.60000610352</ele>
        <time>2014-10-19T10:59:55.000Z</time>
      </trkpt>
      <trkpt lat="48.73817" lon="1.80794">
        <ele>195.80000305176</ele>
        <time>2014-10-19T11:00:02.000Z</time>
      </trkpt>
      <trkpt lat="48.73821" lon="1.80794">
        <ele>196</ele>
        <time>2014-10-19T11:00:05.000Z</time>
      </trkpt>
      <trkpt lat="48.73826" lon="1.8079">
        <ele>196</ele>
        <time>2014-10-19T11:00:09.000Z</time>
      </trkpt>
      <trkpt lat="48.73838" lon="1.80789">
        <ele>195.80000305176</ele>
        <time>2014-10-19T11:00:16.000Z</time>
      </trkpt>
      <trkpt lat="48.73849" lon="1.80788">
        <ele>195.60000610352</ele>
        <time>2014-10-19T11:00:22.000Z</time>
      </trkpt>
      <trkpt lat="48.73857" lon="1.80788">
        <ele>195.60000610352</ele>
        <time>2014-10-19T11:00:27.000Z</time>
      </trkpt>
      <trkpt lat="48.73866" lon="1.80787">
        <ele>195.60000610352</ele>
        <time>2014-10-19T11:00:33.000Z</time>
      </trkpt>
      <trkpt lat="48.73873" lon="1.80785">
        <ele>195.60000610352</ele>
        <time>2014-10-19T11:00:39.000Z</time>
      </trkpt>
      <trkpt lat="48.73881" lon="1.8078">
        <ele>195.60000610352</ele>
        <time>2014-10-19T11:00:45.000Z</time>
      </trkpt>
      <trkpt lat="48.73889" lon="1.8078">
        <ele>195.39999389648</ele>
        <time>2014-10-19T11:00:50.000Z</time>
      </trkpt>
      <trkpt lat="48.73897" lon="1.80779">
        <ele>195.39999389648</ele>
        <time>2014-10-19T11:00:56.000Z</time>
      </trkpt>
      <trkpt lat="48.73904" lon="1.8078">
        <ele>195.39999389648</ele>
        <time>2014-10-19T11:01:01.000Z</time>
      </trkpt>
      <trkpt lat="48.73916" lon="1.80776">
        <ele>194.80000305176</ele>
        <time>2014-10-19T11:01:08.000Z</time>
      </trkpt>
      <trkpt lat="48.73927" lon="1.80774">
        <ele>194.60000610352</ele>
        <time>2014-10-19T11:01:14.000Z</time>
      </trkpt>
      <trkpt lat="48.73936" lon="1.80771">
        <ele>194.19999694824</ele>
        <time>2014-10-19T11:01:20.000Z</time>
      </trkpt>
      <trkpt lat="48.73942" lon="1.80769">
        <ele>194</ele>
        <time>2014-10-19T11:01:26.000Z</time>
      </trkpt>
      <trkpt lat="48.73948" lon="1.80768">
        <ele>193.80000305176</ele>
        <time>2014-10-19T11:01:32.000Z</time>
      </trkpt>
      <trkpt lat="48.73957" lon="1.80766">
        <ele>193.60000610352</ele>
        <time>2014-10-19T11:01:37.000Z</time>
      </trkpt>
      <trkpt lat="48.73966" lon="1.80764">
        <ele>193.19999694824</ele>
        <time>2014-10-19T11:01:42.000Z</time>
      </trkpt>
      <trkpt lat="48.73972" lon="1.80763">
        <ele>193</ele>
        <time>2014-10-19T11:01:46.000Z</time>
      </trkpt>
      <trkpt lat="48.73978" lon="1.80765">
        <ele>192.80000305176</ele>
        <time>2014-10-19T11:01:49.000Z</time>
      </trkpt>
      <trkpt lat="48.73986" lon="1.80761">
        <ele>192.39999389648</ele>
        <time>2014-10-19T11:01:55.000Z</time>
      </trkpt>
      <trkpt lat="48.73999" lon="1.80761">
        <ele>191.80000305176</ele>
        <time>2014-10-19T11:02:02.000Z</time>
      </trkpt>
      <trkpt lat="48.74006" lon="1.80762">
        <ele>191.60000610352</ele>
        <time>2014-10-19T11:02:06.000Z</time>
      </trkpt>
      <trkpt lat="48.74016" lon="1.80762">
        <ele>191.19999694824</ele>
        <time>2014-10-19T11:02:12.000Z</time>
      </trkpt>
      <trkpt lat="48.74022" lon="1.8076">
        <ele>191</ele>
        <time>2014-10-19T11:02:16.000Z</time>
      </trkpt>
      <trkpt lat="48.7403" lon="1.80757">
        <ele>191</ele>
        <time>2014-10-19T11:02:22.000Z</time>
      </trkpt>
      <trkpt lat="48.74043" lon="1.80751">
        <ele>190.80000305176</ele>
        <time>2014-10-19T11:02:30.000Z</time>
      </trkpt>
      <trkpt lat="48.74051" lon="1.80751">
        <ele>190.80000305176</ele>
        <time>2014-10-19T11:02:35.000Z</time>
      </trkpt>
      <trkpt lat="48.74063" lon="1.80749">
        <ele>190.60000610352</ele>
        <time>2014-10-19T11:02:41.000Z</time>
      </trkpt>
      <trkpt lat="48.74071" lon="1.80751">
        <ele>190.80000305176</ele>
        <time>2014-10-19T11:02:47.000Z</time>
      </trkpt>
      <trkpt lat="48.74077" lon="1.8075">
        <ele>190.80000305176</ele>
        <time>2014-10-19T11:02:51.000Z</time>
      </trkpt>
      <trkpt lat="48.74086" lon="1.80748">
        <ele>190.60000610352</ele>
        <time>2014-10-19T11:02:57.000Z</time>
      </trkpt>
      <trkpt lat="48.74098" lon="1.80743">
        <ele>190.19999694824</ele>
        <time>2014-10-19T11:03:04.000Z</time>
      </trkpt>
      <trkpt lat="48.74109" lon="1.8074">
        <ele>190.19999694824</ele>
        <time>2014-10-19T11:03:11.000Z</time>
      </trkpt>
      <trkpt lat="48.74118" lon="1.80737">
        <ele>190.39999389648</ele>
        <time>2014-10-19T11:03:16.000Z</time>
      </trkpt>
      <trkpt lat="48.74129" lon="1.80739">
        <ele>191</ele>
        <time>2014-10-19T11:03:22.000Z</time>
      </trkpt>
      <trkpt lat="48.74135" lon="1.80738">
        <ele>191.19999694824</ele>
        <time>2014-10-19T11:03:26.000Z</time>
      </trkpt>
      <trkpt lat="48.74146" lon="1.80735">
        <ele>191.39999389648</ele>
        <time>2014-10-19T11:03:32.000Z</time>
      </trkpt>
      <trkpt lat="48.74151" lon="1.80735">
        <ele>191.60000610352</ele>
        <time>2014-10-19T11:03:35.000Z</time>
      </trkpt>
      <trkpt lat="48.74162" lon="1.80733">
        <ele>192</ele>
        <time>2014-10-19T11:03:42.000Z</time>
      </trkpt>
      <trkpt lat="48.74171" lon="1.8073">
        <ele>192.19999694824</ele>
        <time>2014-10-19T11:03:48.000Z</time>
      </trkpt>
      <trkpt lat="48.74179" lon="1.8073">
        <ele>192.39999389648</ele>
        <time>2014-10-19T11:03:54.000Z</time>
      </trkpt>
      <trkpt lat="48.74188" lon="1.80729">
        <ele>192.60000610352</ele>
        <time>2014-10-19T11:03:59.000Z</time>
      </trkpt>
      <trkpt lat="48.74199" lon="1.80722">
        <ele>192</ele>
        <time>2014-10-19T11:04:06.000Z</time>
      </trkpt>
      <trkpt lat="48.74208" lon="1.80719">
        <ele>191.80000305176</ele>
        <time>2014-10-19T11:04:12.000Z</time>
      </trkpt>
      <trkpt lat="48.74219" lon="1.80718">
        <ele>191.60000610352</ele>
        <time>2014-10-19T11:04:17.000Z</time>
      </trkpt>
      <trkpt lat="48.74221" lon="1.80718">
        <ele>191.60000610352</ele>
        <time>2014-10-19T11:04:19.000Z</time>
      </trkpt>
      <trkpt lat="48.74228" lon="1.80715">
        <ele>191.39999389648</ele>
        <time>2014-10-19T11:04:24.000Z</time>
      </trkpt>
      <trkpt lat="48.74238" lon="1.80712">
        <ele>191.19999694824</ele>
        <time>2014-10-19T11:04:31.000Z</time>
      </trkpt>
      <trkpt lat="48.74246" lon="1.8071">
        <ele>191</ele>
        <time>2014-10-19T11:04:36.000Z</time>
      </trkpt>
      <trkpt lat="48.74255" lon="1.80707">
        <ele>191</ele>
        <time>2014-10-19T11:04:42.000Z</time>
      </trkpt>
      <trkpt lat="48.74266" lon="1.80708">
        <ele>191.19999694824</ele>
        <time>2014-10-19T11:04:48.000Z</time>
      </trkpt>
      <trkpt lat="48.74269" lon="1.80707">
        <ele>191.19999694824</ele>
        <time>2014-10-19T11:04:50.000Z</time>
      </trkpt>
      <trkpt lat="48.74279" lon="1.80706">
        <ele>191.39999389648</ele>
        <time>2014-10-19T11:04:57.000Z</time>
      </trkpt>
      <trkpt lat="48.74289" lon="1.80708">
        <ele>191.39999389648</ele>
        <time>2014-10-19T11:05:03.000Z</time>
      </trkpt>
      <trkpt lat="48.74294" lon="1.80707">
        <ele>191.60000610352</ele>
        <time>2014-10-19T11:05:06.000Z</time>
      </trkpt>
      <trkpt lat="48.74301" lon="1.80704">
        <ele>191.60000610352</ele>
        <time>2014-10-19T11:05:13.000Z</time>
      </trkpt>
      <trkpt lat="48.74303" lon="1.80704">
        <ele>191.60000610352</ele>
        <time>2014-10-19T11:05:14.000Z</time>
      </trkpt>
      <trkpt lat="48.7431" lon="1.80702">
        <ele>191.60000610352</ele>
        <time>2014-10-19T11:05:19.000Z</time>
      </trkpt>
      <trkpt lat="48.74314" lon="1.80701">
        <ele>191.60000610352</ele>
        <time>2014-10-19T11:05:21.000Z</time>
      </trkpt>
      <trkpt lat="48.74322" lon="1.80701">
        <ele>191.60000610352</ele>
        <time>2014-10-19T11:05:26.000Z</time>
      </trkpt>
      <trkpt lat="48.74334" lon="1.80695">
        <ele>191</ele>
        <time>2014-10-19T11:05:33.000Z</time>
      </trkpt>
      <trkpt lat="48.74345" lon="1.80693">
        <ele>190.60000610352</ele>
        <time>2014-10-19T11:05:40.000Z</time>
      </trkpt>
      <trkpt lat="48.74358" lon="1.80691">
        <ele>190.19999694824</ele>
        <time>2014-10-19T11:05:48.000Z</time>
      </trkpt>
      <trkpt lat="48.7437" lon="1.8069">
        <ele>190</ele>
        <time>2014-10-19T11:05:56.000Z</time>
      </trkpt>
      <trkpt lat="48.7438" lon="1.80694">
        <ele>190</ele>
        <time>2014-10-19T11:06:02.000Z</time>
      </trkpt>
      <trkpt lat="48.74391" lon="1.8069">
        <ele>189.60000610352</ele>
        <time>2014-10-19T11:06:09.000Z</time>
      </trkpt>
      <trkpt lat="48.744" lon="1.80685">
        <ele>189.60000610352</ele>
        <time>2014-10-19T11:06:16.000Z</time>
      </trkpt>
      <trkpt lat="48.74406" lon="1.80683">
        <ele>189.60000610352</ele>
        <time>2014-10-19T11:06:20.000Z</time>
      </trkpt>
      <trkpt lat="48.7442" lon="1.80682">
        <ele>189.80000305176</ele>
        <time>2014-10-19T11:06:28.000Z</time>
      </trkpt>
      <trkpt lat="48.74429" lon="1.80686">
        <ele>190</ele>
        <time>2014-10-19T11:06:34.000Z</time>
      </trkpt>
      <trkpt lat="48.74439" lon="1.80683">
        <ele>190</ele>
        <time>2014-10-19T11:06:40.000Z</time>
      </trkpt>
      <trkpt lat="48.74452" lon="1.80677">
        <ele>189.80000305176</ele>
        <time>2014-10-19T11:06:48.000Z</time>
      </trkpt>
      <trkpt lat="48.7446" lon="1.80676">
        <ele>189.80000305176</ele>
        <time>2014-10-19T11:06:54.000Z</time>
      </trkpt>
      <trkpt lat="48.74472" lon="1.80681">
        <ele>190.19999694824</ele>
        <time>2014-10-19T11:07:02.000Z</time>
      </trkpt>
      <trkpt lat="48.74477" lon="1.80686">
        <ele>190.39999389648</ele>
        <time>2014-10-19T11:07:06.000Z</time>
      </trkpt>
      <trkpt lat="48.74482" lon="1.80691">
        <ele>190.60000610352</ele>
        <time>2014-10-19T11:07:12.000Z</time>
      </trkpt>
      <trkpt lat="48.74482" lon="1.80691">
        <ele>190.60000610352</ele>
        <time>2014-10-19T11:07:14.000Z</time>
      </trkpt>
      <trkpt lat="48.74519" lon="1.807">
        <ele>192</ele>
        <time>2014-10-19T11:10:18.000Z</time>
      </trkpt>
      <trkpt lat="48.74523" lon="1.80704">
        <ele>192</ele>
        <time>2014-10-19T11:10:21.000Z</time>
      </trkpt>
      <trkpt lat="48.74525" lon="1.80705">
        <ele>192</ele>
        <time>2014-10-19T11:10:23.000Z</time>
      </trkpt>
      <trkpt lat="48.74531" lon="1.80713">
        <ele>191.80000305176</ele>
        <time>2014-10-19T11:10:30.000Z</time>
      </trkpt>
      <trkpt lat="48.7454" lon="1.8072">
        <ele>191.80000305176</ele>
        <time>2014-10-19T11:10:38.000Z</time>
      </trkpt>
      <trkpt lat="48.74547" lon="1.80731">
        <ele>191.60000610352</ele>
        <time>2014-10-19T11:10:45.000Z</time>
      </trkpt>
      <trkpt lat="48.74555" lon="1.80736">
        <ele>191.60000610352</ele>
        <time>2014-10-19T11:10:51.000Z</time>
      </trkpt>
      <trkpt lat="48.74557" lon="1.80739">
        <ele>191.60000610352</ele>
        <time>2014-10-19T11:10:53.000Z</time>
      </trkpt>
      <trkpt lat="48.74564" lon="1.80745">
        <ele>191.80000305176</ele>
        <time>2014-10-19T11:10:59.000Z</time>
      </trkpt>
      <trkpt lat="48.74568" lon="1.80751">
        <ele>191.80000305176</ele>
        <time>2014-10-19T11:11:03.000Z</time>
      </trkpt>
      <trkpt lat="48.7457" lon="1.80756">
        <ele>192</ele>
        <time>2014-10-19T11:11:07.000Z</time>
      </trkpt>
      <trkpt lat="48.74575" lon="1.80763">
        <ele>192.19999694824</ele>
        <time>2014-10-19T11:11:13.000Z</time>
      </trkpt>
      <trkpt lat="48.74579" lon="1.80771">
        <ele>192.39999389648</ele>
        <time>2014-10-19T11:11:18.000Z</time>
      </trkpt>
      <trkpt lat="48.7458" lon="1.80772">
        <ele>192.60000610352</ele>
        <time>2014-10-19T11:11:19.000Z</time>
      </trkpt>
      <trkpt lat="48.74589" lon="1.80781">
        <ele>192.80000305176</ele>
        <time>2014-10-19T11:11:26.000Z</time>
      </trkpt>
      <trkpt lat="48.74596" lon="1.80792">
        <ele>193</ele>
        <time>2014-10-19T11:11:34.000Z</time>
      </trkpt>
      <trkpt lat="48.74601" lon="1.80801">
        <ele>193.19999694824</ele>
        <time>2014-10-19T11:11:41.000Z</time>
      </trkpt>
      <trkpt lat="48.74603" lon="1.80803">
        <ele>193.39999389648</ele>
        <time>2014-10-19T11:11:43.000Z</time>
      </trkpt>
      <trkpt lat="48.74606" lon="1.80807">
        <ele>193.39999389648</ele>
        <time>2014-10-19T11:11:47.000Z</time>
      </trkpt>
      <trkpt lat="48.7461" lon="1.80815">
        <ele>193.39999389648</ele>
        <time>2014-10-19T11:11:52.000Z</time>
      </trkpt>
      <trkpt lat="48.74613" lon="1.80819">
        <ele>193.19999694824</ele>
        <time>2014-10-19T11:11:54.000Z</time>
      </trkpt>
      <trkpt lat="48.74618" lon="1.80828">
        <ele>193</ele>
        <time>2014-10-19T11:12:01.000Z</time>
      </trkpt>
      <trkpt lat="48.7462" lon="1.80827">
        <ele>192.80000305176</ele>
        <time>2014-10-19T11:12:03.000Z</time>
      </trkpt>
      <trkpt lat="48.74626" lon="1.80831">
        <ele>192.39999389648</ele>
        <time>2014-10-19T11:12:09.000Z</time>
      </trkpt>
      <trkpt lat="48.74629" lon="1.80836">
        <ele>192.19999694824</ele>
        <time>2014-10-19T11:12:14.000Z</time>
      </trkpt>
      <trkpt lat="48.74635" lon="1.80844">
        <ele>191.80000305176</ele>
        <time>2014-10-19T11:12:19.000Z</time>
      </trkpt>
      <trkpt lat="48.7464" lon="1.80854">
        <ele>191.39999389648</ele>
        <time>2014-10-19T11:12:26.000Z</time>
      </trkpt>
      <trkpt lat="48.74645" lon="1.80862">
        <ele>191</ele>
        <time>2014-10-19T11:12:31.000Z</time>
      </trkpt>
      <trkpt lat="48.74649" lon="1.80869">
        <ele>190.80000305176</ele>
        <time>2014-10-19T11:12:35.000Z</time>
      </trkpt>
      <trkpt lat="48.74655" lon="1.80877">
        <ele>190.39999389648</ele>
        <time>2014-10-19T11:12:40.000Z</time>
      </trkpt>
      <trkpt lat="48.74663" lon="1.80884">
        <ele>189.80000305176</ele>
        <time>2014-10-19T11:12:46.000Z</time>
      </trkpt>
      <trkpt lat="48.7467" lon="1.80897">
        <ele>189.19999694824</ele>
        <time>2014-10-19T11:12:54.000Z</time>
      </trkpt>
      <trkpt lat="48.74674" lon="1.80905">
        <ele>189</ele>
        <time>2014-10-19T11:12:59.000Z</time>
      </trkpt>
      <trkpt lat="48.7468" lon="1.80913">
        <ele>188.19999694824</ele>
        <time>2014-10-19T11:13:04.000Z</time>
      </trkpt>
      <trkpt lat="48.74685" lon="1.80921">
        <ele>187.60000610352</ele>
        <time>2014-10-19T11:13:09.000Z</time>
      </trkpt>
      <trkpt lat="48.74685" lon="1.80923">
        <ele>187.60000610352</ele>
        <time>2014-10-19T11:13:10.000Z</time>
      </trkpt>
      <trkpt lat="48.74689" lon="1.80935">
        <ele>186.80000305176</ele>
        <time>2014-10-19T11:13:17.000Z</time>
      </trkpt>
      <trkpt lat="48.74692" lon="1.8094">
        <ele>186.60000610352</ele>
        <time>2014-10-19T11:13:20.000Z</time>
      </trkpt>
      <trkpt lat="48.74695" lon="1.80947">
        <ele>186.19999694824</ele>
        <time>2014-10-19T11:13:24.000Z</time>
      </trkpt>
      <trkpt lat="48.74697" lon="1.8095">
        <ele>186</ele>
        <time>2014-10-19T11:13:26.000Z</time>
      </trkpt>
      <trkpt lat="48.74702" lon="1.80956">
        <ele>185.60000610352</ele>
        <time>2014-10-19T11:13:32.000Z</time>
      </trkpt>
      <trkpt lat="48.74703" lon="1.80957">
        <ele>185.60000610352</ele>
        <time>2014-10-19T11:13:33.000Z</time>
      </trkpt>
      <trkpt lat="48.74705" lon="1.80965">
        <ele>185.19999694824</ele>
        <time>2014-10-19T11:13:38.000Z</time>
      </trkpt>
      <trkpt lat="48.74711" lon="1.80978">
        <ele>184.60000610352</ele>
        <time>2014-10-19T11:13:46.000Z</time>
      </trkpt>
      <trkpt lat="48.74712" lon="1.80988">
        <ele>184.19999694824</ele>
        <time>2014-10-19T11:13:51.000Z</time>
      </trkpt>
      <trkpt lat="48.74717" lon="1.80997">
        <ele>184.39999389648</ele>
        <time>2014-10-19T11:13:59.000Z</time>
      </trkpt>
      <trkpt lat="48.74722" lon="1.81002">
        <ele>184.39999389648</ele>
        <time>2014-10-19T11:14:03.000Z</time>
      </trkpt>
      <trkpt lat="48.74726" lon="1.81009">
        <ele>184.60000610352</ele>
        <time>2014-10-19T11:14:08.000Z</time>
      </trkpt>
      <trkpt lat="48.7473" lon="1.81014">
        <ele>184.60000610352</ele>
        <time>2014-10-19T11:14:12.000Z</time>
      </trkpt>
      <trkpt lat="48.74736" lon="1.81021">
        <ele>184.80000305176</ele>
        <time>2014-10-19T11:14:17.000Z</time>
      </trkpt>
      <trkpt lat="48.74741" lon="1.81027">
        <ele>185</ele>
        <time>2014-10-19T11:14:22.000Z</time>
      </trkpt>
      <trkpt lat="48.74746" lon="1.81033">
        <ele>185</ele>
        <time>2014-10-19T11:14:30.000Z</time>
      </trkpt>
      <trkpt lat="48.74754" lon="1.81044">
        <ele>185.19999694824</ele>
        <time>2014-10-19T11:14:36.000Z</time>
      </trkpt>
      <trkpt lat="48.74758" lon="1.81052">
        <ele>185.60000610352</ele>
        <time>2014-10-19T11:14:41.000Z</time>
      </trkpt>
      <trkpt lat="48.74765" lon="1.81061">
        <ele>185.80000305176</ele>
        <time>2014-10-19T11:14:47.000Z</time>
      </trkpt>
      <trkpt lat="48.74767" lon="1.81064">
        <ele>185.80000305176</ele>
        <time>2014-10-19T11:14:49.000Z</time>
      </trkpt>
      <trkpt lat="48.74769" lon="1.81069">
        <ele>186</ele>
        <time>2014-10-19T11:14:52.000Z</time>
      </trkpt>
      <trkpt lat="48.74773" lon="1.81079">
        <ele>186</ele>
        <time>2014-10-19T11:14:58.000Z</time>
      </trkpt>
      <trkpt lat="48.74779" lon="1.81086">
        <ele>185.80000305176</ele>
        <time>2014-10-19T11:15:02.000Z</time>
      </trkpt>
      <trkpt lat="48.74782" lon="1.81094">
        <ele>185.60000610352</ele>
        <time>2014-10-19T11:15:06.000Z</time>
      </trkpt>
      <trkpt lat="48.74786" lon="1.81098">
        <ele>185.39999389648</ele>
        <time>2014-10-19T11:15:09.000Z</time>
      </trkpt>
      <trkpt lat="48.74797" lon="1.81106">
        <ele>184.80000305176</ele>
        <time>2014-10-19T11:15:17.000Z</time>
      </trkpt>
      <trkpt lat="48.74797" lon="1.81107">
        <ele>184.80000305176</ele>
        <time>2014-10-19T11:15:18.000Z</time>
      </trkpt>
      <trkpt lat="48.74805" lon="1.81113">
        <ele>184.19999694824</ele>
        <time>2014-10-19T11:15:23.000Z</time>
      </trkpt>
      <trkpt lat="48.74813" lon="1.81124">
        <ele>183.80000305176</ele>
        <time>2014-10-19T11:15:31.000Z</time>
      </trkpt>
      <trkpt lat="48.74821" lon="1.81131">
        <ele>183.39999389648</ele>
        <time>2014-10-19T11:15:37.000Z</time>
      </trkpt>
      <trkpt lat="48.74825" lon="1.81139">
        <ele>183.19999694824</ele>
        <time>2014-10-19T11:15:44.000Z</time>
      </trkpt>
      <trkpt lat="48.74828" lon="1.81146">
        <ele>183.19999694824</ele>
        <time>2014-10-19T11:15:48.000Z</time>
      </trkpt>
      <trkpt lat="48.74834" lon="1.81152">
        <ele>182.80000305176</ele>
        <time>2014-10-19T11:15:52.000Z</time>
      </trkpt>
      <trkpt lat="48.74837" lon="1.81155">
        <ele>182.60000610352</ele>
        <time>2014-10-19T11:15:55.000Z</time>
      </trkpt>
      <trkpt lat="48.74842" lon="1.81161">
        <ele>182.19999694824</ele>
        <time>2014-10-19T11:15:59.000Z</time>
      </trkpt>
      <trkpt lat="48.74849" lon="1.81167">
        <ele>181.80000305176</ele>
        <time>2014-10-19T11:16:06.000Z</time>
      </trkpt>
      <trkpt lat="48.74855" lon="1.81173">
        <ele>181.39999389648</ele>
        <time>2014-10-19T11:16:11.000Z</time>
      </trkpt>
      <trkpt lat="48.74859" lon="1.81178">
        <ele>181.39999389648</ele>
        <time>2014-10-19T11:16:16.000Z</time>
      </trkpt>
      <trkpt lat="48.74866" lon="1.81185">
        <ele>181.19999694824</ele>
        <time>2014-10-19T11:16:22.000Z</time>
      </trkpt>
      <trkpt lat="48.74869" lon="1.81187">
        <ele>181</ele>
        <time>2014-10-19T11:16:25.000Z</time>
      </trkpt>
      <trkpt lat="48.74874" lon="1.81193">
        <ele>181</ele>
        <time>2014-10-19T11:16:30.000Z</time>
      </trkpt>
      <trkpt lat="48.74884" lon="1.81202">
        <ele>180.60000610352</ele>
        <time>2014-10-19T11:16:36.000Z</time>
      </trkpt>
      <trkpt lat="48.74886" lon="1.81204">
        <ele>180.60000610352</ele>
        <time>2014-10-19T11:16:37.000Z</time>
      </trkpt>
      <trkpt lat="48.74889" lon="1.81207">
        <ele>180.60000610352</ele>
        <time>2014-10-19T11:16:39.000Z</time>
      </trkpt>
      <trkpt lat="48.749" lon="1.81217">
        <ele>180.19999694824</ele>
        <time>2014-10-19T11:16:46.000Z</time>
      </trkpt>
      <trkpt lat="48.74907" lon="1.81223">
        <ele>180</ele>
        <time>2014-10-19T11:16:51.000Z</time>
      </trkpt>
      <trkpt lat="48.74908" lon="1.81224">
        <ele>180</ele>
        <time>2014-10-19T11:16:52.000Z</time>
      </trkpt>
      <trkpt lat="48.74913" lon="1.8123">
        <ele>180</ele>
        <time>2014-10-19T11:16:58.000Z</time>
      </trkpt>
      <trkpt lat="48.74917" lon="1.81233">
        <ele>179.80000305176</ele>
        <time>2014-10-19T11:17:03.000Z</time>
      </trkpt>
      <trkpt lat="48.74924" lon="1.8124">
        <ele>179.60000610352</ele>
        <time>2014-10-19T11:17:10.000Z</time>
      </trkpt>
      <trkpt lat="48.74933" lon="1.81243">
        <ele>179.19999694824</ele>
        <time>2014-10-19T11:17:17.000Z</time>
      </trkpt>
      <trkpt lat="48.74941" lon="1.8125">
        <ele>179</ele>
        <time>2014-10-19T11:17:22.000Z</time>
      </trkpt>
      <trkpt lat="48.74948" lon="1.81257">
        <ele>178.80000305176</ele>
        <time>2014-10-19T11:17:27.000Z</time>
      </trkpt>
      <trkpt lat="48.74961" lon="1.81266">
        <ele>178.39999389648</ele>
        <time>2014-10-19T11:17:36.000Z</time>
      </trkpt>
      <trkpt lat="48.74963" lon="1.81267">
        <ele>178.39999389648</ele>
        <time>2014-10-19T11:17:37.000Z</time>
      </trkpt>
      <trkpt lat="48.74969" lon="1.81273">
        <ele>178.19999694824</ele>
        <time>2014-10-19T11:17:46.000Z</time>
      </trkpt>
      <trkpt lat="48.74974" lon="1.81278">
        <ele>178.19999694824</ele>
        <time>2014-10-19T11:17:52.000Z</time>
      </trkpt>
      <trkpt lat="48.74977" lon="1.8128">
        <ele>178</ele>
        <time>2014-10-19T11:17:54.000Z</time>
      </trkpt>
      <trkpt lat="48.74986" lon="1.81283">
        <ele>177.80000305176</ele>
        <time>2014-10-19T11:18:01.000Z</time>
      </trkpt>
      <trkpt lat="48.74991" lon="1.81287">
        <ele>177.80000305176</ele>
        <time>2014-10-19T11:18:06.000Z</time>
      </trkpt>
      <trkpt lat="48.74997" lon="1.81293">
        <ele>177.60000610352</ele>
        <time>2014-10-19T11:18:11.000Z</time>
      </trkpt>
      <trkpt lat="48.75006" lon="1.81297">
        <ele>177.39999389648</ele>
        <time>2014-10-19T11:18:18.000Z</time>
      </trkpt>
      <trkpt lat="48.75009" lon="1.813">
        <ele>177.39999389648</ele>
        <time>2014-10-19T11:18:20.000Z</time>
      </trkpt>
      <trkpt lat="48.7502" lon="1.81309">
        <ele>177.19999694824</ele>
        <time>2014-10-19T11:18:28.000Z</time>
      </trkpt>
      <trkpt lat="48.75027" lon="1.81312">
        <ele>177</ele>
        <time>2014-10-19T11:18:34.000Z</time>
      </trkpt>
      <trkpt lat="48.75027" lon="1.81314">
        <ele>176.80000305176</ele>
        <time>2014-10-19T11:18:36.000Z</time>
      </trkpt>
      <trkpt lat="48.75031" lon="1.81319">
        <ele>176.60000610352</ele>
        <time>2014-10-19T11:18:42.000Z</time>
      </trkpt>
      <trkpt lat="48.75039" lon="1.81325">
        <ele>176</ele>
        <time>2014-10-19T11:18:48.000Z</time>
      </trkpt>
      <trkpt lat="48.75041" lon="1.81328">
        <ele>175.80000305176</ele>
        <time>2014-10-19T11:18:50.000Z</time>
      </trkpt>
      <trkpt lat="48.7505" lon="1.81337">
        <ele>174.60000610352</ele>
        <time>2014-10-19T11:18:56.000Z</time>
      </trkpt>
      <trkpt lat="48.75051" lon="1.81338">
        <ele>174.60000610352</ele>
        <time>2014-10-19T11:18:57.000Z</time>
      </trkpt>
      <trkpt lat="48.75061" lon="1.81345">
        <ele>173.60000610352</ele>
        <time>2014-10-19T11:19:05.000Z</time>
      </trkpt>
      <trkpt lat="48.75061" lon="1.81346">
        <ele>173.60000610352</ele>
        <time>2014-10-19T11:19:06.000Z</time>
      </trkpt>
      <trkpt lat="48.75068" lon="1.81354">
        <ele>172.60000610352</ele>
        <time>2014-10-19T11:19:13.000Z</time>
      </trkpt>
      <trkpt lat="48.75076" lon="1.81358">
        <ele>172</ele>
        <time>2014-10-19T11:19:19.000Z</time>
      </trkpt>
      <trkpt lat="48.75086" lon="1.81363">
        <ele>171.19999694824</ele>
        <time>2014-10-19T11:19:26.000Z</time>
      </trkpt>
      <trkpt lat="48.75094" lon="1.81369">
        <ele>170.39999389648</ele>
        <time>2014-10-19T11:19:33.000Z</time>
      </trkpt>
      <trkpt lat="48.75095" lon="1.81368">
        <ele>170.39999389648</ele>
        <time>2014-10-19T11:19:35.000Z</time>
      </trkpt>
      <trkpt lat="48.75099" lon="1.81369">
        <ele>170.19999694824</ele>
        <time>2014-10-19T11:19:40.000Z</time>
      </trkpt>
      <trkpt lat="48.75104" lon="1.81368">
        <ele>170.19999694824</ele>
        <time>2014-10-19T11:19:44.000Z</time>
      </trkpt>
      <trkpt lat="48.75113" lon="1.81374">
        <ele>169</ele>
        <time>2014-10-19T11:19:50.000Z</time>
      </trkpt>
      <trkpt lat="48.75116" lon="1.81372">
        <ele>169</ele>
        <time>2014-10-19T11:19:55.000Z</time>
      </trkpt>
      <trkpt lat="48.7512" lon="1.81372">
        <ele>168.60000610352</ele>
        <time>2014-10-19T11:19:58.000Z</time>
      </trkpt>
      <trkpt lat="48.75132" lon="1.8138">
        <ele>167</ele>
        <time>2014-10-19T11:20:06.000Z</time>
      </trkpt>
      <trkpt lat="48.75139" lon="1.8139">
        <ele>165.80000305176</ele>
        <time>2014-10-19T11:20:13.000Z</time>
      </trkpt>
      <trkpt lat="48.75142" lon="1.81392">
        <ele>165.39999389648</ele>
        <time>2014-10-19T11:20:15.000Z</time>
      </trkpt>
      <trkpt lat="48.7515" lon="1.81402">
        <ele>164</ele>
        <time>2014-10-19T11:20:23.000Z</time>
      </trkpt>
      <trkpt lat="48.75151" lon="1.81404">
        <ele>163.80000305176</ele>
        <time>2014-10-19T11:20:26.000Z</time>
      </trkpt>
      <trkpt lat="48.75155" lon="1.81406">
        <ele>163.39999389648</ele>
        <time>2014-10-19T11:20:31.000Z</time>
      </trkpt>
      <trkpt lat="48.75162" lon="1.81414">
        <ele>162.19999694824</ele>
        <time>2014-10-19T11:20:38.000Z</time>
      </trkpt>
      <trkpt lat="48.75167" lon="1.81425">
        <ele>161</ele>
        <time>2014-10-19T11:20:46.000Z</time>
      </trkpt>
      <trkpt lat="48.75173" lon="1.81431">
        <ele>160.19999694824</ele>
        <time>2014-10-19T11:20:51.000Z</time>
      </trkpt>
      <trkpt lat="48.75178" lon="1.81435">
        <ele>159.60000610352</ele>
        <time>2014-10-19T11:20:54.000Z</time>
      </trkpt>
      <trkpt lat="48.75185" lon="1.81445">
        <ele>158.39999389648</ele>
        <time>2014-10-19T11:21:01.000Z</time>
      </trkpt>
      <trkpt lat="48.75186" lon="1.81448">
        <ele>158</ele>
        <time>2014-10-19T11:21:03.000Z</time>
      </trkpt>
      <trkpt lat="48.7519" lon="1.81457">
        <ele>157.19999694824</ele>
        <time>2014-10-19T11:21:09.000Z</time>
      </trkpt>
      <trkpt lat="48.75198" lon="1.81464">
        <ele>156</ele>
        <time>2014-10-19T11:21:15.000Z</time>
      </trkpt>
      <trkpt lat="48.75203" lon="1.81471">
        <ele>155.19999694824</ele>
        <time>2014-10-19T11:21:20.000Z</time>
      </trkpt>
      <trkpt lat="48.75206" lon="1.81474">
        <ele>154.80000305176</ele>
        <time>2014-10-19T11:21:22.000Z</time>
      </trkpt>
      <trkpt lat="48.75209" lon="1.8148">
        <ele>154.19999694824</ele>
        <time>2014-10-19T11:21:25.000Z</time>
      </trkpt>
      <trkpt lat="48.75215" lon="1.81486">
        <ele>153.19999694824</ele>
        <time>2014-10-19T11:21:29.000Z</time>
      </trkpt>
      <trkpt lat="48.75222" lon="1.815">
        <ele>152</ele>
        <time>2014-10-19T11:21:36.000Z</time>
      </trkpt>
      <trkpt lat="48.75224" lon="1.81507">
        <ele>151.80000305176</ele>
        <time>2014-10-19T11:21:41.000Z</time>
      </trkpt>
      <trkpt lat="48.75228" lon="1.81516">
        <ele>151.19999694824</ele>
        <time>2014-10-19T11:21:48.000Z</time>
      </trkpt>
      <trkpt lat="48.7523" lon="1.81526">
        <ele>150.60000610352</ele>
        <time>2014-10-19T11:21:55.000Z</time>
      </trkpt>
      <trkpt lat="48.75235" lon="1.8153">
        <ele>150</ele>
        <time>2014-10-19T11:21:59.000Z</time>
      </trkpt>
      <trkpt lat="48.75242" lon="1.81538">
        <ele>149.19999694824</ele>
        <time>2014-10-19T11:22:04.000Z</time>
      </trkpt>
      <trkpt lat="48.75247" lon="1.81546">
        <ele>148.60000610352</ele>
        <time>2014-10-19T11:22:08.000Z</time>
      </trkpt>
      <trkpt lat="48.75254" lon="1.81556">
        <ele>147.80000305176</ele>
        <time>2014-10-19T11:22:14.000Z</time>
      </trkpt>
      <trkpt lat="48.75256" lon="1.81562">
        <ele>147.19999694824</ele>
        <time>2014-10-19T11:22:18.000Z</time>
      </trkpt>
      <trkpt lat="48.75265" lon="1.81573">
        <ele>146.19999694824</ele>
        <time>2014-10-19T11:22:25.000Z</time>
      </trkpt>
      <trkpt lat="48.75269" lon="1.81577">
        <ele>145.80000305176</ele>
        <time>2014-10-19T11:22:27.000Z</time>
      </trkpt>
      <trkpt lat="48.75272" lon="1.81582">
        <ele>145.39999389648</ele>
        <time>2014-10-19T11:22:31.000Z</time>
      </trkpt>
      <trkpt lat="48.75283" lon="1.81594">
        <ele>144.60000610352</ele>
        <time>2014-10-19T11:22:40.000Z</time>
      </trkpt>
      <trkpt lat="48.75286" lon="1.81598">
        <ele>144.39999389648</ele>
        <time>2014-10-19T11:22:43.000Z</time>
      </trkpt>
      <trkpt lat="48.7529" lon="1.81602">
        <ele>144</ele>
        <time>2014-10-19T11:22:47.000Z</time>
      </trkpt>
      <trkpt lat="48.75293" lon="1.81614">
        <ele>143.39999389648</ele>
        <time>2014-10-19T11:22:52.000Z</time>
      </trkpt>
      <trkpt lat="48.75296" lon="1.81625">
        <ele>142.80000305176</ele>
        <time>2014-10-19T11:22:57.000Z</time>
      </trkpt>
      <trkpt lat="48.753" lon="1.81633">
        <ele>142.39999389648</ele>
        <time>2014-10-19T11:23:02.000Z</time>
      </trkpt>
      <trkpt lat="48.75308" lon="1.81646">
        <ele>141.60000610352</ele>
        <time>2014-10-19T11:23:10.000Z</time>
      </trkpt>
      <trkpt lat="48.75317" lon="1.81654">
        <ele>141</ele>
        <time>2014-10-19T11:23:17.000Z</time>
      </trkpt>
      <trkpt lat="48.75318" lon="1.81653">
        <ele>141</ele>
        <time>2014-10-19T11:23:18.000Z</time>
      </trkpt>
      <trkpt lat="48.7532" lon="1.81654">
        <ele>140.80000305176</ele>
        <time>2014-10-19T11:23:20.000Z</time>
      </trkpt>
      <trkpt lat="48.75327" lon="1.81662">
        <ele>140.19999694824</ele>
        <time>2014-10-19T11:23:26.000Z</time>
      </trkpt>
      <trkpt lat="48.75331" lon="1.81669">
        <ele>139.60000610352</ele>
        <time>2014-10-19T11:23:31.000Z</time>
      </trkpt>
      <trkpt lat="48.75334" lon="1.81678">
        <ele>138.80000305176</ele>
        <time>2014-10-19T11:23:36.000Z</time>
      </trkpt>
      <trkpt lat="48.75333" lon="1.81684">
        <ele>138.39999389648</ele>
        <time>2014-10-19T11:23:40.000Z</time>
      </trkpt>
      <trkpt lat="48.75337" lon="1.81696">
        <ele>137.60000610352</ele>
        <time>2014-10-19T11:23:47.000Z</time>
      </trkpt>
      <trkpt lat="48.75338" lon="1.81697">
        <ele>137.39999389648</ele>
        <time>2014-10-19T11:23:48.000Z</time>
      </trkpt>
      <trkpt lat="48.75347" lon="1.81699">
        <ele>137</ele>
        <time>2014-10-19T11:23:54.000Z</time>
      </trkpt>
      <trkpt lat="48.75351" lon="1.8171">
        <ele>136.19999694824</ele>
        <time>2014-10-19T11:23:59.000Z</time>
      </trkpt>
      <trkpt lat="48.75358" lon="1.81722">
        <ele>135.39999389648</ele>
        <time>2014-10-19T11:24:07.000Z</time>
      </trkpt>
      <trkpt lat="48.75362" lon="1.81729">
        <ele>135</ele>
        <time>2014-10-19T11:24:11.000Z</time>
      </trkpt>
      <trkpt lat="48.75365" lon="1.8174">
        <ele>134.39999389648</ele>
        <time>2014-10-19T11:24:16.000Z</time>
      </trkpt>
      <trkpt lat="48.75381" lon="1.81752">
        <ele>134</ele>
        <time>2014-10-19T11:24:24.000Z</time>
      </trkpt>
      <trkpt lat="48.75385" lon="1.81753">
        <ele>134</ele>
        <time>2014-10-19T11:24:26.000Z</time>
      </trkpt>
      <trkpt lat="48.7539" lon="1.81758">
        <ele>133.80000305176</ele>
        <time>2014-10-19T11:24:31.000Z</time>
      </trkpt>
      <trkpt lat="48.7539" lon="1.81762">
        <ele>133.60000610352</ele>
        <time>2014-10-19T11:24:33.000Z</time>
      </trkpt>
      <trkpt lat="48.75392" lon="1.81768">
        <ele>133.19999694824</ele>
        <time>2014-10-19T11:24:37.000Z</time>
      </trkpt>
      <trkpt lat="48.75394" lon="1.81773">
        <ele>133</ele>
        <time>2014-10-19T11:24:41.000Z</time>
      </trkpt>
      <trkpt lat="48.75403" lon="1.81781">
        <ele>132.60000610352</ele>
        <time>2014-10-19T11:24:48.000Z</time>
      </trkpt>
      <trkpt lat="48.75412" lon="1.81791">
        <ele>132.39999389648</ele>
        <time>2014-10-19T11:24:54.000Z</time>
      </trkpt>
      <trkpt lat="48.75415" lon="1.81796">
        <ele>132</ele>
        <time>2014-10-19T11:24:58.000Z</time>
      </trkpt>
      <trkpt lat="48.75416" lon="1.81799">
        <ele>131.80000305176</ele>
        <time>2014-10-19T11:25:01.000Z</time>
      </trkpt>
      <trkpt lat="48.75421" lon="1.81803">
        <ele>131.80000305176</ele>
        <time>2014-10-19T11:25:05.000Z</time>
      </trkpt>
      <trkpt lat="48.75424" lon="1.8181">
        <ele>131.39999389648</ele>
        <time>2014-10-19T11:25:10.000Z</time>
      </trkpt>
      <trkpt lat="48.75429" lon="1.81817">
        <ele>131.19999694824</ele>
        <time>2014-10-19T11:25:15.000Z</time>
      </trkpt>
      <trkpt lat="48.75438" lon="1.81824">
        <ele>131</ele>
        <time>2014-10-19T11:25:21.000Z</time>
      </trkpt>
      <trkpt lat="48.75444" lon="1.81829">
        <ele>131.80000305176</ele>
        <time>2014-10-19T11:25:25.000Z</time>
      </trkpt>
      <trkpt lat="48.75451" lon="1.81838">
        <ele>132.60000610352</ele>
        <time>2014-10-19T11:25:31.000Z</time>
      </trkpt>
      <trkpt lat="48.75455" lon="1.8185">
        <ele>133.19999694824</ele>
        <time>2014-10-19T11:25:37.000Z</time>
      </trkpt>
      <trkpt lat="48.75463" lon="1.81863">
        <ele>134.19999694824</ele>
        <time>2014-10-19T11:25:45.000Z</time>
      </trkpt>
      <trkpt lat="48.75466" lon="1.81872">
        <ele>134.39999389648</ele>
        <time>2014-10-19T11:25:49.000Z</time>
      </trkpt>
      <trkpt lat="48.75469" lon="1.81886">
        <ele>134.80000305176</ele>
        <time>2014-10-19T11:25:56.000Z</time>
      </trkpt>
      <trkpt lat="48.75471" lon="1.81891">
        <ele>135</ele>
        <time>2014-10-19T11:25:58.000Z</time>
      </trkpt>
      <trkpt lat="48.75473" lon="1.81907">
        <ele>135</ele>
        <time>2014-10-19T11:26:06.000Z</time>
      </trkpt>
      <trkpt lat="48.75473" lon="1.81913">
        <ele>134.80000305176</ele>
        <time>2014-10-19T11:26:09.000Z</time>
      </trkpt>
      <trkpt lat="48.7547" lon="1.81914">
        <ele>134.39999389648</ele>
        <time>2014-10-19T11:26:15.000Z</time>
      </trkpt>
      <trkpt lat="48.75466" lon="1.81905">
        <ele>134</ele>
        <time>2014-10-19T11:26:19.000Z</time>
      </trkpt>
      <trkpt lat="48.75457" lon="1.81885">
        <ele>133</ele>
        <time>2014-10-19T11:26:28.000Z</time>
      </trkpt>
      <trkpt lat="48.75457" lon="1.81883">
        <ele>133</ele>
        <time>2014-10-19T11:26:29.000Z</time>
      </trkpt>
      <trkpt lat="48.75456" lon="1.81875">
        <ele>133</ele>
        <time>2014-10-19T11:26:33.000Z</time>
      </trkpt>
      <trkpt lat="48.7545" lon="1.81859">
        <ele>132.39999389648</ele>
        <time>2014-10-19T11:26:40.000Z</time>
      </trkpt>
      <trkpt lat="48.75444" lon="1.8185">
        <ele>131.60000610352</ele>
        <time>2014-10-19T11:26:46.000Z</time>
      </trkpt>
      <trkpt lat="48.75435" lon="1.81838">
        <ele>130.80000305176</ele>
        <time>2014-10-19T11:26:54.000Z</time>
      </trkpt>
      <trkpt lat="48.75429" lon="1.8183">
        <ele>130.80000305176</ele>
        <time>2014-10-19T11:27:00.000Z</time>
      </trkpt>
      <trkpt lat="48.75428" lon="1.8183">
        <ele>131</ele>
        <time>2014-10-19T11:27:01.000Z</time>
      </trkpt>
      <trkpt lat="48.75422" lon="1.81826">
        <ele>131</ele>
        <time>2014-10-19T11:27:05.000Z</time>
      </trkpt>
      <trkpt lat="48.75423" lon="1.81823">
        <ele>131</ele>
        <time>2014-10-19T11:27:07.000Z</time>
      </trkpt>
      <trkpt lat="48.75426" lon="1.81815">
        <ele>131.19999694824</ele>
        <time>2014-10-19T11:27:12.000Z</time>
      </trkpt>
      <trkpt lat="48.75426" lon="1.81804">
        <ele>131.80000305176</ele>
        <time>2014-10-19T11:27:17.000Z</time>
      </trkpt>
      <trkpt lat="48.75424" lon="1.81797">
        <ele>132.39999389648</ele>
        <time>2014-10-19T11:27:20.000Z</time>
      </trkpt>
      <trkpt lat="48.75423" lon="1.81781">
        <ele>133.39999389648</ele>
        <time>2014-10-19T11:27:27.000Z</time>
      </trkpt>
      <trkpt lat="48.75421" lon="1.81772">
        <ele>134</ele>
        <time>2014-10-19T11:27:30.000Z</time>
      </trkpt>
      <trkpt lat="48.75421" lon="1.81763">
        <ele>134.60000610352</ele>
        <time>2014-10-19T11:27:36.000Z</time>
      </trkpt>
      <trkpt lat="48.75421" lon="1.81754">
        <ele>135.39999389648</ele>
        <time>2014-10-19T11:27:40.000Z</time>
      </trkpt>
      <trkpt lat="48.75418" lon="1.81742">
        <ele>136</ele>
        <time>2014-10-19T11:27:46.000Z</time>
      </trkpt>
      <trkpt lat="48.75417" lon="1.8174">
        <ele>136.19999694824</ele>
        <time>2014-10-19T11:27:47.000Z</time>
      </trkpt>
      <trkpt lat="48.75415" lon="1.81727">
        <ele>137</ele>
        <time>2014-10-19T11:27:53.000Z</time>
      </trkpt>
      <trkpt lat="48.75416" lon="1.81718">
        <ele>137.80000305176</ele>
        <time>2014-10-19T11:27:58.000Z</time>
      </trkpt>
      <trkpt lat="48.75419" lon="1.81706">
        <ele>138.19999694824</ele>
        <time>2014-10-19T11:28:04.000Z</time>
      </trkpt>
      <trkpt lat="48.75419" lon="1.81702">
        <ele>138.39999389648</ele>
        <time>2014-10-19T11:28:07.000Z</time>
      </trkpt>
      <trkpt lat="48.75412" lon="1.81694">
        <ele>138.60000610352</ele>
        <time>2014-10-19T11:28:14.000Z</time>
      </trkpt>
      <trkpt lat="48.75412" lon="1.81689">
        <ele>138.80000305176</ele>
        <time>2014-10-19T11:28:16.000Z</time>
      </trkpt>
      <trkpt lat="48.75411" lon="1.81682">
        <ele>139</ele>
        <time>2014-10-19T11:28:19.000Z</time>
      </trkpt>
      <trkpt lat="48.75411" lon="1.81668">
        <ele>139.60000610352</ele>
        <time>2014-10-19T11:28:25.000Z</time>
      </trkpt>
      <trkpt lat="48.75411" lon="1.81665">
        <ele>139.60000610352</ele>
        <time>2014-10-19T11:28:26.000Z</time>
      </trkpt>
      <trkpt lat="48.75411" lon="1.81646">
        <ele>140.39999389648</ele>
        <time>2014-10-19T11:28:32.000Z</time>
      </trkpt>
      <trkpt lat="48.7541" lon="1.81634">
        <ele>140.80000305176</ele>
        <time>2014-10-19T11:28:37.000Z</time>
      </trkpt>
      <trkpt lat="48.75409" lon="1.81625">
        <ele>141</ele>
        <time>2014-10-19T11:28:40.000Z</time>
      </trkpt>
      <trkpt lat="48.75408" lon="1.81618">
        <ele>141</ele>
        <time>2014-10-19T11:28:42.000Z</time>
      </trkpt>
      <trkpt lat="48.75408" lon="1.816">
        <ele>141</ele>
        <time>2014-10-19T11:28:49.000Z</time>
      </trkpt>
      <trkpt lat="48.75414" lon="1.81592">
        <ele>140.80000305176</ele>
        <time>2014-10-19T11:28:55.000Z</time>
      </trkpt>
      <trkpt lat="48.75416" lon="1.81587">
        <ele>140.80000305176</ele>
        <time>2014-10-19T11:28:58.000Z</time>
      </trkpt>
      <trkpt lat="48.75419" lon="1.81574">
        <ele>140.60000610352</ele>
        <time>2014-10-19T11:29:05.000Z</time>
      </trkpt>
      <trkpt lat="48.7542" lon="1.81567">
        <ele>140.80000305176</ele>
        <time>2014-10-19T11:29:08.000Z</time>
      </trkpt>
      <trkpt lat="48.75424" lon="1.8155">
        <ele>141</ele>
        <time>2014-10-19T11:29:15.000Z</time>
      </trkpt>
      <trkpt lat="48.75426" lon="1.81541">
        <ele>141.19999694824</ele>
        <time>2014-10-19T11:29:19.000Z</time>
      </trkpt>
      <trkpt lat="48.75431" lon="1.81526">
        <ele>141.39999389648</ele>
        <time>2014-10-19T11:29:25.000Z</time>
      </trkpt>
      <trkpt lat="48.75436" lon="1.81517">
        <ele>141.39999389648</ele>
        <time>2014-10-19T11:29:30.000Z</time>
      </trkpt>
      <trkpt lat="48.75438" lon="1.81513">
        <ele>141.39999389648</ele>
        <time>2014-10-19T11:29:33.000Z</time>
      </trkpt>
      <trkpt lat="48.75443" lon="1.81509">
        <ele>142.60000610352</ele>
        <time>2014-10-19T11:29:37.000Z</time>
      </trkpt>
      <trkpt lat="48.7545" lon="1.81497">
        <ele>144</ele>
        <time>2014-10-19T11:29:44.000Z</time>
      </trkpt>
      <trkpt lat="48.75453" lon="1.81485">
        <ele>143.80000305176</ele>
        <time>2014-10-19T11:29:51.000Z</time>
      </trkpt>
      <trkpt lat="48.75454" lon="1.8147">
        <ele>145</ele>
        <time>2014-10-19T11:29:57.000Z</time>
      </trkpt>
      <trkpt lat="48.75459" lon="1.81458">
        <ele>146</ele>
        <time>2014-10-19T11:30:03.000Z</time>
      </trkpt>
      <trkpt lat="48.75459" lon="1.81454">
        <ele>146.39999389648</ele>
        <time>2014-10-19T11:30:04.000Z</time>
      </trkpt>
      <trkpt lat="48.7546" lon="1.81448">
        <ele>146.80000305176</ele>
        <time>2014-10-19T11:30:07.000Z</time>
      </trkpt>
      <trkpt lat="48.75464" lon="1.81432">
        <ele>148.19999694824</ele>
        <time>2014-10-19T11:30:14.000Z</time>
      </trkpt>
      <trkpt lat="48.7547" lon="1.81423">
        <ele>148</ele>
        <time>2014-10-19T11:30:21.000Z</time>
      </trkpt>
      <trkpt lat="48.7547" lon="1.81419">
        <ele>148</ele>
        <time>2014-10-19T11:30:22.000Z</time>
      </trkpt>
      <trkpt lat="48.75476" lon="1.81398">
        <ele>147.60000610352</ele>
        <time>2014-10-19T11:30:30.000Z</time>
      </trkpt>
      <trkpt lat="48.75479" lon="1.81391">
        <ele>147.80000305176</ele>
        <time>2014-10-19T11:30:33.000Z</time>
      </trkpt>
      <trkpt lat="48.75485" lon="1.81385">
        <ele>148</ele>
        <time>2014-10-19T11:30:39.000Z</time>
      </trkpt>
      <trkpt lat="48.7549" lon="1.81382">
        <ele>148.19999694824</ele>
        <time>2014-10-19T11:30:44.000Z</time>
      </trkpt>
      <trkpt lat="48.755" lon="1.81374">
        <ele>148.19999694824</ele>
        <time>2014-10-19T11:30:51.000Z</time>
      </trkpt>
      <trkpt lat="48.75506" lon="1.81368">
        <ele>148</ele>
        <time>2014-10-19T11:30:55.000Z</time>
      </trkpt>
      <trkpt lat="48.75512" lon="1.81364">
        <ele>147.80000305176</ele>
        <time>2014-10-19T11:31:00.000Z</time>
      </trkpt>
      <trkpt lat="48.75516" lon="1.81354">
        <ele>147.60000610352</ele>
        <time>2014-10-19T11:31:05.000Z</time>
      </trkpt>
      <trkpt lat="48.7552" lon="1.81347">
        <ele>147.39999389648</ele>
        <time>2014-10-19T11:31:11.000Z</time>
      </trkpt>
      <trkpt lat="48.75522" lon="1.81342">
        <ele>147.60000610352</ele>
        <time>2014-10-19T11:31:14.000Z</time>
      </trkpt>
      <trkpt lat="48.75531" lon="1.81331">
        <ele>149.39999389648</ele>
        <time>2014-10-19T11:31:22.000Z</time>
      </trkpt>
      <trkpt lat="48.75534" lon="1.81321">
        <ele>148.39999389648</ele>
        <time>2014-10-19T11:31:27.000Z</time>
      </trkpt>
      <trkpt lat="48.75536" lon="1.81309">
        <ele>149.19999694824</ele>
        <time>2014-10-19T11:31:33.000Z</time>
      </trkpt>
      <trkpt lat="48.75538" lon="1.81302">
        <ele>149.80000305176</ele>
        <time>2014-10-19T11:31:36.000Z</time>
      </trkpt>
      <trkpt lat="48.75542" lon="1.81293">
        <ele>150.80000305176</ele>
        <time>2014-10-19T11:31:42.000Z</time>
      </trkpt>
      <trkpt lat="48.75545" lon="1.81291">
        <ele>151.19999694824</ele>
        <time>2014-10-19T11:31:44.000Z</time>
      </trkpt>
      <trkpt lat="48.75549" lon="1.81282">
        <ele>152.19999694824</ele>
        <time>2014-10-19T11:31:50.000Z</time>
      </trkpt>
      <trkpt lat="48.75552" lon="1.81278">
        <ele>152.60000610352</ele>
        <time>2014-10-19T11:31:53.000Z</time>
      </trkpt>
      <trkpt lat="48.75557" lon="1.81266">
        <ele>152.60000610352</ele>
        <time>2014-10-19T11:31:59.000Z</time>
      </trkpt>
      <trkpt lat="48.75559" lon="1.81263">
        <ele>152.19999694824</ele>
        <time>2014-10-19T11:32:01.000Z</time>
      </trkpt>
      <trkpt lat="48.75569" lon="1.81255">
        <ele>151.19999694824</ele>
        <time>2014-10-19T11:32:08.000Z</time>
      </trkpt>
      <trkpt lat="48.75576" lon="1.81245">
        <ele>149.80000305176</ele>
        <time>2014-10-19T11:32:15.000Z</time>
      </trkpt>
      <trkpt lat="48.75584" lon="1.8124">
        <ele>149</ele>
        <time>2014-10-19T11:32:21.000Z</time>
      </trkpt>
      <trkpt lat="48.75589" lon="1.81242">
        <ele>149</ele>
        <time>2014-10-19T11:32:25.000Z</time>
      </trkpt>
      <trkpt lat="48.75592" lon="1.81233">
        <ele>149</ele>
        <time>2014-10-19T11:32:30.000Z</time>
      </trkpt>
      <trkpt lat="48.75592" lon="1.81231">
        <ele>149</ele>
        <time>2014-10-19T11:32:31.000Z</time>
      </trkpt>
      <trkpt lat="48.75598" lon="1.81222">
        <ele>149.39999389648</ele>
        <time>2014-10-19T11:32:38.000Z</time>
      </trkpt>
      <trkpt lat="48.75602" lon="1.81219">
        <ele>149.39999389648</ele>
        <time>2014-10-19T11:32:40.000Z</time>
      </trkpt>
      <trkpt lat="48.75609" lon="1.81206">
        <ele>151.39999389648</ele>
        <time>2014-10-19T11:32:46.000Z</time>
      </trkpt>
      <trkpt lat="48.75612" lon="1.81195">
        <ele>153</ele>
        <time>2014-10-19T11:32:52.000Z</time>
      </trkpt>
      <trkpt lat="48.75618" lon="1.81179">
        <ele>155.60000610352</ele>
        <time>2014-10-19T11:33:00.000Z</time>
      </trkpt>
      <trkpt lat="48.75618" lon="1.81177">
        <ele>155.80000305176</ele>
        <time>2014-10-19T11:33:01.000Z</time>
      </trkpt>
      <trkpt lat="48.75624" lon="1.81166">
        <ele>156.60000610352</ele>
        <time>2014-10-19T11:33:08.000Z</time>
      </trkpt>
      <trkpt lat="48.75632" lon="1.8115">
        <ele>156.60000610352</ele>
        <time>2014-10-19T11:33:15.000Z</time>
      </trkpt>
      <trkpt lat="48.75636" lon="1.81138">
        <ele>157.60000610352</ele>
        <time>2014-10-19T11:33:20.000Z</time>
      </trkpt>
      <trkpt lat="48.75641" lon="1.8113">
        <ele>158.19999694824</ele>
        <time>2014-10-19T11:33:25.000Z</time>
      </trkpt>
      <trkpt lat="48.75642" lon="1.81129">
        <ele>158.39999389648</ele>
        <time>2014-10-19T11:33:26.000Z</time>
      </trkpt>
      <trkpt lat="48.75649" lon="1.81113">
        <ele>159.39999389648</ele>
        <time>2014-10-19T11:33:34.000Z</time>
      </trkpt>
      <trkpt lat="48.75654" lon="1.81112">
        <ele>159.39999389648</ele>
        <time>2014-10-19T11:33:42.000Z</time>
      </trkpt>
      <trkpt lat="48.75657" lon="1.81113">
        <ele>159.39999389648</ele>
        <time>2014-10-19T11:33:47.000Z</time>
      </trkpt>
      <trkpt lat="48.75658" lon="1.81112">
        <ele>159.39999389648</ele>
        <time>2014-10-19T11:33:48.000Z</time>
      </trkpt>
      <trkpt lat="48.75662" lon="1.8111">
        <ele>159.39999389648</ele>
        <time>2014-10-19T11:33:51.000Z</time>
      </trkpt>
      <trkpt lat="48.75662" lon="1.81107">
        <ele>159.19999694824</ele>
        <time>2014-10-19T11:33:54.000Z</time>
      </trkpt>
      <trkpt lat="48.75661" lon="1.81099">
        <ele>159</ele>
        <time>2014-10-19T11:33:59.000Z</time>
      </trkpt>
      <trkpt lat="48.75661" lon="1.81094">
        <ele>158.80000305176</ele>
        <time>2014-10-19T11:34:05.000Z</time>
      </trkpt>
      <trkpt lat="48.75665" lon="1.81081">
        <ele>158.39999389648</ele>
        <time>2014-10-19T11:34:30.000Z</time>
      </trkpt>
      <trkpt lat="48.75669" lon="1.81079">
        <ele>158.19999694824</ele>
        <time>2014-10-19T11:34:33.000Z</time>
      </trkpt>
      <trkpt lat="48.75669" lon="1.81078">
        <ele>158.19999694824</ele>
        <time>2014-10-19T11:34:34.000Z</time>
      </trkpt>
      <trkpt lat="48.75672" lon="1.81067">
        <ele>158.19999694824</ele>
        <time>2014-10-19T11:34:39.000Z</time>
      </trkpt>
      <trkpt lat="48.75671" lon="1.81062">
        <ele>158.39999389648</ele>
        <time>2014-10-19T11:34:42.000Z</time>
      </trkpt>
      <trkpt lat="48.75675" lon="1.81053">
        <ele>158.39999389648</ele>
        <time>2014-10-19T11:34:48.000Z</time>
      </trkpt>
      <trkpt lat="48.7568" lon="1.81037">
        <ele>158</ele>
        <time>2014-10-19T11:34:55.000Z</time>
      </trkpt>
      <trkpt lat="48.75681" lon="1.81034">
        <ele>157.80000305176</ele>
        <time>2014-10-19T11:34:56.000Z</time>
      </trkpt>
      <trkpt lat="48.75694" lon="1.81013">
        <ele>158.80000305176</ele>
        <time>2014-10-19T11:35:06.000Z</time>
      </trkpt>
      <trkpt lat="48.75699" lon="1.81004">
        <ele>160</ele>
        <time>2014-10-19T11:35:10.000Z</time>
      </trkpt>
      <trkpt lat="48.75701" lon="1.80992">
        <ele>159.19999694824</ele>
        <time>2014-10-19T11:35:15.000Z</time>
      </trkpt>
      <trkpt lat="48.7571" lon="1.80986">
        <ele>159.80000305176</ele>
        <time>2014-10-19T11:35:21.000Z</time>
      </trkpt>
      <trkpt lat="48.75717" lon="1.80985">
        <ele>160.60000610352</ele>
        <time>2014-10-19T11:35:25.000Z</time>
      </trkpt>
      <trkpt lat="48.7572" lon="1.80969">
        <ele>161.39999389648</ele>
        <time>2014-10-19T11:35:31.000Z</time>
      </trkpt>
      <trkpt lat="48.75722" lon="1.80963">
        <ele>161.80000305176</ele>
        <time>2014-10-19T11:35:34.000Z</time>
      </trkpt>
      <trkpt lat="48.75726" lon="1.80958">
        <ele>162.39999389648</ele>
        <time>2014-10-19T11:35:38.000Z</time>
      </trkpt>
      <trkpt lat="48.75732" lon="1.80944">
        <ele>162.80000305176</ele>
        <time>2014-10-19T11:35:45.000Z</time>
      </trkpt>
      <trkpt lat="48.75733" lon="1.80931">
        <ele>162</ele>
        <time>2014-10-19T11:35:50.000Z</time>
      </trkpt>
      <trkpt lat="48.75734" lon="1.80923">
        <ele>161.39999389648</ele>
        <time>2014-10-19T11:35:54.000Z</time>
      </trkpt>
      <trkpt lat="48.75738" lon="1.8092">
        <ele>161.19999694824</ele>
        <time>2014-10-19T11:35:58.000Z</time>
      </trkpt>
      <trkpt lat="48.75748" lon="1.80912">
        <ele>161</ele>
        <time>2014-10-19T11:36:05.000Z</time>
      </trkpt>
      <trkpt lat="48.75748" lon="1.8091">
        <ele>160.80000305176</ele>
        <time>2014-10-19T11:36:07.000Z</time>
      </trkpt>
      <trkpt lat="48.75754" lon="1.80897">
        <ele>160.80000305176</ele>
        <time>2014-10-19T11:36:14.000Z</time>
      </trkpt>
      <trkpt lat="48.75755" lon="1.80895">
        <ele>161</ele>
        <time>2014-10-19T11:36:15.000Z</time>
      </trkpt>
      <trkpt lat="48.75762" lon="1.80879">
        <ele>160.60000610352</ele>
        <time>2014-10-19T11:36:22.000Z</time>
      </trkpt>
      <trkpt lat="48.75763" lon="1.80874">
        <ele>160.60000610352</ele>
        <time>2014-10-19T11:36:24.000Z</time>
      </trkpt>
      <trkpt lat="48.75766" lon="1.80862">
        <ele>160.19999694824</ele>
        <time>2014-10-19T11:36:29.000Z</time>
      </trkpt>
      <trkpt lat="48.75769" lon="1.80854">
        <ele>159.80000305176</ele>
        <time>2014-10-19T11:36:34.000Z</time>
      </trkpt>
      <trkpt lat="48.75774" lon="1.80848">
        <ele>160.19999694824</ele>
        <time>2014-10-19T11:36:39.000Z</time>
      </trkpt>
      <trkpt lat="48.75778" lon="1.8083">
        <ele>160.60000610352</ele>
        <time>2014-10-19T11:36:46.000Z</time>
      </trkpt>
      <trkpt lat="48.75781" lon="1.80817">
        <ele>160.39999389648</ele>
        <time>2014-10-19T11:36:52.000Z</time>
      </trkpt>
      <trkpt lat="48.75786" lon="1.80802">
        <ele>161.39999389648</ele>
        <time>2014-10-19T11:36:58.000Z</time>
      </trkpt>
      <trkpt lat="48.75791" lon="1.80799">
        <ele>162.19999694824</ele>
        <time>2014-10-19T11:37:01.000Z</time>
      </trkpt>
      <trkpt lat="48.75797" lon="1.80797">
        <ele>163</ele>
        <time>2014-10-19T11:37:05.000Z</time>
      </trkpt>
      <trkpt lat="48.75802" lon="1.80787">
        <ele>163.80000305176</ele>
        <time>2014-10-19T11:37:11.000Z</time>
      </trkpt>
      <trkpt lat="48.75804" lon="1.80774">
        <ele>164.39999389648</ele>
        <time>2014-10-19T11:37:17.000Z</time>
      </trkpt>
      <trkpt lat="48.75805" lon="1.8077">
        <ele>164.39999389648</ele>
        <time>2014-10-19T11:37:19.000Z</time>
      </trkpt>
      <trkpt lat="48.75809" lon="1.80756">
        <ele>164.19999694824</ele>
        <time>2014-10-19T11:37:26.000Z</time>
      </trkpt>
      <trkpt lat="48.75812" lon="1.80747">
        <ele>164.19999694824</ele>
        <time>2014-10-19T11:37:31.000Z</time>
      </trkpt>
      <trkpt lat="48.75812" lon="1.80742">
        <ele>164</ele>
        <time>2014-10-19T11:37:33.000Z</time>
      </trkpt>
      <trkpt lat="48.75815" lon="1.80731">
        <ele>164.39999389648</ele>
        <time>2014-10-19T11:37:38.000Z</time>
      </trkpt>
      <trkpt lat="48.75816" lon="1.80728">
        <ele>164.39999389648</ele>
        <time>2014-10-19T11:37:39.000Z</time>
      </trkpt>
      <trkpt lat="48.75818" lon="1.80722">
        <ele>164.80000305176</ele>
        <time>2014-10-19T11:37:41.000Z</time>
      </trkpt>
      <trkpt lat="48.75827" lon="1.80695">
        <ele>165.60000610352</ele>
        <time>2014-10-19T11:37:50.000Z</time>
      </trkpt>
      <trkpt lat="48.75832" lon="1.80687">
        <ele>165.80000305176</ele>
        <time>2014-10-19T11:37:54.000Z</time>
      </trkpt>
      <trkpt lat="48.75835" lon="1.80684">
        <ele>166</ele>
        <time>2014-10-19T11:37:56.000Z</time>
      </trkpt>
      <trkpt lat="48.75841" lon="1.80678">
        <ele>166.19999694824</ele>
        <time>2014-10-19T11:38:02.000Z</time>
      </trkpt>
      <trkpt lat="48.75843" lon="1.80667">
        <ele>166.39999389648</ele>
        <time>2014-10-19T11:38:06.000Z</time>
      </trkpt>
      <trkpt lat="48.75843" lon="1.80663">
        <ele>166.19999694824</ele>
        <time>2014-10-19T11:38:10.000Z</time>
      </trkpt>
      <trkpt lat="48.7583" lon="1.80657">
        <ele>165.19999694824</ele>
        <time>2014-10-19T11:38:18.000Z</time>
      </trkpt>
      <trkpt lat="48.75823" lon="1.80643">
        <ele>165</ele>
        <time>2014-10-19T11:38:25.000Z</time>
      </trkpt>
      <trkpt lat="48.75818" lon="1.80622">
        <ele>165.19999694824</ele>
        <time>2014-10-19T11:38:33.000Z</time>
      </trkpt>
      <trkpt lat="48.75818" lon="1.8062">
        <ele>165.19999694824</ele>
        <time>2014-10-19T11:38:34.000Z</time>
      </trkpt>
      <trkpt lat="48.7582" lon="1.80607">
        <ele>165.19999694824</ele>
        <time>2014-10-19T11:38:40.000Z</time>
      </trkpt>
      <trkpt lat="48.75821" lon="1.80603">
        <ele>165.19999694824</ele>
        <time>2014-10-19T11:38:42.000Z</time>
      </trkpt>
      <trkpt lat="48.75822" lon="1.80585">
        <ele>165</ele>
        <time>2014-10-19T11:38:50.000Z</time>
      </trkpt>
      <trkpt lat="48.75821" lon="1.8058">
        <ele>165</ele>
        <time>2014-10-19T11:38:55.000Z</time>
      </trkpt>
      <trkpt lat="48.75821" lon="1.80562">
        <ele>164.60000610352</ele>
        <time>2014-10-19T11:39:13.000Z</time>
      </trkpt>
      <trkpt lat="48.75822" lon="1.80554">
        <ele>164.60000610352</ele>
        <time>2014-10-19T11:39:16.000Z</time>
      </trkpt>
      <trkpt lat="48.75823" lon="1.80552">
        <ele>164.60000610352</ele>
        <time>2014-10-19T11:39:17.000Z</time>
      </trkpt>
      <trkpt lat="48.75825" lon="1.80546">
        <ele>164.60000610352</ele>
        <time>2014-10-19T11:39:20.000Z</time>
      </trkpt>
      <trkpt lat="48.75826" lon="1.80537">
        <ele>164.39999389648</ele>
        <time>2014-10-19T11:39:24.000Z</time>
      </trkpt>
      <trkpt lat="48.75829" lon="1.80524">
        <ele>164.19999694824</ele>
        <time>2014-10-19T11:39:31.000Z</time>
      </trkpt>
      <trkpt lat="48.75831" lon="1.80516">
        <ele>164</ele>
        <time>2014-10-19T11:39:35.000Z</time>
      </trkpt>
      <trkpt lat="48.75834" lon="1.80504">
        <ele>163.80000305176</ele>
        <time>2014-10-19T11:39:39.000Z</time>
      </trkpt>
      <trkpt lat="48.75836" lon="1.80497">
        <ele>163.80000305176</ele>
        <time>2014-10-19T11:39:42.000Z</time>
      </trkpt>
      <trkpt lat="48.75837" lon="1.80489">
        <ele>163.60000610352</ele>
        <time>2014-10-19T11:39:46.000Z</time>
      </trkpt>
      <trkpt lat="48.75837" lon="1.80479">
        <ele>163.60000610352</ele>
        <time>2014-10-19T11:39:51.000Z</time>
      </trkpt>
      <trkpt lat="48.75836" lon="1.80477">
        <ele>163.60000610352</ele>
        <time>2014-10-19T11:39:52.000Z</time>
      </trkpt>
      <trkpt lat="48.75826" lon="1.80469">
        <ele>163.60000610352</ele>
        <time>2014-10-19T11:39:59.000Z</time>
      </trkpt>
      <trkpt lat="48.75822" lon="1.80463">
        <ele>163.60000610352</ele>
        <time>2014-10-19T11:40:02.000Z</time>
      </trkpt>
      <trkpt lat="48.75819" lon="1.80448">
        <ele>163.80000305176</ele>
        <time>2014-10-19T11:40:07.000Z</time>
      </trkpt>
      <trkpt lat="48.75816" lon="1.80443">
        <ele>163.60000610352</ele>
        <time>2014-10-19T11:40:13.000Z</time>
      </trkpt>
      <trkpt lat="48.75805" lon="1.80456">
        <ele>163.19999694824</ele>
        <time>2014-10-19T11:40:44.000Z</time>
      </trkpt>
      <trkpt lat="48.75802" lon="1.80468">
        <ele>163</ele>
        <time>2014-10-19T11:40:49.000Z</time>
      </trkpt>
      <trkpt lat="48.75799" lon="1.80474">
        <ele>162.80000305176</ele>
        <time>2014-10-19T11:40:54.000Z</time>
      </trkpt>
      <trkpt lat="48.75796" lon="1.80482">
        <ele>162.60000610352</ele>
        <time>2014-10-19T11:44:39.000Z</time>
      </trkpt>
      <trkpt lat="48.75795" lon="1.80476">
        <ele>162.80000305176</ele>
        <time>2014-10-19T11:44:41.000Z</time>
      </trkpt>
      <trkpt lat="48.75796" lon="1.80475">
        <ele>162.80000305176</ele>
        <time>2014-10-19T11:44:45.000Z</time>
      </trkpt>
      <trkpt lat="48.75801" lon="1.80461">
        <ele>163</ele>
        <time>2014-10-19T11:45:34.000Z</time>
      </trkpt>
      <trkpt lat="48.75804" lon="1.80448">
        <ele>163.19999694824</ele>
        <time>2014-10-19T11:45:37.000Z</time>
      </trkpt>
      <trkpt lat="48.75804" lon="1.80445">
        <ele>163.39999389648</ele>
        <time>2014-10-19T11:45:39.000Z</time>
      </trkpt>
      <trkpt lat="48.75803" lon="1.80441">
        <ele>163.39999389648</ele>
        <time>2014-10-19T11:45:45.000Z</time>
      </trkpt>
      <trkpt lat="48.75803" lon="1.80437">
        <ele>163.39999389648</ele>
        <time>2014-10-19T11:45:50.000Z</time>
      </trkpt>
      <trkpt lat="48.75803" lon="1.80437">
        <ele>163.39999389648</ele>
        <time>2014-10-19T11:45:51.000Z</time>
      </trkpt>
      <trkpt lat="48.75802" lon="1.80391">
        <ele>164.39999389648</ele>
        <time>2014-10-19T13:15:16.000Z</time>
      </trkpt>
      <trkpt lat="48.75807" lon="1.80399">
        <ele>164.39999389648</ele>
        <time>2014-10-19T13:15:17.000Z</time>
      </trkpt>
      <trkpt lat="48.75807" lon="1.80399">
        <ele>164.39999389648</ele>
        <time>2014-10-19T13:15:17.000Z</time>
      </trkpt>
      <trkpt lat="48.75805" lon="1.80401">
        <ele>164.39999389648</ele>
        <time>2014-10-19T13:15:18.000Z</time>
      </trkpt>
      <trkpt lat="48.7581" lon="1.80417">
        <ele>164.19999694824</ele>
        <time>2014-10-19T13:15:26.000Z</time>
      </trkpt>
      <trkpt lat="48.75827" lon="1.80421">
        <ele>164.60000610352</ele>
        <time>2014-10-19T13:15:34.000Z</time>
      </trkpt>
      <trkpt lat="48.7583" lon="1.80417">
        <ele>164.80000305176</ele>
        <time>2014-10-19T13:15:40.000Z</time>
      </trkpt>
      <trkpt lat="48.75831" lon="1.80414">
        <ele>165</ele>
        <time>2014-10-19T13:15:42.000Z</time>
      </trkpt>
      <trkpt lat="48.75835" lon="1.80402">
        <ele>165.39999389648</ele>
        <time>2014-10-19T13:15:48.000Z</time>
      </trkpt>
      <trkpt lat="48.75836" lon="1.80393">
        <ele>165.60000610352</ele>
        <time>2014-10-19T13:15:53.000Z</time>
      </trkpt>
      <trkpt lat="48.75835" lon="1.80373">
        <ele>166.60000610352</ele>
        <time>2014-10-19T13:16:00.000Z</time>
      </trkpt>
      <trkpt lat="48.75835" lon="1.80371">
        <ele>166.80000305176</ele>
        <time>2014-10-19T13:16:01.000Z</time>
      </trkpt>
      <trkpt lat="48.75835" lon="1.8036">
        <ele>167.60000610352</ele>
        <time>2014-10-19T13:16:05.000Z</time>
      </trkpt>
      <trkpt lat="48.75837" lon="1.80349">
        <ele>168.60000610352</ele>
        <time>2014-10-19T13:16:11.000Z</time>
      </trkpt>
      <trkpt lat="48.75838" lon="1.80348">
        <ele>168.80000305176</ele>
        <time>2014-10-19T13:16:12.000Z</time>
      </trkpt>
      <trkpt lat="48.7584" lon="1.80345">
        <ele>169.19999694824</ele>
        <time>2014-10-19T13:16:14.000Z</time>
      </trkpt>
      <trkpt lat="48.75841" lon="1.8033">
        <ele>170.19999694824</ele>
        <time>2014-10-19T13:16:21.000Z</time>
      </trkpt>
      <trkpt lat="48.75841" lon="1.80328">
        <ele>170.39999389648</ele>
        <time>2014-10-19T13:16:22.000Z</time>
      </trkpt>
      <trkpt lat="48.75845" lon="1.80318">
        <ele>171.19999694824</ele>
        <time>2014-10-19T13:16:28.000Z</time>
      </trkpt>
      <trkpt lat="48.75848" lon="1.80312">
        <ele>171.60000610352</ele>
        <time>2014-10-19T13:16:32.000Z</time>
      </trkpt>
      <trkpt lat="48.75852" lon="1.80295">
        <ele>172.80000305176</ele>
        <time>2014-10-19T13:16:41.000Z</time>
      </trkpt>
      <trkpt lat="48.75853" lon="1.80291">
        <ele>173</ele>
        <time>2014-10-19T13:16:43.000Z</time>
      </trkpt>
      <trkpt lat="48.75854" lon="1.80282">
        <ele>173.39999389648</ele>
        <time>2014-10-19T13:16:47.000Z</time>
      </trkpt>
      <trkpt lat="48.75857" lon="1.80268">
        <ele>174</ele>
        <time>2014-10-19T13:16:54.000Z</time>
      </trkpt>
      <trkpt lat="48.75855" lon="1.80249">
        <ele>174.60000610352</ele>
        <time>2014-10-19T13:17:01.000Z</time>
      </trkpt>
      <trkpt lat="48.75859" lon="1.80237">
        <ele>175</ele>
        <time>2014-10-19T13:17:07.000Z</time>
      </trkpt>
      <trkpt lat="48.7586" lon="1.80224">
        <ele>174.80000305176</ele>
        <time>2014-10-19T13:17:13.000Z</time>
      </trkpt>
      <trkpt lat="48.75861" lon="1.80217">
        <ele>174.60000610352</ele>
        <time>2014-10-19T13:17:16.000Z</time>
      </trkpt>
      <trkpt lat="48.75862" lon="1.80205">
        <ele>174.60000610352</ele>
        <time>2014-10-19T13:17:22.000Z</time>
      </trkpt>
      <trkpt lat="48.75863" lon="1.80198">
        <ele>174.39999389648</ele>
        <time>2014-10-19T13:17:25.000Z</time>
      </trkpt>
      <trkpt lat="48.75864" lon="1.80195">
        <ele>174.39999389648</ele>
        <time>2014-10-19T13:17:27.000Z</time>
      </trkpt>
      <trkpt lat="48.75867" lon="1.80183">
        <ele>174.19999694824</ele>
        <time>2014-10-19T13:17:33.000Z</time>
      </trkpt>
      <trkpt lat="48.75866" lon="1.80178">
        <ele>174.19999694824</ele>
        <time>2014-10-19T13:17:37.000Z</time>
      </trkpt>
      <trkpt lat="48.75866" lon="1.80178">
        <ele>174.19999694824</ele>
        <time>2014-10-19T13:17:38.000Z</time>
      </trkpt>
      <trkpt lat="48.75867" lon="1.8017">
        <ele>174</ele>
        <time>2014-10-19T13:17:45.000Z</time>
      </trkpt>
      <trkpt lat="48.75867" lon="1.80168">
        <ele>174</ele>
        <time>2014-10-19T13:17:46.000Z</time>
      </trkpt>
      <trkpt lat="48.75868" lon="1.80158">
        <ele>174.39999389648</ele>
        <time>2014-10-19T13:17:49.000Z</time>
      </trkpt>
      <trkpt lat="48.7587" lon="1.80144">
        <ele>175.19999694824</ele>
        <time>2014-10-19T13:17:56.000Z</time>
      </trkpt>
      <trkpt lat="48.75872" lon="1.80138">
        <ele>175.39999389648</ele>
        <time>2014-10-19T13:17:59.000Z</time>
      </trkpt>
      <trkpt lat="48.75872" lon="1.80131">
        <ele>175.80000305176</ele>
        <time>2014-10-19T13:18:02.000Z</time>
      </trkpt>
      <trkpt lat="48.75873" lon="1.80123">
        <ele>176.19999694824</ele>
        <time>2014-10-19T13:18:06.000Z</time>
      </trkpt>
      <trkpt lat="48.75875" lon="1.80108">
        <ele>177</ele>
        <time>2014-10-19T13:18:13.000Z</time>
      </trkpt>
      <trkpt lat="48.75879" lon="1.80097">
        <ele>177.60000610352</ele>
        <time>2014-10-19T13:18:19.000Z</time>
      </trkpt>
      <trkpt lat="48.75879" lon="1.80087">
        <ele>177.80000305176</ele>
        <time>2014-10-19T13:18:23.000Z</time>
      </trkpt>
      <trkpt lat="48.75882" lon="1.80074">
        <ele>178</ele>
        <time>2014-10-19T13:18:29.000Z</time>
      </trkpt>
      <trkpt lat="48.75887" lon="1.80059">
        <ele>178.39999389648</ele>
        <time>2014-10-19T13:18:37.000Z</time>
      </trkpt>
      <trkpt lat="48.75887" lon="1.80054">
        <ele>178.39999389648</ele>
        <time>2014-10-19T13:18:39.000Z</time>
      </trkpt>
      <trkpt lat="48.7589" lon="1.80038">
        <ele>178.80000305176</ele>
        <time>2014-10-19T13:18:46.000Z</time>
      </trkpt>
      <trkpt lat="48.75891" lon="1.80036">
        <ele>178.80000305176</ele>
        <time>2014-10-19T13:18:47.000Z</time>
      </trkpt>
      <trkpt lat="48.75893" lon="1.80017">
        <ele>179.39999389648</ele>
        <time>2014-10-19T13:18:54.000Z</time>
      </trkpt>
      <trkpt lat="48.75893" lon="1.80014">
        <ele>179.60000610352</ele>
        <time>2014-10-19T13:18:55.000Z</time>
      </trkpt>
      <trkpt lat="48.75894" lon="1.79996">
        <ele>180.19999694824</ele>
        <time>2014-10-19T13:19:03.000Z</time>
      </trkpt>
      <trkpt lat="48.75894" lon="1.79994">
        <ele>180.19999694824</ele>
        <time>2014-10-19T13:19:04.000Z</time>
      </trkpt>
      <trkpt lat="48.75893" lon="1.79987">
        <ele>180.39999389648</ele>
        <time>2014-10-19T13:19:07.000Z</time>
      </trkpt>
      <trkpt lat="48.7589" lon="1.79983">
        <ele>180.39999389648</ele>
        <time>2014-10-19T13:19:12.000Z</time>
      </trkpt>
      <trkpt lat="48.75892" lon="1.79976">
        <ele>180.39999389648</ele>
        <time>2014-10-19T13:21:14.000Z</time>
      </trkpt>
      <trkpt lat="48.75894" lon="1.79961">
        <ele>180.39999389648</ele>
        <time>2014-10-19T13:21:20.000Z</time>
      </trkpt>
      <trkpt lat="48.75896" lon="1.79946">
        <ele>180.60000610352</ele>
        <time>2014-10-19T13:21:27.000Z</time>
      </trkpt>
      <trkpt lat="48.759" lon="1.7993">
        <ele>181</ele>
        <time>2014-10-19T13:21:35.000Z</time>
      </trkpt>
      <trkpt lat="48.759" lon="1.79928">
        <ele>181.19999694824</ele>
        <time>2014-10-19T13:21:36.000Z</time>
      </trkpt>
      <trkpt lat="48.75902" lon="1.79919">
        <ele>181.39999389648</ele>
        <time>2014-10-19T13:21:40.000Z</time>
      </trkpt>
      <trkpt lat="48.75904" lon="1.79911">
        <ele>181.60000610352</ele>
        <time>2014-10-19T13:21:44.000Z</time>
      </trkpt>
      <trkpt lat="48.75906" lon="1.79906">
        <ele>181.80000305176</ele>
        <time>2014-10-19T13:21:47.000Z</time>
      </trkpt>
      <trkpt lat="48.75907" lon="1.79893">
        <ele>181.80000305176</ele>
        <time>2014-10-19T13:21:53.000Z</time>
      </trkpt>
      <trkpt lat="48.75908" lon="1.79887">
        <ele>182</ele>
        <time>2014-10-19T13:21:56.000Z</time>
      </trkpt>
      <trkpt lat="48.75909" lon="1.79874">
        <ele>182</ele>
        <time>2014-10-19T13:22:02.000Z</time>
      </trkpt>
      <trkpt lat="48.75911" lon="1.79867">
        <ele>182</ele>
        <time>2014-10-19T13:22:05.000Z</time>
      </trkpt>
      <trkpt lat="48.75912" lon="1.79864">
        <ele>182</ele>
        <time>2014-10-19T13:22:07.000Z</time>
      </trkpt>
      <trkpt lat="48.75915" lon="1.79849">
        <ele>182.19999694824</ele>
        <time>2014-10-19T13:22:14.000Z</time>
      </trkpt>
      <trkpt lat="48.75915" lon="1.79847">
        <ele>182.19999694824</ele>
        <time>2014-10-19T13:22:15.000Z</time>
      </trkpt>
      <trkpt lat="48.75916" lon="1.79843">
        <ele>182.19999694824</ele>
        <time>2014-10-19T13:22:17.000Z</time>
      </trkpt>
      <trkpt lat="48.75916" lon="1.79824">
        <ele>182.19999694824</ele>
        <time>2014-10-19T13:22:25.000Z</time>
      </trkpt>
      <trkpt lat="48.75915" lon="1.79813">
        <ele>182.60000610352</ele>
        <time>2014-10-19T13:22:31.000Z</time>
      </trkpt>
      <trkpt lat="48.75915" lon="1.79804">
        <ele>182.80000305176</ele>
        <time>2014-10-19T13:22:35.000Z</time>
      </trkpt>
      <trkpt lat="48.75919" lon="1.798">
        <ele>183</ele>
        <time>2014-10-19T13:22:38.000Z</time>
      </trkpt>
      <trkpt lat="48.7592" lon="1.79785">
        <ele>183.39999389648</ele>
        <time>2014-10-19T13:22:43.000Z</time>
      </trkpt>
      <trkpt lat="48.75924" lon="1.79773">
        <ele>183.80000305176</ele>
        <time>2014-10-19T13:22:47.000Z</time>
      </trkpt>
      <trkpt lat="48.75926" lon="1.79755">
        <ele>184.39999389648</ele>
        <time>2014-10-19T13:22:52.000Z</time>
      </trkpt>
      <trkpt lat="48.75926" lon="1.79743">
        <ele>184.60000610352</ele>
        <time>2014-10-19T13:22:59.000Z</time>
      </trkpt>
      <trkpt lat="48.75923" lon="1.79732">
        <ele>184.60000610352</ele>
        <time>2014-10-19T13:23:04.000Z</time>
      </trkpt>
      <trkpt lat="48.75927" lon="1.79718">
        <ele>184.80000305176</ele>
        <time>2014-10-19T13:23:11.000Z</time>
      </trkpt>
      <trkpt lat="48.7593" lon="1.79715">
        <ele>185</ele>
        <time>2014-10-19T13:23:13.000Z</time>
      </trkpt>
      <trkpt lat="48.75931" lon="1.79705">
        <ele>185.19999694824</ele>
        <time>2014-10-19T13:23:17.000Z</time>
      </trkpt>
      <trkpt lat="48.75935" lon="1.79687">
        <ele>185.60000610352</ele>
        <time>2014-10-19T13:23:24.000Z</time>
      </trkpt>
      <trkpt lat="48.75937" lon="1.79675">
        <ele>185.80000305176</ele>
        <time>2014-10-19T13:23:29.000Z</time>
      </trkpt>
      <trkpt lat="48.75937" lon="1.79674">
        <ele>185.80000305176</ele>
        <time>2014-10-19T13:23:30.000Z</time>
      </trkpt>
      <trkpt lat="48.75938" lon="1.79664">
        <ele>186</ele>
        <time>2014-10-19T13:23:36.000Z</time>
      </trkpt>
      <trkpt lat="48.75939" lon="1.79661">
        <ele>186</ele>
        <time>2014-10-19T13:23:38.000Z</time>
      </trkpt>
      <trkpt lat="48.75943" lon="1.79646">
        <ele>186.19999694824</ele>
        <time>2014-10-19T13:23:45.000Z</time>
      </trkpt>
      <trkpt lat="48.75944" lon="1.79634">
        <ele>186.19999694824</ele>
        <time>2014-10-19T13:23:50.000Z</time>
      </trkpt>
      <trkpt lat="48.75946" lon="1.79631">
        <ele>186.19999694824</ele>
        <time>2014-10-19T13:23:52.000Z</time>
      </trkpt>
      <trkpt lat="48.75946" lon="1.79612">
        <ele>186.19999694824</ele>
        <time>2014-10-19T13:23:59.000Z</time>
      </trkpt>
      <trkpt lat="48.75946" lon="1.79598">
        <ele>186.19999694824</ele>
        <time>2014-10-19T13:24:05.000Z</time>
      </trkpt>
      <trkpt lat="48.75945" lon="1.79586">
        <ele>186.19999694824</ele>
        <time>2014-10-19T13:24:09.000Z</time>
      </trkpt>
      <trkpt lat="48.75946" lon="1.79579">
        <ele>186.39999389648</ele>
        <time>2014-10-19T13:24:12.000Z</time>
      </trkpt>
      <trkpt lat="48.7595" lon="1.79563">
        <ele>186.60000610352</ele>
        <time>2014-10-19T13:24:19.000Z</time>
      </trkpt>
      <trkpt lat="48.75952" lon="1.79547">
        <ele>186.80000305176</ele>
        <time>2014-10-19T13:24:26.000Z</time>
      </trkpt>
      <trkpt lat="48.75952" lon="1.79544">
        <ele>186.80000305176</ele>
        <time>2014-10-19T13:24:27.000Z</time>
      </trkpt>
      <trkpt lat="48.75953" lon="1.79536">
        <ele>187</ele>
        <time>2014-10-19T13:24:30.000Z</time>
      </trkpt>
      <trkpt lat="48.75953" lon="1.79517">
        <ele>187.19999694824</ele>
        <time>2014-10-19T13:24:37.000Z</time>
      </trkpt>
      <trkpt lat="48.75953" lon="1.79512">
        <ele>187.19999694824</ele>
        <time>2014-10-19T13:24:41.000Z</time>
      </trkpt>
      <trkpt lat="48.75953" lon="1.7951">
        <ele>187.19999694824</ele>
        <time>2014-10-19T13:24:50.000Z</time>
      </trkpt>
      <trkpt lat="48.75952" lon="1.7951">
        <ele>187.19999694824</ele>
        <time>2014-10-19T13:24:52.000Z</time>
      </trkpt>
      <trkpt lat="48.75949" lon="1.79497">
        <ele>187.19999694824</ele>
        <time>2014-10-19T13:25:24.000Z</time>
      </trkpt>
      <trkpt lat="48.75948" lon="1.79484">
        <ele>187.39999389648</ele>
        <time>2014-10-19T13:25:29.000Z</time>
      </trkpt>
      <trkpt lat="48.75947" lon="1.79474">
        <ele>187.39999389648</ele>
        <time>2014-10-19T13:25:34.000Z</time>
      </trkpt>
      <trkpt lat="48.75947" lon="1.79461">
        <ele>187.60000610352</ele>
        <time>2014-10-19T13:25:40.000Z</time>
      </trkpt>
      <trkpt lat="48.75946" lon="1.79447">
        <ele>187.80000305176</ele>
        <time>2014-10-19T13:25:46.000Z</time>
      </trkpt>
      <trkpt lat="48.75947" lon="1.79434">
        <ele>187.80000305176</ele>
        <time>2014-10-19T13:25:52.000Z</time>
      </trkpt>
      <trkpt lat="48.75945" lon="1.79418">
        <ele>188</ele>
        <time>2014-10-19T13:25:59.000Z</time>
      </trkpt>
      <trkpt lat="48.75945" lon="1.79416">
        <ele>188</ele>
        <time>2014-10-19T13:26:00.000Z</time>
      </trkpt>
      <trkpt lat="48.75945" lon="1.79395">
        <ele>188.19999694824</ele>
        <time>2014-10-19T13:26:09.000Z</time>
      </trkpt>
      <trkpt lat="48.75945" lon="1.79378">
        <ele>188.19999694824</ele>
        <time>2014-10-19T13:26:16.000Z</time>
      </trkpt>
      <trkpt lat="48.75946" lon="1.79371">
        <ele>188.19999694824</ele>
        <time>2014-10-19T13:26:20.000Z</time>
      </trkpt>
      <trkpt lat="48.75944" lon="1.79349">
        <ele>188.19999694824</ele>
        <time>2014-10-19T13:26:28.000Z</time>
      </trkpt>
      <trkpt lat="48.75943" lon="1.79334">
        <ele>188.19999694824</ele>
        <time>2014-10-19T13:26:34.000Z</time>
      </trkpt>
      <trkpt lat="48.75943" lon="1.7932">
        <ele>188</ele>
        <time>2014-10-19T13:26:41.000Z</time>
      </trkpt>
      <trkpt lat="48.75942" lon="1.79318">
        <ele>188</ele>
        <time>2014-10-19T13:26:42.000Z</time>
      </trkpt>
      <trkpt lat="48.75941" lon="1.79301">
        <ele>188.19999694824</ele>
        <time>2014-10-19T13:26:49.000Z</time>
      </trkpt>
      <trkpt lat="48.75941" lon="1.79291">
        <ele>188.39999389648</ele>
        <time>2014-10-19T13:26:53.000Z</time>
      </trkpt>
      <trkpt lat="48.7594" lon="1.79274">
        <ele>188.60000610352</ele>
        <time>2014-10-19T13:27:01.000Z</time>
      </trkpt>
      <trkpt lat="48.75939" lon="1.79256">
        <ele>188.80000305176</ele>
        <time>2014-10-19T13:27:06.000Z</time>
      </trkpt>
      <trkpt lat="48.75939" lon="1.79246">
        <ele>189</ele>
        <time>2014-10-19T13:27:10.000Z</time>
      </trkpt>
      <trkpt lat="48.75938" lon="1.79241">
        <ele>189</ele>
        <time>2014-10-19T13:27:12.000Z</time>
      </trkpt>
      <trkpt lat="48.75938" lon="1.79228">
        <ele>189.19999694824</ele>
        <time>2014-10-19T13:27:18.000Z</time>
      </trkpt>
      <trkpt lat="48.75937" lon="1.79216">
        <ele>189.39999389648</ele>
        <time>2014-10-19T13:27:23.000Z</time>
      </trkpt>
      <trkpt lat="48.75936" lon="1.79209">
        <ele>189.60000610352</ele>
        <time>2014-10-19T13:27:27.000Z</time>
      </trkpt>
      <trkpt lat="48.75937" lon="1.79197">
        <ele>190</ele>
        <time>2014-10-19T13:27:32.000Z</time>
      </trkpt>
      <trkpt lat="48.75942" lon="1.79186">
        <ele>190.39999389648</ele>
        <time>2014-10-19T13:27:39.000Z</time>
      </trkpt>
      <trkpt lat="48.75944" lon="1.79182">
        <ele>190.39999389648</ele>
        <time>2014-10-19T13:27:41.000Z</time>
      </trkpt>
      <trkpt lat="48.75944" lon="1.79171">
        <ele>190.80000305176</ele>
        <time>2014-10-19T13:27:45.000Z</time>
      </trkpt>
      <trkpt lat="48.75943" lon="1.79165">
        <ele>190.80000305176</ele>
        <time>2014-10-19T13:27:47.000Z</time>
      </trkpt>
      <trkpt lat="48.75943" lon="1.7916">
        <ele>191</ele>
        <time>2014-10-19T13:27:49.000Z</time>
      </trkpt>
      <trkpt lat="48.7594" lon="1.7914">
        <ele>191</ele>
        <time>2014-10-19T13:27:56.000Z</time>
      </trkpt>
      <trkpt lat="48.75941" lon="1.79139">
        <ele>191</ele>
        <time>2014-10-19T13:27:57.000Z</time>
      </trkpt>
      <trkpt lat="48.75936" lon="1.79121">
        <ele>191</ele>
        <time>2014-10-19T13:28:02.000Z</time>
      </trkpt>
      <trkpt lat="48.75934" lon="1.79105">
        <ele>190.80000305176</ele>
        <time>2014-10-19T13:28:08.000Z</time>
      </trkpt>
      <trkpt lat="48.75932" lon="1.79095">
        <ele>190.80000305176</ele>
        <time>2014-10-19T13:28:12.000Z</time>
      </trkpt>
      <trkpt lat="48.75933" lon="1.79083">
        <ele>190.80000305176</ele>
        <time>2014-10-19T13:28:18.000Z</time>
      </trkpt>
      <trkpt lat="48.75933" lon="1.79068">
        <ele>190.80000305176</ele>
        <time>2014-10-19T13:28:25.000Z</time>
      </trkpt>
      <trkpt lat="48.75933" lon="1.79066">
        <ele>190.80000305176</ele>
        <time>2014-10-19T13:28:26.000Z</time>
      </trkpt>
      <trkpt lat="48.7593" lon="1.79055">
        <ele>190.80000305176</ele>
        <time>2014-10-19T13:28:31.000Z</time>
      </trkpt>
      <trkpt lat="48.75929" lon="1.79038">
        <ele>190.60000610352</ele>
        <time>2014-10-19T13:28:36.000Z</time>
      </trkpt>
      <trkpt lat="48.75927" lon="1.79022">
        <ele>190.60000610352</ele>
        <time>2014-10-19T13:28:43.000Z</time>
      </trkpt>
      <trkpt lat="48.75925" lon="1.79008">
        <ele>190.60000610352</ele>
        <time>2014-10-19T13:28:49.000Z</time>
      </trkpt>
      <trkpt lat="48.75925" lon="1.78996">
        <ele>190.60000610352</ele>
        <time>2014-10-19T13:28:53.000Z</time>
      </trkpt>
      <trkpt lat="48.75924" lon="1.78976">
        <ele>190.80000305176</ele>
        <time>2014-10-19T13:29:00.000Z</time>
      </trkpt>
      <trkpt lat="48.75925" lon="1.78964">
        <ele>191.19999694824</ele>
        <time>2014-10-19T13:29:06.000Z</time>
      </trkpt>
      <trkpt lat="48.75922" lon="1.78944">
        <ele>191.60000610352</ele>
        <time>2014-10-19T13:29:12.000Z</time>
      </trkpt>
      <trkpt lat="48.75923" lon="1.7893">
        <ele>191.80000305176</ele>
        <time>2014-10-19T13:29:17.000Z</time>
      </trkpt>
      <trkpt lat="48.75925" lon="1.78916">
        <ele>192.19999694824</ele>
        <time>2014-10-19T13:29:23.000Z</time>
      </trkpt>
      <trkpt lat="48.75925" lon="1.78915">
        <ele>192.39999389648</ele>
        <time>2014-10-19T13:29:24.000Z</time>
      </trkpt>
      <trkpt lat="48.75924" lon="1.789">
        <ele>192.80000305176</ele>
        <time>2014-10-19T13:29:30.000Z</time>
      </trkpt>
      <trkpt lat="48.75924" lon="1.78896">
        <ele>192.80000305176</ele>
        <time>2014-10-19T13:29:32.000Z</time>
      </trkpt>
      <trkpt lat="48.75923" lon="1.78883">
        <ele>193</ele>
        <time>2014-10-19T13:29:37.000Z</time>
      </trkpt>
      <trkpt lat="48.75922" lon="1.7887">
        <ele>193.19999694824</ele>
        <time>2014-10-19T13:29:42.000Z</time>
      </trkpt>
      <trkpt lat="48.75921" lon="1.78854">
        <ele>193.39999389648</ele>
        <time>2014-10-19T13:29:48.000Z</time>
      </trkpt>
      <trkpt lat="48.75921" lon="1.78839">
        <ele>193.60000610352</ele>
        <time>2014-10-19T13:29:54.000Z</time>
      </trkpt>
      <trkpt lat="48.75919" lon="1.78823">
        <ele>193.80000305176</ele>
        <time>2014-10-19T13:30:00.000Z</time>
      </trkpt>
      <trkpt lat="48.75918" lon="1.78811">
        <ele>193.80000305176</ele>
        <time>2014-10-19T13:30:06.000Z</time>
      </trkpt>
      <trkpt lat="48.75917" lon="1.78802">
        <ele>194</ele>
        <time>2014-10-19T13:30:09.000Z</time>
      </trkpt>
      <trkpt lat="48.75915" lon="1.7879">
        <ele>194</ele>
        <time>2014-10-19T13:30:14.000Z</time>
      </trkpt>
      <trkpt lat="48.75916" lon="1.78784">
        <ele>194</ele>
        <time>2014-10-19T13:30:20.000Z</time>
      </trkpt>
      <trkpt lat="48.75916" lon="1.78772">
        <ele>194</ele>
        <time>2014-10-19T13:30:25.000Z</time>
      </trkpt>
      <trkpt lat="48.75913" lon="1.78757">
        <ele>194</ele>
        <time>2014-10-19T13:30:31.000Z</time>
      </trkpt>
      <trkpt lat="48.7591" lon="1.7874">
        <ele>194</ele>
        <time>2014-10-19T13:30:38.000Z</time>
      </trkpt>
      <trkpt lat="48.75909" lon="1.78725">
        <ele>193.60000610352</ele>
        <time>2014-10-19T13:30:45.000Z</time>
      </trkpt>
      <trkpt lat="48.75908" lon="1.78713">
        <ele>193.39999389648</ele>
        <time>2014-10-19T13:30:50.000Z</time>
      </trkpt>
      <trkpt lat="48.75909" lon="1.78707">
        <ele>193.19999694824</ele>
        <time>2014-10-19T13:30:53.000Z</time>
      </trkpt>
      <trkpt lat="48.7591" lon="1.78695">
        <ele>192.80000305176</ele>
        <time>2014-10-19T13:30:59.000Z</time>
      </trkpt>
      <trkpt lat="48.7591" lon="1.78693">
        <ele>192.80000305176</ele>
        <time>2014-10-19T13:31:00.000Z</time>
      </trkpt>
      <trkpt lat="48.7591" lon="1.78678">
        <ele>192.19999694824</ele>
        <time>2014-10-19T13:31:07.000Z</time>
      </trkpt>
      <trkpt lat="48.75911" lon="1.78659">
        <ele>191.39999389648</ele>
        <time>2014-10-19T13:31:14.000Z</time>
      </trkpt>
      <trkpt lat="48.75909" lon="1.78646">
        <ele>191.39999389648</ele>
        <time>2014-10-19T13:31:20.000Z</time>
      </trkpt>
      <trkpt lat="48.7591" lon="1.78635">
        <ele>191.39999389648</ele>
        <time>2014-10-19T13:31:25.000Z</time>
      </trkpt>
      <trkpt lat="48.75908" lon="1.78624">
        <ele>191.39999389648</ele>
        <time>2014-10-19T13:31:29.000Z</time>
      </trkpt>
      <trkpt lat="48.75906" lon="1.78615">
        <ele>191.60000610352</ele>
        <time>2014-10-19T13:31:33.000Z</time>
      </trkpt>
      <trkpt lat="48.75905" lon="1.78601">
        <ele>191.80000305176</ele>
        <time>2014-10-19T13:31:39.000Z</time>
      </trkpt>
      <trkpt lat="48.75907" lon="1.78593">
        <ele>192.19999694824</ele>
        <time>2014-10-19T13:31:43.000Z</time>
      </trkpt>
      <trkpt lat="48.75909" lon="1.78578">
        <ele>192.39999389648</ele>
        <time>2014-10-19T13:31:51.000Z</time>
      </trkpt>
      <trkpt lat="48.75908" lon="1.78573">
        <ele>192.60000610352</ele>
        <time>2014-10-19T13:31:53.000Z</time>
      </trkpt>
      <trkpt lat="48.75906" lon="1.78563">
        <ele>192.80000305176</ele>
        <time>2014-10-19T13:31:58.000Z</time>
      </trkpt>
      <trkpt lat="48.75906" lon="1.78554">
        <ele>193</ele>
        <time>2014-10-19T13:32:02.000Z</time>
      </trkpt>
      <trkpt lat="48.75905" lon="1.78542">
        <ele>193.39999389648</ele>
        <time>2014-10-19T13:32:08.000Z</time>
      </trkpt>
      <trkpt lat="48.75905" lon="1.78539">
        <ele>193.39999389648</ele>
        <time>2014-10-19T13:32:09.000Z</time>
      </trkpt>
      <trkpt lat="48.75906" lon="1.78524">
        <ele>193.80000305176</ele>
        <time>2014-10-19T13:32:16.000Z</time>
      </trkpt>
      <trkpt lat="48.75906" lon="1.78515">
        <ele>194</ele>
        <time>2014-10-19T13:32:21.000Z</time>
      </trkpt>
      <trkpt lat="48.75907" lon="1.78507">
        <ele>194.19999694824</ele>
        <time>2014-10-19T13:32:24.000Z</time>
      </trkpt>
      <trkpt lat="48.75905" lon="1.7849">
        <ele>194.60000610352</ele>
        <time>2014-10-19T13:32:29.000Z</time>
      </trkpt>
      <trkpt lat="48.75904" lon="1.78483">
        <ele>194.60000610352</ele>
        <time>2014-10-19T13:32:31.000Z</time>
      </trkpt>
      <trkpt lat="48.75902" lon="1.7847">
        <ele>194.80000305176</ele>
        <time>2014-10-19T13:32:37.000Z</time>
      </trkpt>
      <trkpt lat="48.75901" lon="1.78458">
        <ele>195</ele>
        <time>2014-10-19T13:32:43.000Z</time>
      </trkpt>
      <trkpt lat="48.75903" lon="1.78443">
        <ele>195</ele>
        <time>2014-10-19T13:32:50.000Z</time>
      </trkpt>
      <trkpt lat="48.75903" lon="1.78434">
        <ele>195</ele>
        <time>2014-10-19T13:32:55.000Z</time>
      </trkpt>
      <trkpt lat="48.75902" lon="1.78427">
        <ele>195</ele>
        <time>2014-10-19T13:32:57.000Z</time>
      </trkpt>
      <trkpt lat="48.75903" lon="1.78418">
        <ele>195</ele>
        <time>2014-10-19T13:33:01.000Z</time>
      </trkpt>
      <trkpt lat="48.75902" lon="1.78409">
        <ele>195</ele>
        <time>2014-10-19T13:33:05.000Z</time>
      </trkpt>
      <trkpt lat="48.75905" lon="1.78399">
        <ele>195</ele>
        <time>2014-10-19T13:33:11.000Z</time>
      </trkpt>
      <trkpt lat="48.75905" lon="1.78394">
        <ele>195</ele>
        <time>2014-10-19T13:33:13.000Z</time>
      </trkpt>
      <trkpt lat="48.75901" lon="1.78374">
        <ele>195</ele>
        <time>2014-10-19T13:33:19.000Z</time>
      </trkpt>
      <trkpt lat="48.75898" lon="1.78353">
        <ele>195</ele>
        <time>2014-10-19T13:33:27.000Z</time>
      </trkpt>
      <trkpt lat="48.75897" lon="1.7834">
        <ele>195</ele>
        <time>2014-10-19T13:33:34.000Z</time>
      </trkpt>
      <trkpt lat="48.75896" lon="1.78324">
        <ele>195</ele>
        <time>2014-10-19T13:33:41.000Z</time>
      </trkpt>
      <trkpt lat="48.75896" lon="1.78305">
        <ele>194.80000305176</ele>
        <time>2014-10-19T13:33:48.000Z</time>
      </trkpt>
      <trkpt lat="48.75894" lon="1.7829">
        <ele>194.60000610352</ele>
        <time>2014-10-19T13:33:55.000Z</time>
      </trkpt>
      <trkpt lat="48.75895" lon="1.78287">
        <ele>194.60000610352</ele>
        <time>2014-10-19T13:33:56.000Z</time>
      </trkpt>
      <trkpt lat="48.75895" lon="1.78267">
        <ele>194.60000610352</ele>
        <time>2014-10-19T13:34:05.000Z</time>
      </trkpt>
      <trkpt lat="48.75894" lon="1.78264">
        <ele>194.60000610352</ele>
        <time>2014-10-19T13:34:06.000Z</time>
      </trkpt>
      <trkpt lat="48.75894" lon="1.78255">
        <ele>194.80000305176</ele>
        <time>2014-10-19T13:34:10.000Z</time>
      </trkpt>
      <trkpt lat="48.75896" lon="1.78243">
        <ele>195</ele>
        <time>2014-10-19T13:34:16.000Z</time>
      </trkpt>
      <trkpt lat="48.75897" lon="1.78242">
        <ele>195</ele>
        <time>2014-10-19T13:34:17.000Z</time>
      </trkpt>
      <trkpt lat="48.75897" lon="1.78229">
        <ele>195.19999694824</ele>
        <time>2014-10-19T13:34:24.000Z</time>
      </trkpt>
      <trkpt lat="48.75893" lon="1.7821">
        <ele>195.19999694824</ele>
        <time>2014-10-19T13:34:30.000Z</time>
      </trkpt>
      <trkpt lat="48.75894" lon="1.78203">
        <ele>195.39999389648</ele>
        <time>2014-10-19T13:34:33.000Z</time>
      </trkpt>
      <trkpt lat="48.75892" lon="1.78188">
        <ele>195.39999389648</ele>
        <time>2014-10-19T13:34:38.000Z</time>
      </trkpt>
      <trkpt lat="48.7589" lon="1.78167">
        <ele>195.39999389648</ele>
        <time>2014-10-19T13:34:47.000Z</time>
      </trkpt>
      <trkpt lat="48.75888" lon="1.78152">
        <ele>195.39999389648</ele>
        <time>2014-10-19T13:34:54.000Z</time>
      </trkpt>
      <trkpt lat="48.75887" lon="1.78144">
        <ele>195.60000610352</ele>
        <time>2014-10-19T13:34:59.000Z</time>
      </trkpt>
      <trkpt lat="48.75886" lon="1.78139">
        <ele>195.60000610352</ele>
        <time>2014-10-19T13:35:01.000Z</time>
      </trkpt>
      <trkpt lat="48.75886" lon="1.78131">
        <ele>195.60000610352</ele>
        <time>2014-10-19T13:35:05.000Z</time>
      </trkpt>
      <trkpt lat="48.75888" lon="1.78124">
        <ele>195.80000305176</ele>
        <time>2014-10-19T13:35:11.000Z</time>
      </trkpt>
      <trkpt lat="48.7589" lon="1.78113">
        <ele>196</ele>
        <time>2014-10-19T13:35:18.000Z</time>
      </trkpt>
      <trkpt lat="48.7589" lon="1.78106">
        <ele>196</ele>
        <time>2014-10-19T13:35:22.000Z</time>
      </trkpt>
      <trkpt lat="48.7589" lon="1.78103">
        <ele>196</ele>
        <time>2014-10-19T13:35:23.000Z</time>
      </trkpt>
      <trkpt lat="48.75884" lon="1.78079">
        <ele>195.39999389648</ele>
        <time>2014-10-19T13:35:30.000Z</time>
      </trkpt>
      <trkpt lat="48.75886" lon="1.78073">
        <ele>195.19999694824</ele>
        <time>2014-10-19T13:35:33.000Z</time>
      </trkpt>
      <trkpt lat="48.75889" lon="1.78064">
        <ele>195</ele>
        <time>2014-10-19T13:35:38.000Z</time>
      </trkpt>
      <trkpt lat="48.75883" lon="1.78038">
        <ele>195</ele>
        <time>2014-10-19T13:35:45.000Z</time>
      </trkpt>
      <trkpt lat="48.75883" lon="1.78031">
        <ele>194.80000305176</ele>
        <time>2014-10-19T13:35:48.000Z</time>
      </trkpt>
      <trkpt lat="48.7588" lon="1.78024">
        <ele>194.80000305176</ele>
        <time>2014-10-19T13:35:52.000Z</time>
      </trkpt>
      <trkpt lat="48.75881" lon="1.7802">
        <ele>194.80000305176</ele>
        <time>2014-10-19T13:35:56.000Z</time>
      </trkpt>
      <trkpt lat="48.75881" lon="1.78014">
        <ele>194.60000610352</ele>
        <time>2014-10-19T13:35:58.000Z</time>
      </trkpt>
      <trkpt lat="48.7588" lon="1.78001">
        <ele>195</ele>
        <time>2014-10-19T13:36:03.000Z</time>
      </trkpt>
      <trkpt lat="48.75878" lon="1.77993">
        <ele>195.19999694824</ele>
        <time>2014-10-19T13:36:05.000Z</time>
      </trkpt>
      <trkpt lat="48.75878" lon="1.7798">
        <ele>195.19999694824</ele>
        <time>2014-10-19T13:36:10.000Z</time>
      </trkpt>
      <trkpt lat="48.75881" lon="1.77969">
        <ele>195.39999389648</ele>
        <time>2014-10-19T13:36:17.000Z</time>
      </trkpt>
      <trkpt lat="48.75882" lon="1.77961">
        <ele>195.39999389648</ele>
        <time>2014-10-19T13:36:21.000Z</time>
      </trkpt>
      <trkpt lat="48.75879" lon="1.77943">
        <ele>195.19999694824</ele>
        <time>2014-10-19T13:36:27.000Z</time>
      </trkpt>
      <trkpt lat="48.75878" lon="1.77935">
        <ele>195.19999694824</ele>
        <time>2014-10-19T13:36:31.000Z</time>
      </trkpt>
      <trkpt lat="48.75877" lon="1.77911">
        <ele>194.80000305176</ele>
        <time>2014-10-19T13:36:40.000Z</time>
      </trkpt>
      <trkpt lat="48.75879" lon="1.77904">
        <ele>194.80000305176</ele>
        <time>2014-10-19T13:36:45.000Z</time>
      </trkpt>
      <trkpt lat="48.75876" lon="1.77893">
        <ele>194.80000305176</ele>
        <time>2014-10-19T13:36:50.000Z</time>
      </trkpt>
      <trkpt lat="48.75876" lon="1.77883">
        <ele>195</ele>
        <time>2014-10-19T13:36:53.000Z</time>
      </trkpt>
      <trkpt lat="48.75873" lon="1.77858">
        <ele>195.39999389648</ele>
        <time>2014-10-19T13:37:01.000Z</time>
      </trkpt>
      <trkpt lat="48.75872" lon="1.77847">
        <ele>195.39999389648</ele>
        <time>2014-10-19T13:37:06.000Z</time>
      </trkpt>
      <trkpt lat="48.75872" lon="1.77845">
        <ele>195.60000610352</ele>
        <time>2014-10-19T13:37:07.000Z</time>
      </trkpt>
      <trkpt lat="48.75875" lon="1.77837">
        <ele>195.60000610352</ele>
        <time>2014-10-19T13:37:13.000Z</time>
      </trkpt>
      <trkpt lat="48.75874" lon="1.77824">
        <ele>195.60000610352</ele>
        <time>2014-10-19T13:37:19.000Z</time>
      </trkpt>
      <trkpt lat="48.75876" lon="1.77823">
        <ele>195.39999389648</ele>
        <time>2014-10-19T13:37:26.000Z</time>
      </trkpt>
      <trkpt lat="48.75876" lon="1.77823">
        <ele>195.39999389648</ele>
        <time>2014-10-19T13:37:27.000Z</time>
      </trkpt>
      <trkpt lat="48.75873" lon="1.77825">
        <ele>195.60000610352</ele>
        <time>2014-10-19T13:37:39.000Z</time>
      </trkpt>
      <trkpt lat="48.75874" lon="1.77821">
        <ele>195.60000610352</ele>
        <time>2014-10-19T13:37:41.000Z</time>
      </trkpt>
      <trkpt lat="48.75876" lon="1.77811">
        <ele>195.19999694824</ele>
        <time>2014-10-19T13:37:46.000Z</time>
      </trkpt>
      <trkpt lat="48.75873" lon="1.77789">
        <ele>194.80000305176</ele>
        <time>2014-10-19T13:37:55.000Z</time>
      </trkpt>
      <trkpt lat="48.75875" lon="1.77782">
        <ele>194.60000610352</ele>
        <time>2014-10-19T13:38:00.000Z</time>
      </trkpt>
      <trkpt lat="48.75872" lon="1.77774">
        <ele>194.39999389648</ele>
        <time>2014-10-19T13:38:02.000Z</time>
      </trkpt>
      <trkpt lat="48.75871" lon="1.77769">
        <ele>194.39999389648</ele>
        <time>2014-10-19T13:38:04.000Z</time>
      </trkpt>
      <trkpt lat="48.7587" lon="1.77763">
        <ele>194.19999694824</ele>
        <time>2014-10-19T13:38:06.000Z</time>
      </trkpt>
      <trkpt lat="48.75867" lon="1.77748">
        <ele>194</ele>
        <time>2014-10-19T13:38:13.000Z</time>
      </trkpt>
      <trkpt lat="48.75868" lon="1.7774">
        <ele>194.19999694824</ele>
        <time>2014-10-19T13:38:17.000Z</time>
      </trkpt>
      <trkpt lat="48.75866" lon="1.77725">
        <ele>193.80000305176</ele>
        <time>2014-10-19T13:38:23.000Z</time>
      </trkpt>
      <trkpt lat="48.75871" lon="1.77717">
        <ele>193.60000610352</ele>
        <time>2014-10-19T13:38:30.000Z</time>
      </trkpt>
      <trkpt lat="48.75872" lon="1.77712">
        <ele>193.60000610352</ele>
        <time>2014-10-19T13:38:33.000Z</time>
      </trkpt>
      <trkpt lat="48.7587" lon="1.77702">
        <ele>193.39999389648</ele>
        <time>2014-10-19T13:38:38.000Z</time>
      </trkpt>
      <trkpt lat="48.75865" lon="1.77686">
        <ele>192.80000305176</ele>
        <time>2014-10-19T13:38:45.000Z</time>
      </trkpt>
      <trkpt lat="48.75862" lon="1.7767">
        <ele>192.39999389648</ele>
        <time>2014-10-19T13:38:51.000Z</time>
      </trkpt>
      <trkpt lat="48.75863" lon="1.7766">
        <ele>192.19999694824</ele>
        <time>2014-10-19T13:38:56.000Z</time>
      </trkpt>
      <trkpt lat="48.75862" lon="1.77646">
        <ele>192</ele>
        <time>2014-10-19T13:39:03.000Z</time>
      </trkpt>
      <trkpt lat="48.75859" lon="1.77629">
        <ele>192</ele>
        <time>2014-10-19T13:39:10.000Z</time>
      </trkpt>
      <trkpt lat="48.75859" lon="1.77617">
        <ele>192</ele>
        <time>2014-10-19T13:39:16.000Z</time>
      </trkpt>
      <trkpt lat="48.75859" lon="1.7761">
        <ele>192</ele>
        <time>2014-10-19T13:39:20.000Z</time>
      </trkpt>
      <trkpt lat="48.75859" lon="1.77603">
        <ele>192</ele>
        <time>2014-10-19T13:39:23.000Z</time>
      </trkpt>
      <trkpt lat="48.75859" lon="1.776">
        <ele>192</ele>
        <time>2014-10-19T13:39:26.000Z</time>
      </trkpt>
      <trkpt lat="48.75859" lon="1.77592">
        <ele>192</ele>
        <time>2014-10-19T13:39:30.000Z</time>
      </trkpt>
      <trkpt lat="48.75857" lon="1.77585">
        <ele>192</ele>
        <time>2014-10-19T13:39:38.000Z</time>
      </trkpt>
      <trkpt lat="48.75854" lon="1.77577">
        <ele>192</ele>
        <time>2014-10-19T13:39:46.000Z</time>
      </trkpt>
      <trkpt lat="48.75856" lon="1.77574">
        <ele>192</ele>
        <time>2014-10-19T13:39:53.000Z</time>
      </trkpt>
      <trkpt lat="48.75856" lon="1.77552">
        <ele>191.80000305176</ele>
        <time>2014-10-19T13:40:12.000Z</time>
      </trkpt>
      <trkpt lat="48.75856" lon="1.77552">
        <ele>191.80000305176</ele>
        <time>2014-10-19T13:40:13.000Z</time>
      </trkpt>
      <trkpt lat="48.75859" lon="1.77542">
        <ele>191.80000305176</ele>
        <time>2014-10-19T13:40:26.000Z</time>
      </trkpt>
      <trkpt lat="48.7586" lon="1.77539">
        <ele>191.80000305176</ele>
        <time>2014-10-19T13:40:27.000Z</time>
      </trkpt>
      <trkpt lat="48.75868" lon="1.7753">
        <ele>191.80000305176</ele>
        <time>2014-10-19T13:40:33.000Z</time>
      </trkpt>
      <trkpt lat="48.75873" lon="1.7752">
        <ele>191.80000305176</ele>
        <time>2014-10-19T13:40:39.000Z</time>
      </trkpt>
      <trkpt lat="48.75879" lon="1.7751">
        <ele>191.80000305176</ele>
        <time>2014-10-19T13:40:45.000Z</time>
      </trkpt>
      <trkpt lat="48.75879" lon="1.77505">
        <ele>191.60000610352</ele>
        <time>2014-10-19T13:40:47.000Z</time>
      </trkpt>
      <trkpt lat="48.75885" lon="1.77492">
        <ele>190.80000305176</ele>
        <time>2014-10-19T13:40:54.000Z</time>
      </trkpt>
      <trkpt lat="48.7589" lon="1.77478">
        <ele>190.39999389648</ele>
        <time>2014-10-19T13:41:02.000Z</time>
      </trkpt>
      <trkpt lat="48.7589" lon="1.77474">
        <ele>190.39999389648</ele>
        <time>2014-10-19T13:41:09.000Z</time>
      </trkpt>
      <trkpt lat="48.75891" lon="1.77474">
        <ele>190.39999389648</ele>
        <time>2014-10-19T13:41:10.000Z</time>
      </trkpt>
      <trkpt lat="48.75892" lon="1.77469">
        <ele>190.39999389648</ele>
        <time>2014-10-19T13:42:56.000Z</time>
      </trkpt>
      <trkpt lat="48.7589" lon="1.77465">
        <ele>190.39999389648</ele>
        <time>2014-10-19T13:43:01.000Z</time>
      </trkpt>
      <trkpt lat="48.75894" lon="1.77458">
        <ele>190.19999694824</ele>
        <time>2014-10-19T13:43:11.000Z</time>
      </trkpt>
      <trkpt lat="48.75896" lon="1.77456">
        <ele>190.19999694824</ele>
        <time>2014-10-19T13:43:12.000Z</time>
      </trkpt>
      <trkpt lat="48.759" lon="1.77447">
        <ele>190</ele>
        <time>2014-10-19T13:43:18.000Z</time>
      </trkpt>
      <trkpt lat="48.75903" lon="1.77443">
        <ele>190</ele>
        <time>2014-10-19T13:43:21.000Z</time>
      </trkpt>
      <trkpt lat="48.7591" lon="1.77433">
        <ele>190</ele>
        <time>2014-10-19T13:43:29.000Z</time>
      </trkpt>
      <trkpt lat="48.75915" lon="1.77422">
        <ele>190</ele>
        <time>2014-10-19T13:43:36.000Z</time>
      </trkpt>
      <trkpt lat="48.75916" lon="1.77418">
        <ele>190</ele>
        <time>2014-10-19T13:43:38.000Z</time>
      </trkpt>
      <trkpt lat="48.75919" lon="1.77408">
        <ele>190</ele>
        <time>2014-10-19T13:43:43.000Z</time>
      </trkpt>
      <trkpt lat="48.75923" lon="1.77396">
        <ele>190</ele>
        <time>2014-10-19T13:43:49.000Z</time>
      </trkpt>
      <trkpt lat="48.75928" lon="1.77388">
        <ele>190.19999694824</ele>
        <time>2014-10-19T13:43:54.000Z</time>
      </trkpt>
      <trkpt lat="48.75928" lon="1.77387">
        <ele>190.39999389648</ele>
        <time>2014-10-19T13:43:55.000Z</time>
      </trkpt>
      <trkpt lat="48.75933" lon="1.77378">
        <ele>190.80000305176</ele>
        <time>2014-10-19T13:44:00.000Z</time>
      </trkpt>
      <trkpt lat="48.75939" lon="1.77372">
        <ele>191.19999694824</ele>
        <time>2014-10-19T13:44:05.000Z</time>
      </trkpt>
      <trkpt lat="48.75944" lon="1.77365">
        <ele>191.19999694824</ele>
        <time>2014-10-19T13:44:10.000Z</time>
      </trkpt>
      <trkpt lat="48.75945" lon="1.77355">
        <ele>191.60000610352</ele>
        <time>2014-10-19T13:44:15.000Z</time>
      </trkpt>
      <trkpt lat="48.75947" lon="1.77346">
        <ele>191.80000305176</ele>
        <time>2014-10-19T13:44:19.000Z</time>
      </trkpt>
      <trkpt lat="48.75948" lon="1.77343">
        <ele>192</ele>
        <time>2014-10-19T13:44:21.000Z</time>
      </trkpt>
      <trkpt lat="48.75949" lon="1.77339">
        <ele>192</ele>
        <time>2014-10-19T13:44:23.000Z</time>
      </trkpt>
      <trkpt lat="48.75953" lon="1.77325">
        <ele>192.19999694824</ele>
        <time>2014-10-19T13:44:29.000Z</time>
      </trkpt>
      <trkpt lat="48.75959" lon="1.77315">
        <ele>192.19999694824</ele>
        <time>2014-10-19T13:44:34.000Z</time>
      </trkpt>
      <trkpt lat="48.75966" lon="1.77305">
        <ele>192</ele>
        <time>2014-10-19T13:44:39.000Z</time>
      </trkpt>
      <trkpt lat="48.75969" lon="1.773">
        <ele>192</ele>
        <time>2014-10-19T13:44:42.000Z</time>
      </trkpt>
      <trkpt lat="48.7598" lon="1.77288">
        <ele>191.80000305176</ele>
        <time>2014-10-19T13:44:50.000Z</time>
      </trkpt>
      <trkpt lat="48.75981" lon="1.77272">
        <ele>192.19999694824</ele>
        <time>2014-10-19T13:44:56.000Z</time>
      </trkpt>
      <trkpt lat="48.75988" lon="1.77262">
        <ele>192</ele>
        <time>2014-10-19T13:45:02.000Z</time>
      </trkpt>
      <trkpt lat="48.75989" lon="1.77261">
        <ele>192</ele>
        <time>2014-10-19T13:45:03.000Z</time>
      </trkpt>
      <trkpt lat="48.75991" lon="1.7725">
        <ele>192.19999694824</ele>
        <time>2014-10-19T13:45:08.000Z</time>
      </trkpt>
      <trkpt lat="48.75995" lon="1.77246">
        <ele>192</ele>
        <time>2014-10-19T13:45:11.000Z</time>
      </trkpt>
      <trkpt lat="48.76" lon="1.77236">
        <ele>192</ele>
        <time>2014-10-19T13:45:17.000Z</time>
      </trkpt>
      <trkpt lat="48.76007" lon="1.77227">
        <ele>191.60000610352</ele>
        <time>2014-10-19T13:45:23.000Z</time>
      </trkpt>
      <trkpt lat="48.76009" lon="1.77216">
        <ele>192</ele>
        <time>2014-10-19T13:45:29.000Z</time>
      </trkpt>
      <trkpt lat="48.76009" lon="1.77214">
        <ele>192.19999694824</ele>
        <time>2014-10-19T13:45:30.000Z</time>
      </trkpt>
      <trkpt lat="48.76014" lon="1.772">
        <ele>192.80000305176</ele>
        <time>2014-10-19T13:45:37.000Z</time>
      </trkpt>
      <trkpt lat="48.76017" lon="1.77197">
        <ele>193</ele>
        <time>2014-10-19T13:45:39.000Z</time>
      </trkpt>
      <trkpt lat="48.76022" lon="1.77192">
        <ele>193.19999694824</ele>
        <time>2014-10-19T13:45:44.000Z</time>
      </trkpt>
      <trkpt lat="48.76025" lon="1.77188">
        <ele>193.19999694824</ele>
        <time>2014-10-19T13:45:47.000Z</time>
      </trkpt>
      <trkpt lat="48.76028" lon="1.77174">
        <ele>193.80000305176</ele>
        <time>2014-10-19T13:45:53.000Z</time>
      </trkpt>
      <trkpt lat="48.7603" lon="1.7717">
        <ele>194</ele>
        <time>2014-10-19T13:45:55.000Z</time>
      </trkpt>
      <trkpt lat="48.76042" lon="1.77159">
        <ele>193.39999389648</ele>
        <time>2014-10-19T13:46:02.000Z</time>
      </trkpt>
      <trkpt lat="48.76049" lon="1.77148">
        <ele>193</ele>
        <time>2014-10-19T13:46:08.000Z</time>
      </trkpt>
      <trkpt lat="48.76055" lon="1.77141">
        <ele>192.80000305176</ele>
        <time>2014-10-19T13:46:13.000Z</time>
      </trkpt>
      <trkpt lat="48.76057" lon="1.77126">
        <ele>192.80000305176</ele>
        <time>2014-10-19T13:46:20.000Z</time>
      </trkpt>
      <trkpt lat="48.76059" lon="1.77114">
        <ele>192.80000305176</ele>
        <time>2014-10-19T13:46:26.000Z</time>
      </trkpt>
      <trkpt lat="48.76065" lon="1.77111">
        <ele>192.39999389648</ele>
        <time>2014-10-19T13:46:29.000Z</time>
      </trkpt>
      <trkpt lat="48.76069" lon="1.77104">
        <ele>192.39999389648</ele>
        <time>2014-10-19T13:46:33.000Z</time>
      </trkpt>
      <trkpt lat="48.76072" lon="1.77093">
        <ele>192.39999389648</ele>
        <time>2014-10-19T13:46:38.000Z</time>
      </trkpt>
      <trkpt lat="48.76076" lon="1.77082">
        <ele>192.39999389648</ele>
        <time>2014-10-19T13:46:44.000Z</time>
      </trkpt>
      <trkpt lat="48.76082" lon="1.7707">
        <ele>192.39999389648</ele>
        <time>2014-10-19T13:46:50.000Z</time>
      </trkpt>
      <trkpt lat="48.76086" lon="1.7706">
        <ele>192</ele>
        <time>2014-10-19T13:46:56.000Z</time>
      </trkpt>
      <trkpt lat="48.76093" lon="1.77049">
        <ele>191.60000610352</ele>
        <time>2014-10-19T13:47:02.000Z</time>
      </trkpt>
      <trkpt lat="48.76101" lon="1.7704">
        <ele>191.60000610352</ele>
        <time>2014-10-19T13:47:08.000Z</time>
      </trkpt>
      <trkpt lat="48.76109" lon="1.77029">
        <ele>191.60000610352</ele>
        <time>2014-10-19T13:47:15.000Z</time>
      </trkpt>
      <trkpt lat="48.76111" lon="1.77027">
        <ele>191.60000610352</ele>
        <time>2014-10-19T13:47:17.000Z</time>
      </trkpt>
      <trkpt lat="48.76115" lon="1.7702">
        <ele>191.60000610352</ele>
        <time>2014-10-19T13:47:21.000Z</time>
      </trkpt>
      <trkpt lat="48.76121" lon="1.77014">
        <ele>191.60000610352</ele>
        <time>2014-10-19T13:47:25.000Z</time>
      </trkpt>
      <trkpt lat="48.76125" lon="1.77006">
        <ele>191.80000305176</ele>
        <time>2014-10-19T13:47:31.000Z</time>
      </trkpt>
      <trkpt lat="48.7613" lon="1.76998">
        <ele>191.60000610352</ele>
        <time>2014-10-19T13:47:35.000Z</time>
      </trkpt>
      <trkpt lat="48.76139" lon="1.76988">
        <ele>191.19999694824</ele>
        <time>2014-10-19T13:47:43.000Z</time>
      </trkpt>
      <trkpt lat="48.7614" lon="1.76974">
        <ele>191.39999389648</ele>
        <time>2014-10-19T13:47:48.000Z</time>
      </trkpt>
      <trkpt lat="48.76148" lon="1.76962">
        <ele>191.60000610352</ele>
        <time>2014-10-19T13:47:56.000Z</time>
      </trkpt>
      <trkpt lat="48.7615" lon="1.76959">
        <ele>191.60000610352</ele>
        <time>2014-10-19T13:47:58.000Z</time>
      </trkpt>
      <trkpt lat="48.76159" lon="1.76947">
        <ele>191.60000610352</ele>
        <time>2014-10-19T13:48:07.000Z</time>
      </trkpt>
      <trkpt lat="48.7616" lon="1.76945">
        <ele>191.60000610352</ele>
        <time>2014-10-19T13:48:08.000Z</time>
      </trkpt>
      <trkpt lat="48.76166" lon="1.76935">
        <ele>191.80000305176</ele>
        <time>2014-10-19T13:48:14.000Z</time>
      </trkpt>
      <trkpt lat="48.76168" lon="1.76932">
        <ele>191.80000305176</ele>
        <time>2014-10-19T13:48:16.000Z</time>
      </trkpt>
      <trkpt lat="48.76169" lon="1.76925">
        <ele>192</ele>
        <time>2014-10-19T13:48:19.000Z</time>
      </trkpt>
      <trkpt lat="48.76175" lon="1.76914">
        <ele>192</ele>
        <time>2014-10-19T13:48:25.000Z</time>
      </trkpt>
      <trkpt lat="48.76183" lon="1.76901">
        <ele>192.19999694824</ele>
        <time>2014-10-19T13:48:33.000Z</time>
      </trkpt>
      <trkpt lat="48.76184" lon="1.76899">
        <ele>192.19999694824</ele>
        <time>2014-10-19T13:48:34.000Z</time>
      </trkpt>
      <trkpt lat="48.76185" lon="1.76895">
        <ele>192.39999389648</ele>
        <time>2014-10-19T13:48:36.000Z</time>
      </trkpt>
      <trkpt lat="48.76196" lon="1.76879">
        <ele>192.60000610352</ele>
        <time>2014-10-19T13:48:46.000Z</time>
      </trkpt>
      <trkpt lat="48.76198" lon="1.76864">
        <ele>193</ele>
        <time>2014-10-19T13:48:50.000Z</time>
      </trkpt>
      <trkpt lat="48.762" lon="1.76847">
        <ele>193.39999389648</ele>
        <time>2014-10-19T13:48:57.000Z</time>
      </trkpt>
      <trkpt lat="48.76202" lon="1.76833">
        <ele>193.80000305176</ele>
        <time>2014-10-19T13:49:04.000Z</time>
      </trkpt>
      <trkpt lat="48.76209" lon="1.76817">
        <ele>194</ele>
        <time>2014-10-19T13:49:13.000Z</time>
      </trkpt>
      <trkpt lat="48.76214" lon="1.76805">
        <ele>193.80000305176</ele>
        <time>2014-10-19T13:49:20.000Z</time>
      </trkpt>
      <trkpt lat="48.76221" lon="1.76792">
        <ele>193.39999389648</ele>
        <time>2014-10-19T13:49:28.000Z</time>
      </trkpt>
      <trkpt lat="48.76226" lon="1.76776">
        <ele>193.19999694824</ele>
        <time>2014-10-19T13:49:36.000Z</time>
      </trkpt>
      <trkpt lat="48.76233" lon="1.76765">
        <ele>193.80000305176</ele>
        <time>2014-10-19T13:49:43.000Z</time>
      </trkpt>
      <trkpt lat="48.76241" lon="1.76752">
        <ele>194.80000305176</ele>
        <time>2014-10-19T13:49:51.000Z</time>
      </trkpt>
      <trkpt lat="48.76248" lon="1.76742">
        <ele>195.39999389648</ele>
        <time>2014-10-19T13:49:58.000Z</time>
      </trkpt>
      <trkpt lat="48.76249" lon="1.76741">
        <ele>195.60000610352</ele>
        <time>2014-10-19T13:49:59.000Z</time>
      </trkpt>
      <trkpt lat="48.76255" lon="1.76734">
        <ele>195.80000305176</ele>
        <time>2014-10-19T13:50:05.000Z</time>
      </trkpt>
      <trkpt lat="48.76262" lon="1.76726">
        <ele>195.80000305176</ele>
        <time>2014-10-19T13:50:11.000Z</time>
      </trkpt>
      <trkpt lat="48.76267" lon="1.76718">
        <ele>195.60000610352</ele>
        <time>2014-10-19T13:50:16.000Z</time>
      </trkpt>
      <trkpt lat="48.76276" lon="1.76707">
        <ele>195.19999694824</ele>
        <time>2014-10-19T13:50:24.000Z</time>
      </trkpt>
      <trkpt lat="48.76282" lon="1.767">
        <ele>194.80000305176</ele>
        <time>2014-10-19T13:50:30.000Z</time>
      </trkpt>
      <trkpt lat="48.76288" lon="1.76693">
        <ele>194.60000610352</ele>
        <time>2014-10-19T13:50:36.000Z</time>
      </trkpt>
      <trkpt lat="48.76291" lon="1.76683">
        <ele>194.19999694824</ele>
        <time>2014-10-19T13:50:43.000Z</time>
      </trkpt>
      <trkpt lat="48.76296" lon="1.76674">
        <ele>194</ele>
        <time>2014-10-19T13:50:48.000Z</time>
      </trkpt>
      <trkpt lat="48.76298" lon="1.76662">
        <ele>194.19999694824</ele>
        <time>2014-10-19T13:50:52.000Z</time>
      </trkpt>
      <trkpt lat="48.763" lon="1.76647">
        <ele>194.39999389648</ele>
        <time>2014-10-19T13:50:58.000Z</time>
      </trkpt>
      <trkpt lat="48.76307" lon="1.76633">
        <ele>194.39999389648</ele>
        <time>2014-10-19T13:51:05.000Z</time>
      </trkpt>
      <trkpt lat="48.76309" lon="1.76628">
        <ele>194.39999389648</ele>
        <time>2014-10-19T13:51:08.000Z</time>
      </trkpt>
      <trkpt lat="48.76314" lon="1.76617">
        <ele>194.60000610352</ele>
        <time>2014-10-19T13:51:14.000Z</time>
      </trkpt>
      <trkpt lat="48.76315" lon="1.76615">
        <ele>194.60000610352</ele>
        <time>2014-10-19T13:51:15.000Z</time>
      </trkpt>
      <trkpt lat="48.76322" lon="1.766">
        <ele>194.60000610352</ele>
        <time>2014-10-19T13:51:23.000Z</time>
      </trkpt>
      <trkpt lat="48.76324" lon="1.76597">
        <ele>194.60000610352</ele>
        <time>2014-10-19T13:51:25.000Z</time>
      </trkpt>
      <trkpt lat="48.76329" lon="1.76589">
        <ele>194.60000610352</ele>
        <time>2014-10-19T13:51:31.000Z</time>
      </trkpt>
      <trkpt lat="48.76336" lon="1.76574">
        <ele>194.80000305176</ele>
        <time>2014-10-19T13:51:39.000Z</time>
      </trkpt>
      <trkpt lat="48.76343" lon="1.76561">
        <ele>194.80000305176</ele>
        <time>2014-10-19T13:51:46.000Z</time>
      </trkpt>
      <trkpt lat="48.76343" lon="1.7656">
        <ele>194.80000305176</ele>
        <time>2014-10-19T13:51:47.000Z</time>
      </trkpt>
      <trkpt lat="48.76352" lon="1.76549">
        <ele>195</ele>
        <time>2014-10-19T13:51:54.000Z</time>
      </trkpt>
      <trkpt lat="48.76356" lon="1.76541">
        <ele>195</ele>
        <time>2014-10-19T13:51:59.000Z</time>
      </trkpt>
      <trkpt lat="48.76359" lon="1.76526">
        <ele>194.80000305176</ele>
        <time>2014-10-19T13:52:07.000Z</time>
      </trkpt>
      <trkpt lat="48.76362" lon="1.76517">
        <ele>194.80000305176</ele>
        <time>2014-10-19T13:52:11.000Z</time>
      </trkpt>
      <trkpt lat="48.76367" lon="1.76505">
        <ele>194.60000610352</ele>
        <time>2014-10-19T13:52:20.000Z</time>
      </trkpt>
      <trkpt lat="48.76374" lon="1.76491">
        <ele>194</ele>
        <time>2014-10-19T13:52:27.000Z</time>
      </trkpt>
      <trkpt lat="48.7638" lon="1.76477">
        <ele>193.19999694824</ele>
        <time>2014-10-19T13:52:34.000Z</time>
      </trkpt>
      <trkpt lat="48.76384" lon="1.76467">
        <ele>192.80000305176</ele>
        <time>2014-10-19T13:52:39.000Z</time>
      </trkpt>
      <trkpt lat="48.76386" lon="1.76456">
        <ele>192.39999389648</ele>
        <time>2014-10-19T13:52:46.000Z</time>
      </trkpt>
      <trkpt lat="48.76386" lon="1.76455">
        <ele>192.39999389648</ele>
        <time>2014-10-19T13:52:47.000Z</time>
      </trkpt>
      <trkpt lat="48.76398" lon="1.7644">
        <ele>191.60000610352</ele>
        <time>2014-10-19T13:52:55.000Z</time>
      </trkpt>
      <trkpt lat="48.76405" lon="1.76428">
        <ele>191.60000610352</ele>
        <time>2014-10-19T13:53:02.000Z</time>
      </trkpt>
      <trkpt lat="48.76409" lon="1.76415">
        <ele>191.60000610352</ele>
        <time>2014-10-19T13:53:09.000Z</time>
      </trkpt>
      <trkpt lat="48.7641" lon="1.7641">
        <ele>191.60000610352</ele>
        <time>2014-10-19T13:53:11.000Z</time>
      </trkpt>
      <trkpt lat="48.76411" lon="1.76401">
        <ele>191.60000610352</ele>
        <time>2014-10-19T13:53:16.000Z</time>
      </trkpt>
      <trkpt lat="48.76409" lon="1.76382">
        <ele>191.60000610352</ele>
        <time>2014-10-19T13:53:22.000Z</time>
      </trkpt>
      <trkpt lat="48.76407" lon="1.76375">
        <ele>191.80000305176</ele>
        <time>2014-10-19T13:53:25.000Z</time>
      </trkpt>
      <trkpt lat="48.76394" lon="1.76355">
        <ele>192.19999694824</ele>
        <time>2014-10-19T13:53:31.000Z</time>
      </trkpt>
      <trkpt lat="48.76392" lon="1.7635">
        <ele>192.19999694824</ele>
        <time>2014-10-19T13:53:34.000Z</time>
      </trkpt>
      <trkpt lat="48.76383" lon="1.76337">
        <ele>192.39999389648</ele>
        <time>2014-10-19T13:53:42.000Z</time>
      </trkpt>
      <trkpt lat="48.7638" lon="1.76329">
        <ele>192.60000610352</ele>
        <time>2014-10-19T13:53:48.000Z</time>
      </trkpt>
      <trkpt lat="48.76376" lon="1.76318">
        <ele>192.80000305176</ele>
        <time>2014-10-19T13:53:54.000Z</time>
      </trkpt>
      <trkpt lat="48.76372" lon="1.76311">
        <ele>192.80000305176</ele>
        <time>2014-10-19T13:53:57.000Z</time>
      </trkpt>
      <trkpt lat="48.76368" lon="1.76304">
        <ele>192.80000305176</ele>
        <time>2014-10-19T13:54:01.000Z</time>
      </trkpt>
      <trkpt lat="48.76361" lon="1.76289">
        <ele>193</ele>
        <time>2014-10-19T13:54:08.000Z</time>
      </trkpt>
      <trkpt lat="48.76358" lon="1.7628">
        <ele>193</ele>
        <time>2014-10-19T13:54:12.000Z</time>
      </trkpt>
      <trkpt lat="48.76356" lon="1.76271">
        <ele>193</ele>
        <time>2014-10-19T13:54:17.000Z</time>
      </trkpt>
      <trkpt lat="48.76354" lon="1.76267">
        <ele>193</ele>
        <time>2014-10-19T13:54:19.000Z</time>
      </trkpt>
      <trkpt lat="48.7635" lon="1.76253">
        <ele>193</ele>
        <time>2014-10-19T13:54:27.000Z</time>
      </trkpt>
      <trkpt lat="48.76349" lon="1.76251">
        <ele>193</ele>
        <time>2014-10-19T13:54:28.000Z</time>
      </trkpt>
      <trkpt lat="48.76347" lon="1.76241">
        <ele>193</ele>
        <time>2014-10-19T13:54:33.000Z</time>
      </trkpt>
      <trkpt lat="48.76343" lon="1.76233">
        <ele>193</ele>
        <time>2014-10-19T13:54:38.000Z</time>
      </trkpt>
      <trkpt lat="48.76343" lon="1.76222">
        <ele>192.60000610352</ele>
        <time>2014-10-19T13:54:43.000Z</time>
      </trkpt>
      <trkpt lat="48.76339" lon="1.76204">
        <ele>192.19999694824</ele>
        <time>2014-10-19T13:54:50.000Z</time>
      </trkpt>
      <trkpt lat="48.76338" lon="1.76202">
        <ele>192</ele>
        <time>2014-10-19T13:54:53.000Z</time>
      </trkpt>
      <trkpt lat="48.76336" lon="1.76192">
        <ele>191.80000305176</ele>
        <time>2014-10-19T13:54:57.000Z</time>
      </trkpt>
      <trkpt lat="48.76335" lon="1.76187">
        <ele>191.60000610352</ele>
        <time>2014-10-19T13:55:00.000Z</time>
      </trkpt>
      <trkpt lat="48.76328" lon="1.76173">
        <ele>191.39999389648</ele>
        <time>2014-10-19T13:55:06.000Z</time>
      </trkpt>
      <trkpt lat="48.76328" lon="1.76168">
        <ele>191.19999694824</ele>
        <time>2014-10-19T13:55:10.000Z</time>
      </trkpt>
      <trkpt lat="48.76324" lon="1.76162">
        <ele>191</ele>
        <time>2014-10-19T13:55:16.000Z</time>
      </trkpt>
      <trkpt lat="48.76318" lon="1.76146">
        <ele>190.60000610352</ele>
        <time>2014-10-19T13:55:21.000Z</time>
      </trkpt>
      <trkpt lat="48.76317" lon="1.76142">
        <ele>190.60000610352</ele>
        <time>2014-10-19T13:55:23.000Z</time>
      </trkpt>
      <trkpt lat="48.76316" lon="1.76135">
        <ele>190.39999389648</ele>
        <time>2014-10-19T13:55:27.000Z</time>
      </trkpt>
      <trkpt lat="48.76314" lon="1.76126">
        <ele>190.19999694824</ele>
        <time>2014-10-19T13:55:33.000Z</time>
      </trkpt>
      <trkpt lat="48.76313" lon="1.76124">
        <ele>190.19999694824</ele>
        <time>2014-10-19T13:55:34.000Z</time>
      </trkpt>
      <trkpt lat="48.7631" lon="1.76114">
        <ele>190</ele>
        <time>2014-10-19T13:55:41.000Z</time>
      </trkpt>
      <trkpt lat="48.76306" lon="1.76102">
        <ele>190</ele>
        <time>2014-10-19T13:55:48.000Z</time>
      </trkpt>
      <trkpt lat="48.76304" lon="1.76099">
        <ele>190</ele>
        <time>2014-10-19T13:55:56.000Z</time>
      </trkpt>
      <trkpt lat="48.76305" lon="1.76098">
        <ele>190</ele>
        <time>2014-10-19T13:55:57.000Z</time>
      </trkpt>
      <trkpt lat="48.76305" lon="1.76088">
        <ele>190</ele>
        <time>2014-10-19T13:56:04.000Z</time>
      </trkpt>
      <trkpt lat="48.76301" lon="1.76071">
        <ele>190</ele>
        <time>2014-10-19T13:56:10.000Z</time>
      </trkpt>
      <trkpt lat="48.76298" lon="1.76061">
        <ele>189.80000305176</ele>
        <time>2014-10-19T13:56:13.000Z</time>
      </trkpt>
      <trkpt lat="48.76297" lon="1.76055">
        <ele>189.60000610352</ele>
        <time>2014-10-19T13:56:17.000Z</time>
      </trkpt>
      <trkpt lat="48.76295" lon="1.76043">
        <ele>189.39999389648</ele>
        <time>2014-10-19T13:56:24.000Z</time>
      </trkpt>
      <trkpt lat="48.76287" lon="1.7602">
        <ele>188.80000305176</ele>
        <time>2014-10-19T13:56:31.000Z</time>
      </trkpt>
      <trkpt lat="48.76286" lon="1.76011">
        <ele>188.60000610352</ele>
        <time>2014-10-19T13:56:35.000Z</time>
      </trkpt>
      <trkpt lat="48.76287" lon="1.76">
        <ele>188.19999694824</ele>
        <time>2014-10-19T13:56:41.000Z</time>
      </trkpt>
      <trkpt lat="48.76288" lon="1.75997">
        <ele>188.19999694824</ele>
        <time>2014-10-19T13:56:43.000Z</time>
      </trkpt>
      <trkpt lat="48.7629" lon="1.75988">
        <ele>188</ele>
        <time>2014-10-19T13:56:50.000Z</time>
      </trkpt>
      <trkpt lat="48.76289" lon="1.75985">
        <ele>187.80000305176</ele>
        <time>2014-10-19T13:56:52.000Z</time>
      </trkpt>
      <trkpt lat="48.76288" lon="1.75967">
        <ele>187</ele>
        <time>2014-10-19T13:56:58.000Z</time>
      </trkpt>
      <trkpt lat="48.76288" lon="1.75958">
        <ele>186.60000610352</ele>
        <time>2014-10-19T13:57:02.000Z</time>
      </trkpt>
      <trkpt lat="48.76289" lon="1.75954">
        <ele>186.39999389648</ele>
        <time>2014-10-19T13:57:04.000Z</time>
      </trkpt>
      <trkpt lat="48.76288" lon="1.75945">
        <ele>186</ele>
        <time>2014-10-19T13:57:08.000Z</time>
      </trkpt>
      <trkpt lat="48.76286" lon="1.75936">
        <ele>185.60000610352</ele>
        <time>2014-10-19T13:57:13.000Z</time>
      </trkpt>
      <trkpt lat="48.76287" lon="1.75924">
        <ele>185</ele>
        <time>2014-10-19T13:57:20.000Z</time>
      </trkpt>
      <trkpt lat="48.76285" lon="1.7592">
        <ele>184.80000305176</ele>
        <time>2014-10-19T13:57:22.000Z</time>
      </trkpt>
      <trkpt lat="48.76283" lon="1.75908">
        <ele>184.39999389648</ele>
        <time>2014-10-19T13:57:27.000Z</time>
      </trkpt>
      <trkpt lat="48.76282" lon="1.75905">
        <ele>184.19999694824</ele>
        <time>2014-10-19T13:57:28.000Z</time>
      </trkpt>
      <trkpt lat="48.7628" lon="1.75899">
        <ele>184.19999694824</ele>
        <time>2014-10-19T13:57:31.000Z</time>
      </trkpt>
      <trkpt lat="48.76275" lon="1.75884">
        <ele>184</ele>
        <time>2014-10-19T13:57:37.000Z</time>
      </trkpt>
      <trkpt lat="48.76274" lon="1.75878">
        <ele>184</ele>
        <time>2014-10-19T13:57:40.000Z</time>
      </trkpt>
      <trkpt lat="48.76272" lon="1.75874">
        <ele>184</ele>
        <time>2014-10-19T13:57:42.000Z</time>
      </trkpt>
      <trkpt lat="48.76263" lon="1.75856">
        <ele>183.60000610352</ele>
        <time>2014-10-19T13:57:48.000Z</time>
      </trkpt>
      <trkpt lat="48.76262" lon="1.75854">
        <ele>183.60000610352</ele>
        <time>2014-10-19T13:57:49.000Z</time>
      </trkpt>
      <trkpt lat="48.7626" lon="1.75844">
        <ele>183.39999389648</ele>
        <time>2014-10-19T13:57:54.000Z</time>
      </trkpt>
      <trkpt lat="48.76251" lon="1.75824">
        <ele>183</ele>
        <time>2014-10-19T13:58:02.000Z</time>
      </trkpt>
      <trkpt lat="48.76249" lon="1.75816">
        <ele>183</ele>
        <time>2014-10-19T13:58:06.000Z</time>
      </trkpt>
      <trkpt lat="48.76251" lon="1.75804">
        <ele>183.19999694824</ele>
        <time>2014-10-19T13:58:14.000Z</time>
      </trkpt>
      <trkpt lat="48.76251" lon="1.75795">
        <ele>183.39999389648</ele>
        <time>2014-10-19T13:58:19.000Z</time>
      </trkpt>
      <trkpt lat="48.76249" lon="1.7579">
        <ele>183.39999389648</ele>
        <time>2014-10-19T13:58:22.000Z</time>
      </trkpt>
      <trkpt lat="48.7625" lon="1.75785">
        <ele>183.39999389648</ele>
        <time>2014-10-19T13:58:27.000Z</time>
      </trkpt>
      <trkpt lat="48.76248" lon="1.75781">
        <ele>183.39999389648</ele>
        <time>2014-10-19T13:58:36.000Z</time>
      </trkpt>
      <trkpt lat="48.76245" lon="1.75778">
        <ele>183.19999694824</ele>
        <time>2014-10-19T13:58:39.000Z</time>
      </trkpt>
      <trkpt lat="48.76243" lon="1.75778">
        <ele>183.19999694824</ele>
        <time>2014-10-19T13:58:42.000Z</time>
      </trkpt>
      <trkpt lat="48.76236" lon="1.75775">
        <ele>182.80000305176</ele>
        <time>2014-10-19T13:58:45.000Z</time>
      </trkpt>
      <trkpt lat="48.76226" lon="1.7577">
        <ele>182.39999389648</ele>
        <time>2014-10-19T13:58:51.000Z</time>
      </trkpt>
      <trkpt lat="48.76218" lon="1.75767">
        <ele>182.19999694824</ele>
        <time>2014-10-19T13:58:56.000Z</time>
      </trkpt>
      <trkpt lat="48.76206" lon="1.75764">
        <ele>181.60000610352</ele>
        <time>2014-10-19T13:59:03.000Z</time>
      </trkpt>
      <trkpt lat="48.76192" lon="1.75758">
        <ele>181</ele>
        <time>2014-10-19T13:59:11.000Z</time>
      </trkpt>
      <trkpt lat="48.76185" lon="1.75755">
        <ele>180.80000305176</ele>
        <time>2014-10-19T13:59:15.000Z</time>
      </trkpt>
      <trkpt lat="48.76178" lon="1.75751">
        <ele>180.80000305176</ele>
        <time>2014-10-19T13:59:21.000Z</time>
      </trkpt>
      <trkpt lat="48.76167" lon="1.75748">
        <ele>180.60000610352</ele>
        <time>2014-10-19T13:59:28.000Z</time>
      </trkpt>
      <trkpt lat="48.76157" lon="1.75744">
        <ele>180.60000610352</ele>
        <time>2014-10-19T13:59:34.000Z</time>
      </trkpt>
      <trkpt lat="48.76143" lon="1.7574">
        <ele>180.39999389648</ele>
        <time>2014-10-19T13:59:42.000Z</time>
      </trkpt>
      <trkpt lat="48.76133" lon="1.75737">
        <ele>180.39999389648</ele>
        <time>2014-10-19T13:59:48.000Z</time>
      </trkpt>
      <trkpt lat="48.76128" lon="1.75736">
        <ele>180.19999694824</ele>
        <time>2014-10-19T13:59:51.000Z</time>
      </trkpt>
      <trkpt lat="48.76115" lon="1.75734">
        <ele>180.19999694824</ele>
        <time>2014-10-19T13:59:59.000Z</time>
      </trkpt>
      <trkpt lat="48.76105" lon="1.7573">
        <ele>180</ele>
        <time>2014-10-19T14:00:05.000Z</time>
      </trkpt>
      <trkpt lat="48.76094" lon="1.75725">
        <ele>180.19999694824</ele>
        <time>2014-10-19T14:00:11.000Z</time>
      </trkpt>
      <trkpt lat="48.76092" lon="1.75723">
        <ele>180.39999389648</ele>
        <time>2014-10-19T14:00:13.000Z</time>
      </trkpt>
      <trkpt lat="48.76082" lon="1.75718">
        <ele>180.60000610352</ele>
        <time>2014-10-19T14:00:19.000Z</time>
      </trkpt>
      <trkpt lat="48.76067" lon="1.75712">
        <ele>181.39999389648</ele>
        <time>2014-10-19T14:00:24.000Z</time>
      </trkpt>
      <trkpt lat="48.76047" lon="1.75705">
        <ele>182.19999694824</ele>
        <time>2014-10-19T14:00:30.000Z</time>
      </trkpt>
      <trkpt lat="48.76028" lon="1.75699">
        <ele>183.19999694824</ele>
        <time>2014-10-19T14:00:36.000Z</time>
      </trkpt>
      <trkpt lat="48.76007" lon="1.75691">
        <ele>183.80000305176</ele>
        <time>2014-10-19T14:00:42.000Z</time>
      </trkpt>
      <trkpt lat="48.75979" lon="1.7568">
        <ele>184.39999389648</ele>
        <time>2014-10-19T14:00:49.000Z</time>
      </trkpt>
      <trkpt lat="48.75971" lon="1.75677">
        <ele>184.60000610352</ele>
        <time>2014-10-19T14:00:51.000Z</time>
      </trkpt>
      <trkpt lat="48.75959" lon="1.75674">
        <ele>185</ele>
        <time>2014-10-19T14:00:54.000Z</time>
      </trkpt>
      <trkpt lat="48.75929" lon="1.75663">
        <ele>185.80000305176</ele>
        <time>2014-10-19T14:01:02.000Z</time>
      </trkpt>
      <trkpt lat="48.75912" lon="1.75657">
        <ele>186.39999389648</ele>
        <time>2014-10-19T14:01:07.000Z</time>
      </trkpt>
      <trkpt lat="48.75893" lon="1.75649">
        <ele>187.19999694824</ele>
        <time>2014-10-19T14:01:13.000Z</time>
      </trkpt>
      <trkpt lat="48.75876" lon="1.75642">
        <ele>188</ele>
        <time>2014-10-19T14:01:18.000Z</time>
      </trkpt>
      <trkpt lat="48.75862" lon="1.75632">
        <ele>188.60000610352</ele>
        <time>2014-10-19T14:01:22.000Z</time>
      </trkpt>
      <trkpt lat="48.75853" lon="1.75629">
        <ele>189</ele>
        <time>2014-10-19T14:01:27.000Z</time>
      </trkpt>
      <trkpt lat="48.75843" lon="1.75626">
        <ele>189.19999694824</ele>
        <time>2014-10-19T14:01:33.000Z</time>
      </trkpt>
      <trkpt lat="48.75834" lon="1.75625">
        <ele>189.19999694824</ele>
        <time>2014-10-19T14:01:38.000Z</time>
      </trkpt>
      <trkpt lat="48.75823" lon="1.7562">
        <ele>189.39999389648</ele>
        <time>2014-10-19T14:01:43.000Z</time>
      </trkpt>
      <trkpt lat="48.75804" lon="1.75615">
        <ele>189.80000305176</ele>
        <time>2014-10-19T14:01:48.000Z</time>
      </trkpt>
      <trkpt lat="48.75787" lon="1.75607">
        <ele>190</ele>
        <time>2014-10-19T14:01:53.000Z</time>
      </trkpt>
      <trkpt lat="48.75764" lon="1.756">
        <ele>190.39999389648</ele>
        <time>2014-10-19T14:01:59.000Z</time>
      </trkpt>
      <trkpt lat="48.75741" lon="1.75591">
        <ele>190.19999694824</ele>
        <time>2014-10-19T14:02:05.000Z</time>
      </trkpt>
      <trkpt lat="48.75724" lon="1.75585">
        <ele>190.19999694824</ele>
        <time>2014-10-19T14:02:10.000Z</time>
      </trkpt>
      <trkpt lat="48.75703" lon="1.75579">
        <ele>190.19999694824</ele>
        <time>2014-10-19T14:02:16.000Z</time>
      </trkpt>
      <trkpt lat="48.75681" lon="1.75571">
        <ele>190.19999694824</ele>
        <time>2014-10-19T14:02:22.000Z</time>
      </trkpt>
      <trkpt lat="48.75659" lon="1.75564">
        <ele>190.60000610352</ele>
        <time>2014-10-19T14:02:28.000Z</time>
      </trkpt>
      <trkpt lat="48.75636" lon="1.75557">
        <ele>191.19999694824</ele>
        <time>2014-10-19T14:02:35.000Z</time>
      </trkpt>
      <trkpt lat="48.75618" lon="1.75553">
        <ele>191.60000610352</ele>
        <time>2014-10-19T14:02:40.000Z</time>
      </trkpt>
      <trkpt lat="48.756" lon="1.75547">
        <ele>192</ele>
        <time>2014-10-19T14:02:45.000Z</time>
      </trkpt>
      <trkpt lat="48.75582" lon="1.75539">
        <ele>192.19999694824</ele>
        <time>2014-10-19T14:02:50.000Z</time>
      </trkpt>
      <trkpt lat="48.75567" lon="1.75533">
        <ele>192.60000610352</ele>
        <time>2014-10-19T14:02:55.000Z</time>
      </trkpt>
      <trkpt lat="48.75549" lon="1.75525">
        <ele>192.60000610352</ele>
        <time>2014-10-19T14:03:00.000Z</time>
      </trkpt>
      <trkpt lat="48.75527" lon="1.75519">
        <ele>192.60000610352</ele>
        <time>2014-10-19T14:03:06.000Z</time>
      </trkpt>
      <trkpt lat="48.75503" lon="1.75508">
        <ele>193</ele>
        <time>2014-10-19T14:03:12.000Z</time>
      </trkpt>
      <trkpt lat="48.75489" lon="1.75504">
        <ele>193.19999694824</ele>
        <time>2014-10-19T14:03:16.000Z</time>
      </trkpt>
      <trkpt lat="48.75468" lon="1.75498">
        <ele>193.60000610352</ele>
        <time>2014-10-19T14:03:22.000Z</time>
      </trkpt>
      <trkpt lat="48.75453" lon="1.75493">
        <ele>193.80000305176</ele>
        <time>2014-10-19T14:03:27.000Z</time>
      </trkpt>
      <trkpt lat="48.7543" lon="1.75481">
        <ele>193.80000305176</ele>
        <time>2014-10-19T14:03:33.000Z</time>
      </trkpt>
      <trkpt lat="48.75411" lon="1.75472">
        <ele>193.19999694824</ele>
        <time>2014-10-19T14:03:39.000Z</time>
      </trkpt>
      <trkpt lat="48.75395" lon="1.75465">
        <ele>192.80000305176</ele>
        <time>2014-10-19T14:03:44.000Z</time>
      </trkpt>
      <trkpt lat="48.75375" lon="1.75455">
        <ele>192.19999694824</ele>
        <time>2014-10-19T14:03:49.000Z</time>
      </trkpt>
      <trkpt lat="48.75352" lon="1.75453">
        <ele>191.60000610352</ele>
        <time>2014-10-19T14:03:56.000Z</time>
      </trkpt>
      <trkpt lat="48.75337" lon="1.75448">
        <ele>191.80000305176</ele>
        <time>2014-10-19T14:04:01.000Z</time>
      </trkpt>
      <trkpt lat="48.75335" lon="1.75448">
        <ele>191.80000305176</ele>
        <time>2014-10-19T14:04:02.000Z</time>
      </trkpt>
      <trkpt lat="48.75326" lon="1.75448">
        <ele>191.80000305176</ele>
        <time>2014-10-19T14:04:08.000Z</time>
      </trkpt>
      <trkpt lat="48.75316" lon="1.75441">
        <ele>192</ele>
        <time>2014-10-19T14:04:14.000Z</time>
      </trkpt>
      <trkpt lat="48.75307" lon="1.75436">
        <ele>192</ele>
        <time>2014-10-19T14:04:19.000Z</time>
      </trkpt>
      <trkpt lat="48.75298" lon="1.75433">
        <ele>192</ele>
        <time>2014-10-19T14:04:25.000Z</time>
      </trkpt>
      <trkpt lat="48.7529" lon="1.7543">
        <ele>192</ele>
        <time>2014-10-19T14:04:30.000Z</time>
      </trkpt>
      <trkpt lat="48.75288" lon="1.7543">
        <ele>192</ele>
        <time>2014-10-19T14:04:31.000Z</time>
      </trkpt>
      <trkpt lat="48.75281" lon="1.75429">
        <ele>192</ele>
        <time>2014-10-19T14:04:35.000Z</time>
      </trkpt>
      <trkpt lat="48.75275" lon="1.75432">
        <ele>192</ele>
        <time>2014-10-19T14:04:41.000Z</time>
      </trkpt>
      <trkpt lat="48.75275" lon="1.75434">
        <ele>192</ele>
        <time>2014-10-19T14:04:45.000Z</time>
      </trkpt>
      <trkpt lat="48.75273" lon="1.75431">
        <ele>192</ele>
        <time>2014-10-19T14:04:54.000Z</time>
      </trkpt>
      <trkpt lat="48.75269" lon="1.75428">
        <ele>192</ele>
        <time>2014-10-19T14:04:56.000Z</time>
      </trkpt>
      <trkpt lat="48.75253" lon="1.75423">
        <ele>191.60000610352</ele>
        <time>2014-10-19T14:05:06.000Z</time>
      </trkpt>
      <trkpt lat="48.75244" lon="1.75419">
        <ele>191.39999389648</ele>
        <time>2014-10-19T14:05:11.000Z</time>
      </trkpt>
      <trkpt lat="48.75239" lon="1.75428">
        <ele>191.19999694824</ele>
        <time>2014-10-19T14:05:14.000Z</time>
      </trkpt>
      <trkpt lat="48.75228" lon="1.75425">
        <ele>191</ele>
        <time>2014-10-19T14:05:20.000Z</time>
      </trkpt>
      <trkpt lat="48.75218" lon="1.75421">
        <ele>190.80000305176</ele>
        <time>2014-10-19T14:05:27.000Z</time>
      </trkpt>
      <trkpt lat="48.75206" lon="1.75423">
        <ele>190.39999389648</ele>
        <time>2014-10-19T14:05:33.000Z</time>
      </trkpt>
      <trkpt lat="48.75198" lon="1.75416">
        <ele>190.19999694824</ele>
        <time>2014-10-19T14:05:38.000Z</time>
      </trkpt>
      <trkpt lat="48.75189" lon="1.75402">
        <ele>190</ele>
        <time>2014-10-19T14:05:45.000Z</time>
      </trkpt>
      <trkpt lat="48.75183" lon="1.754">
        <ele>190</ele>
        <time>2014-10-19T14:05:49.000Z</time>
      </trkpt>
      <trkpt lat="48.7518" lon="1.75398">
        <ele>190</ele>
        <time>2014-10-19T14:05:52.000Z</time>
      </trkpt>
      <trkpt lat="48.75175" lon="1.75384">
        <ele>189.80000305176</ele>
        <time>2014-10-19T14:05:58.000Z</time>
      </trkpt>
      <trkpt lat="48.75172" lon="1.75379">
        <ele>189.80000305176</ele>
        <time>2014-10-19T14:06:01.000Z</time>
      </trkpt>
      <trkpt lat="48.75162" lon="1.75374">
        <ele>189.60000610352</ele>
        <time>2014-10-19T14:06:09.000Z</time>
      </trkpt>
      <trkpt lat="48.75153" lon="1.75369">
        <ele>189.60000610352</ele>
        <time>2014-10-19T14:06:15.000Z</time>
      </trkpt>
      <trkpt lat="48.75149" lon="1.75366">
        <ele>189.60000610352</ele>
        <time>2014-10-19T14:06:17.000Z</time>
      </trkpt>
      <trkpt lat="48.75139" lon="1.75362">
        <ele>189.39999389648</ele>
        <time>2014-10-19T14:06:24.000Z</time>
      </trkpt>
      <trkpt lat="48.75127" lon="1.75352">
        <ele>189.19999694824</ele>
        <time>2014-10-19T14:06:31.000Z</time>
      </trkpt>
      <trkpt lat="48.75123" lon="1.7535">
        <ele>189.19999694824</ele>
        <time>2014-10-19T14:06:33.000Z</time>
      </trkpt>
      <trkpt lat="48.75119" lon="1.75349">
        <ele>189.19999694824</ele>
        <time>2014-10-19T14:06:35.000Z</time>
      </trkpt>
      <trkpt lat="48.75109" lon="1.75346">
        <ele>189</ele>
        <time>2014-10-19T14:06:41.000Z</time>
      </trkpt>
      <trkpt lat="48.75098" lon="1.75341">
        <ele>188.80000305176</ele>
        <time>2014-10-19T14:06:47.000Z</time>
      </trkpt>
      <trkpt lat="48.75089" lon="1.75336">
        <ele>188.39999389648</ele>
        <time>2014-10-19T14:06:53.000Z</time>
      </trkpt>
      <trkpt lat="48.7508" lon="1.75325">
        <ele>188.19999694824</ele>
        <time>2014-10-19T14:06:58.000Z</time>
      </trkpt>
      <trkpt lat="48.75077" lon="1.75322">
        <ele>188</ele>
        <time>2014-10-19T14:07:00.000Z</time>
      </trkpt>
      <trkpt lat="48.75069" lon="1.7532">
        <ele>187.80000305176</ele>
        <time>2014-10-19T14:07:05.000Z</time>
      </trkpt>
      <trkpt lat="48.75059" lon="1.75314">
        <ele>187.39999389648</ele>
        <time>2014-10-19T14:07:12.000Z</time>
      </trkpt>
      <trkpt lat="48.75053" lon="1.75312">
        <ele>187.19999694824</ele>
        <time>2014-10-19T14:07:16.000Z</time>
      </trkpt>
      <trkpt lat="48.75041" lon="1.75305">
        <ele>186.80000305176</ele>
        <time>2014-10-19T14:07:23.000Z</time>
      </trkpt>
      <trkpt lat="48.75038" lon="1.75305">
        <ele>186.60000610352</ele>
        <time>2014-10-19T14:07:25.000Z</time>
      </trkpt>
      <trkpt lat="48.75034" lon="1.75304">
        <ele>186.39999389648</ele>
        <time>2014-10-19T14:07:28.000Z</time>
      </trkpt>
      <trkpt lat="48.75024" lon="1.75299">
        <ele>186.19999694824</ele>
        <time>2014-10-19T14:07:34.000Z</time>
      </trkpt>
      <trkpt lat="48.75017" lon="1.75293">
        <ele>185</ele>
        <time>2014-10-19T14:07:40.000Z</time>
      </trkpt>
      <trkpt lat="48.75011" lon="1.7529">
        <ele>183.60000610352</ele>
        <time>2014-10-19T14:07:44.000Z</time>
      </trkpt>
      <trkpt lat="48.75005" lon="1.75281">
        <ele>182</ele>
        <time>2014-10-19T14:07:49.000Z</time>
      </trkpt>
      <trkpt lat="48.75003" lon="1.7527">
        <ele>181.80000305176</ele>
        <time>2014-10-19T14:07:54.000Z</time>
      </trkpt>
      <trkpt lat="48.75002" lon="1.75265">
        <ele>181.39999389648</ele>
        <time>2014-10-19T14:07:56.000Z</time>
      </trkpt>
      <trkpt lat="48.75001" lon="1.75256">
        <ele>181.19999694824</ele>
        <time>2014-10-19T14:08:01.000Z</time>
      </trkpt>
      <trkpt lat="48.75" lon="1.75251">
        <ele>181</ele>
        <time>2014-10-19T14:08:04.000Z</time>
      </trkpt>
      <trkpt lat="48.75" lon="1.75228">
        <ele>181.39999389648</ele>
        <time>2014-10-19T14:08:13.000Z</time>
      </trkpt>
      <trkpt lat="48.75001" lon="1.75226">
        <ele>181.60000610352</ele>
        <time>2014-10-19T14:08:14.000Z</time>
      </trkpt>
      <trkpt lat="48.75003" lon="1.75212">
        <ele>182.19999694824</ele>
        <time>2014-10-19T14:08:20.000Z</time>
      </trkpt>
      <trkpt lat="48.75003" lon="1.75208">
        <ele>182.39999389648</ele>
        <time>2014-10-19T14:08:22.000Z</time>
      </trkpt>
      <trkpt lat="48.75002" lon="1.75196">
        <ele>182.19999694824</ele>
        <time>2014-10-19T14:08:27.000Z</time>
      </trkpt>
      <trkpt lat="48.75007" lon="1.7518">
        <ele>183.19999694824</ele>
        <time>2014-10-19T14:08:34.000Z</time>
      </trkpt>
      <trkpt lat="48.75008" lon="1.75175">
        <ele>183.39999389648</ele>
        <time>2014-10-19T14:08:36.000Z</time>
      </trkpt>
      <trkpt lat="48.75011" lon="1.75165">
        <ele>184</ele>
        <time>2014-10-19T14:08:40.000Z</time>
      </trkpt>
      <trkpt lat="48.75014" lon="1.75157">
        <ele>184.60000610352</ele>
        <time>2014-10-19T14:08:44.000Z</time>
      </trkpt>
      <trkpt lat="48.75016" lon="1.75148">
        <ele>185.19999694824</ele>
        <time>2014-10-19T14:08:48.000Z</time>
      </trkpt>
      <trkpt lat="48.75015" lon="1.75133">
        <ele>184.80000305176</ele>
        <time>2014-10-19T14:08:54.000Z</time>
      </trkpt>
      <trkpt lat="48.75014" lon="1.7513">
        <ele>184.60000610352</ele>
        <time>2014-10-19T14:08:55.000Z</time>
      </trkpt>
      <trkpt lat="48.75008" lon="1.75123">
        <ele>183.80000305176</ele>
        <time>2014-10-19T14:08:59.000Z</time>
      </trkpt>
      <trkpt lat="48.75003" lon="1.75119">
        <ele>183</ele>
        <time>2014-10-19T14:09:03.000Z</time>
      </trkpt>
      <trkpt lat="48.74992" lon="1.75111">
        <ele>181.60000610352</ele>
        <time>2014-10-19T14:09:10.000Z</time>
      </trkpt>
      <trkpt lat="48.74989" lon="1.75108">
        <ele>181</ele>
        <time>2014-10-19T14:09:12.000Z</time>
      </trkpt>
      <trkpt lat="48.74983" lon="1.75102">
        <ele>180.19999694824</ele>
        <time>2014-10-19T14:09:16.000Z</time>
      </trkpt>
      <trkpt lat="48.74972" lon="1.75092">
        <ele>178.60000610352</ele>
        <time>2014-10-19T14:09:23.000Z</time>
      </trkpt>
      <trkpt lat="48.7496" lon="1.75082">
        <ele>177</ele>
        <time>2014-10-19T14:09:29.000Z</time>
      </trkpt>
      <trkpt lat="48.74941" lon="1.75064">
        <ele>174</ele>
        <time>2014-10-19T14:09:36.000Z</time>
      </trkpt>
      <trkpt lat="48.74932" lon="1.75051">
        <ele>172.19999694824</ele>
        <time>2014-10-19T14:09:43.000Z</time>
      </trkpt>
      <trkpt lat="48.74928" lon="1.75044">
        <ele>171.19999694824</ele>
        <time>2014-10-19T14:09:48.000Z</time>
      </trkpt>
      <trkpt lat="48.74928" lon="1.75043">
        <ele>171.19999694824</ele>
        <time>2014-10-19T14:09:50.000Z</time>
      </trkpt>
      <trkpt lat="48.74931" lon="1.7505">
        <ele>172</ele>
        <time>2014-10-19T14:09:58.000Z</time>
      </trkpt>
      <trkpt lat="48.74936" lon="1.75059">
        <ele>173.19999694824</ele>
        <time>2014-10-19T14:10:02.000Z</time>
      </trkpt>
      <trkpt lat="48.74931" lon="1.75067">
        <ele>173</ele>
        <time>2014-10-19T14:10:07.000Z</time>
      </trkpt>
      <trkpt lat="48.74925" lon="1.75071">
        <ele>172.19999694824</ele>
        <time>2014-10-19T14:10:11.000Z</time>
      </trkpt>
      <trkpt lat="48.74916" lon="1.75072">
        <ele>171.19999694824</ele>
        <time>2014-10-19T14:10:15.000Z</time>
      </trkpt>
      <trkpt lat="48.74915" lon="1.75072">
        <ele>171</ele>
        <time>2014-10-19T14:10:16.000Z</time>
      </trkpt>
      <trkpt lat="48.74899" lon="1.75076">
        <ele>168.60000610352</ele>
        <time>2014-10-19T14:10:25.000Z</time>
      </trkpt>
      <trkpt lat="48.74894" lon="1.75076">
        <ele>168</ele>
        <time>2014-10-19T14:10:28.000Z</time>
      </trkpt>
      <trkpt lat="48.74887" lon="1.75079">
        <ele>166.80000305176</ele>
        <time>2014-10-19T14:10:33.000Z</time>
      </trkpt>
      <trkpt lat="48.74877" lon="1.75082">
        <ele>165.39999389648</ele>
        <time>2014-10-19T14:10:38.000Z</time>
      </trkpt>
      <trkpt lat="48.74873" lon="1.75084">
        <ele>164.60000610352</ele>
        <time>2014-10-19T14:10:40.000Z</time>
      </trkpt>
      <trkpt lat="48.7486" lon="1.75092">
        <ele>162.80000305176</ele>
        <time>2014-10-19T14:10:47.000Z</time>
      </trkpt>
      <trkpt lat="48.74851" lon="1.75098">
        <ele>161.39999389648</ele>
        <time>2014-10-19T14:10:53.000Z</time>
      </trkpt>
      <trkpt lat="48.74842" lon="1.75105">
        <ele>159.80000305176</ele>
        <time>2014-10-19T14:10:59.000Z</time>
      </trkpt>
      <trkpt lat="48.74839" lon="1.75107">
        <ele>159.39999389648</ele>
        <time>2014-10-19T14:11:01.000Z</time>
      </trkpt>
      <trkpt lat="48.74834" lon="1.7511">
        <ele>158.60000610352</ele>
        <time>2014-10-19T14:11:06.000Z</time>
      </trkpt>
      <trkpt lat="48.74831" lon="1.75124">
        <ele>157.60000610352</ele>
        <time>2014-10-19T14:11:12.000Z</time>
      </trkpt>
      <trkpt lat="48.74825" lon="1.75141">
        <ele>156.80000305176</ele>
        <time>2014-10-19T14:11:20.000Z</time>
      </trkpt>
      <trkpt lat="48.74824" lon="1.75143">
        <ele>156.80000305176</ele>
        <time>2014-10-19T14:11:21.000Z</time>
      </trkpt>
      <trkpt lat="48.74819" lon="1.75156">
        <ele>156.39999389648</ele>
        <time>2014-10-19T14:11:28.000Z</time>
      </trkpt>
      <trkpt lat="48.74815" lon="1.75163">
        <ele>155.39999389648</ele>
        <time>2014-10-19T14:11:32.000Z</time>
      </trkpt>
      <trkpt lat="48.74811" lon="1.75173">
        <ele>154.19999694824</ele>
        <time>2014-10-19T14:11:37.000Z</time>
      </trkpt>
      <trkpt lat="48.7481" lon="1.75177">
        <ele>153.60000610352</ele>
        <time>2014-10-19T14:11:40.000Z</time>
      </trkpt>
      <trkpt lat="48.74809" lon="1.75187">
        <ele>152.39999389648</ele>
        <time>2014-10-19T14:11:46.000Z</time>
      </trkpt>
      <trkpt lat="48.74808" lon="1.75189">
        <ele>152.19999694824</ele>
        <time>2014-10-19T14:11:47.000Z</time>
      </trkpt>
      <trkpt lat="48.74806" lon="1.75195">
        <ele>152</ele>
        <time>2014-10-19T14:11:50.000Z</time>
      </trkpt>
      <trkpt lat="48.74805" lon="1.75207">
        <ele>152</ele>
        <time>2014-10-19T14:11:56.000Z</time>
      </trkpt>
      <trkpt lat="48.74805" lon="1.75213">
        <ele>152</ele>
        <time>2014-10-19T14:11:58.000Z</time>
      </trkpt>
      <trkpt lat="48.74805" lon="1.75217">
        <ele>152</ele>
        <time>2014-10-19T14:12:00.000Z</time>
      </trkpt>
      <trkpt lat="48.74803" lon="1.75228">
        <ele>152</ele>
        <time>2014-10-19T14:12:05.000Z</time>
      </trkpt>
      <trkpt lat="48.74803" lon="1.7523">
        <ele>152</ele>
        <time>2014-10-19T14:12:06.000Z</time>
      </trkpt>
      <trkpt lat="48.74803" lon="1.75245">
        <ele>152</ele>
        <time>2014-10-19T14:12:12.000Z</time>
      </trkpt>
      <trkpt lat="48.74805" lon="1.75259">
        <ele>151.80000305176</ele>
        <time>2014-10-19T14:12:17.000Z</time>
      </trkpt>
      <trkpt lat="48.74811" lon="1.75278">
        <ele>151.60000610352</ele>
        <time>2014-10-19T14:12:23.000Z</time>
      </trkpt>
      <trkpt lat="48.74811" lon="1.75296">
        <ele>151.80000305176</ele>
        <time>2014-10-19T14:12:29.000Z</time>
      </trkpt>
      <trkpt lat="48.74817" lon="1.75308">
        <ele>151.80000305176</ele>
        <time>2014-10-19T14:12:34.000Z</time>
      </trkpt>
      <trkpt lat="48.74817" lon="1.75324">
        <ele>152</ele>
        <time>2014-10-19T14:12:40.000Z</time>
      </trkpt>
      <trkpt lat="48.74818" lon="1.75339">
        <ele>152.80000305176</ele>
        <time>2014-10-19T14:12:45.000Z</time>
      </trkpt>
      <trkpt lat="48.74822" lon="1.75356">
        <ele>153.39999389648</ele>
        <time>2014-10-19T14:12:51.000Z</time>
      </trkpt>
      <trkpt lat="48.74823" lon="1.75369">
        <ele>154</ele>
        <time>2014-10-19T14:12:56.000Z</time>
      </trkpt>
      <trkpt lat="48.74826" lon="1.75383">
        <ele>154.39999389648</ele>
        <time>2014-10-19T14:13:02.000Z</time>
      </trkpt>
      <trkpt lat="48.74827" lon="1.75399">
        <ele>154.39999389648</ele>
        <time>2014-10-19T14:13:07.000Z</time>
      </trkpt>
      <trkpt lat="48.74827" lon="1.7541">
        <ele>154.39999389648</ele>
        <time>2014-10-19T14:13:12.000Z</time>
      </trkpt>
      <trkpt lat="48.74827" lon="1.7543">
        <ele>155</ele>
        <time>2014-10-19T14:13:18.000Z</time>
      </trkpt>
      <trkpt lat="48.74825" lon="1.75449">
        <ele>155.39999389648</ele>
        <time>2014-10-19T14:13:25.000Z</time>
      </trkpt>
      <trkpt lat="48.74825" lon="1.75461">
        <ele>155.60000610352</ele>
        <time>2014-10-19T14:13:30.000Z</time>
      </trkpt>
      <trkpt lat="48.74824" lon="1.75474">
        <ele>155.19999694824</ele>
        <time>2014-10-19T14:13:35.000Z</time>
      </trkpt>
      <trkpt lat="48.74824" lon="1.75485">
        <ele>155</ele>
        <time>2014-10-19T14:13:40.000Z</time>
      </trkpt>
      <trkpt lat="48.7482" lon="1.75498">
        <ele>155.80000305176</ele>
        <time>2014-10-19T14:13:45.000Z</time>
      </trkpt>
      <trkpt lat="48.74816" lon="1.75519">
        <ele>158.39999389648</ele>
        <time>2014-10-19T14:13:51.000Z</time>
      </trkpt>
      <trkpt lat="48.7481" lon="1.75536">
        <ele>159.19999694824</ele>
        <time>2014-10-19T14:13:57.000Z</time>
      </trkpt>
      <trkpt lat="48.74803" lon="1.7555">
        <ele>158.39999389648</ele>
        <time>2014-10-19T14:14:02.000Z</time>
      </trkpt>
      <trkpt lat="48.74798" lon="1.75558">
        <ele>157.60000610352</ele>
        <time>2014-10-19T14:14:07.000Z</time>
      </trkpt>
      <trkpt lat="48.74794" lon="1.75564">
        <ele>157</ele>
        <time>2014-10-19T14:14:12.000Z</time>
      </trkpt>
      <trkpt lat="48.74788" lon="1.75577">
        <ele>156</ele>
        <time>2014-10-19T14:14:19.000Z</time>
      </trkpt>
      <trkpt lat="48.7478" lon="1.75593">
        <ele>154.39999389648</ele>
        <time>2014-10-19T14:14:25.000Z</time>
      </trkpt>
      <trkpt lat="48.74773" lon="1.7561">
        <ele>152.80000305176</ele>
        <time>2014-10-19T14:14:31.000Z</time>
      </trkpt>
      <trkpt lat="48.74767" lon="1.75629">
        <ele>152.19999694824</ele>
        <time>2014-10-19T14:14:38.000Z</time>
      </trkpt>
      <trkpt lat="48.7476" lon="1.75647">
        <ele>152</ele>
        <time>2014-10-19T14:14:46.000Z</time>
      </trkpt>
      <trkpt lat="48.74757" lon="1.75664">
        <ele>152.19999694824</ele>
        <time>2014-10-19T14:14:52.000Z</time>
      </trkpt>
      <trkpt lat="48.74753" lon="1.75677">
        <ele>152.19999694824</ele>
        <time>2014-10-19T14:14:57.000Z</time>
      </trkpt>
      <trkpt lat="48.74753" lon="1.75693">
        <ele>152</ele>
        <time>2014-10-19T14:15:03.000Z</time>
      </trkpt>
      <trkpt lat="48.7475" lon="1.7571">
        <ele>151.80000305176</ele>
        <time>2014-10-19T14:15:11.000Z</time>
      </trkpt>
      <trkpt lat="48.74752" lon="1.75722">
        <ele>151.60000610352</ele>
        <time>2014-10-19T14:15:16.000Z</time>
      </trkpt>
      <trkpt lat="48.74754" lon="1.75738">
        <ele>151.80000305176</ele>
        <time>2014-10-19T14:15:22.000Z</time>
      </trkpt>
      <trkpt lat="48.74756" lon="1.75746">
        <ele>152</ele>
        <time>2014-10-19T14:15:25.000Z</time>
      </trkpt>
      <trkpt lat="48.74759" lon="1.75757">
        <ele>152</ele>
        <time>2014-10-19T14:15:29.000Z</time>
      </trkpt>
      <trkpt lat="48.74763" lon="1.75777">
        <ele>152.39999389648</ele>
        <time>2014-10-19T14:15:37.000Z</time>
      </trkpt>
      <trkpt lat="48.74766" lon="1.75791">
        <ele>152.60000610352</ele>
        <time>2014-10-19T14:15:43.000Z</time>
      </trkpt>
      <trkpt lat="48.74766" lon="1.75793">
        <ele>152.60000610352</ele>
        <time>2014-10-19T14:15:44.000Z</time>
      </trkpt>
      <trkpt lat="48.74769" lon="1.75803">
        <ele>152.60000610352</ele>
        <time>2014-10-19T14:15:48.000Z</time>
      </trkpt>
      <trkpt lat="48.74771" lon="1.75817">
        <ele>153</ele>
        <time>2014-10-19T14:15:54.000Z</time>
      </trkpt>
      <trkpt lat="48.74771" lon="1.75826">
        <ele>153</ele>
        <time>2014-10-19T14:15:57.000Z</time>
      </trkpt>
      <trkpt lat="48.74772" lon="1.75841">
        <ele>152.80000305176</ele>
        <time>2014-10-19T14:16:02.000Z</time>
      </trkpt>
      <trkpt lat="48.74774" lon="1.75843">
        <ele>153</ele>
        <time>2014-10-19T14:16:03.000Z</time>
      </trkpt>
      <trkpt lat="48.74775" lon="1.7587">
        <ele>152.80000305176</ele>
        <time>2014-10-19T14:16:11.000Z</time>
      </trkpt>
      <trkpt lat="48.74777" lon="1.75886">
        <ele>152.60000610352</ele>
        <time>2014-10-19T14:16:18.000Z</time>
      </trkpt>
      <trkpt lat="48.74778" lon="1.75892">
        <ele>152.60000610352</ele>
        <time>2014-10-19T14:16:21.000Z</time>
      </trkpt>
      <trkpt lat="48.74778" lon="1.75907">
        <ele>152.60000610352</ele>
        <time>2014-10-19T14:16:28.000Z</time>
      </trkpt>
      <trkpt lat="48.74778" lon="1.7591">
        <ele>152.80000305176</ele>
        <time>2014-10-19T14:16:29.000Z</time>
      </trkpt>
      <trkpt lat="48.74777" lon="1.75923">
        <ele>152.60000610352</ele>
        <time>2014-10-19T14:16:35.000Z</time>
      </trkpt>
      <trkpt lat="48.74776" lon="1.75941">
        <ele>152.19999694824</ele>
        <time>2014-10-19T14:16:41.000Z</time>
      </trkpt>
      <trkpt lat="48.7477" lon="1.75962">
        <ele>151.39999389648</ele>
        <time>2014-10-19T14:16:48.000Z</time>
      </trkpt>
      <trkpt lat="48.74765" lon="1.75972">
        <ele>151.39999389648</ele>
        <time>2014-10-19T14:16:53.000Z</time>
      </trkpt>
      <trkpt lat="48.74759" lon="1.75985">
        <ele>151.19999694824</ele>
        <time>2014-10-19T14:16:58.000Z</time>
      </trkpt>
      <trkpt lat="48.74751" lon="1.75999">
        <ele>152.39999389648</ele>
        <time>2014-10-19T14:17:05.000Z</time>
      </trkpt>
      <trkpt lat="48.74741" lon="1.76008">
        <ele>153.39999389648</ele>
        <time>2014-10-19T14:17:11.000Z</time>
      </trkpt>
      <trkpt lat="48.74733" lon="1.76015">
        <ele>154</ele>
        <time>2014-10-19T14:17:17.000Z</time>
      </trkpt>
      <trkpt lat="48.74727" lon="1.76018">
        <ele>154.39999389648</ele>
        <time>2014-10-19T14:17:20.000Z</time>
      </trkpt>
      <trkpt lat="48.74718" lon="1.76026">
        <ele>154.60000610352</ele>
        <time>2014-10-19T14:17:25.000Z</time>
      </trkpt>
      <trkpt lat="48.7471" lon="1.76034">
        <ele>154</ele>
        <time>2014-10-19T14:17:31.000Z</time>
      </trkpt>
      <trkpt lat="48.74701" lon="1.76041">
        <ele>153.19999694824</ele>
        <time>2014-10-19T14:17:36.000Z</time>
      </trkpt>
      <trkpt lat="48.74693" lon="1.76049">
        <ele>152.39999389648</ele>
        <time>2014-10-19T14:17:41.000Z</time>
      </trkpt>
      <trkpt lat="48.74687" lon="1.76055">
        <ele>152</ele>
        <time>2014-10-19T14:17:45.000Z</time>
      </trkpt>
      <trkpt lat="48.74676" lon="1.76064">
        <ele>152.19999694824</ele>
        <time>2014-10-19T14:17:52.000Z</time>
      </trkpt>
      <trkpt lat="48.74664" lon="1.7607">
        <ele>152</ele>
        <time>2014-10-19T14:17:59.000Z</time>
      </trkpt>
      <trkpt lat="48.74656" lon="1.76073">
        <ele>152.39999389648</ele>
        <time>2014-10-19T14:18:04.000Z</time>
      </trkpt>
      <trkpt lat="48.74648" lon="1.76075">
        <ele>152.80000305176</ele>
        <time>2014-10-19T14:18:09.000Z</time>
      </trkpt>
      <trkpt lat="48.74633" lon="1.76079">
        <ele>153.60000610352</ele>
        <time>2014-10-19T14:18:17.000Z</time>
      </trkpt>
      <trkpt lat="48.74632" lon="1.76079">
        <ele>153.60000610352</ele>
        <time>2014-10-19T14:18:18.000Z</time>
      </trkpt>
      <trkpt lat="48.74623" lon="1.76082">
        <ele>154</ele>
        <time>2014-10-19T14:18:23.000Z</time>
      </trkpt>
      <trkpt lat="48.74611" lon="1.76086">
        <ele>153.60000610352</ele>
        <time>2014-10-19T14:18:30.000Z</time>
      </trkpt>
      <trkpt lat="48.74602" lon="1.76086">
        <ele>152.80000305176</ele>
        <time>2014-10-19T14:18:36.000Z</time>
      </trkpt>
      <trkpt lat="48.74588" lon="1.76087">
        <ele>153.60000610352</ele>
        <time>2014-10-19T14:18:45.000Z</time>
      </trkpt>
      <trkpt lat="48.74578" lon="1.76093">
        <ele>154.19999694824</ele>
        <time>2014-10-19T14:18:51.000Z</time>
      </trkpt>
      <trkpt lat="48.74569" lon="1.761">
        <ele>155</ele>
        <time>2014-10-19T14:18:58.000Z</time>
      </trkpt>
      <trkpt lat="48.74566" lon="1.76105">
        <ele>155.39999389648</ele>
        <time>2014-10-19T14:19:01.000Z</time>
      </trkpt>
      <trkpt lat="48.74559" lon="1.76108">
        <ele>156</ele>
        <time>2014-10-19T14:19:07.000Z</time>
      </trkpt>
      <trkpt lat="48.74558" lon="1.76108">
        <ele>156</ele>
        <time>2014-10-19T14:19:09.000Z</time>
      </trkpt>
      <trkpt lat="48.74554" lon="1.76107">
        <ele>155.80000305176</ele>
        <time>2014-10-19T14:19:27.000Z</time>
      </trkpt>
      <trkpt lat="48.74553" lon="1.76105">
        <ele>156</ele>
        <time>2014-10-19T14:19:32.000Z</time>
      </trkpt>
      <trkpt lat="48.74553" lon="1.76108">
        <ele>155.80000305176</ele>
        <time>2014-10-19T14:20:01.000Z</time>
      </trkpt>
      <trkpt lat="48.74557" lon="1.76105">
        <ele>156</ele>
        <time>2014-10-19T14:20:04.000Z</time>
      </trkpt>
      <trkpt lat="48.74561" lon="1.76107">
        <ele>155.80000305176</ele>
        <time>2014-10-19T14:20:10.000Z</time>
      </trkpt>
      <trkpt lat="48.74562" lon="1.76107">
        <ele>155.80000305176</ele>
        <time>2014-10-19T14:20:13.000Z</time>
      </trkpt>
      <trkpt lat="48.74558" lon="1.76118">
        <ele>155.60000610352</ele>
        <time>2014-10-19T14:21:40.000Z</time>
      </trkpt>
      <trkpt lat="48.74555" lon="1.76123">
        <ele>155.19999694824</ele>
        <time>2014-10-19T14:21:42.000Z</time>
      </trkpt>
      <trkpt lat="48.74546" lon="1.76135">
        <ele>154.19999694824</ele>
        <time>2014-10-19T14:21:51.000Z</time>
      </trkpt>
      <trkpt lat="48.74539" lon="1.76147">
        <ele>153.19999694824</ele>
        <time>2014-10-19T14:21:56.000Z</time>
      </trkpt>
      <trkpt lat="48.74534" lon="1.76157">
        <ele>152.80000305176</ele>
        <time>2014-10-19T14:22:01.000Z</time>
      </trkpt>
      <trkpt lat="48.74527" lon="1.76168">
        <ele>152.80000305176</ele>
        <time>2014-10-19T14:22:08.000Z</time>
      </trkpt>
      <trkpt lat="48.7452" lon="1.76179">
        <ele>151.80000305176</ele>
        <time>2014-10-19T14:22:15.000Z</time>
      </trkpt>
      <trkpt lat="48.74514" lon="1.7619">
        <ele>151.60000610352</ele>
        <time>2014-10-19T14:22:20.000Z</time>
      </trkpt>
      <trkpt lat="48.74508" lon="1.76202">
        <ele>151.39999389648</ele>
        <time>2014-10-19T14:22:26.000Z</time>
      </trkpt>
      <trkpt lat="48.74499" lon="1.76213">
        <ele>151.19999694824</ele>
        <time>2014-10-19T14:22:32.000Z</time>
      </trkpt>
      <trkpt lat="48.74493" lon="1.76223">
        <ele>151</ele>
        <time>2014-10-19T14:22:36.000Z</time>
      </trkpt>
      <trkpt lat="48.74486" lon="1.76232">
        <ele>150.80000305176</ele>
        <time>2014-10-19T14:22:41.000Z</time>
      </trkpt>
      <trkpt lat="48.74479" lon="1.76239">
        <ele>150.60000610352</ele>
        <time>2014-10-19T14:22:47.000Z</time>
      </trkpt>
      <trkpt lat="48.74469" lon="1.76252">
        <ele>151.39999389648</ele>
        <time>2014-10-19T14:22:54.000Z</time>
      </trkpt>
      <trkpt lat="48.7446" lon="1.76259">
        <ele>151.80000305176</ele>
        <time>2014-10-19T14:23:00.000Z</time>
      </trkpt>
      <trkpt lat="48.74451" lon="1.76265">
        <ele>152.19999694824</ele>
        <time>2014-10-19T14:23:05.000Z</time>
      </trkpt>
      <trkpt lat="48.74442" lon="1.76271">
        <ele>152.80000305176</ele>
        <time>2014-10-19T14:23:11.000Z</time>
      </trkpt>
      <trkpt lat="48.74433" lon="1.76277">
        <ele>153.39999389648</ele>
        <time>2014-10-19T14:23:17.000Z</time>
      </trkpt>
      <trkpt lat="48.74421" lon="1.76279">
        <ele>153.60000610352</ele>
        <time>2014-10-19T14:23:24.000Z</time>
      </trkpt>
      <trkpt lat="48.74411" lon="1.76283">
        <ele>154</ele>
        <time>2014-10-19T14:23:29.000Z</time>
      </trkpt>
      <trkpt lat="48.74402" lon="1.76286">
        <ele>154.39999389648</ele>
        <time>2014-10-19T14:23:35.000Z</time>
      </trkpt>
      <trkpt lat="48.74397" lon="1.76289">
        <ele>154.39999389648</ele>
        <time>2014-10-19T14:23:39.000Z</time>
      </trkpt>
      <trkpt lat="48.7439" lon="1.76291">
        <ele>154.19999694824</ele>
        <time>2014-10-19T14:23:43.000Z</time>
      </trkpt>
      <trkpt lat="48.7438" lon="1.76298">
        <ele>154.19999694824</ele>
        <time>2014-10-19T14:23:51.000Z</time>
      </trkpt>
      <trkpt lat="48.74378" lon="1.76299">
        <ele>154</ele>
        <time>2014-10-19T14:23:52.000Z</time>
      </trkpt>
      <trkpt lat="48.74367" lon="1.76302">
        <ele>153.80000305176</ele>
        <time>2014-10-19T14:23:58.000Z</time>
      </trkpt>
      <trkpt lat="48.74355" lon="1.76308">
        <ele>153.60000610352</ele>
        <time>2014-10-19T14:24:06.000Z</time>
      </trkpt>
      <trkpt lat="48.74354" lon="1.76309">
        <ele>153.60000610352</ele>
        <time>2014-10-19T14:24:07.000Z</time>
      </trkpt>
      <trkpt lat="48.74348" lon="1.7631">
        <ele>154.19999694824</ele>
        <time>2014-10-19T14:24:12.000Z</time>
      </trkpt>
      <trkpt lat="48.74338" lon="1.76319">
        <ele>154.19999694824</ele>
        <time>2014-10-19T14:24:20.000Z</time>
      </trkpt>
      <trkpt lat="48.74328" lon="1.76331">
        <ele>154.39999389648</ele>
        <time>2014-10-19T14:24:26.000Z</time>
      </trkpt>
      <trkpt lat="48.74321" lon="1.76342">
        <ele>155</ele>
        <time>2014-10-19T14:24:31.000Z</time>
      </trkpt>
      <trkpt lat="48.74314" lon="1.76349">
        <ele>155.39999389648</ele>
        <time>2014-10-19T14:24:37.000Z</time>
      </trkpt>
      <trkpt lat="48.74303" lon="1.76358">
        <ele>155.60000610352</ele>
        <time>2014-10-19T14:24:44.000Z</time>
      </trkpt>
      <trkpt lat="48.743" lon="1.76361">
        <ele>155.19999694824</ele>
        <time>2014-10-19T14:24:46.000Z</time>
      </trkpt>
      <trkpt lat="48.74297" lon="1.76367">
        <ele>155</ele>
        <time>2014-10-19T14:24:48.000Z</time>
      </trkpt>
      <trkpt lat="48.74287" lon="1.7638">
        <ele>154.19999694824</ele>
        <time>2014-10-19T14:24:54.000Z</time>
      </trkpt>
      <trkpt lat="48.74284" lon="1.76388">
        <ele>154</ele>
        <time>2014-10-19T14:24:57.000Z</time>
      </trkpt>
      <trkpt lat="48.74274" lon="1.76398">
        <ele>153.19999694824</ele>
        <time>2014-10-19T14:25:04.000Z</time>
      </trkpt>
      <trkpt lat="48.7427" lon="1.76407">
        <ele>153</ele>
        <time>2014-10-19T14:25:09.000Z</time>
      </trkpt>
      <trkpt lat="48.74267" lon="1.76415">
        <ele>153.19999694824</ele>
        <time>2014-10-19T14:25:13.000Z</time>
      </trkpt>
      <trkpt lat="48.74265" lon="1.76425">
        <ele>153.19999694824</ele>
        <time>2014-10-19T14:25:19.000Z</time>
      </trkpt>
      <trkpt lat="48.74264" lon="1.76428">
        <ele>153.19999694824</ele>
        <time>2014-10-19T14:25:21.000Z</time>
      </trkpt>
      <trkpt lat="48.74259" lon="1.76445">
        <ele>153.39999389648</ele>
        <time>2014-10-19T14:25:28.000Z</time>
      </trkpt>
      <trkpt lat="48.7426" lon="1.76456">
        <ele>153.19999694824</ele>
        <time>2014-10-19T14:25:31.000Z</time>
      </trkpt>
      <trkpt lat="48.74257" lon="1.76476">
        <ele>153</ele>
        <time>2014-10-19T14:25:38.000Z</time>
      </trkpt>
      <trkpt lat="48.74255" lon="1.76483">
        <ele>152.60000610352</ele>
        <time>2014-10-19T14:25:42.000Z</time>
      </trkpt>
      <trkpt lat="48.7425" lon="1.76501">
        <ele>152.19999694824</ele>
        <time>2014-10-19T14:25:49.000Z</time>
      </trkpt>
      <trkpt lat="48.74245" lon="1.76516">
        <ele>152</ele>
        <time>2014-10-19T14:25:55.000Z</time>
      </trkpt>
      <trkpt lat="48.74243" lon="1.76531">
        <ele>151.60000610352</ele>
        <time>2014-10-19T14:26:01.000Z</time>
      </trkpt>
      <trkpt lat="48.7424" lon="1.76548">
        <ele>151.19999694824</ele>
        <time>2014-10-19T14:26:06.000Z</time>
      </trkpt>
      <trkpt lat="48.7424" lon="1.76563">
        <ele>151</ele>
        <time>2014-10-19T14:26:12.000Z</time>
      </trkpt>
      <trkpt lat="48.74238" lon="1.76576">
        <ele>150.80000305176</ele>
        <time>2014-10-19T14:26:19.000Z</time>
      </trkpt>
      <trkpt lat="48.74237" lon="1.76589">
        <ele>150.60000610352</ele>
        <time>2014-10-19T14:26:26.000Z</time>
      </trkpt>
      <trkpt lat="48.74233" lon="1.76605">
        <ele>150.60000610352</ele>
        <time>2014-10-19T14:26:33.000Z</time>
      </trkpt>
      <trkpt lat="48.74229" lon="1.76624">
        <ele>150.60000610352</ele>
        <time>2014-10-19T14:26:39.000Z</time>
      </trkpt>
      <trkpt lat="48.74227" lon="1.76637">
        <ele>151</ele>
        <time>2014-10-19T14:26:44.000Z</time>
      </trkpt>
      <trkpt lat="48.74224" lon="1.76657">
        <ele>151.19999694824</ele>
        <time>2014-10-19T14:26:51.000Z</time>
      </trkpt>
      <trkpt lat="48.74218" lon="1.76677">
        <ele>151.60000610352</ele>
        <time>2014-10-19T14:26:58.000Z</time>
      </trkpt>
      <trkpt lat="48.74216" lon="1.7669">
        <ele>151.60000610352</ele>
        <time>2014-10-19T14:27:02.000Z</time>
      </trkpt>
      <trkpt lat="48.74212" lon="1.76703">
        <ele>151.80000305176</ele>
        <time>2014-10-19T14:27:06.000Z</time>
      </trkpt>
      <trkpt lat="48.74209" lon="1.76718">
        <ele>152</ele>
        <time>2014-10-19T14:27:11.000Z</time>
      </trkpt>
      <trkpt lat="48.74209" lon="1.76723">
        <ele>152</ele>
        <time>2014-10-19T14:27:13.000Z</time>
      </trkpt>
      <trkpt lat="48.74206" lon="1.76743">
        <ele>152.19999694824</ele>
        <time>2014-10-19T14:27:19.000Z</time>
      </trkpt>
      <trkpt lat="48.74202" lon="1.76765">
        <ele>152.60000610352</ele>
        <time>2014-10-19T14:27:27.000Z</time>
      </trkpt>
      <trkpt lat="48.74198" lon="1.76782">
        <ele>152</ele>
        <time>2014-10-19T14:27:34.000Z</time>
      </trkpt>
      <trkpt lat="48.74193" lon="1.76799">
        <ele>151.60000610352</ele>
        <time>2014-10-19T14:27:42.000Z</time>
      </trkpt>
      <trkpt lat="48.74186" lon="1.76814">
        <ele>151.19999694824</ele>
        <time>2014-10-19T14:27:47.000Z</time>
      </trkpt>
      <trkpt lat="48.7418" lon="1.7683">
        <ele>151.60000610352</ele>
        <time>2014-10-19T14:27:51.000Z</time>
      </trkpt>
      <trkpt lat="48.7417" lon="1.76857">
        <ele>152.60000610352</ele>
        <time>2014-10-19T14:27:56.000Z</time>
      </trkpt>
      <trkpt lat="48.74157" lon="1.76887">
        <ele>153.39999389648</ele>
        <time>2014-10-19T14:28:01.000Z</time>
      </trkpt>
      <trkpt lat="48.74149" lon="1.76903">
        <ele>153</ele>
        <time>2014-10-19T14:28:04.000Z</time>
      </trkpt>
      <trkpt lat="48.74121" lon="1.76964">
        <ele>153.60000610352</ele>
        <time>2014-10-19T14:28:13.000Z</time>
      </trkpt>
      <trkpt lat="48.74101" lon="1.77002">
        <ele>154.19999694824</ele>
        <time>2014-10-19T14:28:18.000Z</time>
      </trkpt>
      <trkpt lat="48.74074" lon="1.77049">
        <ele>155.80000305176</ele>
        <time>2014-10-19T14:28:25.000Z</time>
      </trkpt>
      <trkpt lat="48.74062" lon="1.7707">
        <ele>156</ele>
        <time>2014-10-19T14:28:29.000Z</time>
      </trkpt>
      <trkpt lat="48.74052" lon="1.77085">
        <ele>156.60000610352</ele>
        <time>2014-10-19T14:28:33.000Z</time>
      </trkpt>
      <trkpt lat="48.74047" lon="1.77096">
        <ele>157</ele>
        <time>2014-10-19T14:28:38.000Z</time>
      </trkpt>
      <trkpt lat="48.74046" lon="1.77097">
        <ele>157</ele>
        <time>2014-10-19T14:28:39.000Z</time>
      </trkpt>
      <trkpt lat="48.74037" lon="1.77113">
        <ele>157.19999694824</ele>
        <time>2014-10-19T14:28:47.000Z</time>
      </trkpt>
      <trkpt lat="48.74029" lon="1.77123">
        <ele>157.19999694824</ele>
        <time>2014-10-19T14:28:54.000Z</time>
      </trkpt>
      <trkpt lat="48.74025" lon="1.77131">
        <ele>157.19999694824</ele>
        <time>2014-10-19T14:28:59.000Z</time>
      </trkpt>
      <trkpt lat="48.74018" lon="1.77145">
        <ele>157.39999389648</ele>
        <time>2014-10-19T14:29:04.000Z</time>
      </trkpt>
      <trkpt lat="48.74011" lon="1.77158">
        <ele>158</ele>
        <time>2014-10-19T14:29:08.000Z</time>
      </trkpt>
      <trkpt lat="48.73992" lon="1.77181">
        <ele>160.60000610352</ele>
        <time>2014-10-19T14:29:13.000Z</time>
      </trkpt>
      <trkpt lat="48.73984" lon="1.77191">
        <ele>161.80000305176</ele>
        <time>2014-10-19T14:29:15.000Z</time>
      </trkpt>
      <trkpt lat="48.73947" lon="1.77216">
        <ele>162.19999694824</ele>
        <time>2014-10-19T14:29:22.000Z</time>
      </trkpt>
      <trkpt lat="48.73929" lon="1.77225">
        <ele>162.80000305176</ele>
        <time>2014-10-19T14:29:26.000Z</time>
      </trkpt>
      <trkpt lat="48.73909" lon="1.77235">
        <ele>164</ele>
        <time>2014-10-19T14:29:31.000Z</time>
      </trkpt>
      <trkpt lat="48.73885" lon="1.77254">
        <ele>166.19999694824</ele>
        <time>2014-10-19T14:29:37.000Z</time>
      </trkpt>
      <trkpt lat="48.73871" lon="1.77275">
        <ele>167.19999694824</ele>
        <time>2014-10-19T14:29:41.000Z</time>
      </trkpt>
      <trkpt lat="48.73858" lon="1.77306">
        <ele>167.80000305176</ele>
        <time>2014-10-19T14:29:46.000Z</time>
      </trkpt>
      <trkpt lat="48.73855" lon="1.7731">
        <ele>168</ele>
        <time>2014-10-19T14:29:47.000Z</time>
      </trkpt>
      <trkpt lat="48.73846" lon="1.77334">
        <ele>168</ele>
        <time>2014-10-19T14:29:52.000Z</time>
      </trkpt>
      <trkpt lat="48.73838" lon="1.77354">
        <ele>168</ele>
        <time>2014-10-19T14:29:59.000Z</time>
      </trkpt>
      <trkpt lat="48.73836" lon="1.77358">
        <ele>168</ele>
        <time>2014-10-19T14:30:01.000Z</time>
      </trkpt>
      <trkpt lat="48.7383" lon="1.77371">
        <ele>168</ele>
        <time>2014-10-19T14:30:07.000Z</time>
      </trkpt>
      <trkpt lat="48.7382" lon="1.77383">
        <ele>168.19999694824</ele>
        <time>2014-10-19T14:30:15.000Z</time>
      </trkpt>
      <trkpt lat="48.73814" lon="1.77386">
        <ele>168.60000610352</ele>
        <time>2014-10-19T14:30:20.000Z</time>
      </trkpt>
      <trkpt lat="48.73814" lon="1.77386">
        <ele>168.60000610352</ele>
        <time>2014-10-19T14:30:22.000Z</time>
      </trkpt>
      <trkpt lat="48.738" lon="1.77383">
        <ele>169.60000610352</ele>
        <time>2014-10-19T14:30:49.000Z</time>
      </trkpt>
      <trkpt lat="48.73796" lon="1.77383">
        <ele>170</ele>
        <time>2014-10-19T14:30:50.000Z</time>
      </trkpt>
      <trkpt lat="48.73787" lon="1.77386">
        <ele>170.39999389648</ele>
        <time>2014-10-19T14:30:55.000Z</time>
      </trkpt>
      <trkpt lat="48.73784" lon="1.77387">
        <ele>170.60000610352</ele>
        <time>2014-10-19T14:30:57.000Z</time>
      </trkpt>
      <trkpt lat="48.73777" lon="1.77389">
        <ele>171</ele>
        <time>2014-10-19T14:31:03.000Z</time>
      </trkpt>
      <trkpt lat="48.73769" lon="1.77396">
        <ele>171.19999694824</ele>
        <time>2014-10-19T14:31:09.000Z</time>
      </trkpt>
      <trkpt lat="48.73768" lon="1.77397">
        <ele>171.19999694824</ele>
        <time>2014-10-19T14:31:10.000Z</time>
      </trkpt>
      <trkpt lat="48.73759" lon="1.77401">
        <ele>171.39999389648</ele>
        <time>2014-10-19T14:31:16.000Z</time>
      </trkpt>
      <trkpt lat="48.7375" lon="1.77405">
        <ele>171.80000305176</ele>
        <time>2014-10-19T14:31:23.000Z</time>
      </trkpt>
      <trkpt lat="48.73741" lon="1.7741">
        <ele>171.80000305176</ele>
        <time>2014-10-19T14:31:29.000Z</time>
      </trkpt>
      <trkpt lat="48.73737" lon="1.77412">
        <ele>171.80000305176</ele>
        <time>2014-10-19T14:31:32.000Z</time>
      </trkpt>
      <trkpt lat="48.73725" lon="1.77417">
        <ele>172</ele>
        <time>2014-10-19T14:31:39.000Z</time>
      </trkpt>
      <trkpt lat="48.73712" lon="1.77422">
        <ele>172.19999694824</ele>
        <time>2014-10-19T14:31:48.000Z</time>
      </trkpt>
      <trkpt lat="48.73708" lon="1.77422">
        <ele>172.39999389648</ele>
        <time>2014-10-19T14:31:51.000Z</time>
      </trkpt>
      <trkpt lat="48.73695" lon="1.77429">
        <ele>173.19999694824</ele>
        <time>2014-10-19T14:31:59.000Z</time>
      </trkpt>
      <trkpt lat="48.73685" lon="1.77433">
        <ele>173.60000610352</ele>
        <time>2014-10-19T14:32:05.000Z</time>
      </trkpt>
      <trkpt lat="48.73674" lon="1.77437">
        <ele>173.39999389648</ele>
        <time>2014-10-19T14:32:12.000Z</time>
      </trkpt>
      <trkpt lat="48.73662" lon="1.77444">
        <ele>173.19999694824</ele>
        <time>2014-10-19T14:32:19.000Z</time>
      </trkpt>
      <trkpt lat="48.7365" lon="1.77448">
        <ele>173</ele>
        <time>2014-10-19T14:32:25.000Z</time>
      </trkpt>
      <trkpt lat="48.73644" lon="1.77451">
        <ele>173</ele>
        <time>2014-10-19T14:32:32.000Z</time>
      </trkpt>
      <trkpt lat="48.73644" lon="1.77451">
        <ele>173</ele>
        <time>2014-10-19T14:32:33.000Z</time>
      </trkpt>
      <trkpt lat="48.73631" lon="1.77463">
        <ele>173</ele>
        <time>2014-10-19T14:33:58.000Z</time>
      </trkpt>
      <trkpt lat="48.73629" lon="1.77464">
        <ele>173</ele>
        <time>2014-10-19T14:34:01.000Z</time>
      </trkpt>
      <trkpt lat="48.73617" lon="1.77468">
        <ele>173</ele>
        <time>2014-10-19T14:35:28.000Z</time>
      </trkpt>
      <trkpt lat="48.73605" lon="1.77477">
        <ele>173</ele>
        <time>2014-10-19T14:35:35.000Z</time>
      </trkpt>
      <trkpt lat="48.73591" lon="1.77485">
        <ele>173</ele>
        <time>2014-10-19T14:35:45.000Z</time>
      </trkpt>
      <trkpt lat="48.73579" lon="1.77487">
        <ele>172.80000305176</ele>
        <time>2014-10-19T14:35:53.000Z</time>
      </trkpt>
      <trkpt lat="48.73578" lon="1.77487">
        <ele>172.80000305176</ele>
        <time>2014-10-19T14:35:55.000Z</time>
      </trkpt>
      <trkpt lat="48.73576" lon="1.77487">
        <ele>172.60000610352</ele>
        <time>2014-10-19T14:35:59.000Z</time>
      </trkpt>
      <trkpt lat="48.73568" lon="1.77493">
        <ele>172.60000610352</ele>
        <time>2014-10-19T14:36:06.000Z</time>
      </trkpt>
      <trkpt lat="48.73566" lon="1.77495">
        <ele>172.60000610352</ele>
        <time>2014-10-19T14:36:10.000Z</time>
      </trkpt>
      <trkpt lat="48.73561" lon="1.77501">
        <ele>172.39999389648</ele>
        <time>2014-10-19T14:36:21.000Z</time>
      </trkpt>
      <trkpt lat="48.73559" lon="1.77505">
        <ele>172.39999389648</ele>
        <time>2014-10-19T14:36:22.000Z</time>
      </trkpt>
      <trkpt lat="48.73551" lon="1.77506">
        <ele>172.39999389648</ele>
        <time>2014-10-19T14:36:28.000Z</time>
      </trkpt>
      <trkpt lat="48.73544" lon="1.7751">
        <ele>172.19999694824</ele>
        <time>2014-10-19T14:36:32.000Z</time>
      </trkpt>
      <trkpt lat="48.73539" lon="1.77512">
        <ele>172.19999694824</ele>
        <time>2014-10-19T14:36:35.000Z</time>
      </trkpt>
      <trkpt lat="48.73532" lon="1.77516">
        <ele>172.19999694824</ele>
        <time>2014-10-19T14:36:40.000Z</time>
      </trkpt>
      <trkpt lat="48.73523" lon="1.7752">
        <ele>172</ele>
        <time>2014-10-19T14:36:46.000Z</time>
      </trkpt>
      <trkpt lat="48.73518" lon="1.77523">
        <ele>172</ele>
        <time>2014-10-19T14:36:49.000Z</time>
      </trkpt>
      <trkpt lat="48.73511" lon="1.77527">
        <ele>172.39999389648</ele>
        <time>2014-10-19T14:36:54.000Z</time>
      </trkpt>
      <trkpt lat="48.73505" lon="1.7753">
        <ele>172.60000610352</ele>
        <time>2014-10-19T14:36:58.000Z</time>
      </trkpt>
      <trkpt lat="48.73498" lon="1.77531">
        <ele>172.80000305176</ele>
        <time>2014-10-19T14:37:03.000Z</time>
      </trkpt>
      <trkpt lat="48.73489" lon="1.77538">
        <ele>173.19999694824</ele>
        <time>2014-10-19T14:37:08.000Z</time>
      </trkpt>
      <trkpt lat="48.7348" lon="1.77543">
        <ele>173.60000610352</ele>
        <time>2014-10-19T14:37:14.000Z</time>
      </trkpt>
      <trkpt lat="48.73471" lon="1.77549">
        <ele>174.19999694824</ele>
        <time>2014-10-19T14:37:20.000Z</time>
      </trkpt>
      <trkpt lat="48.73467" lon="1.77552">
        <ele>174.39999389648</ele>
        <time>2014-10-19T14:37:22.000Z</time>
      </trkpt>
      <trkpt lat="48.73452" lon="1.77555">
        <ele>175</ele>
        <time>2014-10-19T14:37:30.000Z</time>
      </trkpt>
      <trkpt lat="48.73445" lon="1.77557">
        <ele>175.39999389648</ele>
        <time>2014-10-19T14:37:34.000Z</time>
      </trkpt>
      <trkpt lat="48.73436" lon="1.77561">
        <ele>176</ele>
        <time>2014-10-19T14:37:39.000Z</time>
      </trkpt>
      <trkpt lat="48.73424" lon="1.77569">
        <ele>176.80000305176</ele>
        <time>2014-10-19T14:37:46.000Z</time>
      </trkpt>
      <trkpt lat="48.73414" lon="1.77576">
        <ele>177.39999389648</ele>
        <time>2014-10-19T14:37:52.000Z</time>
      </trkpt>
      <trkpt lat="48.73408" lon="1.77581">
        <ele>177.80000305176</ele>
        <time>2014-10-19T14:37:56.000Z</time>
      </trkpt>
      <trkpt lat="48.73402" lon="1.77583">
        <ele>178.19999694824</ele>
        <time>2014-10-19T14:38:00.000Z</time>
      </trkpt>
      <trkpt lat="48.73397" lon="1.77586">
        <ele>178.39999389648</ele>
        <time>2014-10-19T14:38:03.000Z</time>
      </trkpt>
      <trkpt lat="48.73385" lon="1.77596">
        <ele>179.19999694824</ele>
        <time>2014-10-19T14:38:08.000Z</time>
      </trkpt>
      <trkpt lat="48.7337" lon="1.77609">
        <ele>180</ele>
        <time>2014-10-19T14:38:12.000Z</time>
      </trkpt>
      <trkpt lat="48.73357" lon="1.77619">
        <ele>180.80000305176</ele>
        <time>2014-10-19T14:38:15.000Z</time>
      </trkpt>
      <trkpt lat="48.73339" lon="1.77639">
        <ele>181.60000610352</ele>
        <time>2014-10-19T14:38:19.000Z</time>
      </trkpt>
      <trkpt lat="48.73328" lon="1.77659">
        <ele>181.60000610352</ele>
        <time>2014-10-19T14:38:22.000Z</time>
      </trkpt>
      <trkpt lat="48.73319" lon="1.77684">
        <ele>181.39999389648</ele>
        <time>2014-10-19T14:38:26.000Z</time>
      </trkpt>
      <trkpt lat="48.73316" lon="1.77688">
        <ele>181.60000610352</ele>
        <time>2014-10-19T14:38:27.000Z</time>
      </trkpt>
      <trkpt lat="48.73304" lon="1.77706">
        <ele>181.60000610352</ele>
        <time>2014-10-19T14:38:31.000Z</time>
      </trkpt>
      <trkpt lat="48.7329" lon="1.77732">
        <ele>181.60000610352</ele>
        <time>2014-10-19T14:38:37.000Z</time>
      </trkpt>
      <trkpt lat="48.73276" lon="1.77755">
        <ele>181.80000305176</ele>
        <time>2014-10-19T14:38:43.000Z</time>
      </trkpt>
      <trkpt lat="48.73264" lon="1.77777">
        <ele>182</ele>
        <time>2014-10-19T14:38:48.000Z</time>
      </trkpt>
      <trkpt lat="48.73252" lon="1.77802">
        <ele>182</ele>
        <time>2014-10-19T14:38:53.000Z</time>
      </trkpt>
      <trkpt lat="48.73241" lon="1.77823">
        <ele>182.39999389648</ele>
        <time>2014-10-19T14:38:58.000Z</time>
      </trkpt>
      <trkpt lat="48.7323" lon="1.77844">
        <ele>182.19999694824</ele>
        <time>2014-10-19T14:39:03.000Z</time>
      </trkpt>
      <trkpt lat="48.73213" lon="1.77874">
        <ele>182.39999389648</ele>
        <time>2014-10-19T14:39:10.000Z</time>
      </trkpt>
      <trkpt lat="48.73204" lon="1.7789">
        <ele>182.60000610352</ele>
        <time>2014-10-19T14:39:14.000Z</time>
      </trkpt>
      <trkpt lat="48.7319" lon="1.77913">
        <ele>182.80000305176</ele>
        <time>2014-10-19T14:39:20.000Z</time>
      </trkpt>
      <trkpt lat="48.73186" lon="1.77917">
        <ele>182.80000305176</ele>
        <time>2014-10-19T14:39:22.000Z</time>
      </trkpt>
      <trkpt lat="48.73174" lon="1.77948">
        <ele>182.39999389648</ele>
        <time>2014-10-19T14:39:29.000Z</time>
      </trkpt>
      <trkpt lat="48.73167" lon="1.77966">
        <ele>182.19999694824</ele>
        <time>2014-10-19T14:39:33.000Z</time>
      </trkpt>
      <trkpt lat="48.7315" lon="1.77988">
        <ele>182.80000305176</ele>
        <time>2014-10-19T14:39:39.000Z</time>
      </trkpt>
      <trkpt lat="48.7313" lon="1.78001">
        <ele>183.80000305176</ele>
        <time>2014-10-19T14:39:45.000Z</time>
      </trkpt>
      <trkpt lat="48.73119" lon="1.78006">
        <ele>184.19999694824</ele>
        <time>2014-10-19T14:39:50.000Z</time>
      </trkpt>
      <trkpt lat="48.73112" lon="1.78014">
        <ele>184.39999389648</ele>
        <time>2014-10-19T14:39:55.000Z</time>
      </trkpt>
      <trkpt lat="48.73098" lon="1.78019">
        <ele>184.39999389648</ele>
        <time>2014-10-19T14:40:03.000Z</time>
      </trkpt>
      <trkpt lat="48.73091" lon="1.78026">
        <ele>184</ele>
        <time>2014-10-19T14:40:08.000Z</time>
      </trkpt>
      <trkpt lat="48.73078" lon="1.78028">
        <ele>183.60000610352</ele>
        <time>2014-10-19T14:40:15.000Z</time>
      </trkpt>
      <trkpt lat="48.73072" lon="1.78027">
        <ele>183.39999389648</ele>
        <time>2014-10-19T14:40:19.000Z</time>
      </trkpt>
      <trkpt lat="48.7307" lon="1.78026">
        <ele>183.39999389648</ele>
        <time>2014-10-19T14:40:21.000Z</time>
      </trkpt>
      <trkpt lat="48.73066" lon="1.7803">
        <ele>183.19999694824</ele>
        <time>2014-10-19T14:40:24.000Z</time>
      </trkpt>
      <trkpt lat="48.73059" lon="1.78039">
        <ele>182.80000305176</ele>
        <time>2014-10-19T14:40:30.000Z</time>
      </trkpt>
      <trkpt lat="48.7305" lon="1.78039">
        <ele>182.39999389648</ele>
        <time>2014-10-19T14:40:34.000Z</time>
      </trkpt>
      <trkpt lat="48.73049" lon="1.78037">
        <ele>182.39999389648</ele>
        <time>2014-10-19T14:40:35.000Z</time>
      </trkpt>
      <trkpt lat="48.73042" lon="1.78023">
        <ele>182.39999389648</ele>
        <time>2014-10-19T14:40:41.000Z</time>
      </trkpt>
      <trkpt lat="48.73038" lon="1.7801">
        <ele>182.39999389648</ele>
        <time>2014-10-19T14:40:46.000Z</time>
      </trkpt>
      <trkpt lat="48.73035" lon="1.78008">
        <ele>182.19999694824</ele>
        <time>2014-10-19T14:40:50.000Z</time>
      </trkpt>
      <trkpt lat="48.73027" lon="1.78005">
        <ele>182</ele>
        <time>2014-10-19T14:40:54.000Z</time>
      </trkpt>
      <trkpt lat="48.73012" lon="1.78001">
        <ele>181.80000305176</ele>
        <time>2014-10-19T14:40:59.000Z</time>
      </trkpt>
      <trkpt lat="48.73" lon="1.77998">
        <ele>181.60000610352</ele>
        <time>2014-10-19T14:41:03.000Z</time>
      </trkpt>
      <trkpt lat="48.72986" lon="1.77994">
        <ele>181.60000610352</ele>
        <time>2014-10-19T14:41:08.000Z</time>
      </trkpt>
      <trkpt lat="48.72974" lon="1.77991">
        <ele>181.39999389648</ele>
        <time>2014-10-19T14:41:14.000Z</time>
      </trkpt>
      <trkpt lat="48.72965" lon="1.77986">
        <ele>181.39999389648</ele>
        <time>2014-10-19T14:41:20.000Z</time>
      </trkpt>
      <trkpt lat="48.7295" lon="1.7798">
        <ele>181.19999694824</ele>
        <time>2014-10-19T14:41:26.000Z</time>
      </trkpt>
      <trkpt lat="48.7294" lon="1.77975">
        <ele>181.19999694824</ele>
        <time>2014-10-19T14:41:32.000Z</time>
      </trkpt>
      <trkpt lat="48.7293" lon="1.77972">
        <ele>181.19999694824</ele>
        <time>2014-10-19T14:41:38.000Z</time>
      </trkpt>
      <trkpt lat="48.72917" lon="1.77968">
        <ele>181.19999694824</ele>
        <time>2014-10-19T14:41:44.000Z</time>
      </trkpt>
      <trkpt lat="48.72916" lon="1.77968">
        <ele>181.19999694824</ele>
        <time>2014-10-19T14:41:45.000Z</time>
      </trkpt>
      <trkpt lat="48.7291" lon="1.77965">
        <ele>181.19999694824</ele>
        <time>2014-10-19T14:41:49.000Z</time>
      </trkpt>
      <trkpt lat="48.72905" lon="1.77963">
        <ele>181.19999694824</ele>
        <time>2014-10-19T14:41:51.000Z</time>
      </trkpt>
      <trkpt lat="48.72898" lon="1.77962">
        <ele>181.19999694824</ele>
        <time>2014-10-19T14:41:55.000Z</time>
      </trkpt>
      <trkpt lat="48.72895" lon="1.77962">
        <ele>181.19999694824</ele>
        <time>2014-10-19T14:41:57.000Z</time>
      </trkpt>
      <trkpt lat="48.72885" lon="1.77961">
        <ele>181</ele>
        <time>2014-10-19T14:42:03.000Z</time>
      </trkpt>
      <trkpt lat="48.72874" lon="1.77957">
        <ele>181</ele>
        <time>2014-10-19T14:42:08.000Z</time>
      </trkpt>
      <trkpt lat="48.7286" lon="1.77953">
        <ele>181</ele>
        <time>2014-10-19T14:42:15.000Z</time>
      </trkpt>
      <trkpt lat="48.72853" lon="1.77952">
        <ele>180.80000305176</ele>
        <time>2014-10-19T14:42:20.000Z</time>
      </trkpt>
      <trkpt lat="48.7285" lon="1.7795">
        <ele>181</ele>
        <time>2014-10-19T14:42:22.000Z</time>
      </trkpt>
      <trkpt lat="48.72842" lon="1.77948">
        <ele>181.19999694824</ele>
        <time>2014-10-19T14:42:26.000Z</time>
      </trkpt>
      <trkpt lat="48.72835" lon="1.77944">
        <ele>181.19999694824</ele>
        <time>2014-10-19T14:42:30.000Z</time>
      </trkpt>
      <trkpt lat="48.7283" lon="1.77946">
        <ele>181.39999389648</ele>
        <time>2014-10-19T14:42:34.000Z</time>
      </trkpt>
      <trkpt lat="48.72818" lon="1.77947">
        <ele>181.39999389648</ele>
        <time>2014-10-19T14:42:40.000Z</time>
      </trkpt>
      <trkpt lat="48.72814" lon="1.77946">
        <ele>181.39999389648</ele>
        <time>2014-10-19T14:42:42.000Z</time>
      </trkpt>
      <trkpt lat="48.72803" lon="1.77943">
        <ele>181.60000610352</ele>
        <time>2014-10-19T14:42:48.000Z</time>
      </trkpt>
      <trkpt lat="48.728" lon="1.77943">
        <ele>181.80000305176</ele>
        <time>2014-10-19T14:42:49.000Z</time>
      </trkpt>
      <trkpt lat="48.72785" lon="1.77946">
        <ele>181.80000305176</ele>
        <time>2014-10-19T14:42:57.000Z</time>
      </trkpt>
      <trkpt lat="48.72772" lon="1.77951">
        <ele>181.80000305176</ele>
        <time>2014-10-19T14:43:04.000Z</time>
      </trkpt>
      <trkpt lat="48.7276" lon="1.77954">
        <ele>182</ele>
        <time>2014-10-19T14:43:11.000Z</time>
      </trkpt>
      <trkpt lat="48.72751" lon="1.77958">
        <ele>182.19999694824</ele>
        <time>2014-10-19T14:43:16.000Z</time>
      </trkpt>
      <trkpt lat="48.72741" lon="1.7796">
        <ele>182.39999389648</ele>
        <time>2014-10-19T14:43:21.000Z</time>
      </trkpt>
      <trkpt lat="48.72731" lon="1.77964">
        <ele>182.19999694824</ele>
        <time>2014-10-19T14:43:27.000Z</time>
      </trkpt>
      <trkpt lat="48.72722" lon="1.77967">
        <ele>182</ele>
        <time>2014-10-19T14:43:32.000Z</time>
      </trkpt>
      <trkpt lat="48.72718" lon="1.77968">
        <ele>182</ele>
        <time>2014-10-19T14:43:34.000Z</time>
      </trkpt>
      <trkpt lat="48.72706" lon="1.77971">
        <ele>181.80000305176</ele>
        <time>2014-10-19T14:43:41.000Z</time>
      </trkpt>
      <trkpt lat="48.72695" lon="1.77972">
        <ele>181.80000305176</ele>
        <time>2014-10-19T14:43:47.000Z</time>
      </trkpt>
      <trkpt lat="48.72684" lon="1.77967">
        <ele>181.80000305176</ele>
        <time>2014-10-19T14:43:53.000Z</time>
      </trkpt>
      <trkpt lat="48.72679" lon="1.77966">
        <ele>181.60000610352</ele>
        <time>2014-10-19T14:43:57.000Z</time>
      </trkpt>
      <trkpt lat="48.72669" lon="1.7796">
        <ele>181.39999389648</ele>
        <time>2014-10-19T14:44:03.000Z</time>
      </trkpt>
      <trkpt lat="48.72667" lon="1.77959">
        <ele>181.39999389648</ele>
        <time>2014-10-19T14:44:04.000Z</time>
      </trkpt>
      <trkpt lat="48.72664" lon="1.77961">
        <ele>181.19999694824</ele>
        <time>2014-10-19T14:44:06.000Z</time>
      </trkpt>
      <trkpt lat="48.72656" lon="1.77958">
        <ele>180.80000305176</ele>
        <time>2014-10-19T14:44:12.000Z</time>
      </trkpt>
      <trkpt lat="48.72641" lon="1.77963">
        <ele>179.80000305176</ele>
        <time>2014-10-19T14:44:20.000Z</time>
      </trkpt>
      <trkpt lat="48.72628" lon="1.77969">
        <ele>178.60000610352</ele>
        <time>2014-10-19T14:44:27.000Z</time>
      </trkpt>
      <trkpt lat="48.72625" lon="1.77971">
        <ele>178.19999694824</ele>
        <time>2014-10-19T14:44:29.000Z</time>
      </trkpt>
      <trkpt lat="48.72616" lon="1.77978">
        <ele>177.39999389648</ele>
        <time>2014-10-19T14:44:35.000Z</time>
      </trkpt>
      <trkpt lat="48.72607" lon="1.7798">
        <ele>176.60000610352</ele>
        <time>2014-10-19T14:44:41.000Z</time>
      </trkpt>
      <trkpt lat="48.726" lon="1.77985">
        <ele>176</ele>
        <time>2014-10-19T14:44:46.000Z</time>
      </trkpt>
      <trkpt lat="48.72596" lon="1.77991">
        <ele>176</ele>
        <time>2014-10-19T14:44:49.000Z</time>
      </trkpt>
      <trkpt lat="48.72583" lon="1.77995">
        <ele>175.80000305176</ele>
        <time>2014-10-19T14:44:56.000Z</time>
      </trkpt>
      <trkpt lat="48.72572" lon="1.77995">
        <ele>175.80000305176</ele>
        <time>2014-10-19T14:45:01.000Z</time>
      </trkpt>
      <trkpt lat="48.72561" lon="1.77992">
        <ele>176</ele>
        <time>2014-10-19T14:45:07.000Z</time>
      </trkpt>
      <trkpt lat="48.72551" lon="1.77993">
        <ele>175.80000305176</ele>
        <time>2014-10-19T14:45:12.000Z</time>
      </trkpt>
      <trkpt lat="48.72549" lon="1.77993">
        <ele>175.80000305176</ele>
        <time>2014-10-19T14:45:13.000Z</time>
      </trkpt>
      <trkpt lat="48.72546" lon="1.77992">
        <ele>175.80000305176</ele>
        <time>2014-10-19T14:45:17.000Z</time>
      </trkpt>
      <trkpt lat="48.72541" lon="1.77985">
        <ele>176</ele>
        <time>2014-10-19T14:45:21.000Z</time>
      </trkpt>
      <trkpt lat="48.7253" lon="1.77979">
        <ele>175.80000305176</ele>
        <time>2014-10-19T14:45:27.000Z</time>
      </trkpt>
      <trkpt lat="48.72516" lon="1.77973">
        <ele>175.60000610352</ele>
        <time>2014-10-19T14:45:33.000Z</time>
      </trkpt>
      <trkpt lat="48.72515" lon="1.77973">
        <ele>175.60000610352</ele>
        <time>2014-10-19T14:45:34.000Z</time>
      </trkpt>
      <trkpt lat="48.72502" lon="1.77959">
        <ele>175</ele>
        <time>2014-10-19T14:45:41.000Z</time>
      </trkpt>
      <trkpt lat="48.72501" lon="1.77958">
        <ele>175</ele>
        <time>2014-10-19T14:45:42.000Z</time>
      </trkpt>
      <trkpt lat="48.72495" lon="1.77951">
        <ele>174.60000610352</ele>
        <time>2014-10-19T14:45:46.000Z</time>
      </trkpt>
      <trkpt lat="48.72489" lon="1.77947">
        <ele>174.39999389648</ele>
        <time>2014-10-19T14:45:50.000Z</time>
      </trkpt>
      <trkpt lat="48.72486" lon="1.77945">
        <ele>174.19999694824</ele>
        <time>2014-10-19T14:45:52.000Z</time>
      </trkpt>
      <trkpt lat="48.72477" lon="1.77935">
        <ele>173.80000305176</ele>
        <time>2014-10-19T14:45:58.000Z</time>
      </trkpt>
      <trkpt lat="48.72472" lon="1.77932">
        <ele>173.60000610352</ele>
        <time>2014-10-19T14:46:01.000Z</time>
      </trkpt>
      <trkpt lat="48.7246" lon="1.77926">
        <ele>173</ele>
        <time>2014-10-19T14:46:09.000Z</time>
      </trkpt>
      <trkpt lat="48.72452" lon="1.77922">
        <ele>172.80000305176</ele>
        <time>2014-10-19T14:46:14.000Z</time>
      </trkpt>
      <trkpt lat="48.72447" lon="1.77916">
        <ele>172.60000610352</ele>
        <time>2014-10-19T14:46:18.000Z</time>
      </trkpt>
      <trkpt lat="48.72434" lon="1.7791">
        <ele>171.80000305176</ele>
        <time>2014-10-19T14:46:25.000Z</time>
      </trkpt>
      <trkpt lat="48.72427" lon="1.77905">
        <ele>171</ele>
        <time>2014-10-19T14:46:30.000Z</time>
      </trkpt>
      <trkpt lat="48.72419" lon="1.77907">
        <ele>170.39999389648</ele>
        <time>2014-10-19T14:46:34.000Z</time>
      </trkpt>
      <trkpt lat="48.72406" lon="1.7792">
        <ele>169.60000610352</ele>
        <time>2014-10-19T14:46:43.000Z</time>
      </trkpt>
      <trkpt lat="48.72399" lon="1.77923">
        <ele>169</ele>
        <time>2014-10-19T14:46:48.000Z</time>
      </trkpt>
      <trkpt lat="48.72397" lon="1.77923">
        <ele>168.80000305176</ele>
        <time>2014-10-19T14:46:50.000Z</time>
      </trkpt>
      <trkpt lat="48.7239" lon="1.77923">
        <ele>168.19999694824</ele>
        <time>2014-10-19T14:46:54.000Z</time>
      </trkpt>
      <trkpt lat="48.72387" lon="1.77921">
        <ele>167.80000305176</ele>
        <time>2014-10-19T14:46:56.000Z</time>
      </trkpt>
      <trkpt lat="48.7237" lon="1.7791">
        <ele>165.80000305176</ele>
        <time>2014-10-19T14:47:05.000Z</time>
      </trkpt>
      <trkpt lat="48.72364" lon="1.77904">
        <ele>165</ele>
        <time>2014-10-19T14:47:09.000Z</time>
      </trkpt>
      <trkpt lat="48.72356" lon="1.77894">
        <ele>164.39999389648</ele>
        <time>2014-10-19T14:47:15.000Z</time>
      </trkpt>
      <trkpt lat="48.7235" lon="1.77884">
        <ele>164.60000610352</ele>
        <time>2014-10-19T14:47:20.000Z</time>
      </trkpt>
      <trkpt lat="48.72341" lon="1.77867">
        <ele>165</ele>
        <time>2014-10-19T14:47:28.000Z</time>
      </trkpt>
      <trkpt lat="48.72331" lon="1.77852">
        <ele>165.19999694824</ele>
        <time>2014-10-19T14:47:35.000Z</time>
      </trkpt>
      <trkpt lat="48.7232" lon="1.77836">
        <ele>165.60000610352</ele>
        <time>2014-10-19T14:47:42.000Z</time>
      </trkpt>
      <trkpt lat="48.7231" lon="1.77827">
        <ele>165.80000305176</ele>
        <time>2014-10-19T14:47:48.000Z</time>
      </trkpt>
      <trkpt lat="48.72308" lon="1.77824">
        <ele>166</ele>
        <time>2014-10-19T14:47:50.000Z</time>
      </trkpt>
      <trkpt lat="48.72299" lon="1.77812">
        <ele>165.60000610352</ele>
        <time>2014-10-19T14:47:57.000Z</time>
      </trkpt>
      <trkpt lat="48.72292" lon="1.77804">
        <ele>165.39999389648</ele>
        <time>2014-10-19T14:48:03.000Z</time>
      </trkpt>
      <trkpt lat="48.72282" lon="1.77793">
        <ele>165</ele>
        <time>2014-10-19T14:48:09.000Z</time>
      </trkpt>
      <trkpt lat="48.72273" lon="1.7779">
        <ele>164.80000305176</ele>
        <time>2014-10-19T14:48:15.000Z</time>
      </trkpt>
      <trkpt lat="48.72263" lon="1.77782">
        <ele>164.80000305176</ele>
        <time>2014-10-19T14:48:21.000Z</time>
      </trkpt>
      <trkpt lat="48.72249" lon="1.77762">
        <ele>164.60000610352</ele>
        <time>2014-10-19T14:48:27.000Z</time>
      </trkpt>
      <trkpt lat="48.72239" lon="1.77741">
        <ele>164.19999694824</ele>
        <time>2014-10-19T14:48:32.000Z</time>
      </trkpt>
      <trkpt lat="48.7223" lon="1.77722">
        <ele>163.60000610352</ele>
        <time>2014-10-19T14:48:36.000Z</time>
      </trkpt>
      <trkpt lat="48.72219" lon="1.77698">
        <ele>163</ele>
        <time>2014-10-19T14:48:41.000Z</time>
      </trkpt>
      <trkpt lat="48.72203" lon="1.77667">
        <ele>162.39999389648</ele>
        <time>2014-10-19T14:48:48.000Z</time>
      </trkpt>
      <trkpt lat="48.72187" lon="1.77641">
        <ele>161.60000610352</ele>
        <time>2014-10-19T14:48:54.000Z</time>
      </trkpt>
      <trkpt lat="48.72172" lon="1.77621">
        <ele>160.80000305176</ele>
        <time>2014-10-19T14:48:58.000Z</time>
      </trkpt>
      <trkpt lat="48.72145" lon="1.77587">
        <ele>159.39999389648</ele>
        <time>2014-10-19T14:49:04.000Z</time>
      </trkpt>
      <trkpt lat="48.72136" lon="1.77578">
        <ele>159</ele>
        <time>2014-10-19T14:49:06.000Z</time>
      </trkpt>
      <trkpt lat="48.72116" lon="1.7757">
        <ele>158.39999389648</ele>
        <time>2014-10-19T14:49:09.000Z</time>
      </trkpt>
      <trkpt lat="48.72091" lon="1.77558">
        <ele>157.80000305176</ele>
        <time>2014-10-19T14:49:13.000Z</time>
      </trkpt>
      <trkpt lat="48.72062" lon="1.7755">
        <ele>159.60000610352</ele>
        <time>2014-10-19T14:49:17.000Z</time>
      </trkpt>
      <trkpt lat="48.72033" lon="1.77543">
        <ele>161.19999694824</ele>
        <time>2014-10-19T14:49:22.000Z</time>
      </trkpt>
      <trkpt lat="48.72026" lon="1.77543">
        <ele>161.80000305176</ele>
        <time>2014-10-19T14:49:23.000Z</time>
      </trkpt>
      <trkpt lat="48.72004" lon="1.77534">
        <ele>163.39999389648</ele>
        <time>2014-10-19T14:49:27.000Z</time>
      </trkpt>
      <trkpt lat="48.7199" lon="1.77522">
        <ele>163.80000305176</ele>
        <time>2014-10-19T14:49:32.000Z</time>
      </trkpt>
      <trkpt lat="48.7199" lon="1.7751">
        <ele>162.80000305176</ele>
        <time>2014-10-19T14:49:36.000Z</time>
      </trkpt>
      <trkpt lat="48.7198" lon="1.7749">
        <ele>162</ele>
        <time>2014-10-19T14:49:43.000Z</time>
      </trkpt>
      <trkpt lat="48.71966" lon="1.77467">
        <ele>161.80000305176</ele>
        <time>2014-10-19T14:49:49.000Z</time>
      </trkpt>
      <trkpt lat="48.7195" lon="1.77445">
        <ele>161.80000305176</ele>
        <time>2014-10-19T14:49:55.000Z</time>
      </trkpt>
      <trkpt lat="48.71938" lon="1.77431">
        <ele>162.19999694824</ele>
        <time>2014-10-19T14:50:01.000Z</time>
      </trkpt>
      <trkpt lat="48.71927" lon="1.77424">
        <ele>162</ele>
        <time>2014-10-19T14:50:08.000Z</time>
      </trkpt>
      <trkpt lat="48.71913" lon="1.77417">
        <ele>161.80000305176</ele>
        <time>2014-10-19T14:50:16.000Z</time>
      </trkpt>
      <trkpt lat="48.71902" lon="1.77412">
        <ele>162</ele>
        <time>2014-10-19T14:50:22.000Z</time>
      </trkpt>
      <trkpt lat="48.71891" lon="1.77407">
        <ele>161.80000305176</ele>
        <time>2014-10-19T14:50:27.000Z</time>
      </trkpt>
      <trkpt lat="48.7188" lon="1.77403">
        <ele>161.80000305176</ele>
        <time>2014-10-19T14:50:31.000Z</time>
      </trkpt>
      <trkpt lat="48.71868" lon="1.77402">
        <ele>162.19999694824</ele>
        <time>2014-10-19T14:50:35.000Z</time>
      </trkpt>
      <trkpt lat="48.71854" lon="1.77408">
        <ele>163.19999694824</ele>
        <time>2014-10-19T14:50:39.000Z</time>
      </trkpt>
      <trkpt lat="48.71831" lon="1.7742">
        <ele>163.39999389648</ele>
        <time>2014-10-19T14:50:45.000Z</time>
      </trkpt>
      <trkpt lat="48.71812" lon="1.77433">
        <ele>163.80000305176</ele>
        <time>2014-10-19T14:50:50.000Z</time>
      </trkpt>
      <trkpt lat="48.718" lon="1.77443">
        <ele>163.39999389648</ele>
        <time>2014-10-19T14:50:54.000Z</time>
      </trkpt>
      <trkpt lat="48.71783" lon="1.77461">
        <ele>161.80000305176</ele>
        <time>2014-10-19T14:50:59.000Z</time>
      </trkpt>
      <trkpt lat="48.7177" lon="1.77477">
        <ele>160.80000305176</ele>
        <time>2014-10-19T14:51:03.000Z</time>
      </trkpt>
      <trkpt lat="48.7176" lon="1.77487">
        <ele>161.60000610352</ele>
        <time>2014-10-19T14:51:06.000Z</time>
      </trkpt>
      <trkpt lat="48.71746" lon="1.77487">
        <ele>162.39999389648</ele>
        <time>2014-10-19T14:51:11.000Z</time>
      </trkpt>
      <trkpt lat="48.71738" lon="1.77482">
        <ele>162.60000610352</ele>
        <time>2014-10-19T14:51:16.000Z</time>
      </trkpt>
      <trkpt lat="48.71728" lon="1.77477">
        <ele>163</ele>
        <time>2014-10-19T14:51:23.000Z</time>
      </trkpt>
      <trkpt lat="48.71726" lon="1.77478">
        <ele>163.19999694824</ele>
        <time>2014-10-19T14:51:24.000Z</time>
      </trkpt>
      <trkpt lat="48.71715" lon="1.77491">
        <ele>164.39999389648</ele>
        <time>2014-10-19T14:51:30.000Z</time>
      </trkpt>
      <trkpt lat="48.71706" lon="1.77492">
        <ele>165</ele>
        <time>2014-10-19T14:51:33.000Z</time>
      </trkpt>
      <trkpt lat="48.71679" lon="1.77484">
        <ele>166.19999694824</ele>
        <time>2014-10-19T14:51:41.000Z</time>
      </trkpt>
      <trkpt lat="48.71662" lon="1.77473">
        <ele>166.39999389648</ele>
        <time>2014-10-19T14:51:46.000Z</time>
      </trkpt>
      <trkpt lat="48.71648" lon="1.77464">
        <ele>166.60000610352</ele>
        <time>2014-10-19T14:51:52.000Z</time>
      </trkpt>
      <trkpt lat="48.71636" lon="1.77468">
        <ele>167.80000305176</ele>
        <time>2014-10-19T14:51:57.000Z</time>
      </trkpt>
      <trkpt lat="48.71627" lon="1.77464">
        <ele>168</ele>
        <time>2014-10-19T14:52:03.000Z</time>
      </trkpt>
      <trkpt lat="48.7162" lon="1.77458">
        <ele>168</ele>
        <time>2014-10-19T14:52:08.000Z</time>
      </trkpt>
      <trkpt lat="48.71617" lon="1.77456">
        <ele>168</ele>
        <time>2014-10-19T14:52:10.000Z</time>
      </trkpt>
      <trkpt lat="48.71611" lon="1.77452">
        <ele>168</ele>
        <time>2014-10-19T14:52:14.000Z</time>
      </trkpt>
      <trkpt lat="48.71603" lon="1.77452">
        <ele>168.60000610352</ele>
        <time>2014-10-19T14:52:20.000Z</time>
      </trkpt>
      <trkpt lat="48.716" lon="1.77451">
        <ele>168.60000610352</ele>
        <time>2014-10-19T14:52:22.000Z</time>
      </trkpt>
      <trkpt lat="48.7159" lon="1.77446">
        <ele>168.39999389648</ele>
        <time>2014-10-19T14:52:29.000Z</time>
      </trkpt>
      <trkpt lat="48.71582" lon="1.7745">
        <ele>169.19999694824</ele>
        <time>2014-10-19T14:52:35.000Z</time>
      </trkpt>
      <trkpt lat="48.71571" lon="1.77453">
        <ele>169.80000305176</ele>
        <time>2014-10-19T14:52:41.000Z</time>
      </trkpt>
      <trkpt lat="48.7156" lon="1.77452">
        <ele>169.39999389648</ele>
        <time>2014-10-19T14:52:46.000Z</time>
      </trkpt>
      <trkpt lat="48.71554" lon="1.77449">
        <ele>169</ele>
        <time>2014-10-19T14:52:50.000Z</time>
      </trkpt>
      <trkpt lat="48.71543" lon="1.77451">
        <ele>168</ele>
        <time>2014-10-19T14:52:56.000Z</time>
      </trkpt>
      <trkpt lat="48.71541" lon="1.77452">
        <ele>168</ele>
        <time>2014-10-19T14:52:57.000Z</time>
      </trkpt>
      <trkpt lat="48.71531" lon="1.7746">
        <ele>167.19999694824</ele>
        <time>2014-10-19T14:53:04.000Z</time>
      </trkpt>
      <trkpt lat="48.71524" lon="1.77464">
        <ele>166.60000610352</ele>
        <time>2014-10-19T14:53:09.000Z</time>
      </trkpt>
      <trkpt lat="48.71516" lon="1.77463">
        <ele>166.19999694824</ele>
        <time>2014-10-19T14:53:13.000Z</time>
      </trkpt>
      <trkpt lat="48.71509" lon="1.77469">
        <ele>166</ele>
        <time>2014-10-19T14:53:18.000Z</time>
      </trkpt>
      <trkpt lat="48.715" lon="1.77476">
        <ele>166</ele>
        <time>2014-10-19T14:53:24.000Z</time>
      </trkpt>
      <trkpt lat="48.71493" lon="1.77482">
        <ele>166</ele>
        <time>2014-10-19T14:53:28.000Z</time>
      </trkpt>
      <trkpt lat="48.71488" lon="1.77488">
        <ele>166</ele>
        <time>2014-10-19T14:53:34.000Z</time>
      </trkpt>
      <trkpt lat="48.71483" lon="1.77491">
        <ele>166</ele>
        <time>2014-10-19T14:53:37.000Z</time>
      </trkpt>
      <trkpt lat="48.7147" lon="1.77487">
        <ele>166</ele>
        <time>2014-10-19T14:53:44.000Z</time>
      </trkpt>
      <trkpt lat="48.71466" lon="1.77485">
        <ele>166</ele>
        <time>2014-10-19T14:53:48.000Z</time>
      </trkpt>
      <trkpt lat="48.71459" lon="1.77487">
        <ele>166</ele>
        <time>2014-10-19T14:53:53.000Z</time>
      </trkpt>
      <trkpt lat="48.71449" lon="1.77495">
        <ele>166.19999694824</ele>
        <time>2014-10-19T14:53:59.000Z</time>
      </trkpt>
      <trkpt lat="48.71444" lon="1.77504">
        <ele>166.19999694824</ele>
        <time>2014-10-19T14:54:04.000Z</time>
      </trkpt>
      <trkpt lat="48.71444" lon="1.7751">
        <ele>166.39999389648</ele>
        <time>2014-10-19T14:54:06.000Z</time>
      </trkpt>
      <trkpt lat="48.71435" lon="1.77519">
        <ele>166.39999389648</ele>
        <time>2014-10-19T14:54:12.000Z</time>
      </trkpt>
      <trkpt lat="48.71433" lon="1.77524">
        <ele>166.39999389648</ele>
        <time>2014-10-19T14:54:14.000Z</time>
      </trkpt>
      <trkpt lat="48.71425" lon="1.7754">
        <ele>166.60000610352</ele>
        <time>2014-10-19T14:54:21.000Z</time>
      </trkpt>
      <trkpt lat="48.71418" lon="1.77551">
        <ele>166.80000305176</ele>
        <time>2014-10-19T14:54:27.000Z</time>
      </trkpt>
      <trkpt lat="48.71414" lon="1.7756">
        <ele>166.80000305176</ele>
        <time>2014-10-19T14:54:31.000Z</time>
      </trkpt>
      <trkpt lat="48.71411" lon="1.77573">
        <ele>167</ele>
        <time>2014-10-19T14:54:37.000Z</time>
      </trkpt>
      <trkpt lat="48.71404" lon="1.77584">
        <ele>167.60000610352</ele>
        <time>2014-10-19T14:54:43.000Z</time>
      </trkpt>
      <trkpt lat="48.71401" lon="1.77588">
        <ele>167.80000305176</ele>
        <time>2014-10-19T14:54:45.000Z</time>
      </trkpt>
      <trkpt lat="48.71392" lon="1.776">
        <ele>168.39999389648</ele>
        <time>2014-10-19T14:54:52.000Z</time>
      </trkpt>
      <trkpt lat="48.7138" lon="1.77609">
        <ele>168.60000610352</ele>
        <time>2014-10-19T14:55:00.000Z</time>
      </trkpt>
      <trkpt lat="48.71374" lon="1.77615">
        <ele>168.80000305176</ele>
        <time>2014-10-19T14:55:04.000Z</time>
      </trkpt>
      <trkpt lat="48.71371" lon="1.77618">
        <ele>169</ele>
        <time>2014-10-19T14:55:06.000Z</time>
      </trkpt>
      <trkpt lat="48.71365" lon="1.77623">
        <ele>169</ele>
        <time>2014-10-19T14:55:11.000Z</time>
      </trkpt>
      <trkpt lat="48.71353" lon="1.77636">
        <ele>169.39999389648</ele>
        <time>2014-10-19T14:55:18.000Z</time>
      </trkpt>
      <trkpt lat="48.71346" lon="1.77641">
        <ele>169.39999389648</ele>
        <time>2014-10-19T14:55:24.000Z</time>
      </trkpt>
      <trkpt lat="48.7134" lon="1.77649">
        <ele>169.60000610352</ele>
        <time>2014-10-19T14:55:28.000Z</time>
      </trkpt>
      <trkpt lat="48.71332" lon="1.77661">
        <ele>170</ele>
        <time>2014-10-19T14:55:34.000Z</time>
      </trkpt>
      <trkpt lat="48.7133" lon="1.77663">
        <ele>170</ele>
        <time>2014-10-19T14:55:35.000Z</time>
      </trkpt>
      <trkpt lat="48.71322" lon="1.77674">
        <ele>170</ele>
        <time>2014-10-19T14:55:41.000Z</time>
      </trkpt>
      <trkpt lat="48.71315" lon="1.77688">
        <ele>170.39999389648</ele>
        <time>2014-10-19T14:55:47.000Z</time>
      </trkpt>
      <trkpt lat="48.71306" lon="1.77701">
        <ele>170.60000610352</ele>
        <time>2014-10-19T14:55:54.000Z</time>
      </trkpt>
      <trkpt lat="48.71301" lon="1.77709">
        <ele>171</ele>
        <time>2014-10-19T14:55:59.000Z</time>
      </trkpt>
      <trkpt lat="48.71293" lon="1.77717">
        <ele>171.19999694824</ele>
        <time>2014-10-19T14:56:04.000Z</time>
      </trkpt>
      <trkpt lat="48.71287" lon="1.77726">
        <ele>171.60000610352</ele>
        <time>2014-10-19T14:56:09.000Z</time>
      </trkpt>
      <trkpt lat="48.7128" lon="1.77738">
        <ele>172</ele>
        <time>2014-10-19T14:56:14.000Z</time>
      </trkpt>
      <trkpt lat="48.71278" lon="1.77746">
        <ele>172</ele>
        <time>2014-10-19T14:56:17.000Z</time>
      </trkpt>
      <trkpt lat="48.71273" lon="1.77756">
        <ele>172.39999389648</ele>
        <time>2014-10-19T14:56:24.000Z</time>
      </trkpt>
      <trkpt lat="48.71266" lon="1.77769">
        <ele>172.60000610352</ele>
        <time>2014-10-19T14:56:31.000Z</time>
      </trkpt>
      <trkpt lat="48.71259" lon="1.77777">
        <ele>172.60000610352</ele>
        <time>2014-10-19T14:56:35.000Z</time>
      </trkpt>
      <trkpt lat="48.71257" lon="1.77788">
        <ele>172.80000305176</ele>
        <time>2014-10-19T14:56:41.000Z</time>
      </trkpt>
      <trkpt lat="48.71255" lon="1.77799">
        <ele>173.19999694824</ele>
        <time>2014-10-19T14:56:47.000Z</time>
      </trkpt>
      <trkpt lat="48.71255" lon="1.77801">
        <ele>173.19999694824</ele>
        <time>2014-10-19T14:56:48.000Z</time>
      </trkpt>
      <trkpt lat="48.71254" lon="1.77811">
        <ele>173.19999694824</ele>
        <time>2014-10-19T14:56:54.000Z</time>
      </trkpt>
      <trkpt lat="48.71248" lon="1.77817">
        <ele>173</ele>
        <time>2014-10-19T14:57:07.000Z</time>
      </trkpt>
      <trkpt lat="48.71244" lon="1.77826">
        <ele>172.80000305176</ele>
        <time>2014-10-19T14:57:11.000Z</time>
      </trkpt>
      <trkpt lat="48.71236" lon="1.77837">
        <ele>172.60000610352</ele>
        <time>2014-10-19T14:57:17.000Z</time>
      </trkpt>
      <trkpt lat="48.7123" lon="1.77849">
        <ele>172.39999389648</ele>
        <time>2014-10-19T14:57:22.000Z</time>
      </trkpt>
      <trkpt lat="48.71226" lon="1.77859">
        <ele>172.39999389648</ele>
        <time>2014-10-19T14:57:27.000Z</time>
      </trkpt>
      <trkpt lat="48.71217" lon="1.77869">
        <ele>172.19999694824</ele>
        <time>2014-10-19T14:57:34.000Z</time>
      </trkpt>
      <trkpt lat="48.71212" lon="1.77877">
        <ele>172.19999694824</ele>
        <time>2014-10-19T14:57:39.000Z</time>
      </trkpt>
      <trkpt lat="48.71206" lon="1.77892">
        <ele>172.39999389648</ele>
        <time>2014-10-19T14:57:45.000Z</time>
      </trkpt>
      <trkpt lat="48.71198" lon="1.77905">
        <ele>172.39999389648</ele>
        <time>2014-10-19T14:57:51.000Z</time>
      </trkpt>
      <trkpt lat="48.71191" lon="1.77918">
        <ele>172</ele>
        <time>2014-10-19T14:57:57.000Z</time>
      </trkpt>
      <trkpt lat="48.71183" lon="1.77933">
        <ele>171.60000610352</ele>
        <time>2014-10-19T14:58:04.000Z</time>
      </trkpt>
      <trkpt lat="48.71176" lon="1.77939">
        <ele>171.19999694824</ele>
        <time>2014-10-19T14:58:09.000Z</time>
      </trkpt>
      <trkpt lat="48.71172" lon="1.7794">
        <ele>171</ele>
        <time>2014-10-19T14:58:11.000Z</time>
      </trkpt>
      <trkpt lat="48.71162" lon="1.77944">
        <ele>170.60000610352</ele>
        <time>2014-10-19T14:58:17.000Z</time>
      </trkpt>
      <trkpt lat="48.71148" lon="1.77951">
        <ele>170.19999694824</ele>
        <time>2014-10-19T14:58:26.000Z</time>
      </trkpt>
      <trkpt lat="48.71145" lon="1.77952">
        <ele>170.19999694824</ele>
        <time>2014-10-19T14:58:28.000Z</time>
      </trkpt>
      <trkpt lat="48.71138" lon="1.77945">
        <ele>170</ele>
        <time>2014-10-19T14:58:34.000Z</time>
      </trkpt>
      <trkpt lat="48.71133" lon="1.77929">
        <ele>169.80000305176</ele>
        <time>2014-10-19T14:58:39.000Z</time>
      </trkpt>
      <trkpt lat="48.71132" lon="1.7792">
        <ele>169.80000305176</ele>
        <time>2014-10-19T14:58:42.000Z</time>
      </trkpt>
      <trkpt lat="48.71126" lon="1.77902">
        <ele>169.80000305176</ele>
        <time>2014-10-19T14:58:48.000Z</time>
      </trkpt>
      <trkpt lat="48.71122" lon="1.77889">
        <ele>169.80000305176</ele>
        <time>2014-10-19T14:58:53.000Z</time>
      </trkpt>
      <trkpt lat="48.71119" lon="1.77876">
        <ele>169.80000305176</ele>
        <time>2014-10-19T14:58:58.000Z</time>
      </trkpt>
      <trkpt lat="48.71116" lon="1.77871">
        <ele>169.80000305176</ele>
        <time>2014-10-19T14:59:00.000Z</time>
      </trkpt>
      <trkpt lat="48.71112" lon="1.77852">
        <ele>170</ele>
        <time>2014-10-19T14:59:07.000Z</time>
      </trkpt>
      <trkpt lat="48.71103" lon="1.77836">
        <ele>169.80000305176</ele>
        <time>2014-10-19T14:59:13.000Z</time>
      </trkpt>
      <trkpt lat="48.71102" lon="1.77834">
        <ele>169.80000305176</ele>
        <time>2014-10-19T14:59:14.000Z</time>
      </trkpt>
      <trkpt lat="48.71099" lon="1.77821">
        <ele>170.19999694824</ele>
        <time>2014-10-19T14:59:19.000Z</time>
      </trkpt>
      <trkpt lat="48.711" lon="1.77807">
        <ele>170</ele>
        <time>2014-10-19T14:59:24.000Z</time>
      </trkpt>
      <trkpt lat="48.71099" lon="1.77795">
        <ele>169.80000305176</ele>
        <time>2014-10-19T14:59:29.000Z</time>
      </trkpt>
      <trkpt lat="48.71098" lon="1.7779">
        <ele>169.80000305176</ele>
        <time>2014-10-19T14:59:31.000Z</time>
      </trkpt>
      <trkpt lat="48.71094" lon="1.7778">
        <ele>169.80000305176</ele>
        <time>2014-10-19T14:59:35.000Z</time>
      </trkpt>
      <trkpt lat="48.71087" lon="1.77762">
        <ele>169.60000610352</ele>
        <time>2014-10-19T14:59:42.000Z</time>
      </trkpt>
      <trkpt lat="48.71085" lon="1.7775">
        <ele>169.60000610352</ele>
        <time>2014-10-19T14:59:46.000Z</time>
      </trkpt>
      <trkpt lat="48.71081" lon="1.77737">
        <ele>169.60000610352</ele>
        <time>2014-10-19T14:59:52.000Z</time>
      </trkpt>
      <trkpt lat="48.7108" lon="1.77728">
        <ele>169.60000610352</ele>
        <time>2014-10-19T14:59:56.000Z</time>
      </trkpt>
      <trkpt lat="48.71075" lon="1.77715">
        <ele>170</ele>
        <time>2014-10-19T15:00:02.000Z</time>
      </trkpt>
      <trkpt lat="48.71068" lon="1.77704">
        <ele>170.19999694824</ele>
        <time>2014-10-19T15:00:07.000Z</time>
      </trkpt>
      <trkpt lat="48.71063" lon="1.77695">
        <ele>170.39999389648</ele>
        <time>2014-10-19T15:00:11.000Z</time>
      </trkpt>
      <trkpt lat="48.71059" lon="1.77681">
        <ele>170.80000305176</ele>
        <time>2014-10-19T15:00:16.000Z</time>
      </trkpt>
      <trkpt lat="48.71055" lon="1.77671">
        <ele>171</ele>
        <time>2014-10-19T15:00:20.000Z</time>
      </trkpt>
      <trkpt lat="48.71049" lon="1.77657">
        <ele>171.19999694824</ele>
        <time>2014-10-19T15:00:26.000Z</time>
      </trkpt>
      <trkpt lat="48.71043" lon="1.77641">
        <ele>171.39999389648</ele>
        <time>2014-10-19T15:00:34.000Z</time>
      </trkpt>
      <trkpt lat="48.71035" lon="1.77625">
        <ele>171.60000610352</ele>
        <time>2014-10-19T15:00:41.000Z</time>
      </trkpt>
      <trkpt lat="48.71029" lon="1.77608">
        <ele>171.80000305176</ele>
        <time>2014-10-19T15:00:47.000Z</time>
      </trkpt>
      <trkpt lat="48.71021" lon="1.77587">
        <ele>172</ele>
        <time>2014-10-19T15:00:54.000Z</time>
      </trkpt>
      <trkpt lat="48.71018" lon="1.77582">
        <ele>172</ele>
        <time>2014-10-19T15:00:56.000Z</time>
      </trkpt>
      <trkpt lat="48.71013" lon="1.77568">
        <ele>172</ele>
        <time>2014-10-19T15:01:01.000Z</time>
      </trkpt>
      <trkpt lat="48.71012" lon="1.77565">
        <ele>172.19999694824</ele>
        <time>2014-10-19T15:01:02.000Z</time>
      </trkpt>
      <trkpt lat="48.71009" lon="1.77556">
        <ele>172.39999389648</ele>
        <time>2014-10-19T15:01:06.000Z</time>
      </trkpt>
      <trkpt lat="48.71002" lon="1.77539">
        <ele>172.80000305176</ele>
        <time>2014-10-19T15:01:13.000Z</time>
      </trkpt>
      <trkpt lat="48.70994" lon="1.77523">
        <ele>173.19999694824</ele>
        <time>2014-10-19T15:01:20.000Z</time>
      </trkpt>
      <trkpt lat="48.70989" lon="1.77508">
        <ele>173.60000610352</ele>
        <time>2014-10-19T15:01:26.000Z</time>
      </trkpt>
      <trkpt lat="48.70983" lon="1.77496">
        <ele>173.80000305176</ele>
        <time>2014-10-19T15:01:32.000Z</time>
      </trkpt>
      <trkpt lat="48.70977" lon="1.77483">
        <ele>174</ele>
        <time>2014-10-19T15:01:38.000Z</time>
      </trkpt>
      <trkpt lat="48.70973" lon="1.77477">
        <ele>174.19999694824</ele>
        <time>2014-10-19T15:01:42.000Z</time>
      </trkpt>
      <trkpt lat="48.70965" lon="1.77455">
        <ele>174.39999389648</ele>
        <time>2014-10-19T15:01:51.000Z</time>
      </trkpt>
      <trkpt lat="48.70957" lon="1.77438">
        <ele>174.60000610352</ele>
        <time>2014-10-19T15:01:58.000Z</time>
      </trkpt>
      <trkpt lat="48.70951" lon="1.77423">
        <ele>174.80000305176</ele>
        <time>2014-10-19T15:02:05.000Z</time>
      </trkpt>
      <trkpt lat="48.70943" lon="1.77409">
        <ele>175</ele>
        <time>2014-10-19T15:02:12.000Z</time>
      </trkpt>
      <trkpt lat="48.70936" lon="1.77392">
        <ele>175.39999389648</ele>
        <time>2014-10-19T15:02:20.000Z</time>
      </trkpt>
      <trkpt lat="48.70927" lon="1.77379">
        <ele>175.80000305176</ele>
        <time>2014-10-19T15:02:27.000Z</time>
      </trkpt>
      <trkpt lat="48.70917" lon="1.77364">
        <ele>176.19999694824</ele>
        <time>2014-10-19T15:02:35.000Z</time>
      </trkpt>
      <trkpt lat="48.70911" lon="1.77352">
        <ele>176.60000610352</ele>
        <time>2014-10-19T15:02:41.000Z</time>
      </trkpt>
      <trkpt lat="48.70903" lon="1.77334">
        <ele>177.19999694824</ele>
        <time>2014-10-19T15:02:48.000Z</time>
      </trkpt>
      <trkpt lat="48.70902" lon="1.77331">
        <ele>177.19999694824</ele>
        <time>2014-10-19T15:02:49.000Z</time>
      </trkpt>
      <trkpt lat="48.70897" lon="1.77316">
        <ele>177.39999389648</ele>
        <time>2014-10-19T15:02:55.000Z</time>
      </trkpt>
      <trkpt lat="48.70893" lon="1.77303">
        <ele>177.19999694824</ele>
        <time>2014-10-19T15:03:00.000Z</time>
      </trkpt>
      <trkpt lat="48.70889" lon="1.7729">
        <ele>177</ele>
        <time>2014-10-19T15:03:06.000Z</time>
      </trkpt>
      <trkpt lat="48.70882" lon="1.77271">
        <ele>176.80000305176</ele>
        <time>2014-10-19T15:03:15.000Z</time>
      </trkpt>
      <trkpt lat="48.70878" lon="1.7726">
        <ele>176.60000610352</ele>
        <time>2014-10-19T15:03:21.000Z</time>
      </trkpt>
      <trkpt lat="48.7087" lon="1.7726">
        <ele>176.39999389648</ele>
        <time>2014-10-19T15:03:27.000Z</time>
      </trkpt>
      <trkpt lat="48.7086" lon="1.77258">
        <ele>176.39999389648</ele>
        <time>2014-10-19T15:03:33.000Z</time>
      </trkpt>
      <trkpt lat="48.70853" lon="1.77255">
        <ele>176.19999694824</ele>
        <time>2014-10-19T15:03:38.000Z</time>
      </trkpt>
      <trkpt lat="48.70848" lon="1.77254">
        <ele>176.19999694824</ele>
        <time>2014-10-19T15:03:43.000Z</time>
      </trkpt>
      <trkpt lat="48.70842" lon="1.77254">
        <ele>176.19999694824</ele>
        <time>2014-10-19T15:03:47.000Z</time>
      </trkpt>
      <trkpt lat="48.70829" lon="1.77256">
        <ele>176.19999694824</ele>
        <time>2014-10-19T15:03:53.000Z</time>
      </trkpt>
      <trkpt lat="48.70821" lon="1.77253">
        <ele>176.19999694824</ele>
        <time>2014-10-19T15:03:58.000Z</time>
      </trkpt>
      <trkpt lat="48.7082" lon="1.77253">
        <ele>176.19999694824</ele>
        <time>2014-10-19T15:03:59.000Z</time>
      </trkpt>
      <trkpt lat="48.7081" lon="1.77255">
        <ele>176.19999694824</ele>
        <time>2014-10-19T15:04:05.000Z</time>
      </trkpt>
      <trkpt lat="48.70801" lon="1.77255">
        <ele>176.19999694824</ele>
        <time>2014-10-19T15:04:11.000Z</time>
      </trkpt>
      <trkpt lat="48.70791" lon="1.77254">
        <ele>176.19999694824</ele>
        <time>2014-10-19T15:04:17.000Z</time>
      </trkpt>
      <trkpt lat="48.70782" lon="1.77257">
        <ele>176.19999694824</ele>
        <time>2014-10-19T15:04:23.000Z</time>
      </trkpt>
      <trkpt lat="48.7077" lon="1.77257">
        <ele>176</ele>
        <time>2014-10-19T15:04:29.000Z</time>
      </trkpt>
      <trkpt lat="48.70757" lon="1.77256">
        <ele>176.19999694824</ele>
        <time>2014-10-19T15:04:37.000Z</time>
      </trkpt>
      <trkpt lat="48.70755" lon="1.77256">
        <ele>176.19999694824</ele>
        <time>2014-10-19T15:04:38.000Z</time>
      </trkpt>
      <trkpt lat="48.7075" lon="1.77258">
        <ele>176.19999694824</ele>
        <time>2014-10-19T15:04:41.000Z</time>
      </trkpt>
      <trkpt lat="48.70739" lon="1.77257">
        <ele>176.39999389648</ele>
        <time>2014-10-19T15:04:48.000Z</time>
      </trkpt>
      <trkpt lat="48.70728" lon="1.77258">
        <ele>176.60000610352</ele>
        <time>2014-10-19T15:04:55.000Z</time>
      </trkpt>
      <trkpt lat="48.70719" lon="1.7726">
        <ele>176.60000610352</ele>
        <time>2014-10-19T15:05:01.000Z</time>
      </trkpt>
      <trkpt lat="48.7071" lon="1.7726">
        <ele>176.80000305176</ele>
        <time>2014-10-19T15:05:07.000Z</time>
      </trkpt>
      <trkpt lat="48.707" lon="1.77261">
        <ele>177.19999694824</ele>
        <time>2014-10-19T15:05:14.000Z</time>
      </trkpt>
      <trkpt lat="48.70689" lon="1.77259">
        <ele>177.39999389648</ele>
        <time>2014-10-19T15:05:20.000Z</time>
      </trkpt>
      <trkpt lat="48.70675" lon="1.77257">
        <ele>178</ele>
        <time>2014-10-19T15:05:28.000Z</time>
      </trkpt>
      <trkpt lat="48.70665" lon="1.77256">
        <ele>178.39999389648</ele>
        <time>2014-10-19T15:05:33.000Z</time>
      </trkpt>
      <trkpt lat="48.70654" lon="1.77255">
        <ele>179</ele>
        <time>2014-10-19T15:05:39.000Z</time>
      </trkpt>
      <trkpt lat="48.70646" lon="1.77254">
        <ele>179.39999389648</ele>
        <time>2014-10-19T15:05:44.000Z</time>
      </trkpt>
      <trkpt lat="48.70642" lon="1.77253">
        <ele>179.60000610352</ele>
        <time>2014-10-19T15:05:47.000Z</time>
      </trkpt>
      <trkpt lat="48.70629" lon="1.77253">
        <ele>180.19999694824</ele>
        <time>2014-10-19T15:05:55.000Z</time>
      </trkpt>
      <trkpt lat="48.70622" lon="1.77252">
        <ele>180.39999389648</ele>
        <time>2014-10-19T15:05:59.000Z</time>
      </trkpt>
      <trkpt lat="48.70608" lon="1.77251">
        <ele>180.80000305176</ele>
        <time>2014-10-19T15:06:05.000Z</time>
      </trkpt>
      <trkpt lat="48.70599" lon="1.77251">
        <ele>181</ele>
        <time>2014-10-19T15:06:11.000Z</time>
      </trkpt>
      <trkpt lat="48.70588" lon="1.77248">
        <ele>181.19999694824</ele>
        <time>2014-10-19T15:06:19.000Z</time>
      </trkpt>
      <trkpt lat="48.70583" lon="1.77248">
        <ele>181.19999694824</ele>
        <time>2014-10-19T15:06:22.000Z</time>
      </trkpt>
      <trkpt lat="48.70572" lon="1.77247">
        <ele>181.39999389648</ele>
        <time>2014-10-19T15:06:28.000Z</time>
      </trkpt>
      <trkpt lat="48.70563" lon="1.77244">
        <ele>181.39999389648</ele>
        <time>2014-10-19T15:06:32.000Z</time>
      </trkpt>
      <trkpt lat="48.70553" lon="1.77244">
        <ele>181.60000610352</ele>
        <time>2014-10-19T15:06:37.000Z</time>
      </trkpt>
      <trkpt lat="48.70536" lon="1.7724">
        <ele>181.80000305176</ele>
        <time>2014-10-19T15:06:47.000Z</time>
      </trkpt>
      <trkpt lat="48.70535" lon="1.7724">
        <ele>181.80000305176</ele>
        <time>2014-10-19T15:06:48.000Z</time>
      </trkpt>
      <trkpt lat="48.70522" lon="1.77241">
        <ele>182</ele>
        <time>2014-10-19T15:06:55.000Z</time>
      </trkpt>
      <trkpt lat="48.70514" lon="1.7724">
        <ele>182</ele>
        <time>2014-10-19T15:07:01.000Z</time>
      </trkpt>
      <trkpt lat="48.70505" lon="1.7724">
        <ele>181.80000305176</ele>
        <time>2014-10-19T15:07:06.000Z</time>
      </trkpt>
      <trkpt lat="48.70496" lon="1.7724">
        <ele>181.80000305176</ele>
        <time>2014-10-19T15:07:12.000Z</time>
      </trkpt>
      <trkpt lat="48.70485" lon="1.77236">
        <ele>181.60000610352</ele>
        <time>2014-10-19T15:07:19.000Z</time>
      </trkpt>
      <trkpt lat="48.70478" lon="1.77235">
        <ele>181.39999389648</ele>
        <time>2014-10-19T15:07:24.000Z</time>
      </trkpt>
      <trkpt lat="48.70471" lon="1.77235">
        <ele>181.39999389648</ele>
        <time>2014-10-19T15:07:28.000Z</time>
      </trkpt>
      <trkpt lat="48.70458" lon="1.77236">
        <ele>181.19999694824</ele>
        <time>2014-10-19T15:07:35.000Z</time>
      </trkpt>
      <trkpt lat="48.70449" lon="1.77241">
        <ele>181.19999694824</ele>
        <time>2014-10-19T15:07:39.000Z</time>
      </trkpt>
      <trkpt lat="48.70439" lon="1.77247">
        <ele>181.19999694824</ele>
        <time>2014-10-19T15:07:45.000Z</time>
      </trkpt>
      <trkpt lat="48.70428" lon="1.77252">
        <ele>181.19999694824</ele>
        <time>2014-10-19T15:07:51.000Z</time>
      </trkpt>
      <trkpt lat="48.70421" lon="1.77257">
        <ele>181.19999694824</ele>
        <time>2014-10-19T15:07:56.000Z</time>
      </trkpt>
      <trkpt lat="48.70413" lon="1.77261">
        <ele>181.19999694824</ele>
        <time>2014-10-19T15:08:02.000Z</time>
      </trkpt>
      <trkpt lat="48.70406" lon="1.77264">
        <ele>181.19999694824</ele>
        <time>2014-10-19T15:08:07.000Z</time>
      </trkpt>
      <trkpt lat="48.70402" lon="1.77269">
        <ele>181.39999389648</ele>
        <time>2014-10-19T15:08:11.000Z</time>
      </trkpt>
      <trkpt lat="48.70393" lon="1.77276">
        <ele>181.39999389648</ele>
        <time>2014-10-19T15:08:16.000Z</time>
      </trkpt>
      <trkpt lat="48.70387" lon="1.77287">
        <ele>181.39999389648</ele>
        <time>2014-10-19T15:08:22.000Z</time>
      </trkpt>
      <trkpt lat="48.70382" lon="1.77291">
        <ele>181.39999389648</ele>
        <time>2014-10-19T15:08:26.000Z</time>
      </trkpt>
      <trkpt lat="48.70379" lon="1.77292">
        <ele>181.19999694824</ele>
        <time>2014-10-19T15:08:28.000Z</time>
      </trkpt>
      <trkpt lat="48.70374" lon="1.77287">
        <ele>181</ele>
        <time>2014-10-19T15:08:32.000Z</time>
      </trkpt>
      <trkpt lat="48.70371" lon="1.77265">
        <ele>180.80000305176</ele>
        <time>2014-10-19T15:08:40.000Z</time>
      </trkpt>
      <trkpt lat="48.7037" lon="1.77245">
        <ele>180.39999389648</ele>
        <time>2014-10-19T15:08:48.000Z</time>
      </trkpt>
      <trkpt lat="48.70368" lon="1.77231">
        <ele>180.39999389648</ele>
        <time>2014-10-19T15:08:54.000Z</time>
      </trkpt>
      <trkpt lat="48.70365" lon="1.77216">
        <ele>180.60000610352</ele>
        <time>2014-10-19T15:08:59.000Z</time>
      </trkpt>
      <trkpt lat="48.70365" lon="1.772">
        <ele>181</ele>
        <time>2014-10-19T15:09:06.000Z</time>
      </trkpt>
      <trkpt lat="48.70364" lon="1.77187">
        <ele>181.39999389648</ele>
        <time>2014-10-19T15:09:12.000Z</time>
      </trkpt>
      <trkpt lat="48.70362" lon="1.77175">
        <ele>181.60000610352</ele>
        <time>2014-10-19T15:09:17.000Z</time>
      </trkpt>
      <trkpt lat="48.70359" lon="1.77155">
        <ele>181.80000305176</ele>
        <time>2014-10-19T15:09:24.000Z</time>
      </trkpt>
      <trkpt lat="48.70357" lon="1.77136">
        <ele>181.80000305176</ele>
        <time>2014-10-19T15:09:31.000Z</time>
      </trkpt>
      <trkpt lat="48.70353" lon="1.77121">
        <ele>182</ele>
        <time>2014-10-19T15:09:38.000Z</time>
      </trkpt>
      <trkpt lat="48.70352" lon="1.7711">
        <ele>182</ele>
        <time>2014-10-19T15:09:43.000Z</time>
      </trkpt>
      <trkpt lat="48.7035" lon="1.77088">
        <ele>182</ele>
        <time>2014-10-19T15:09:53.000Z</time>
      </trkpt>
      <trkpt lat="48.70347" lon="1.7707">
        <ele>182.19999694824</ele>
        <time>2014-10-19T15:10:01.000Z</time>
      </trkpt>
      <trkpt lat="48.70344" lon="1.7705">
        <ele>182.19999694824</ele>
        <time>2014-10-19T15:10:10.000Z</time>
      </trkpt>
      <trkpt lat="48.7034" lon="1.77029">
        <ele>182.19999694824</ele>
        <time>2014-10-19T15:10:19.000Z</time>
      </trkpt>
      <trkpt lat="48.70339" lon="1.77004">
        <ele>182.19999694824</ele>
        <time>2014-10-19T15:10:29.000Z</time>
      </trkpt>
      <trkpt lat="48.70339" lon="1.76986">
        <ele>182.19999694824</ele>
        <time>2014-10-19T15:10:37.000Z</time>
      </trkpt>
      <trkpt lat="48.70339" lon="1.76977">
        <ele>182</ele>
        <time>2014-10-19T15:10:43.000Z</time>
      </trkpt>
      <trkpt lat="48.70338" lon="1.76964">
        <ele>181.60000610352</ele>
        <time>2014-10-19T15:10:51.000Z</time>
      </trkpt>
      <trkpt lat="48.70337" lon="1.76933">
        <ele>180.80000305176</ele>
        <time>2014-10-19T15:11:03.000Z</time>
      </trkpt>
      <trkpt lat="48.70336" lon="1.76911">
        <ele>180.39999389648</ele>
        <time>2014-10-19T15:11:12.000Z</time>
      </trkpt>
      <trkpt lat="48.70335" lon="1.76893">
        <ele>180</ele>
        <time>2014-10-19T15:11:18.000Z</time>
      </trkpt>
      <trkpt lat="48.70335" lon="1.76873">
        <ele>179.60000610352</ele>
        <time>2014-10-19T15:11:25.000Z</time>
      </trkpt>
      <trkpt lat="48.70334" lon="1.76855">
        <ele>179.39999389648</ele>
        <time>2014-10-19T15:11:32.000Z</time>
      </trkpt>
      <trkpt lat="48.70333" lon="1.76839">
        <ele>179.19999694824</ele>
        <time>2014-10-19T15:11:38.000Z</time>
      </trkpt>
      <trkpt lat="48.70333" lon="1.76824">
        <ele>179</ele>
        <time>2014-10-19T15:11:44.000Z</time>
      </trkpt>
      <trkpt lat="48.70332" lon="1.76795">
        <ele>179.19999694824</ele>
        <time>2014-10-19T15:11:56.000Z</time>
      </trkpt>
      <trkpt lat="48.7033" lon="1.76772">
        <ele>179</ele>
        <time>2014-10-19T15:12:06.000Z</time>
      </trkpt>
      <trkpt lat="48.70329" lon="1.76746">
        <ele>178.60000610352</ele>
        <time>2014-10-19T15:12:17.000Z</time>
      </trkpt>
      <trkpt lat="48.70329" lon="1.76723">
        <ele>178.60000610352</ele>
        <time>2014-10-19T15:12:26.000Z</time>
      </trkpt>
      <trkpt lat="48.70328" lon="1.767">
        <ele>178.60000610352</ele>
        <time>2014-10-19T15:12:33.000Z</time>
      </trkpt>
      <trkpt lat="48.70328" lon="1.76683">
        <ele>178.60000610352</ele>
        <time>2014-10-19T15:12:40.000Z</time>
      </trkpt>
      <trkpt lat="48.70327" lon="1.76663">
        <ele>178.60000610352</ele>
        <time>2014-10-19T15:12:48.000Z</time>
      </trkpt>
      <trkpt lat="48.7033" lon="1.76645">
        <ele>178.60000610352</ele>
        <time>2014-10-19T15:12:56.000Z</time>
      </trkpt>
      <trkpt lat="48.70332" lon="1.76643">
        <ele>178.60000610352</ele>
        <time>2014-10-19T15:13:00.000Z</time>
      </trkpt>
      <trkpt lat="48.70335" lon="1.76636">
        <ele>178.39999389648</ele>
        <time>2014-10-19T15:13:45.000Z</time>
      </trkpt>
      <trkpt lat="48.70341" lon="1.76629">
        <ele>178.39999389648</ele>
        <time>2014-10-19T15:13:51.000Z</time>
      </trkpt>
      <trkpt lat="48.70352" lon="1.76622">
        <ele>178</ele>
        <time>2014-10-19T15:13:59.000Z</time>
      </trkpt>
      <trkpt lat="48.70359" lon="1.76618">
        <ele>178.19999694824</ele>
        <time>2014-10-19T15:14:06.000Z</time>
      </trkpt>
      <trkpt lat="48.70366" lon="1.76615">
        <ele>178.39999389648</ele>
        <time>2014-10-19T15:14:13.000Z</time>
      </trkpt>
      <trkpt lat="48.70375" lon="1.7661">
        <ele>178.60000610352</ele>
        <time>2014-10-19T15:14:20.000Z</time>
      </trkpt>
      <trkpt lat="48.70383" lon="1.76606">
        <ele>178.80000305176</ele>
        <time>2014-10-19T15:14:27.000Z</time>
      </trkpt>
      <trkpt lat="48.70392" lon="1.76601">
        <ele>179</ele>
        <time>2014-10-19T15:14:34.000Z</time>
      </trkpt>
      <trkpt lat="48.70404" lon="1.76597">
        <ele>179.39999389648</ele>
        <time>2014-10-19T15:14:41.000Z</time>
      </trkpt>
      <trkpt lat="48.70414" lon="1.76593">
        <ele>180</ele>
        <time>2014-10-19T15:14:48.000Z</time>
      </trkpt>
      <trkpt lat="48.70423" lon="1.76587">
        <ele>180.39999389648</ele>
        <time>2014-10-19T15:14:56.000Z</time>
      </trkpt>
      <trkpt lat="48.70429" lon="1.76582">
        <ele>180.60000610352</ele>
        <time>2014-10-19T15:15:01.000Z</time>
      </trkpt>
      <trkpt lat="48.70434" lon="1.7657">
        <ele>181</ele>
        <time>2014-10-19T15:15:07.000Z</time>
      </trkpt>
      <trkpt lat="48.70441" lon="1.76553">
        <ele>181</ele>
        <time>2014-10-19T15:15:16.000Z</time>
      </trkpt>
      <trkpt lat="48.70445" lon="1.76536">
        <ele>181</ele>
        <time>2014-10-19T15:15:24.000Z</time>
      </trkpt>
      <trkpt lat="48.70447" lon="1.76532">
        <ele>181</ele>
        <time>2014-10-19T15:15:26.000Z</time>
      </trkpt>
      <trkpt lat="48.70449" lon="1.76522">
        <ele>181</ele>
        <time>2014-10-19T15:15:31.000Z</time>
      </trkpt>
      <trkpt lat="48.70451" lon="1.76516">
        <ele>181</ele>
        <time>2014-10-19T15:15:34.000Z</time>
      </trkpt>
      <trkpt lat="48.70453" lon="1.76503">
        <ele>181</ele>
        <time>2014-10-19T15:15:40.000Z</time>
      </trkpt>
      <trkpt lat="48.70454" lon="1.76492">
        <ele>180.80000305176</ele>
        <time>2014-10-19T15:15:46.000Z</time>
      </trkpt>
      <trkpt lat="48.70457" lon="1.76478">
        <ele>180</ele>
        <time>2014-10-19T15:15:53.000Z</time>
      </trkpt>
      <trkpt lat="48.70458" lon="1.76461">
        <ele>179.19999694824</ele>
        <time>2014-10-19T15:15:59.000Z</time>
      </trkpt>
      <trkpt lat="48.70464" lon="1.76448">
        <ele>178.19999694824</ele>
        <time>2014-10-19T15:16:05.000Z</time>
      </trkpt>
      <trkpt lat="48.70465" lon="1.76427">
        <ele>177.19999694824</ele>
        <time>2014-10-19T15:16:13.000Z</time>
      </trkpt>
      <trkpt lat="48.70465" lon="1.76422">
        <ele>177.19999694824</ele>
        <time>2014-10-19T15:16:15.000Z</time>
      </trkpt>
      <trkpt lat="48.70462" lon="1.7641">
        <ele>177.19999694824</ele>
        <time>2014-10-19T15:16:20.000Z</time>
      </trkpt>
      <trkpt lat="48.70461" lon="1.76403">
        <ele>177</ele>
        <time>2014-10-19T15:16:23.000Z</time>
      </trkpt>
      <trkpt lat="48.70461" lon="1.76393">
        <ele>176.60000610352</ele>
        <time>2014-10-19T15:16:27.000Z</time>
      </trkpt>
      <trkpt lat="48.70459" lon="1.76376">
        <ele>175.80000305176</ele>
        <time>2014-10-19T15:16:34.000Z</time>
      </trkpt>
      <trkpt lat="48.70457" lon="1.76364">
        <ele>175.39999389648</ele>
        <time>2014-10-19T15:16:40.000Z</time>
      </trkpt>
      <trkpt lat="48.70457" lon="1.76358">
        <ele>175</ele>
        <time>2014-10-19T15:16:44.000Z</time>
      </trkpt>
      <trkpt lat="48.70456" lon="1.76357">
        <ele>175</ele>
        <time>2014-10-19T15:16:47.000Z</time>
      </trkpt>
      <trkpt lat="48.70454" lon="1.76346">
        <ele>174.60000610352</ele>
        <time>2014-10-19T15:16:57.000Z</time>
      </trkpt>
      <trkpt lat="48.70449" lon="1.76331">
        <ele>174</ele>
        <time>2014-10-19T15:17:03.000Z</time>
      </trkpt>
      <trkpt lat="48.70449" lon="1.7632">
        <ele>173.60000610352</ele>
        <time>2014-10-19T15:17:08.000Z</time>
      </trkpt>
      <trkpt lat="48.70448" lon="1.7631">
        <ele>173.60000610352</ele>
        <time>2014-10-19T15:17:13.000Z</time>
      </trkpt>
      <trkpt lat="48.70448" lon="1.763">
        <ele>173.60000610352</ele>
        <time>2014-10-19T15:17:18.000Z</time>
      </trkpt>
      <trkpt lat="48.70449" lon="1.76297">
        <ele>173.60000610352</ele>
        <time>2014-10-19T15:17:20.000Z</time>
      </trkpt>
      <trkpt lat="48.70452" lon="1.76284">
        <ele>173.39999389648</ele>
        <time>2014-10-19T15:17:26.000Z</time>
      </trkpt>
      <trkpt lat="48.70455" lon="1.7627">
        <ele>173.39999389648</ele>
        <time>2014-10-19T15:17:32.000Z</time>
      </trkpt>
      <trkpt lat="48.70455" lon="1.76269">
        <ele>173.39999389648</ele>
        <time>2014-10-19T15:17:33.000Z</time>
      </trkpt>
      <trkpt lat="48.70459" lon="1.76261">
        <ele>173.19999694824</ele>
        <time>2014-10-19T15:17:37.000Z</time>
      </trkpt>
      <trkpt lat="48.70462" lon="1.76248">
        <ele>172.80000305176</ele>
        <time>2014-10-19T15:17:43.000Z</time>
      </trkpt>
      <trkpt lat="48.70463" lon="1.7624">
        <ele>172.39999389648</ele>
        <time>2014-10-19T15:17:47.000Z</time>
      </trkpt>
      <trkpt lat="48.70463" lon="1.76238">
        <ele>172.39999389648</ele>
        <time>2014-10-19T15:17:49.000Z</time>
      </trkpt>
      <trkpt lat="48.70461" lon="1.76224">
        <ele>172.80000305176</ele>
        <time>2014-10-19T15:17:55.000Z</time>
      </trkpt>
      <trkpt lat="48.7046" lon="1.7622">
        <ele>173</ele>
        <time>2014-10-19T15:17:57.000Z</time>
      </trkpt>
      <trkpt lat="48.7046" lon="1.76216">
        <ele>173.19999694824</ele>
        <time>2014-10-19T15:17:59.000Z</time>
      </trkpt>
      <trkpt lat="48.70459" lon="1.76204">
        <ele>173.39999389648</ele>
        <time>2014-10-19T15:18:03.000Z</time>
      </trkpt>
      <trkpt lat="48.70456" lon="1.76193">
        <ele>174</ele>
        <time>2014-10-19T15:18:08.000Z</time>
      </trkpt>
      <trkpt lat="48.70454" lon="1.76182">
        <ele>174.19999694824</ele>
        <time>2014-10-19T15:18:12.000Z</time>
      </trkpt>
      <trkpt lat="48.70453" lon="1.76171">
        <ele>174.60000610352</ele>
        <time>2014-10-19T15:18:17.000Z</time>
      </trkpt>
      <trkpt lat="48.70455" lon="1.76153">
        <ele>175.19999694824</ele>
        <time>2014-10-19T15:18:24.000Z</time>
      </trkpt>
      <trkpt lat="48.70455" lon="1.76151">
        <ele>175.19999694824</ele>
        <time>2014-10-19T15:18:25.000Z</time>
      </trkpt>
      <trkpt lat="48.70454" lon="1.76147">
        <ele>175.19999694824</ele>
        <time>2014-10-19T15:18:27.000Z</time>
      </trkpt>
      <trkpt lat="48.70454" lon="1.7614">
        <ele>175.39999389648</ele>
        <time>2014-10-19T15:18:30.000Z</time>
      </trkpt>
      <trkpt lat="48.70455" lon="1.76129">
        <ele>175.39999389648</ele>
        <time>2014-10-19T15:18:36.000Z</time>
      </trkpt>
      <trkpt lat="48.7046" lon="1.76115">
        <ele>175.39999389648</ele>
        <time>2014-10-19T15:18:42.000Z</time>
      </trkpt>
      <trkpt lat="48.70461" lon="1.76114">
        <ele>175.39999389648</ele>
        <time>2014-10-19T15:18:43.000Z</time>
      </trkpt>
      <trkpt lat="48.70464" lon="1.76102">
        <ele>175.39999389648</ele>
        <time>2014-10-19T15:18:49.000Z</time>
      </trkpt>
      <trkpt lat="48.70465" lon="1.76092">
        <ele>175.39999389648</ele>
        <time>2014-10-19T15:18:53.000Z</time>
      </trkpt>
      <trkpt lat="48.70468" lon="1.76078">
        <ele>175.39999389648</ele>
        <time>2014-10-19T15:19:00.000Z</time>
      </trkpt>
      <trkpt lat="48.70472" lon="1.76064">
        <ele>175.60000610352</ele>
        <time>2014-10-19T15:19:06.000Z</time>
      </trkpt>
      <trkpt lat="48.70473" lon="1.76051">
        <ele>176.19999694824</ele>
        <time>2014-10-19T15:19:12.000Z</time>
      </trkpt>
      <trkpt lat="48.70475" lon="1.76044">
        <ele>176.39999389648</ele>
        <time>2014-10-19T15:19:15.000Z</time>
      </trkpt>
      <trkpt lat="48.70477" lon="1.76041">
        <ele>176.60000610352</ele>
        <time>2014-10-19T15:19:17.000Z</time>
      </trkpt>
      <trkpt lat="48.70477" lon="1.76034">
        <ele>176.80000305176</ele>
        <time>2014-10-19T15:19:21.000Z</time>
      </trkpt>
      <trkpt lat="48.70481" lon="1.76023">
        <ele>177.19999694824</ele>
        <time>2014-10-19T15:19:27.000Z</time>
      </trkpt>
      <trkpt lat="48.70484" lon="1.7601">
        <ele>178</ele>
        <time>2014-10-19T15:19:33.000Z</time>
      </trkpt>
      <trkpt lat="48.70489" lon="1.75998">
        <ele>178.60000610352</ele>
        <time>2014-10-19T15:19:40.000Z</time>
      </trkpt>
      <trkpt lat="48.70491" lon="1.75988">
        <ele>179</ele>
        <time>2014-10-19T15:19:45.000Z</time>
      </trkpt>
      <trkpt lat="48.70496" lon="1.75973">
        <ele>179</ele>
        <time>2014-10-19T15:19:53.000Z</time>
      </trkpt>
      <trkpt lat="48.70499" lon="1.7597">
        <ele>179</ele>
        <time>2014-10-19T15:19:55.000Z</time>
      </trkpt>
      <trkpt lat="48.70504" lon="1.75959">
        <ele>179.39999389648</ele>
        <time>2014-10-19T15:20:02.000Z</time>
      </trkpt>
      <trkpt lat="48.70512" lon="1.75949">
        <ele>179.80000305176</ele>
        <time>2014-10-19T15:20:08.000Z</time>
      </trkpt>
      <trkpt lat="48.70515" lon="1.75943">
        <ele>180.19999694824</ele>
        <time>2014-10-19T15:20:12.000Z</time>
      </trkpt>
      <trkpt lat="48.70522" lon="1.7593">
        <ele>180.60000610352</ele>
        <time>2014-10-19T15:20:19.000Z</time>
      </trkpt>
      <trkpt lat="48.70524" lon="1.75927">
        <ele>180.60000610352</ele>
        <time>2014-10-19T15:20:21.000Z</time>
      </trkpt>
      <trkpt lat="48.70525" lon="1.75925">
        <ele>180.80000305176</ele>
        <time>2014-10-19T15:20:23.000Z</time>
      </trkpt>
      <trkpt lat="48.70533" lon="1.75916">
        <ele>180.60000610352</ele>
        <time>2014-10-19T15:20:29.000Z</time>
      </trkpt>
      <trkpt lat="48.70538" lon="1.75906">
        <ele>180.60000610352</ele>
        <time>2014-10-19T15:20:34.000Z</time>
      </trkpt>
      <trkpt lat="48.70541" lon="1.75898">
        <ele>180.60000610352</ele>
        <time>2014-10-19T15:20:39.000Z</time>
      </trkpt>
      <trkpt lat="48.70544" lon="1.75888">
        <ele>180.60000610352</ele>
        <time>2014-10-19T15:20:45.000Z</time>
      </trkpt>
      <trkpt lat="48.70548" lon="1.75876">
        <ele>180.60000610352</ele>
        <time>2014-10-19T15:20:51.000Z</time>
      </trkpt>
      <trkpt lat="48.70553" lon="1.75868">
        <ele>180.39999389648</ele>
        <time>2014-10-19T15:20:56.000Z</time>
      </trkpt>
      <trkpt lat="48.70558" lon="1.75859">
        <ele>180.39999389648</ele>
        <time>2014-10-19T15:21:02.000Z</time>
      </trkpt>
      <trkpt lat="48.7056" lon="1.75856">
        <ele>180</ele>
        <time>2014-10-19T15:21:04.000Z</time>
      </trkpt>
      <trkpt lat="48.70562" lon="1.75852">
        <ele>179.80000305176</ele>
        <time>2014-10-19T15:21:06.000Z</time>
      </trkpt>
      <trkpt lat="48.70566" lon="1.75842">
        <ele>179.39999389648</ele>
        <time>2014-10-19T15:21:12.000Z</time>
      </trkpt>
      <trkpt lat="48.7057" lon="1.75834">
        <ele>178.80000305176</ele>
        <time>2014-10-19T15:21:17.000Z</time>
      </trkpt>
      <trkpt lat="48.70573" lon="1.75823">
        <ele>178.39999389648</ele>
        <time>2014-10-19T15:21:22.000Z</time>
      </trkpt>
      <trkpt lat="48.70575" lon="1.75813">
        <ele>178.19999694824</ele>
        <time>2014-10-19T15:21:27.000Z</time>
      </trkpt>
      <trkpt lat="48.70578" lon="1.75807">
        <ele>178</ele>
        <time>2014-10-19T15:21:30.000Z</time>
      </trkpt>
      <trkpt lat="48.70581" lon="1.758">
        <ele>177.60000610352</ele>
        <time>2014-10-19T15:21:35.000Z</time>
      </trkpt>
      <trkpt lat="48.70588" lon="1.75793">
        <ele>177.39999389648</ele>
        <time>2014-10-19T15:21:40.000Z</time>
      </trkpt>
      <trkpt lat="48.70595" lon="1.7578">
        <ele>177.60000610352</ele>
        <time>2014-10-19T15:21:47.000Z</time>
      </trkpt>
      <trkpt lat="48.70599" lon="1.75775">
        <ele>177.60000610352</ele>
        <time>2014-10-19T15:21:52.000Z</time>
      </trkpt>
      <trkpt lat="48.70604" lon="1.75766">
        <ele>177.60000610352</ele>
        <time>2014-10-19T15:21:58.000Z</time>
      </trkpt>
      <trkpt lat="48.70609" lon="1.75758">
        <ele>177.80000305176</ele>
        <time>2014-10-19T15:22:04.000Z</time>
      </trkpt>
      <trkpt lat="48.70615" lon="1.75747">
        <ele>178</ele>
        <time>2014-10-19T15:22:10.000Z</time>
      </trkpt>
      <trkpt lat="48.70617" lon="1.75744">
        <ele>178</ele>
        <time>2014-10-19T15:22:12.000Z</time>
      </trkpt>
      <trkpt lat="48.7062" lon="1.75733">
        <ele>178.39999389648</ele>
        <time>2014-10-19T15:22:18.000Z</time>
      </trkpt>
      <trkpt lat="48.70621" lon="1.75731">
        <ele>178.39999389648</ele>
        <time>2014-10-19T15:22:20.000Z</time>
      </trkpt>
      <trkpt lat="48.70629" lon="1.75718">
        <ele>178.80000305176</ele>
        <time>2014-10-19T15:22:27.000Z</time>
      </trkpt>
      <trkpt lat="48.70632" lon="1.75713">
        <ele>179</ele>
        <time>2014-10-19T15:22:32.000Z</time>
      </trkpt>
      <trkpt lat="48.70633" lon="1.75713">
        <ele>179</ele>
        <time>2014-10-19T15:22:33.000Z</time>
      </trkpt>
      <trkpt lat="48.70636" lon="1.7571">
        <ele>179</ele>
        <time>2014-10-19T15:22:38.000Z</time>
      </trkpt>
      <trkpt lat="48.70636" lon="1.7571">
        <ele>179</ele>
        <time>2014-10-19T15:22:39.000Z</time>
      </trkpt>
      <trkpt lat="48.70648" lon="1.75659">
        <ele>179.60000610352</ele>
        <time>2014-10-19T15:29:34.000Z</time>
      </trkpt>
      <trkpt lat="48.70643" lon="1.75645">
        <ele>180</ele>
        <time>2014-10-19T15:29:40.000Z</time>
      </trkpt>
      <trkpt lat="48.70643" lon="1.75631">
        <ele>179.80000305176</ele>
        <time>2014-10-19T15:29:45.000Z</time>
      </trkpt>
      <trkpt lat="48.70645" lon="1.75614">
        <ele>179</ele>
        <time>2014-10-19T15:29:49.000Z</time>
      </trkpt>
      <trkpt lat="48.70652" lon="1.75599">
        <ele>178.39999389648</ele>
        <time>2014-10-19T15:29:55.000Z</time>
      </trkpt>
      <trkpt lat="48.70652" lon="1.75597">
        <ele>178.39999389648</ele>
        <time>2014-10-19T15:29:56.000Z</time>
      </trkpt>
      <trkpt lat="48.7066" lon="1.75586">
        <ele>177.60000610352</ele>
        <time>2014-10-19T15:30:03.000Z</time>
      </trkpt>
      <trkpt lat="48.70667" lon="1.75575">
        <ele>177</ele>
        <time>2014-10-19T15:30:10.000Z</time>
      </trkpt>
      <trkpt lat="48.70673" lon="1.75566">
        <ele>175.80000305176</ele>
        <time>2014-10-19T15:30:16.000Z</time>
      </trkpt>
      <trkpt lat="48.7068" lon="1.75553">
        <ele>174.60000610352</ele>
        <time>2014-10-19T15:30:24.000Z</time>
      </trkpt>
      <trkpt lat="48.70685" lon="1.7554">
        <ele>174.19999694824</ele>
        <time>2014-10-19T15:30:31.000Z</time>
      </trkpt>
      <trkpt lat="48.70686" lon="1.75537">
        <ele>174.19999694824</ele>
        <time>2014-10-19T15:30:33.000Z</time>
      </trkpt>
      <trkpt lat="48.7069" lon="1.75526">
        <ele>173.80000305176</ele>
        <time>2014-10-19T15:30:39.000Z</time>
      </trkpt>
      <trkpt lat="48.70697" lon="1.75512">
        <ele>173</ele>
        <time>2014-10-19T15:30:47.000Z</time>
      </trkpt>
      <trkpt lat="48.70701" lon="1.75497">
        <ele>172.60000610352</ele>
        <time>2014-10-19T15:30:55.000Z</time>
      </trkpt>
      <trkpt lat="48.70702" lon="1.75495">
        <ele>172.60000610352</ele>
        <time>2014-10-19T15:30:56.000Z</time>
      </trkpt>
      <trkpt lat="48.70704" lon="1.75483">
        <ele>172.39999389648</ele>
        <time>2014-10-19T15:31:03.000Z</time>
      </trkpt>
      <trkpt lat="48.70704" lon="1.75483">
        <ele>172.39999389648</ele>
        <time>2014-10-19T15:31:05.000Z</time>
      </trkpt>
      <trkpt lat="48.70707" lon="1.75474">
        <ele>172.19999694824</ele>
        <time>2014-10-19T15:31:31.000Z</time>
      </trkpt>
      <trkpt lat="48.70711" lon="1.75465">
        <ele>171.80000305176</ele>
        <time>2014-10-19T15:31:35.000Z</time>
      </trkpt>
      <trkpt lat="48.70714" lon="1.75455">
        <ele>171.60000610352</ele>
        <time>2014-10-19T15:31:41.000Z</time>
      </trkpt>
      <trkpt lat="48.70716" lon="1.75452">
        <ele>171.39999389648</ele>
        <time>2014-10-19T15:31:45.000Z</time>
      </trkpt>
      <trkpt lat="48.70716" lon="1.75452">
        <ele>171.39999389648</ele>
        <time>2014-10-19T15:31:48.000Z</time>
      </trkpt>
      <trkpt lat="48.70706" lon="1.75452">
        <ele>171.60000610352</ele>
        <time>2014-10-19T15:34:16.000Z</time>
      </trkpt>
      <trkpt lat="48.70699" lon="1.75451">
        <ele>171.80000305176</ele>
        <time>2014-10-19T15:34:20.000Z</time>
      </trkpt>
      <trkpt lat="48.70689" lon="1.75447">
        <ele>172</ele>
        <time>2014-10-19T15:34:27.000Z</time>
      </trkpt>
      <trkpt lat="48.70681" lon="1.75443">
        <ele>172</ele>
        <time>2014-10-19T15:34:33.000Z</time>
      </trkpt>
      <trkpt lat="48.70677" lon="1.75442">
        <ele>172</ele>
        <time>2014-10-19T15:34:36.000Z</time>
      </trkpt>
    </trkseg>
  </trk>
</gpx>